<?xml version="1.0" encoding="UTF-8" standalone="no" ?>
<gpx xmlns="http://www.topografix.com/GPX/1/1" xmlns:xsi="http://www.w3.org/2001/XMLSchema-instance" xsi:schemaLocation="http://www.topografix.com/GPX/1/1 http://www.topografix.com/GPX/1/1/gpx.xsd" version="1.1" creator="VisuGPX - https://www.visugpx.com">
  <metadata>
    <name>Gentelles 29 pax</name>
  </metadata>
  <trk>
    <name><![CDATA[Gentelles 29 pax_1]]></name>
    <trkseg>
      <trkpt lat="49.84453" lon="2.45706">
        <ele>106</ele>
        <time>2024-07-10T12:00:08Z</time>
      </trkpt>
      <trkpt lat="49.84451" lon="2.45708">
        <ele>106</ele>
        <time>2024-07-10T12:00:10Z</time>
      </trkpt>
      <trkpt lat="49.84452" lon="2.45708">
        <ele>106</ele>
        <time>2024-07-10T12:00:11Z</time>
      </trkpt>
      <trkpt lat="49.84452" lon="2.45708">
        <ele>106</ele>
        <time>2024-07-10T12:00:12Z</time>
      </trkpt>
      <trkpt lat="49.84452" lon="2.45708">
        <ele>106</ele>
        <time>2024-07-10T12:00:13Z</time>
      </trkpt>
      <trkpt lat="49.84452" lon="2.45708">
        <ele>106</ele>
        <time>2024-07-10T12:00:14Z</time>
      </trkpt>
      <trkpt lat="49.84452" lon="2.45708">
        <ele>106</ele>
        <time>2024-07-10T12:00:15Z</time>
      </trkpt>
      <trkpt lat="49.84452" lon="2.45708">
        <ele>106</ele>
        <time>2024-07-10T12:00:16Z</time>
      </trkpt>
      <trkpt lat="49.84452" lon="2.45708">
        <ele>106</ele>
        <time>2024-07-10T12:00:17Z</time>
      </trkpt>
      <trkpt lat="49.84452" lon="2.45708">
        <ele>106</ele>
        <time>2024-07-10T12:00:18Z</time>
      </trkpt>
      <trkpt lat="49.84452" lon="2.45708">
        <ele>106</ele>
        <time>2024-07-10T12:00:19Z</time>
      </trkpt>
      <trkpt lat="49.84452" lon="2.45708">
        <ele>106</ele>
        <time>2024-07-10T12:00:20Z</time>
      </trkpt>
      <trkpt lat="49.84452" lon="2.45708">
        <ele>106</ele>
        <time>2024-07-10T12:00:21Z</time>
      </trkpt>
      <trkpt lat="49.84452" lon="2.45708">
        <ele>106</ele>
        <time>2024-07-10T12:00:22Z</time>
      </trkpt>
      <trkpt lat="49.84452" lon="2.45708">
        <ele>106</ele>
        <time>2024-07-10T12:00:23Z</time>
      </trkpt>
      <trkpt lat="49.84452" lon="2.45708">
        <ele>106</ele>
        <time>2024-07-10T12:00:24Z</time>
      </trkpt>
      <trkpt lat="49.84452" lon="2.45708">
        <ele>106</ele>
        <time>2024-07-10T12:00:25Z</time>
      </trkpt>
      <trkpt lat="49.84452" lon="2.45708">
        <ele>106</ele>
        <time>2024-07-10T12:00:26Z</time>
      </trkpt>
      <trkpt lat="49.84452" lon="2.45708">
        <ele>106</ele>
        <time>2024-07-10T12:00:27Z</time>
      </trkpt>
      <trkpt lat="49.84452" lon="2.45708">
        <ele>106</ele>
        <time>2024-07-10T12:00:28Z</time>
      </trkpt>
      <trkpt lat="49.84452" lon="2.45708">
        <ele>106</ele>
        <time>2024-07-10T12:00:29Z</time>
      </trkpt>
      <trkpt lat="49.84452" lon="2.45708">
        <ele>106</ele>
        <time>2024-07-10T12:00:30Z</time>
      </trkpt>
      <trkpt lat="49.84452" lon="2.45708">
        <ele>106</ele>
        <time>2024-07-10T12:00:31Z</time>
      </trkpt>
      <trkpt lat="49.84452" lon="2.45708">
        <ele>106</ele>
        <time>2024-07-10T12:00:32Z</time>
      </trkpt>
      <trkpt lat="49.84452" lon="2.45708">
        <ele>106</ele>
        <time>2024-07-10T12:00:33Z</time>
      </trkpt>
      <trkpt lat="49.84452" lon="2.45708">
        <ele>106</ele>
        <time>2024-07-10T12:00:34Z</time>
      </trkpt>
      <trkpt lat="49.84452" lon="2.45708">
        <ele>106</ele>
        <time>2024-07-10T12:00:35Z</time>
      </trkpt>
      <trkpt lat="49.84452" lon="2.45708">
        <ele>106</ele>
        <time>2024-07-10T12:00:36Z</time>
      </trkpt>
      <trkpt lat="49.84452" lon="2.45708">
        <ele>106</ele>
        <time>2024-07-10T12:00:37Z</time>
      </trkpt>
      <trkpt lat="49.84452" lon="2.45708">
        <ele>106</ele>
        <time>2024-07-10T12:00:38Z</time>
      </trkpt>
      <trkpt lat="49.84452" lon="2.45708">
        <ele>106</ele>
        <time>2024-07-10T12:00:39Z</time>
      </trkpt>
      <trkpt lat="49.84452" lon="2.45708">
        <ele>106</ele>
        <time>2024-07-10T12:00:40Z</time>
      </trkpt>
      <trkpt lat="49.84452" lon="2.45708">
        <ele>106</ele>
        <time>2024-07-10T12:00:41Z</time>
      </trkpt>
      <trkpt lat="49.84452" lon="2.45708">
        <ele>106</ele>
        <time>2024-07-10T12:00:42Z</time>
      </trkpt>
      <trkpt lat="49.84452" lon="2.45708">
        <ele>106</ele>
        <time>2024-07-10T12:00:43Z</time>
      </trkpt>
      <trkpt lat="49.84452" lon="2.45708">
        <ele>106</ele>
        <time>2024-07-10T12:00:44Z</time>
      </trkpt>
      <trkpt lat="49.84452" lon="2.45708">
        <ele>106</ele>
        <time>2024-07-10T12:00:45Z</time>
      </trkpt>
      <trkpt lat="49.84452" lon="2.45708">
        <ele>106</ele>
        <time>2024-07-10T12:00:46Z</time>
      </trkpt>
      <trkpt lat="49.84452" lon="2.45708">
        <ele>106</ele>
        <time>2024-07-10T12:00:47Z</time>
      </trkpt>
      <trkpt lat="49.84452" lon="2.45708">
        <ele>106</ele>
        <time>2024-07-10T12:00:48Z</time>
      </trkpt>
      <trkpt lat="49.84452" lon="2.45708">
        <ele>106</ele>
        <time>2024-07-10T12:00:49Z</time>
      </trkpt>
      <trkpt lat="49.84452" lon="2.45708">
        <ele>106</ele>
        <time>2024-07-10T12:00:50Z</time>
      </trkpt>
      <trkpt lat="49.84452" lon="2.45708">
        <ele>106</ele>
        <time>2024-07-10T12:00:51Z</time>
      </trkpt>
      <trkpt lat="49.84452" lon="2.45708">
        <ele>106</ele>
        <time>2024-07-10T12:00:52Z</time>
      </trkpt>
      <trkpt lat="49.84452" lon="2.45708">
        <ele>106</ele>
        <time>2024-07-10T12:00:53Z</time>
      </trkpt>
      <trkpt lat="49.84451" lon="2.45707">
        <ele>106</ele>
        <time>2024-07-10T12:00:54Z</time>
      </trkpt>
      <trkpt lat="49.84451" lon="2.45707">
        <ele>106</ele>
        <time>2024-07-10T12:00:55Z</time>
      </trkpt>
      <trkpt lat="49.84451" lon="2.45707">
        <ele>106</ele>
        <time>2024-07-10T12:00:56Z</time>
      </trkpt>
      <trkpt lat="49.8445" lon="2.45707">
        <ele>106</ele>
        <time>2024-07-10T12:00:57Z</time>
      </trkpt>
      <trkpt lat="49.8445" lon="2.45707">
        <ele>106</ele>
        <time>2024-07-10T12:00:58Z</time>
      </trkpt>
      <trkpt lat="49.8445" lon="2.45707">
        <ele>106</ele>
        <time>2024-07-10T12:00:59Z</time>
      </trkpt>
      <trkpt lat="49.8445" lon="2.45707">
        <ele>106</ele>
        <time>2024-07-10T12:01:00Z</time>
      </trkpt>
      <trkpt lat="49.8445" lon="2.45707">
        <ele>106</ele>
        <time>2024-07-10T12:01:01Z</time>
      </trkpt>
      <trkpt lat="49.84451" lon="2.45707">
        <ele>106</ele>
        <time>2024-07-10T12:01:02Z</time>
      </trkpt>
      <trkpt lat="49.84451" lon="2.45707">
        <ele>106</ele>
        <time>2024-07-10T12:01:03Z</time>
      </trkpt>
      <trkpt lat="49.84452" lon="2.45708">
        <ele>106</ele>
        <time>2024-07-10T12:01:04Z</time>
      </trkpt>
      <trkpt lat="49.84453" lon="2.45708">
        <ele>106</ele>
        <time>2024-07-10T12:01:05Z</time>
      </trkpt>
      <trkpt lat="49.84453" lon="2.4571">
        <ele>106</ele>
        <time>2024-07-10T12:01:06Z</time>
      </trkpt>
      <trkpt lat="49.84452" lon="2.45712">
        <ele>106</ele>
        <time>2024-07-10T12:01:07Z</time>
      </trkpt>
      <trkpt lat="49.84453" lon="2.45714">
        <ele>106</ele>
        <time>2024-07-10T12:01:08Z</time>
      </trkpt>
      <trkpt lat="49.84454" lon="2.45716">
        <ele>106</ele>
        <time>2024-07-10T12:01:09Z</time>
      </trkpt>
      <trkpt lat="49.84455" lon="2.45719">
        <ele>106</ele>
        <time>2024-07-10T12:01:10Z</time>
      </trkpt>
      <trkpt lat="49.84455" lon="2.4572">
        <ele>106</ele>
        <time>2024-07-10T12:01:11Z</time>
      </trkpt>
      <trkpt lat="49.84455" lon="2.45721">
        <ele>106</ele>
        <time>2024-07-10T12:01:12Z</time>
      </trkpt>
      <trkpt lat="49.84455" lon="2.45723">
        <ele>106</ele>
        <time>2024-07-10T12:01:13Z</time>
      </trkpt>
      <trkpt lat="49.84456" lon="2.45725">
        <ele>106</ele>
        <time>2024-07-10T12:01:14Z</time>
      </trkpt>
      <trkpt lat="49.84456" lon="2.45726">
        <ele>106</ele>
        <time>2024-07-10T12:01:15Z</time>
      </trkpt>
      <trkpt lat="49.84456" lon="2.45729">
        <ele>105.9</ele>
        <time>2024-07-10T12:01:16Z</time>
      </trkpt>
      <trkpt lat="49.84456" lon="2.45731">
        <ele>105.9</ele>
        <time>2024-07-10T12:01:17Z</time>
      </trkpt>
      <trkpt lat="49.84456" lon="2.45732">
        <ele>105.9</ele>
        <time>2024-07-10T12:01:18Z</time>
      </trkpt>
      <trkpt lat="49.84456" lon="2.45734">
        <ele>105.9</ele>
        <time>2024-07-10T12:01:19Z</time>
      </trkpt>
      <trkpt lat="49.84456" lon="2.45737">
        <ele>105.9</ele>
        <time>2024-07-10T12:01:20Z</time>
      </trkpt>
      <trkpt lat="49.84456" lon="2.45739">
        <ele>105.8</ele>
        <time>2024-07-10T12:01:21Z</time>
      </trkpt>
      <trkpt lat="49.84456" lon="2.45741">
        <ele>105.8</ele>
        <time>2024-07-10T12:01:22Z</time>
      </trkpt>
      <trkpt lat="49.84456" lon="2.45742">
        <ele>105.8</ele>
        <time>2024-07-10T12:01:23Z</time>
      </trkpt>
      <trkpt lat="49.84455" lon="2.45744">
        <ele>105.7</ele>
        <time>2024-07-10T12:01:24Z</time>
      </trkpt>
      <trkpt lat="49.84455" lon="2.45745">
        <ele>105.7</ele>
        <time>2024-07-10T12:01:25Z</time>
      </trkpt>
      <trkpt lat="49.84454" lon="2.45746">
        <ele>105.7</ele>
        <time>2024-07-10T12:01:26Z</time>
      </trkpt>
      <trkpt lat="49.84454" lon="2.45748">
        <ele>105.7</ele>
        <time>2024-07-10T12:01:27Z</time>
      </trkpt>
      <trkpt lat="49.84454" lon="2.4575">
        <ele>105.6</ele>
        <time>2024-07-10T12:01:28Z</time>
      </trkpt>
      <trkpt lat="49.84454" lon="2.45751">
        <ele>105.6</ele>
        <time>2024-07-10T12:01:29Z</time>
      </trkpt>
      <trkpt lat="49.84454" lon="2.45753">
        <ele>105.6</ele>
        <time>2024-07-10T12:01:30Z</time>
      </trkpt>
      <trkpt lat="49.84454" lon="2.45754">
        <ele>105.6</ele>
        <time>2024-07-10T12:01:31Z</time>
      </trkpt>
      <trkpt lat="49.84454" lon="2.45756">
        <ele>105.5</ele>
        <time>2024-07-10T12:01:32Z</time>
      </trkpt>
      <trkpt lat="49.84455" lon="2.45758">
        <ele>105.5</ele>
        <time>2024-07-10T12:01:33Z</time>
      </trkpt>
      <trkpt lat="49.84456" lon="2.45759">
        <ele>105.5</ele>
        <time>2024-07-10T12:01:34Z</time>
      </trkpt>
      <trkpt lat="49.84456" lon="2.45761">
        <ele>105.4</ele>
        <time>2024-07-10T12:01:35Z</time>
      </trkpt>
      <trkpt lat="49.84456" lon="2.45762">
        <ele>105.4</ele>
        <time>2024-07-10T12:01:36Z</time>
      </trkpt>
      <trkpt lat="49.84457" lon="2.45763">
        <ele>105.4</ele>
        <time>2024-07-10T12:01:37Z</time>
      </trkpt>
      <trkpt lat="49.84458" lon="2.45765">
        <ele>105.4</ele>
        <time>2024-07-10T12:01:38Z</time>
      </trkpt>
      <trkpt lat="49.84458" lon="2.45768">
        <ele>105.3</ele>
        <time>2024-07-10T12:01:39Z</time>
      </trkpt>
      <trkpt lat="49.84459" lon="2.4577">
        <ele>105.3</ele>
        <time>2024-07-10T12:01:40Z</time>
      </trkpt>
      <trkpt lat="49.84459" lon="2.45772">
        <ele>105.2</ele>
        <time>2024-07-10T12:01:41Z</time>
      </trkpt>
      <trkpt lat="49.84459" lon="2.45774">
        <ele>105.2</ele>
        <time>2024-07-10T12:01:42Z</time>
      </trkpt>
      <trkpt lat="49.84459" lon="2.45775">
        <ele>105.2</ele>
        <time>2024-07-10T12:01:43Z</time>
      </trkpt>
      <trkpt lat="49.8446" lon="2.45779">
        <ele>105.1</ele>
        <time>2024-07-10T12:01:44Z</time>
      </trkpt>
      <trkpt lat="49.8446" lon="2.4578">
        <ele>105.1</ele>
        <time>2024-07-10T12:01:45Z</time>
      </trkpt>
      <trkpt lat="49.8446" lon="2.45781">
        <ele>105.1</ele>
        <time>2024-07-10T12:01:46Z</time>
      </trkpt>
      <trkpt lat="49.84461" lon="2.45784">
        <ele>105.1</ele>
        <time>2024-07-10T12:01:47Z</time>
      </trkpt>
      <trkpt lat="49.84461" lon="2.45786">
        <ele>105</ele>
        <time>2024-07-10T12:01:48Z</time>
      </trkpt>
      <trkpt lat="49.84461" lon="2.45789">
        <ele>105</ele>
        <time>2024-07-10T12:01:49Z</time>
      </trkpt>
      <trkpt lat="49.84461" lon="2.4579">
        <ele>104.9</ele>
        <time>2024-07-10T12:01:50Z</time>
      </trkpt>
      <trkpt lat="49.84461" lon="2.45792">
        <ele>104.9</ele>
        <time>2024-07-10T12:01:51Z</time>
      </trkpt>
      <trkpt lat="49.84462" lon="2.45794">
        <ele>104.9</ele>
        <time>2024-07-10T12:01:53Z</time>
      </trkpt>
      <trkpt lat="49.84342" lon="2.49322">
        <ele>98.7</ele>
        <time>2024-07-10T12:58:27Z</time>
      </trkpt>
      <trkpt lat="49.84326" lon="2.49294">
        <ele>98.7</ele>
        <time>2024-07-10T12:58:29Z</time>
      </trkpt>
      <trkpt lat="49.84323" lon="2.49291">
        <ele>98.7</ele>
        <time>2024-07-10T12:58:30Z</time>
      </trkpt>
      <trkpt lat="49.84322" lon="2.49289">
        <ele>98.7</ele>
        <time>2024-07-10T12:58:31Z</time>
      </trkpt>
      <trkpt lat="49.84322" lon="2.49288">
        <ele>98.7</ele>
        <time>2024-07-10T12:58:32Z</time>
      </trkpt>
      <trkpt lat="49.84321" lon="2.49287">
        <ele>98.7</ele>
        <time>2024-07-10T12:58:33Z</time>
      </trkpt>
      <trkpt lat="49.84321" lon="2.49287">
        <ele>98.7</ele>
        <time>2024-07-10T12:58:34Z</time>
      </trkpt>
      <trkpt lat="49.84321" lon="2.49287">
        <ele>98.7</ele>
        <time>2024-07-10T12:58:35Z</time>
      </trkpt>
      <trkpt lat="49.84321" lon="2.49287">
        <ele>98.7</ele>
        <time>2024-07-10T12:58:36Z</time>
      </trkpt>
      <trkpt lat="49.84321" lon="2.49287">
        <ele>98.7</ele>
        <time>2024-07-10T12:58:37Z</time>
      </trkpt>
      <trkpt lat="49.84321" lon="2.49287">
        <ele>98.7</ele>
        <time>2024-07-10T12:58:38Z</time>
      </trkpt>
      <trkpt lat="49.84321" lon="2.49287">
        <ele>98.7</ele>
        <time>2024-07-10T12:58:39Z</time>
      </trkpt>
      <trkpt lat="49.84321" lon="2.49288">
        <ele>98.7</ele>
        <time>2024-07-10T12:58:40Z</time>
      </trkpt>
      <trkpt lat="49.84321" lon="2.49288">
        <ele>98.7</ele>
        <time>2024-07-10T12:58:41Z</time>
      </trkpt>
      <trkpt lat="49.84321" lon="2.49288">
        <ele>98.7</ele>
        <time>2024-07-10T12:58:42Z</time>
      </trkpt>
      <trkpt lat="49.84321" lon="2.49288">
        <ele>98.7</ele>
        <time>2024-07-10T12:58:43Z</time>
      </trkpt>
      <trkpt lat="49.84321" lon="2.49288">
        <ele>98.7</ele>
        <time>2024-07-10T12:58:44Z</time>
      </trkpt>
      <trkpt lat="49.84321" lon="2.49288">
        <ele>98.7</ele>
        <time>2024-07-10T12:58:45Z</time>
      </trkpt>
      <trkpt lat="49.84321" lon="2.49288">
        <ele>98.7</ele>
        <time>2024-07-10T12:58:46Z</time>
      </trkpt>
      <trkpt lat="49.84321" lon="2.49288">
        <ele>98.7</ele>
        <time>2024-07-10T12:58:47Z</time>
      </trkpt>
      <trkpt lat="49.84321" lon="2.49288">
        <ele>98.7</ele>
        <time>2024-07-10T12:58:48Z</time>
      </trkpt>
      <trkpt lat="49.84321" lon="2.49288">
        <ele>98.7</ele>
        <time>2024-07-10T12:58:49Z</time>
      </trkpt>
      <trkpt lat="49.84321" lon="2.49288">
        <ele>98.7</ele>
        <time>2024-07-10T12:58:50Z</time>
      </trkpt>
      <trkpt lat="49.84321" lon="2.49288">
        <ele>98.7</ele>
        <time>2024-07-10T12:58:51Z</time>
      </trkpt>
      <trkpt lat="49.84321" lon="2.49288">
        <ele>98.7</ele>
        <time>2024-07-10T12:58:52Z</time>
      </trkpt>
      <trkpt lat="49.84321" lon="2.49288">
        <ele>98.7</ele>
        <time>2024-07-10T12:58:53Z</time>
      </trkpt>
      <trkpt lat="49.84321" lon="2.49288">
        <ele>98.7</ele>
        <time>2024-07-10T12:58:54Z</time>
      </trkpt>
      <trkpt lat="49.84321" lon="2.49288">
        <ele>98.7</ele>
        <time>2024-07-10T12:58:55Z</time>
      </trkpt>
      <trkpt lat="49.84321" lon="2.49288">
        <ele>98.7</ele>
        <time>2024-07-10T12:58:56Z</time>
      </trkpt>
      <trkpt lat="49.84321" lon="2.49288">
        <ele>98.7</ele>
        <time>2024-07-10T12:58:57Z</time>
      </trkpt>
      <trkpt lat="49.84321" lon="2.49288">
        <ele>98.7</ele>
        <time>2024-07-10T12:58:58Z</time>
      </trkpt>
      <trkpt lat="49.84321" lon="2.49289">
        <ele>98.7</ele>
        <time>2024-07-10T12:58:59Z</time>
      </trkpt>
      <trkpt lat="49.84321" lon="2.49289">
        <ele>98.7</ele>
        <time>2024-07-10T12:59:00Z</time>
      </trkpt>
      <trkpt lat="49.84321" lon="2.49289">
        <ele>98.7</ele>
        <time>2024-07-10T12:59:01Z</time>
      </trkpt>
      <trkpt lat="49.84321" lon="2.49289">
        <ele>98.7</ele>
        <time>2024-07-10T12:59:02Z</time>
      </trkpt>
      <trkpt lat="49.84321" lon="2.49289">
        <ele>98.7</ele>
        <time>2024-07-10T12:59:03Z</time>
      </trkpt>
      <trkpt lat="49.84321" lon="2.49289">
        <ele>98.7</ele>
        <time>2024-07-10T12:59:04Z</time>
      </trkpt>
      <trkpt lat="49.84321" lon="2.49289">
        <ele>98.7</ele>
        <time>2024-07-10T12:59:05Z</time>
      </trkpt>
      <trkpt lat="49.84321" lon="2.49289">
        <ele>98.7</ele>
        <time>2024-07-10T12:59:06Z</time>
      </trkpt>
      <trkpt lat="49.84321" lon="2.49289">
        <ele>98.7</ele>
        <time>2024-07-10T12:59:07Z</time>
      </trkpt>
      <trkpt lat="49.84321" lon="2.49289">
        <ele>98.7</ele>
        <time>2024-07-10T12:59:08Z</time>
      </trkpt>
      <trkpt lat="49.84321" lon="2.49289">
        <ele>98.7</ele>
        <time>2024-07-10T12:59:09Z</time>
      </trkpt>
      <trkpt lat="49.84321" lon="2.49289">
        <ele>98.7</ele>
        <time>2024-07-10T12:59:10Z</time>
      </trkpt>
      <trkpt lat="49.84321" lon="2.49289">
        <ele>98.7</ele>
        <time>2024-07-10T12:59:11Z</time>
      </trkpt>
      <trkpt lat="49.84321" lon="2.49289">
        <ele>98.7</ele>
        <time>2024-07-10T12:59:12Z</time>
      </trkpt>
      <trkpt lat="49.84321" lon="2.49289">
        <ele>98.7</ele>
        <time>2024-07-10T12:59:13Z</time>
      </trkpt>
      <trkpt lat="49.84321" lon="2.49289">
        <ele>98.7</ele>
        <time>2024-07-10T12:59:14Z</time>
      </trkpt>
      <trkpt lat="49.84321" lon="2.49289">
        <ele>98.7</ele>
        <time>2024-07-10T12:59:15Z</time>
      </trkpt>
      <trkpt lat="49.84321" lon="2.49289">
        <ele>98.7</ele>
        <time>2024-07-10T12:59:16Z</time>
      </trkpt>
      <trkpt lat="49.84321" lon="2.49289">
        <ele>98.7</ele>
        <time>2024-07-10T12:59:17Z</time>
      </trkpt>
      <trkpt lat="49.84321" lon="2.4929">
        <ele>98.7</ele>
        <time>2024-07-10T12:59:18Z</time>
      </trkpt>
      <trkpt lat="49.84321" lon="2.4929">
        <ele>98.7</ele>
        <time>2024-07-10T12:59:19Z</time>
      </trkpt>
      <trkpt lat="49.84321" lon="2.4929">
        <ele>98.7</ele>
        <time>2024-07-10T12:59:20Z</time>
      </trkpt>
      <trkpt lat="49.84321" lon="2.4929">
        <ele>98.7</ele>
        <time>2024-07-10T12:59:21Z</time>
      </trkpt>
      <trkpt lat="49.84321" lon="2.4929">
        <ele>98.7</ele>
        <time>2024-07-10T12:59:22Z</time>
      </trkpt>
      <trkpt lat="49.84321" lon="2.4929">
        <ele>98.7</ele>
        <time>2024-07-10T12:59:23Z</time>
      </trkpt>
      <trkpt lat="49.84321" lon="2.4929">
        <ele>98.7</ele>
        <time>2024-07-10T12:59:24Z</time>
      </trkpt>
      <trkpt lat="49.84321" lon="2.4929">
        <ele>98.7</ele>
        <time>2024-07-10T12:59:25Z</time>
      </trkpt>
      <trkpt lat="49.84321" lon="2.4929">
        <ele>98.7</ele>
        <time>2024-07-10T12:59:26Z</time>
      </trkpt>
      <trkpt lat="49.84321" lon="2.4929">
        <ele>98.7</ele>
        <time>2024-07-10T12:59:27Z</time>
      </trkpt>
      <trkpt lat="49.84321" lon="2.4929">
        <ele>98.7</ele>
        <time>2024-07-10T12:59:28Z</time>
      </trkpt>
      <trkpt lat="49.84321" lon="2.4929">
        <ele>98.7</ele>
        <time>2024-07-10T12:59:29Z</time>
      </trkpt>
      <trkpt lat="49.84321" lon="2.4929">
        <ele>98.7</ele>
        <time>2024-07-10T12:59:30Z</time>
      </trkpt>
      <trkpt lat="49.84321" lon="2.4929">
        <ele>98.7</ele>
        <time>2024-07-10T12:59:31Z</time>
      </trkpt>
      <trkpt lat="49.84321" lon="2.4929">
        <ele>98.7</ele>
        <time>2024-07-10T12:59:32Z</time>
      </trkpt>
      <trkpt lat="49.84321" lon="2.4929">
        <ele>98.7</ele>
        <time>2024-07-10T12:59:33Z</time>
      </trkpt>
      <trkpt lat="49.84321" lon="2.4929">
        <ele>98.7</ele>
        <time>2024-07-10T12:59:34Z</time>
      </trkpt>
      <trkpt lat="49.84321" lon="2.4929">
        <ele>98.7</ele>
        <time>2024-07-10T12:59:35Z</time>
      </trkpt>
      <trkpt lat="49.84321" lon="2.4929">
        <ele>98.7</ele>
        <time>2024-07-10T12:59:36Z</time>
      </trkpt>
      <trkpt lat="49.84321" lon="2.4929">
        <ele>98.7</ele>
        <time>2024-07-10T12:59:37Z</time>
      </trkpt>
      <trkpt lat="49.84321" lon="2.49291">
        <ele>98.7</ele>
        <time>2024-07-10T12:59:38Z</time>
      </trkpt>
      <trkpt lat="49.84321" lon="2.49291">
        <ele>98.7</ele>
        <time>2024-07-10T12:59:39Z</time>
      </trkpt>
      <trkpt lat="49.84321" lon="2.49291">
        <ele>98.7</ele>
        <time>2024-07-10T12:59:40Z</time>
      </trkpt>
      <trkpt lat="49.84321" lon="2.49291">
        <ele>98.7</ele>
        <time>2024-07-10T12:59:41Z</time>
      </trkpt>
      <trkpt lat="49.84321" lon="2.49291">
        <ele>98.7</ele>
        <time>2024-07-10T12:59:42Z</time>
      </trkpt>
      <trkpt lat="49.84321" lon="2.49291">
        <ele>98.7</ele>
        <time>2024-07-10T12:59:43Z</time>
      </trkpt>
      <trkpt lat="49.84321" lon="2.49291">
        <ele>98.7</ele>
        <time>2024-07-10T12:59:44Z</time>
      </trkpt>
      <trkpt lat="49.84321" lon="2.49291">
        <ele>98.7</ele>
        <time>2024-07-10T12:59:45Z</time>
      </trkpt>
      <trkpt lat="49.84321" lon="2.49291">
        <ele>98.7</ele>
        <time>2024-07-10T12:59:46Z</time>
      </trkpt>
      <trkpt lat="49.84321" lon="2.49291">
        <ele>98.7</ele>
        <time>2024-07-10T12:59:47Z</time>
      </trkpt>
      <trkpt lat="49.84321" lon="2.49291">
        <ele>98.7</ele>
        <time>2024-07-10T12:59:48Z</time>
      </trkpt>
      <trkpt lat="49.84321" lon="2.49291">
        <ele>98.7</ele>
        <time>2024-07-10T12:59:49Z</time>
      </trkpt>
      <trkpt lat="49.84321" lon="2.49291">
        <ele>98.7</ele>
        <time>2024-07-10T12:59:50Z</time>
      </trkpt>
      <trkpt lat="49.84321" lon="2.49291">
        <ele>98.7</ele>
        <time>2024-07-10T12:59:51Z</time>
      </trkpt>
      <trkpt lat="49.84321" lon="2.49291">
        <ele>98.7</ele>
        <time>2024-07-10T12:59:52Z</time>
      </trkpt>
      <trkpt lat="49.84321" lon="2.49291">
        <ele>98.7</ele>
        <time>2024-07-10T12:59:53Z</time>
      </trkpt>
      <trkpt lat="49.84321" lon="2.49291">
        <ele>98.7</ele>
        <time>2024-07-10T12:59:54Z</time>
      </trkpt>
      <trkpt lat="49.84321" lon="2.49291">
        <ele>98.7</ele>
        <time>2024-07-10T12:59:55Z</time>
      </trkpt>
      <trkpt lat="49.84321" lon="2.49291">
        <ele>98.7</ele>
        <time>2024-07-10T12:59:56Z</time>
      </trkpt>
      <trkpt lat="49.84321" lon="2.49292">
        <ele>98.7</ele>
        <time>2024-07-10T12:59:57Z</time>
      </trkpt>
      <trkpt lat="49.84321" lon="2.49292">
        <ele>98.7</ele>
        <time>2024-07-10T12:59:58Z</time>
      </trkpt>
      <trkpt lat="49.84321" lon="2.49292">
        <ele>98.7</ele>
        <time>2024-07-10T12:59:59Z</time>
      </trkpt>
      <trkpt lat="49.84321" lon="2.49292">
        <ele>98.7</ele>
        <time>2024-07-10T13:00:00Z</time>
      </trkpt>
      <trkpt lat="49.84321" lon="2.49292">
        <ele>98.7</ele>
        <time>2024-07-10T13:00:01Z</time>
      </trkpt>
      <trkpt lat="49.84321" lon="2.49292">
        <ele>98.7</ele>
        <time>2024-07-10T13:00:02Z</time>
      </trkpt>
      <trkpt lat="49.84321" lon="2.49292">
        <ele>98.7</ele>
        <time>2024-07-10T13:00:03Z</time>
      </trkpt>
      <trkpt lat="49.84321" lon="2.49292">
        <ele>98.7</ele>
        <time>2024-07-10T13:00:04Z</time>
      </trkpt>
      <trkpt lat="49.84321" lon="2.49292">
        <ele>98.7</ele>
        <time>2024-07-10T13:00:05Z</time>
      </trkpt>
      <trkpt lat="49.84321" lon="2.49292">
        <ele>98.7</ele>
        <time>2024-07-10T13:00:06Z</time>
      </trkpt>
      <trkpt lat="49.84321" lon="2.49292">
        <ele>98.7</ele>
        <time>2024-07-10T13:00:07Z</time>
      </trkpt>
      <trkpt lat="49.84321" lon="2.49292">
        <ele>98.7</ele>
        <time>2024-07-10T13:00:08Z</time>
      </trkpt>
      <trkpt lat="49.84321" lon="2.49292">
        <ele>98.7</ele>
        <time>2024-07-10T13:00:09Z</time>
      </trkpt>
      <trkpt lat="49.84321" lon="2.49292">
        <ele>98.7</ele>
        <time>2024-07-10T13:00:10Z</time>
      </trkpt>
      <trkpt lat="49.84321" lon="2.49292">
        <ele>98.7</ele>
        <time>2024-07-10T13:00:11Z</time>
      </trkpt>
      <trkpt lat="49.84321" lon="2.49292">
        <ele>98.7</ele>
        <time>2024-07-10T13:00:12Z</time>
      </trkpt>
      <trkpt lat="49.84321" lon="2.49292">
        <ele>98.7</ele>
        <time>2024-07-10T13:00:13Z</time>
      </trkpt>
      <trkpt lat="49.84321" lon="2.49292">
        <ele>98.7</ele>
        <time>2024-07-10T13:00:14Z</time>
      </trkpt>
      <trkpt lat="49.84321" lon="2.49292">
        <ele>98.7</ele>
        <time>2024-07-10T13:00:15Z</time>
      </trkpt>
      <trkpt lat="49.84321" lon="2.49293">
        <ele>98.7</ele>
        <time>2024-07-10T13:00:16Z</time>
      </trkpt>
      <trkpt lat="49.84321" lon="2.49293">
        <ele>98.7</ele>
        <time>2024-07-10T13:00:17Z</time>
      </trkpt>
      <trkpt lat="49.84321" lon="2.49293">
        <ele>98.7</ele>
        <time>2024-07-10T13:00:18Z</time>
      </trkpt>
      <trkpt lat="49.84321" lon="2.49293">
        <ele>98.7</ele>
        <time>2024-07-10T13:00:19Z</time>
      </trkpt>
      <trkpt lat="49.84321" lon="2.49293">
        <ele>98.7</ele>
        <time>2024-07-10T13:00:20Z</time>
      </trkpt>
      <trkpt lat="49.84321" lon="2.49293">
        <ele>98.7</ele>
        <time>2024-07-10T13:00:21Z</time>
      </trkpt>
      <trkpt lat="49.84321" lon="2.49293">
        <ele>98.7</ele>
        <time>2024-07-10T13:00:22Z</time>
      </trkpt>
      <trkpt lat="49.84321" lon="2.49293">
        <ele>98.7</ele>
        <time>2024-07-10T13:00:23Z</time>
      </trkpt>
      <trkpt lat="49.84321" lon="2.49293">
        <ele>98.7</ele>
        <time>2024-07-10T13:00:24Z</time>
      </trkpt>
      <trkpt lat="49.84321" lon="2.49293">
        <ele>98.7</ele>
        <time>2024-07-10T13:00:25Z</time>
      </trkpt>
      <trkpt lat="49.84321" lon="2.49293">
        <ele>98.7</ele>
        <time>2024-07-10T13:00:26Z</time>
      </trkpt>
      <trkpt lat="49.84321" lon="2.49293">
        <ele>98.7</ele>
        <time>2024-07-10T13:00:27Z</time>
      </trkpt>
      <trkpt lat="49.84321" lon="2.49293">
        <ele>98.7</ele>
        <time>2024-07-10T13:00:28Z</time>
      </trkpt>
      <trkpt lat="49.84321" lon="2.49293">
        <ele>98.7</ele>
        <time>2024-07-10T13:00:29Z</time>
      </trkpt>
      <trkpt lat="49.84321" lon="2.49293">
        <ele>98.7</ele>
        <time>2024-07-10T13:00:30Z</time>
      </trkpt>
      <trkpt lat="49.84321" lon="2.49293">
        <ele>98.7</ele>
        <time>2024-07-10T13:00:31Z</time>
      </trkpt>
      <trkpt lat="49.84321" lon="2.49293">
        <ele>98.7</ele>
        <time>2024-07-10T13:00:32Z</time>
      </trkpt>
      <trkpt lat="49.84321" lon="2.49293">
        <ele>98.7</ele>
        <time>2024-07-10T13:00:33Z</time>
      </trkpt>
      <trkpt lat="49.84321" lon="2.49293">
        <ele>98.7</ele>
        <time>2024-07-10T13:00:34Z</time>
      </trkpt>
      <trkpt lat="49.84321" lon="2.49294">
        <ele>98.7</ele>
        <time>2024-07-10T13:00:35Z</time>
      </trkpt>
      <trkpt lat="49.84321" lon="2.49294">
        <ele>98.7</ele>
        <time>2024-07-10T13:00:36Z</time>
      </trkpt>
      <trkpt lat="49.84321" lon="2.49294">
        <ele>98.7</ele>
        <time>2024-07-10T13:00:37Z</time>
      </trkpt>
      <trkpt lat="49.84321" lon="2.49294">
        <ele>98.7</ele>
        <time>2024-07-10T13:00:38Z</time>
      </trkpt>
      <trkpt lat="49.84321" lon="2.49294">
        <ele>98.7</ele>
        <time>2024-07-10T13:00:39Z</time>
      </trkpt>
      <trkpt lat="49.84321" lon="2.49294">
        <ele>98.7</ele>
        <time>2024-07-10T13:00:40Z</time>
      </trkpt>
      <trkpt lat="49.84321" lon="2.49294">
        <ele>98.7</ele>
        <time>2024-07-10T13:00:41Z</time>
      </trkpt>
      <trkpt lat="49.84321" lon="2.49294">
        <ele>98.7</ele>
        <time>2024-07-10T13:00:42Z</time>
      </trkpt>
      <trkpt lat="49.84321" lon="2.49294">
        <ele>98.7</ele>
        <time>2024-07-10T13:00:43Z</time>
      </trkpt>
      <trkpt lat="49.84321" lon="2.49294">
        <ele>98.7</ele>
        <time>2024-07-10T13:00:44Z</time>
      </trkpt>
      <trkpt lat="49.84321" lon="2.49294">
        <ele>98.7</ele>
        <time>2024-07-10T13:00:45Z</time>
      </trkpt>
      <trkpt lat="49.84321" lon="2.49294">
        <ele>98.7</ele>
        <time>2024-07-10T13:00:46Z</time>
      </trkpt>
      <trkpt lat="49.84321" lon="2.49294">
        <ele>98.7</ele>
        <time>2024-07-10T13:00:47Z</time>
      </trkpt>
      <trkpt lat="49.84321" lon="2.49294">
        <ele>98.7</ele>
        <time>2024-07-10T13:00:48Z</time>
      </trkpt>
      <trkpt lat="49.84321" lon="2.49294">
        <ele>98.7</ele>
        <time>2024-07-10T13:00:49Z</time>
      </trkpt>
      <trkpt lat="49.84321" lon="2.49294">
        <ele>98.7</ele>
        <time>2024-07-10T13:00:50Z</time>
      </trkpt>
      <trkpt lat="49.84321" lon="2.49294">
        <ele>98.7</ele>
        <time>2024-07-10T13:00:51Z</time>
      </trkpt>
      <trkpt lat="49.84321" lon="2.49294">
        <ele>98.7</ele>
        <time>2024-07-10T13:00:52Z</time>
      </trkpt>
      <trkpt lat="49.84321" lon="2.49294">
        <ele>98.7</ele>
        <time>2024-07-10T13:00:53Z</time>
      </trkpt>
      <trkpt lat="49.84321" lon="2.49295">
        <ele>98.7</ele>
        <time>2024-07-10T13:00:54Z</time>
      </trkpt>
      <trkpt lat="49.84321" lon="2.49295">
        <ele>98.7</ele>
        <time>2024-07-10T13:00:55Z</time>
      </trkpt>
      <trkpt lat="49.84321" lon="2.49295">
        <ele>98.7</ele>
        <time>2024-07-10T13:00:56Z</time>
      </trkpt>
      <trkpt lat="49.84321" lon="2.49295">
        <ele>98.7</ele>
        <time>2024-07-10T13:00:57Z</time>
      </trkpt>
      <trkpt lat="49.84321" lon="2.49295">
        <ele>98.7</ele>
        <time>2024-07-10T13:00:58Z</time>
      </trkpt>
      <trkpt lat="49.84321" lon="2.49295">
        <ele>98.7</ele>
        <time>2024-07-10T13:00:59Z</time>
      </trkpt>
      <trkpt lat="49.84321" lon="2.49295">
        <ele>98.7</ele>
        <time>2024-07-10T13:01:00Z</time>
      </trkpt>
      <trkpt lat="49.84321" lon="2.49295">
        <ele>98.7</ele>
        <time>2024-07-10T13:01:01Z</time>
      </trkpt>
      <trkpt lat="49.84321" lon="2.49295">
        <ele>98.7</ele>
        <time>2024-07-10T13:01:02Z</time>
      </trkpt>
      <trkpt lat="49.84321" lon="2.49295">
        <ele>98.7</ele>
        <time>2024-07-10T13:01:03Z</time>
      </trkpt>
      <trkpt lat="49.84321" lon="2.49295">
        <ele>98.7</ele>
        <time>2024-07-10T13:01:04Z</time>
      </trkpt>
      <trkpt lat="49.84321" lon="2.49295">
        <ele>98.7</ele>
        <time>2024-07-10T13:01:05Z</time>
      </trkpt>
      <trkpt lat="49.84321" lon="2.49295">
        <ele>98.7</ele>
        <time>2024-07-10T13:01:06Z</time>
      </trkpt>
      <trkpt lat="49.84321" lon="2.49295">
        <ele>98.7</ele>
        <time>2024-07-10T13:01:07Z</time>
      </trkpt>
      <trkpt lat="49.84321" lon="2.49295">
        <ele>98.7</ele>
        <time>2024-07-10T13:01:08Z</time>
      </trkpt>
      <trkpt lat="49.84321" lon="2.49295">
        <ele>98.7</ele>
        <time>2024-07-10T13:01:09Z</time>
      </trkpt>
      <trkpt lat="49.84321" lon="2.49295">
        <ele>98.7</ele>
        <time>2024-07-10T13:01:10Z</time>
      </trkpt>
      <trkpt lat="49.84321" lon="2.49295">
        <ele>98.7</ele>
        <time>2024-07-10T13:01:11Z</time>
      </trkpt>
      <trkpt lat="49.84321" lon="2.49295">
        <ele>98.7</ele>
        <time>2024-07-10T13:01:12Z</time>
      </trkpt>
      <trkpt lat="49.84321" lon="2.49296">
        <ele>98.7</ele>
        <time>2024-07-10T13:01:13Z</time>
      </trkpt>
      <trkpt lat="49.84321" lon="2.49296">
        <ele>98.7</ele>
        <time>2024-07-10T13:01:14Z</time>
      </trkpt>
      <trkpt lat="49.84321" lon="2.49296">
        <ele>98.7</ele>
        <time>2024-07-10T13:01:15Z</time>
      </trkpt>
      <trkpt lat="49.84321" lon="2.49296">
        <ele>98.7</ele>
        <time>2024-07-10T13:01:16Z</time>
      </trkpt>
      <trkpt lat="49.84321" lon="2.49296">
        <ele>98.7</ele>
        <time>2024-07-10T13:01:17Z</time>
      </trkpt>
      <trkpt lat="49.84321" lon="2.49296">
        <ele>98.7</ele>
        <time>2024-07-10T13:01:18Z</time>
      </trkpt>
      <trkpt lat="49.84321" lon="2.49296">
        <ele>98.7</ele>
        <time>2024-07-10T13:01:19Z</time>
      </trkpt>
      <trkpt lat="49.84321" lon="2.49296">
        <ele>98.7</ele>
        <time>2024-07-10T13:01:20Z</time>
      </trkpt>
      <trkpt lat="49.84321" lon="2.49296">
        <ele>98.7</ele>
        <time>2024-07-10T13:01:21Z</time>
      </trkpt>
      <trkpt lat="49.84321" lon="2.49296">
        <ele>98.7</ele>
        <time>2024-07-10T13:01:22Z</time>
      </trkpt>
      <trkpt lat="49.84321" lon="2.49296">
        <ele>98.7</ele>
        <time>2024-07-10T13:01:23Z</time>
      </trkpt>
      <trkpt lat="49.84321" lon="2.49296">
        <ele>98.7</ele>
        <time>2024-07-10T13:01:24Z</time>
      </trkpt>
      <trkpt lat="49.84321" lon="2.49296">
        <ele>98.7</ele>
        <time>2024-07-10T13:01:25Z</time>
      </trkpt>
      <trkpt lat="49.84321" lon="2.49296">
        <ele>98.7</ele>
        <time>2024-07-10T13:01:26Z</time>
      </trkpt>
      <trkpt lat="49.84321" lon="2.49296">
        <ele>98.7</ele>
        <time>2024-07-10T13:01:27Z</time>
      </trkpt>
      <trkpt lat="49.84322" lon="2.493">
        <ele>98.7</ele>
        <time>2024-07-10T13:01:28Z</time>
      </trkpt>
      <trkpt lat="49.84323" lon="2.49303">
        <ele>98.7</ele>
        <time>2024-07-10T13:01:29Z</time>
      </trkpt>
      <trkpt lat="49.84323" lon="2.49304">
        <ele>98.7</ele>
        <time>2024-07-10T13:01:30Z</time>
      </trkpt>
      <trkpt lat="49.84323" lon="2.49306">
        <ele>98.8</ele>
        <time>2024-07-10T13:01:31Z</time>
      </trkpt>
      <trkpt lat="49.84323" lon="2.49308">
        <ele>98.8</ele>
        <time>2024-07-10T13:01:32Z</time>
      </trkpt>
      <trkpt lat="49.84323" lon="2.4931">
        <ele>98.8</ele>
        <time>2024-07-10T13:01:33Z</time>
      </trkpt>
      <trkpt lat="49.84323" lon="2.49311">
        <ele>98.8</ele>
        <time>2024-07-10T13:01:34Z</time>
      </trkpt>
      <trkpt lat="49.84323" lon="2.49312">
        <ele>98.8</ele>
        <time>2024-07-10T13:01:35Z</time>
      </trkpt>
      <trkpt lat="49.84322" lon="2.49313">
        <ele>98.8</ele>
        <time>2024-07-10T13:01:36Z</time>
      </trkpt>
      <trkpt lat="49.84322" lon="2.49313">
        <ele>98.8</ele>
        <time>2024-07-10T13:01:37Z</time>
      </trkpt>
      <trkpt lat="49.84321" lon="2.49314">
        <ele>98.8</ele>
        <time>2024-07-10T13:01:38Z</time>
      </trkpt>
      <trkpt lat="49.84321" lon="2.49314">
        <ele>98.8</ele>
        <time>2024-07-10T13:01:39Z</time>
      </trkpt>
      <trkpt lat="49.8432" lon="2.49315">
        <ele>98.8</ele>
        <time>2024-07-10T13:01:40Z</time>
      </trkpt>
      <trkpt lat="49.8432" lon="2.49315">
        <ele>98.8</ele>
        <time>2024-07-10T13:01:41Z</time>
      </trkpt>
      <trkpt lat="49.84319" lon="2.49316">
        <ele>98.8</ele>
        <time>2024-07-10T13:01:42Z</time>
      </trkpt>
      <trkpt lat="49.84319" lon="2.49316">
        <ele>98.8</ele>
        <time>2024-07-10T13:01:43Z</time>
      </trkpt>
      <trkpt lat="49.84318" lon="2.49317">
        <ele>98.8</ele>
        <time>2024-07-10T13:01:44Z</time>
      </trkpt>
      <trkpt lat="49.84318" lon="2.49317">
        <ele>98.8</ele>
        <time>2024-07-10T13:01:45Z</time>
      </trkpt>
      <trkpt lat="49.84317" lon="2.49317">
        <ele>98.7</ele>
        <time>2024-07-10T13:01:46Z</time>
      </trkpt>
      <trkpt lat="49.84316" lon="2.49318">
        <ele>98.7</ele>
        <time>2024-07-10T13:01:47Z</time>
      </trkpt>
      <trkpt lat="49.84316" lon="2.49318">
        <ele>98.7</ele>
        <time>2024-07-10T13:01:48Z</time>
      </trkpt>
      <trkpt lat="49.84315" lon="2.49318">
        <ele>98.7</ele>
        <time>2024-07-10T13:01:49Z</time>
      </trkpt>
      <trkpt lat="49.84314" lon="2.49319">
        <ele>98.7</ele>
        <time>2024-07-10T13:01:50Z</time>
      </trkpt>
      <trkpt lat="49.84313" lon="2.4932">
        <ele>98.7</ele>
        <time>2024-07-10T13:01:51Z</time>
      </trkpt>
      <trkpt lat="49.84312" lon="2.49323">
        <ele>98.7</ele>
        <time>2024-07-10T13:01:52Z</time>
      </trkpt>
      <trkpt lat="49.84311" lon="2.49323">
        <ele>98.7</ele>
        <time>2024-07-10T13:01:53Z</time>
      </trkpt>
      <trkpt lat="49.8431" lon="2.49323">
        <ele>98.7</ele>
        <time>2024-07-10T13:01:54Z</time>
      </trkpt>
      <trkpt lat="49.84308" lon="2.49324">
        <ele>98.7</ele>
        <time>2024-07-10T13:01:55Z</time>
      </trkpt>
      <trkpt lat="49.84307" lon="2.49325">
        <ele>98.7</ele>
        <time>2024-07-10T13:01:56Z</time>
      </trkpt>
      <trkpt lat="49.84306" lon="2.49327">
        <ele>98.7</ele>
        <time>2024-07-10T13:01:57Z</time>
      </trkpt>
      <trkpt lat="49.84304" lon="2.49328">
        <ele>98.7</ele>
        <time>2024-07-10T13:01:58Z</time>
      </trkpt>
      <trkpt lat="49.84303" lon="2.49329">
        <ele>98.7</ele>
        <time>2024-07-10T13:01:59Z</time>
      </trkpt>
      <trkpt lat="49.84302" lon="2.49329">
        <ele>98.7</ele>
        <time>2024-07-10T13:02:00Z</time>
      </trkpt>
      <trkpt lat="49.843" lon="2.49331">
        <ele>98.7</ele>
        <time>2024-07-10T13:02:01Z</time>
      </trkpt>
      <trkpt lat="49.84299" lon="2.49331">
        <ele>98.7</ele>
        <time>2024-07-10T13:02:02Z</time>
      </trkpt>
      <trkpt lat="49.84299" lon="2.49332">
        <ele>98.8</ele>
        <time>2024-07-10T13:02:03Z</time>
      </trkpt>
      <trkpt lat="49.84298" lon="2.49333">
        <ele>98.8</ele>
        <time>2024-07-10T13:02:04Z</time>
      </trkpt>
      <trkpt lat="49.84297" lon="2.49334">
        <ele>98.8</ele>
        <time>2024-07-10T13:02:05Z</time>
      </trkpt>
      <trkpt lat="49.84296" lon="2.49335">
        <ele>98.8</ele>
        <time>2024-07-10T13:02:06Z</time>
      </trkpt>
      <trkpt lat="49.84294" lon="2.49336">
        <ele>98.8</ele>
        <time>2024-07-10T13:02:07Z</time>
      </trkpt>
      <trkpt lat="49.84293" lon="2.49337">
        <ele>98.8</ele>
        <time>2024-07-10T13:02:08Z</time>
      </trkpt>
      <trkpt lat="49.84293" lon="2.49338">
        <ele>98.8</ele>
        <time>2024-07-10T13:02:09Z</time>
      </trkpt>
      <trkpt lat="49.84291" lon="2.4934">
        <ele>98.8</ele>
        <time>2024-07-10T13:02:10Z</time>
      </trkpt>
      <trkpt lat="49.84291" lon="2.49341">
        <ele>98.8</ele>
        <time>2024-07-10T13:02:11Z</time>
      </trkpt>
      <trkpt lat="49.8429" lon="2.49342">
        <ele>98.8</ele>
        <time>2024-07-10T13:02:12Z</time>
      </trkpt>
      <trkpt lat="49.84289" lon="2.49344">
        <ele>98.8</ele>
        <time>2024-07-10T13:02:13Z</time>
      </trkpt>
      <trkpt lat="49.84288" lon="2.49345">
        <ele>98.8</ele>
        <time>2024-07-10T13:02:14Z</time>
      </trkpt>
      <trkpt lat="49.84287" lon="2.49346">
        <ele>98.8</ele>
        <time>2024-07-10T13:02:15Z</time>
      </trkpt>
      <trkpt lat="49.84285" lon="2.49348">
        <ele>98.8</ele>
        <time>2024-07-10T13:02:16Z</time>
      </trkpt>
      <trkpt lat="49.84285" lon="2.49349">
        <ele>98.8</ele>
        <time>2024-07-10T13:02:17Z</time>
      </trkpt>
      <trkpt lat="49.84284" lon="2.4935">
        <ele>98.8</ele>
        <time>2024-07-10T13:02:18Z</time>
      </trkpt>
      <trkpt lat="49.84282" lon="2.49351">
        <ele>98.8</ele>
        <time>2024-07-10T13:02:19Z</time>
      </trkpt>
      <trkpt lat="49.84282" lon="2.49352">
        <ele>98.8</ele>
        <time>2024-07-10T13:02:20Z</time>
      </trkpt>
      <trkpt lat="49.84281" lon="2.49353">
        <ele>98.8</ele>
        <time>2024-07-10T13:02:21Z</time>
      </trkpt>
      <trkpt lat="49.8428" lon="2.49354">
        <ele>98.8</ele>
        <time>2024-07-10T13:02:22Z</time>
      </trkpt>
      <trkpt lat="49.84279" lon="2.49355">
        <ele>98.8</ele>
        <time>2024-07-10T13:02:23Z</time>
      </trkpt>
      <trkpt lat="49.84278" lon="2.49355">
        <ele>98.8</ele>
        <time>2024-07-10T13:02:24Z</time>
      </trkpt>
      <trkpt lat="49.84277" lon="2.49356">
        <ele>98.8</ele>
        <time>2024-07-10T13:02:25Z</time>
      </trkpt>
      <trkpt lat="49.84276" lon="2.49357">
        <ele>98.8</ele>
        <time>2024-07-10T13:02:26Z</time>
      </trkpt>
      <trkpt lat="49.84275" lon="2.49358">
        <ele>98.8</ele>
        <time>2024-07-10T13:02:27Z</time>
      </trkpt>
      <trkpt lat="49.84274" lon="2.49359">
        <ele>98.8</ele>
        <time>2024-07-10T13:02:28Z</time>
      </trkpt>
      <trkpt lat="49.84273" lon="2.4936">
        <ele>98.8</ele>
        <time>2024-07-10T13:02:29Z</time>
      </trkpt>
      <trkpt lat="49.84272" lon="2.49361">
        <ele>98.7</ele>
        <time>2024-07-10T13:02:30Z</time>
      </trkpt>
      <trkpt lat="49.84272" lon="2.49362">
        <ele>98.7</ele>
        <time>2024-07-10T13:02:31Z</time>
      </trkpt>
      <trkpt lat="49.84271" lon="2.49362">
        <ele>98.7</ele>
        <time>2024-07-10T13:02:32Z</time>
      </trkpt>
      <trkpt lat="49.8427" lon="2.49363">
        <ele>98.7</ele>
        <time>2024-07-10T13:02:33Z</time>
      </trkpt>
      <trkpt lat="49.84269" lon="2.49364">
        <ele>98.7</ele>
        <time>2024-07-10T13:02:34Z</time>
      </trkpt>
      <trkpt lat="49.84269" lon="2.49365">
        <ele>98.7</ele>
        <time>2024-07-10T13:02:35Z</time>
      </trkpt>
      <trkpt lat="49.84268" lon="2.49365">
        <ele>98.7</ele>
        <time>2024-07-10T13:02:36Z</time>
      </trkpt>
      <trkpt lat="49.84267" lon="2.49366">
        <ele>98.7</ele>
        <time>2024-07-10T13:02:37Z</time>
      </trkpt>
      <trkpt lat="49.84266" lon="2.49367">
        <ele>98.7</ele>
        <time>2024-07-10T13:02:38Z</time>
      </trkpt>
      <trkpt lat="49.84265" lon="2.49368">
        <ele>98.7</ele>
        <time>2024-07-10T13:02:39Z</time>
      </trkpt>
      <trkpt lat="49.84265" lon="2.49369">
        <ele>98.7</ele>
        <time>2024-07-10T13:02:40Z</time>
      </trkpt>
      <trkpt lat="49.84264" lon="2.49369">
        <ele>98.7</ele>
        <time>2024-07-10T13:02:41Z</time>
      </trkpt>
      <trkpt lat="49.84263" lon="2.4937">
        <ele>98.7</ele>
        <time>2024-07-10T13:02:42Z</time>
      </trkpt>
      <trkpt lat="49.84262" lon="2.49371">
        <ele>98.7</ele>
        <time>2024-07-10T13:02:43Z</time>
      </trkpt>
      <trkpt lat="49.84262" lon="2.49372">
        <ele>98.6</ele>
        <time>2024-07-10T13:02:44Z</time>
      </trkpt>
      <trkpt lat="49.84261" lon="2.49373">
        <ele>98.6</ele>
        <time>2024-07-10T13:02:45Z</time>
      </trkpt>
      <trkpt lat="49.8426" lon="2.49374">
        <ele>98.6</ele>
        <time>2024-07-10T13:02:46Z</time>
      </trkpt>
      <trkpt lat="49.8426" lon="2.49375">
        <ele>98.6</ele>
        <time>2024-07-10T13:02:47Z</time>
      </trkpt>
      <trkpt lat="49.84259" lon="2.49376">
        <ele>98.6</ele>
        <time>2024-07-10T13:02:48Z</time>
      </trkpt>
      <trkpt lat="49.84258" lon="2.49377">
        <ele>98.6</ele>
        <time>2024-07-10T13:02:49Z</time>
      </trkpt>
      <trkpt lat="49.84257" lon="2.49378">
        <ele>98.6</ele>
        <time>2024-07-10T13:02:50Z</time>
      </trkpt>
      <trkpt lat="49.84256" lon="2.49379">
        <ele>98.6</ele>
        <time>2024-07-10T13:02:51Z</time>
      </trkpt>
      <trkpt lat="49.84256" lon="2.4938">
        <ele>98.6</ele>
        <time>2024-07-10T13:02:52Z</time>
      </trkpt>
      <trkpt lat="49.84255" lon="2.49381">
        <ele>98.6</ele>
        <time>2024-07-10T13:02:53Z</time>
      </trkpt>
      <trkpt lat="49.84254" lon="2.49382">
        <ele>98.5</ele>
        <time>2024-07-10T13:02:54Z</time>
      </trkpt>
      <trkpt lat="49.84253" lon="2.49383">
        <ele>98.5</ele>
        <time>2024-07-10T13:02:55Z</time>
      </trkpt>
      <trkpt lat="49.84252" lon="2.49383">
        <ele>98.5</ele>
        <time>2024-07-10T13:02:56Z</time>
      </trkpt>
      <trkpt lat="49.84251" lon="2.49384">
        <ele>98.5</ele>
        <time>2024-07-10T13:02:57Z</time>
      </trkpt>
      <trkpt lat="49.84251" lon="2.49385">
        <ele>98.5</ele>
        <time>2024-07-10T13:02:58Z</time>
      </trkpt>
      <trkpt lat="49.8425" lon="2.49386">
        <ele>98.5</ele>
        <time>2024-07-10T13:02:59Z</time>
      </trkpt>
      <trkpt lat="49.84249" lon="2.49387">
        <ele>98.5</ele>
        <time>2024-07-10T13:03:00Z</time>
      </trkpt>
      <trkpt lat="49.84248" lon="2.49387">
        <ele>98.5</ele>
        <time>2024-07-10T13:03:01Z</time>
      </trkpt>
      <trkpt lat="49.84247" lon="2.49388">
        <ele>98.5</ele>
        <time>2024-07-10T13:03:02Z</time>
      </trkpt>
      <trkpt lat="49.84246" lon="2.49389">
        <ele>98.5</ele>
        <time>2024-07-10T13:03:03Z</time>
      </trkpt>
      <trkpt lat="49.84246" lon="2.4939">
        <ele>98.4</ele>
        <time>2024-07-10T13:03:04Z</time>
      </trkpt>
      <trkpt lat="49.84245" lon="2.49391">
        <ele>98.4</ele>
        <time>2024-07-10T13:03:05Z</time>
      </trkpt>
      <trkpt lat="49.84244" lon="2.49392">
        <ele>98.4</ele>
        <time>2024-07-10T13:03:06Z</time>
      </trkpt>
      <trkpt lat="49.84243" lon="2.49393">
        <ele>98.4</ele>
        <time>2024-07-10T13:03:07Z</time>
      </trkpt>
      <trkpt lat="49.84242" lon="2.49394">
        <ele>98.4</ele>
        <time>2024-07-10T13:03:08Z</time>
      </trkpt>
      <trkpt lat="49.84242" lon="2.49394">
        <ele>98.4</ele>
        <time>2024-07-10T13:03:09Z</time>
      </trkpt>
      <trkpt lat="49.84241" lon="2.49395">
        <ele>98.4</ele>
        <time>2024-07-10T13:03:10Z</time>
      </trkpt>
      <trkpt lat="49.8424" lon="2.49396">
        <ele>98.4</ele>
        <time>2024-07-10T13:03:11Z</time>
      </trkpt>
      <trkpt lat="49.84239" lon="2.49397">
        <ele>98.4</ele>
        <time>2024-07-10T13:03:12Z</time>
      </trkpt>
      <trkpt lat="49.84239" lon="2.49398">
        <ele>98.4</ele>
        <time>2024-07-10T13:03:13Z</time>
      </trkpt>
      <trkpt lat="49.84238" lon="2.49398">
        <ele>98.3</ele>
        <time>2024-07-10T13:03:14Z</time>
      </trkpt>
      <trkpt lat="49.84237" lon="2.49399">
        <ele>98.3</ele>
        <time>2024-07-10T13:03:15Z</time>
      </trkpt>
      <trkpt lat="49.84236" lon="2.494">
        <ele>98.3</ele>
        <time>2024-07-10T13:03:16Z</time>
      </trkpt>
      <trkpt lat="49.84235" lon="2.49401">
        <ele>98.3</ele>
        <time>2024-07-10T13:03:17Z</time>
      </trkpt>
      <trkpt lat="49.84235" lon="2.49402">
        <ele>98.3</ele>
        <time>2024-07-10T13:03:18Z</time>
      </trkpt>
      <trkpt lat="49.84234" lon="2.49402">
        <ele>98.3</ele>
        <time>2024-07-10T13:03:19Z</time>
      </trkpt>
      <trkpt lat="49.84233" lon="2.49403">
        <ele>98.3</ele>
        <time>2024-07-10T13:03:20Z</time>
      </trkpt>
      <trkpt lat="49.84233" lon="2.49404">
        <ele>98.3</ele>
        <time>2024-07-10T13:03:21Z</time>
      </trkpt>
      <trkpt lat="49.84232" lon="2.49405">
        <ele>98.3</ele>
        <time>2024-07-10T13:03:22Z</time>
      </trkpt>
      <trkpt lat="49.84231" lon="2.49406">
        <ele>98.2</ele>
        <time>2024-07-10T13:03:23Z</time>
      </trkpt>
      <trkpt lat="49.8423" lon="2.49407">
        <ele>98.2</ele>
        <time>2024-07-10T13:03:24Z</time>
      </trkpt>
      <trkpt lat="49.84229" lon="2.49408">
        <ele>98.2</ele>
        <time>2024-07-10T13:03:25Z</time>
      </trkpt>
      <trkpt lat="49.84228" lon="2.49409">
        <ele>98.2</ele>
        <time>2024-07-10T13:03:26Z</time>
      </trkpt>
      <trkpt lat="49.84227" lon="2.4941">
        <ele>98.2</ele>
        <time>2024-07-10T13:03:27Z</time>
      </trkpt>
      <trkpt lat="49.84226" lon="2.49411">
        <ele>98.2</ele>
        <time>2024-07-10T13:03:28Z</time>
      </trkpt>
      <trkpt lat="49.84225" lon="2.49411">
        <ele>98.2</ele>
        <time>2024-07-10T13:03:29Z</time>
      </trkpt>
      <trkpt lat="49.84224" lon="2.49412">
        <ele>98.1</ele>
        <time>2024-07-10T13:03:30Z</time>
      </trkpt>
      <trkpt lat="49.84223" lon="2.49413">
        <ele>98.1</ele>
        <time>2024-07-10T13:03:31Z</time>
      </trkpt>
      <trkpt lat="49.84222" lon="2.49415">
        <ele>98.1</ele>
        <time>2024-07-10T13:03:32Z</time>
      </trkpt>
      <trkpt lat="49.84221" lon="2.49416">
        <ele>98.1</ele>
        <time>2024-07-10T13:03:33Z</time>
      </trkpt>
      <trkpt lat="49.84221" lon="2.49417">
        <ele>98.1</ele>
        <time>2024-07-10T13:03:34Z</time>
      </trkpt>
      <trkpt lat="49.8422" lon="2.49418">
        <ele>98.1</ele>
        <time>2024-07-10T13:03:35Z</time>
      </trkpt>
      <trkpt lat="49.84219" lon="2.49419">
        <ele>98</ele>
        <time>2024-07-10T13:03:36Z</time>
      </trkpt>
      <trkpt lat="49.84218" lon="2.4942">
        <ele>98</ele>
        <time>2024-07-10T13:03:37Z</time>
      </trkpt>
      <trkpt lat="49.84217" lon="2.49421">
        <ele>98</ele>
        <time>2024-07-10T13:03:38Z</time>
      </trkpt>
      <trkpt lat="49.84216" lon="2.49422">
        <ele>98</ele>
        <time>2024-07-10T13:03:39Z</time>
      </trkpt>
      <trkpt lat="49.84215" lon="2.49423">
        <ele>98</ele>
        <time>2024-07-10T13:03:40Z</time>
      </trkpt>
      <trkpt lat="49.84214" lon="2.49424">
        <ele>98</ele>
        <time>2024-07-10T13:03:41Z</time>
      </trkpt>
      <trkpt lat="49.84213" lon="2.49425">
        <ele>98</ele>
        <time>2024-07-10T13:03:42Z</time>
      </trkpt>
      <trkpt lat="49.84212" lon="2.49426">
        <ele>97.9</ele>
        <time>2024-07-10T13:03:43Z</time>
      </trkpt>
      <trkpt lat="49.84211" lon="2.49427">
        <ele>97.9</ele>
        <time>2024-07-10T13:03:44Z</time>
      </trkpt>
      <trkpt lat="49.8421" lon="2.49428">
        <ele>97.9</ele>
        <time>2024-07-10T13:03:45Z</time>
      </trkpt>
      <trkpt lat="49.84209" lon="2.49429">
        <ele>97.9</ele>
        <time>2024-07-10T13:03:46Z</time>
      </trkpt>
      <trkpt lat="49.84208" lon="2.49431">
        <ele>97.9</ele>
        <time>2024-07-10T13:03:47Z</time>
      </trkpt>
      <trkpt lat="49.84207" lon="2.49431">
        <ele>97.8</ele>
        <time>2024-07-10T13:03:48Z</time>
      </trkpt>
      <trkpt lat="49.84206" lon="2.49432">
        <ele>97.8</ele>
        <time>2024-07-10T13:03:49Z</time>
      </trkpt>
      <trkpt lat="49.84204" lon="2.49434">
        <ele>97.8</ele>
        <time>2024-07-10T13:03:50Z</time>
      </trkpt>
      <trkpt lat="49.84204" lon="2.49434">
        <ele>97.8</ele>
        <time>2024-07-10T13:03:51Z</time>
      </trkpt>
      <trkpt lat="49.84203" lon="2.49435">
        <ele>97.8</ele>
        <time>2024-07-10T13:03:52Z</time>
      </trkpt>
      <trkpt lat="49.84202" lon="2.49436">
        <ele>97.8</ele>
        <time>2024-07-10T13:03:53Z</time>
      </trkpt>
      <trkpt lat="49.84201" lon="2.49437">
        <ele>97.7</ele>
        <time>2024-07-10T13:03:54Z</time>
      </trkpt>
      <trkpt lat="49.842" lon="2.49438">
        <ele>97.7</ele>
        <time>2024-07-10T13:03:55Z</time>
      </trkpt>
      <trkpt lat="49.842" lon="2.49439">
        <ele>97.7</ele>
        <time>2024-07-10T13:03:56Z</time>
      </trkpt>
      <trkpt lat="49.84199" lon="2.4944">
        <ele>97.7</ele>
        <time>2024-07-10T13:03:57Z</time>
      </trkpt>
      <trkpt lat="49.84198" lon="2.4944">
        <ele>97.7</ele>
        <time>2024-07-10T13:03:58Z</time>
      </trkpt>
      <trkpt lat="49.84197" lon="2.49441">
        <ele>97.7</ele>
        <time>2024-07-10T13:03:59Z</time>
      </trkpt>
      <trkpt lat="49.84196" lon="2.49442">
        <ele>97.6</ele>
        <time>2024-07-10T13:04:00Z</time>
      </trkpt>
      <trkpt lat="49.84195" lon="2.49442">
        <ele>97.6</ele>
        <time>2024-07-10T13:04:01Z</time>
      </trkpt>
      <trkpt lat="49.84194" lon="2.49443">
        <ele>97.6</ele>
        <time>2024-07-10T13:04:02Z</time>
      </trkpt>
      <trkpt lat="49.84193" lon="2.49444">
        <ele>97.6</ele>
        <time>2024-07-10T13:04:03Z</time>
      </trkpt>
      <trkpt lat="49.84192" lon="2.49445">
        <ele>97.6</ele>
        <time>2024-07-10T13:04:04Z</time>
      </trkpt>
      <trkpt lat="49.84192" lon="2.49445">
        <ele>97.6</ele>
        <time>2024-07-10T13:04:05Z</time>
      </trkpt>
      <trkpt lat="49.84191" lon="2.49446">
        <ele>97.6</ele>
        <time>2024-07-10T13:04:06Z</time>
      </trkpt>
      <trkpt lat="49.8419" lon="2.49447">
        <ele>97.6</ele>
        <time>2024-07-10T13:04:07Z</time>
      </trkpt>
      <trkpt lat="49.84189" lon="2.49448">
        <ele>97.6</ele>
        <time>2024-07-10T13:04:08Z</time>
      </trkpt>
      <trkpt lat="49.84188" lon="2.49449">
        <ele>97.5</ele>
        <time>2024-07-10T13:04:09Z</time>
      </trkpt>
      <trkpt lat="49.84187" lon="2.4945">
        <ele>97.5</ele>
        <time>2024-07-10T13:04:10Z</time>
      </trkpt>
      <trkpt lat="49.84186" lon="2.49452">
        <ele>97.5</ele>
        <time>2024-07-10T13:04:11Z</time>
      </trkpt>
      <trkpt lat="49.84185" lon="2.49453">
        <ele>97.5</ele>
        <time>2024-07-10T13:04:12Z</time>
      </trkpt>
      <trkpt lat="49.84184" lon="2.49454">
        <ele>97.5</ele>
        <time>2024-07-10T13:04:13Z</time>
      </trkpt>
      <trkpt lat="49.84183" lon="2.49456">
        <ele>97.5</ele>
        <time>2024-07-10T13:04:14Z</time>
      </trkpt>
      <trkpt lat="49.84182" lon="2.49457">
        <ele>97.5</ele>
        <time>2024-07-10T13:04:15Z</time>
      </trkpt>
      <trkpt lat="49.84181" lon="2.49458">
        <ele>97.5</ele>
        <time>2024-07-10T13:04:16Z</time>
      </trkpt>
      <trkpt lat="49.8418" lon="2.49459">
        <ele>97.4</ele>
        <time>2024-07-10T13:04:17Z</time>
      </trkpt>
      <trkpt lat="49.84179" lon="2.4946">
        <ele>97.4</ele>
        <time>2024-07-10T13:04:18Z</time>
      </trkpt>
      <trkpt lat="49.84178" lon="2.49462">
        <ele>97.4</ele>
        <time>2024-07-10T13:04:19Z</time>
      </trkpt>
      <trkpt lat="49.84177" lon="2.49463">
        <ele>97.4</ele>
        <time>2024-07-10T13:04:20Z</time>
      </trkpt>
      <trkpt lat="49.84176" lon="2.49465">
        <ele>97.4</ele>
        <time>2024-07-10T13:04:21Z</time>
      </trkpt>
      <trkpt lat="49.84175" lon="2.49466">
        <ele>97.4</ele>
        <time>2024-07-10T13:04:22Z</time>
      </trkpt>
      <trkpt lat="49.84174" lon="2.49467">
        <ele>97.3</ele>
        <time>2024-07-10T13:04:23Z</time>
      </trkpt>
      <trkpt lat="49.84173" lon="2.49469">
        <ele>97.3</ele>
        <time>2024-07-10T13:04:24Z</time>
      </trkpt>
      <trkpt lat="49.84172" lon="2.4947">
        <ele>97.3</ele>
        <time>2024-07-10T13:04:25Z</time>
      </trkpt>
      <trkpt lat="49.84171" lon="2.49471">
        <ele>97.3</ele>
        <time>2024-07-10T13:04:26Z</time>
      </trkpt>
      <trkpt lat="49.8417" lon="2.49473">
        <ele>97.3</ele>
        <time>2024-07-10T13:04:27Z</time>
      </trkpt>
      <trkpt lat="49.84169" lon="2.49474">
        <ele>97.3</ele>
        <time>2024-07-10T13:04:28Z</time>
      </trkpt>
      <trkpt lat="49.84168" lon="2.49474">
        <ele>97.2</ele>
        <time>2024-07-10T13:04:29Z</time>
      </trkpt>
      <trkpt lat="49.84166" lon="2.49476">
        <ele>97.2</ele>
        <time>2024-07-10T13:04:30Z</time>
      </trkpt>
      <trkpt lat="49.84166" lon="2.49477">
        <ele>97.2</ele>
        <time>2024-07-10T13:04:31Z</time>
      </trkpt>
      <trkpt lat="49.84165" lon="2.49478">
        <ele>97.2</ele>
        <time>2024-07-10T13:04:32Z</time>
      </trkpt>
      <trkpt lat="49.84163" lon="2.4948">
        <ele>97.2</ele>
        <time>2024-07-10T13:04:33Z</time>
      </trkpt>
      <trkpt lat="49.84162" lon="2.4948">
        <ele>97.2</ele>
        <time>2024-07-10T13:04:34Z</time>
      </trkpt>
      <trkpt lat="49.84162" lon="2.49481">
        <ele>97.2</ele>
        <time>2024-07-10T13:04:35Z</time>
      </trkpt>
      <trkpt lat="49.84161" lon="2.49482">
        <ele>97.1</ele>
        <time>2024-07-10T13:04:36Z</time>
      </trkpt>
      <trkpt lat="49.8416" lon="2.49483">
        <ele>97.1</ele>
        <time>2024-07-10T13:04:37Z</time>
      </trkpt>
      <trkpt lat="49.84159" lon="2.49485">
        <ele>97.1</ele>
        <time>2024-07-10T13:04:38Z</time>
      </trkpt>
      <trkpt lat="49.84158" lon="2.49487">
        <ele>97.1</ele>
        <time>2024-07-10T13:04:39Z</time>
      </trkpt>
      <trkpt lat="49.84157" lon="2.49488">
        <ele>97.1</ele>
        <time>2024-07-10T13:04:40Z</time>
      </trkpt>
      <trkpt lat="49.84156" lon="2.49489">
        <ele>97.1</ele>
        <time>2024-07-10T13:04:41Z</time>
      </trkpt>
      <trkpt lat="49.84155" lon="2.4949">
        <ele>97.1</ele>
        <time>2024-07-10T13:04:42Z</time>
      </trkpt>
      <trkpt lat="49.84154" lon="2.49491">
        <ele>97.1</ele>
        <time>2024-07-10T13:04:43Z</time>
      </trkpt>
      <trkpt lat="49.84154" lon="2.49492">
        <ele>97</ele>
        <time>2024-07-10T13:04:44Z</time>
      </trkpt>
      <trkpt lat="49.84153" lon="2.49493">
        <ele>97</ele>
        <time>2024-07-10T13:04:45Z</time>
      </trkpt>
      <trkpt lat="49.84152" lon="2.49494">
        <ele>97</ele>
        <time>2024-07-10T13:04:46Z</time>
      </trkpt>
      <trkpt lat="49.84151" lon="2.49495">
        <ele>97</ele>
        <time>2024-07-10T13:04:47Z</time>
      </trkpt>
      <trkpt lat="49.8415" lon="2.49495">
        <ele>97</ele>
        <time>2024-07-10T13:04:48Z</time>
      </trkpt>
      <trkpt lat="49.84149" lon="2.49496">
        <ele>97</ele>
        <time>2024-07-10T13:04:49Z</time>
      </trkpt>
      <trkpt lat="49.84149" lon="2.49497">
        <ele>97</ele>
        <time>2024-07-10T13:04:50Z</time>
      </trkpt>
      <trkpt lat="49.84148" lon="2.49497">
        <ele>97</ele>
        <time>2024-07-10T13:04:51Z</time>
      </trkpt>
      <trkpt lat="49.84147" lon="2.49498">
        <ele>97</ele>
        <time>2024-07-10T13:04:52Z</time>
      </trkpt>
      <trkpt lat="49.84146" lon="2.49499">
        <ele>97</ele>
        <time>2024-07-10T13:04:53Z</time>
      </trkpt>
      <trkpt lat="49.84145" lon="2.495">
        <ele>97</ele>
        <time>2024-07-10T13:04:54Z</time>
      </trkpt>
      <trkpt lat="49.84143" lon="2.49501">
        <ele>97</ele>
        <time>2024-07-10T13:04:55Z</time>
      </trkpt>
      <trkpt lat="49.84142" lon="2.49502">
        <ele>96.9</ele>
        <time>2024-07-10T13:04:56Z</time>
      </trkpt>
      <trkpt lat="49.84142" lon="2.49502">
        <ele>96.9</ele>
        <time>2024-07-10T13:04:57Z</time>
      </trkpt>
      <trkpt lat="49.8414" lon="2.49504">
        <ele>96.9</ele>
        <time>2024-07-10T13:04:58Z</time>
      </trkpt>
      <trkpt lat="49.84139" lon="2.49505">
        <ele>96.9</ele>
        <time>2024-07-10T13:04:59Z</time>
      </trkpt>
      <trkpt lat="49.84138" lon="2.49506">
        <ele>96.9</ele>
        <time>2024-07-10T13:05:00Z</time>
      </trkpt>
      <trkpt lat="49.84137" lon="2.49507">
        <ele>96.9</ele>
        <time>2024-07-10T13:05:01Z</time>
      </trkpt>
      <trkpt lat="49.84136" lon="2.49508">
        <ele>96.9</ele>
        <time>2024-07-10T13:05:02Z</time>
      </trkpt>
      <trkpt lat="49.84135" lon="2.49509">
        <ele>96.9</ele>
        <time>2024-07-10T13:05:03Z</time>
      </trkpt>
      <trkpt lat="49.84134" lon="2.4951">
        <ele>96.9</ele>
        <time>2024-07-10T13:05:04Z</time>
      </trkpt>
      <trkpt lat="49.84133" lon="2.49511">
        <ele>96.9</ele>
        <time>2024-07-10T13:05:05Z</time>
      </trkpt>
      <trkpt lat="49.84132" lon="2.49512">
        <ele>96.9</ele>
        <time>2024-07-10T13:05:06Z</time>
      </trkpt>
      <trkpt lat="49.8413" lon="2.49514">
        <ele>96.9</ele>
        <time>2024-07-10T13:05:07Z</time>
      </trkpt>
      <trkpt lat="49.8413" lon="2.49514">
        <ele>96.9</ele>
        <time>2024-07-10T13:05:08Z</time>
      </trkpt>
      <trkpt lat="49.84129" lon="2.49515">
        <ele>96.9</ele>
        <time>2024-07-10T13:05:09Z</time>
      </trkpt>
      <trkpt lat="49.84128" lon="2.49515">
        <ele>96.8</ele>
        <time>2024-07-10T13:05:10Z</time>
      </trkpt>
      <trkpt lat="49.84127" lon="2.49516">
        <ele>96.8</ele>
        <time>2024-07-10T13:05:11Z</time>
      </trkpt>
      <trkpt lat="49.84126" lon="2.49517">
        <ele>96.8</ele>
        <time>2024-07-10T13:05:12Z</time>
      </trkpt>
      <trkpt lat="49.84125" lon="2.49518">
        <ele>96.8</ele>
        <time>2024-07-10T13:05:13Z</time>
      </trkpt>
      <trkpt lat="49.84124" lon="2.49519">
        <ele>96.8</ele>
        <time>2024-07-10T13:05:14Z</time>
      </trkpt>
      <trkpt lat="49.84123" lon="2.4952">
        <ele>96.8</ele>
        <time>2024-07-10T13:05:15Z</time>
      </trkpt>
      <trkpt lat="49.84122" lon="2.49522">
        <ele>96.8</ele>
        <time>2024-07-10T13:05:16Z</time>
      </trkpt>
      <trkpt lat="49.84121" lon="2.49523">
        <ele>96.8</ele>
        <time>2024-07-10T13:05:17Z</time>
      </trkpt>
      <trkpt lat="49.8412" lon="2.49523">
        <ele>96.8</ele>
        <time>2024-07-10T13:05:18Z</time>
      </trkpt>
      <trkpt lat="49.84119" lon="2.49524">
        <ele>96.8</ele>
        <time>2024-07-10T13:05:19Z</time>
      </trkpt>
      <trkpt lat="49.84118" lon="2.49525">
        <ele>96.8</ele>
        <time>2024-07-10T13:05:20Z</time>
      </trkpt>
      <trkpt lat="49.84118" lon="2.49526">
        <ele>96.8</ele>
        <time>2024-07-10T13:05:21Z</time>
      </trkpt>
      <trkpt lat="49.84117" lon="2.49527">
        <ele>96.8</ele>
        <time>2024-07-10T13:05:22Z</time>
      </trkpt>
      <trkpt lat="49.84116" lon="2.49528">
        <ele>96.8</ele>
        <time>2024-07-10T13:05:23Z</time>
      </trkpt>
      <trkpt lat="49.84115" lon="2.49529">
        <ele>96.8</ele>
        <time>2024-07-10T13:05:24Z</time>
      </trkpt>
      <trkpt lat="49.84114" lon="2.4953">
        <ele>96.8</ele>
        <time>2024-07-10T13:05:25Z</time>
      </trkpt>
      <trkpt lat="49.84113" lon="2.49531">
        <ele>96.8</ele>
        <time>2024-07-10T13:05:26Z</time>
      </trkpt>
      <trkpt lat="49.84112" lon="2.49532">
        <ele>96.8</ele>
        <time>2024-07-10T13:05:27Z</time>
      </trkpt>
      <trkpt lat="49.84112" lon="2.49533">
        <ele>96.8</ele>
        <time>2024-07-10T13:05:28Z</time>
      </trkpt>
      <trkpt lat="49.84111" lon="2.49534">
        <ele>96.8</ele>
        <time>2024-07-10T13:05:29Z</time>
      </trkpt>
      <trkpt lat="49.8411" lon="2.49535">
        <ele>96.8</ele>
        <time>2024-07-10T13:05:30Z</time>
      </trkpt>
      <trkpt lat="49.84109" lon="2.49536">
        <ele>96.8</ele>
        <time>2024-07-10T13:05:31Z</time>
      </trkpt>
      <trkpt lat="49.84108" lon="2.49537">
        <ele>96.8</ele>
        <time>2024-07-10T13:05:32Z</time>
      </trkpt>
      <trkpt lat="49.84108" lon="2.49538">
        <ele>96.7</ele>
        <time>2024-07-10T13:05:33Z</time>
      </trkpt>
      <trkpt lat="49.84107" lon="2.49539">
        <ele>96.7</ele>
        <time>2024-07-10T13:05:34Z</time>
      </trkpt>
      <trkpt lat="49.84106" lon="2.4954">
        <ele>96.7</ele>
        <time>2024-07-10T13:05:35Z</time>
      </trkpt>
      <trkpt lat="49.84105" lon="2.4954">
        <ele>96.7</ele>
        <time>2024-07-10T13:05:36Z</time>
      </trkpt>
      <trkpt lat="49.84104" lon="2.49541">
        <ele>96.7</ele>
        <time>2024-07-10T13:05:37Z</time>
      </trkpt>
      <trkpt lat="49.84103" lon="2.49542">
        <ele>96.7</ele>
        <time>2024-07-10T13:05:38Z</time>
      </trkpt>
      <trkpt lat="49.84102" lon="2.49543">
        <ele>96.7</ele>
        <time>2024-07-10T13:05:39Z</time>
      </trkpt>
      <trkpt lat="49.84102" lon="2.49543">
        <ele>96.7</ele>
        <time>2024-07-10T13:05:40Z</time>
      </trkpt>
      <trkpt lat="49.84101" lon="2.49544">
        <ele>96.7</ele>
        <time>2024-07-10T13:05:41Z</time>
      </trkpt>
      <trkpt lat="49.841" lon="2.49545">
        <ele>96.7</ele>
        <time>2024-07-10T13:05:42Z</time>
      </trkpt>
      <trkpt lat="49.84099" lon="2.49545">
        <ele>96.7</ele>
        <time>2024-07-10T13:05:43Z</time>
      </trkpt>
      <trkpt lat="49.84098" lon="2.49546">
        <ele>96.7</ele>
        <time>2024-07-10T13:05:44Z</time>
      </trkpt>
      <trkpt lat="49.84097" lon="2.49547">
        <ele>96.7</ele>
        <time>2024-07-10T13:05:45Z</time>
      </trkpt>
      <trkpt lat="49.84096" lon="2.49547">
        <ele>96.7</ele>
        <time>2024-07-10T13:05:46Z</time>
      </trkpt>
      <trkpt lat="49.84095" lon="2.49548">
        <ele>96.7</ele>
        <time>2024-07-10T13:05:47Z</time>
      </trkpt>
      <trkpt lat="49.84094" lon="2.49549">
        <ele>96.7</ele>
        <time>2024-07-10T13:05:48Z</time>
      </trkpt>
      <trkpt lat="49.84093" lon="2.4955">
        <ele>96.7</ele>
        <time>2024-07-10T13:05:49Z</time>
      </trkpt>
      <trkpt lat="49.84092" lon="2.49551">
        <ele>96.7</ele>
        <time>2024-07-10T13:05:50Z</time>
      </trkpt>
      <trkpt lat="49.84092" lon="2.49552">
        <ele>96.7</ele>
        <time>2024-07-10T13:05:51Z</time>
      </trkpt>
      <trkpt lat="49.84091" lon="2.49553">
        <ele>96.7</ele>
        <time>2024-07-10T13:05:52Z</time>
      </trkpt>
      <trkpt lat="49.8409" lon="2.49554">
        <ele>96.7</ele>
        <time>2024-07-10T13:05:53Z</time>
      </trkpt>
      <trkpt lat="49.84089" lon="2.49555">
        <ele>96.7</ele>
        <time>2024-07-10T13:05:54Z</time>
      </trkpt>
      <trkpt lat="49.84088" lon="2.49556">
        <ele>96.7</ele>
        <time>2024-07-10T13:05:55Z</time>
      </trkpt>
      <trkpt lat="49.84088" lon="2.49558">
        <ele>96.7</ele>
        <time>2024-07-10T13:05:56Z</time>
      </trkpt>
      <trkpt lat="49.84087" lon="2.49559">
        <ele>96.7</ele>
        <time>2024-07-10T13:05:57Z</time>
      </trkpt>
      <trkpt lat="49.84086" lon="2.4956">
        <ele>96.7</ele>
        <time>2024-07-10T13:05:58Z</time>
      </trkpt>
      <trkpt lat="49.84085" lon="2.49561">
        <ele>96.7</ele>
        <time>2024-07-10T13:05:59Z</time>
      </trkpt>
      <trkpt lat="49.84084" lon="2.49562">
        <ele>96.7</ele>
        <time>2024-07-10T13:06:00Z</time>
      </trkpt>
      <trkpt lat="49.84083" lon="2.49563">
        <ele>96.7</ele>
        <time>2024-07-10T13:06:01Z</time>
      </trkpt>
      <trkpt lat="49.84082" lon="2.49565">
        <ele>96.7</ele>
        <time>2024-07-10T13:06:02Z</time>
      </trkpt>
      <trkpt lat="49.84082" lon="2.49566">
        <ele>96.7</ele>
        <time>2024-07-10T13:06:03Z</time>
      </trkpt>
      <trkpt lat="49.84081" lon="2.49567">
        <ele>96.7</ele>
        <time>2024-07-10T13:06:04Z</time>
      </trkpt>
      <trkpt lat="49.84079" lon="2.49568">
        <ele>96.7</ele>
        <time>2024-07-10T13:06:05Z</time>
      </trkpt>
      <trkpt lat="49.84079" lon="2.49569">
        <ele>96.7</ele>
        <time>2024-07-10T13:06:06Z</time>
      </trkpt>
      <trkpt lat="49.84078" lon="2.4957">
        <ele>96.7</ele>
        <time>2024-07-10T13:06:07Z</time>
      </trkpt>
      <trkpt lat="49.84077" lon="2.49571">
        <ele>96.7</ele>
        <time>2024-07-10T13:06:08Z</time>
      </trkpt>
      <trkpt lat="49.84076" lon="2.49572">
        <ele>96.7</ele>
        <time>2024-07-10T13:06:09Z</time>
      </trkpt>
      <trkpt lat="49.84075" lon="2.49573">
        <ele>96.7</ele>
        <time>2024-07-10T13:06:10Z</time>
      </trkpt>
      <trkpt lat="49.84074" lon="2.49574">
        <ele>96.7</ele>
        <time>2024-07-10T13:06:11Z</time>
      </trkpt>
      <trkpt lat="49.84073" lon="2.49575">
        <ele>96.7</ele>
        <time>2024-07-10T13:06:12Z</time>
      </trkpt>
      <trkpt lat="49.84072" lon="2.49576">
        <ele>96.7</ele>
        <time>2024-07-10T13:06:13Z</time>
      </trkpt>
      <trkpt lat="49.84071" lon="2.49577">
        <ele>96.7</ele>
        <time>2024-07-10T13:06:14Z</time>
      </trkpt>
      <trkpt lat="49.84071" lon="2.49579">
        <ele>96.7</ele>
        <time>2024-07-10T13:06:15Z</time>
      </trkpt>
      <trkpt lat="49.8407" lon="2.4958">
        <ele>96.7</ele>
        <time>2024-07-10T13:06:16Z</time>
      </trkpt>
      <trkpt lat="49.84069" lon="2.49581">
        <ele>96.7</ele>
        <time>2024-07-10T13:06:17Z</time>
      </trkpt>
      <trkpt lat="49.84068" lon="2.49582">
        <ele>96.7</ele>
        <time>2024-07-10T13:06:18Z</time>
      </trkpt>
      <trkpt lat="49.84067" lon="2.49583">
        <ele>96.6</ele>
        <time>2024-07-10T13:06:19Z</time>
      </trkpt>
      <trkpt lat="49.84067" lon="2.49584">
        <ele>96.6</ele>
        <time>2024-07-10T13:06:20Z</time>
      </trkpt>
      <trkpt lat="49.84066" lon="2.49585">
        <ele>96.6</ele>
        <time>2024-07-10T13:06:21Z</time>
      </trkpt>
      <trkpt lat="49.84065" lon="2.49586">
        <ele>96.6</ele>
        <time>2024-07-10T13:06:22Z</time>
      </trkpt>
      <trkpt lat="49.84064" lon="2.49587">
        <ele>96.6</ele>
        <time>2024-07-10T13:06:23Z</time>
      </trkpt>
      <trkpt lat="49.84064" lon="2.49588">
        <ele>96.6</ele>
        <time>2024-07-10T13:06:24Z</time>
      </trkpt>
      <trkpt lat="49.84063" lon="2.49589">
        <ele>96.6</ele>
        <time>2024-07-10T13:06:25Z</time>
      </trkpt>
      <trkpt lat="49.84062" lon="2.4959">
        <ele>96.6</ele>
        <time>2024-07-10T13:06:26Z</time>
      </trkpt>
      <trkpt lat="49.84061" lon="2.49591">
        <ele>96.6</ele>
        <time>2024-07-10T13:06:27Z</time>
      </trkpt>
      <trkpt lat="49.84061" lon="2.49592">
        <ele>96.6</ele>
        <time>2024-07-10T13:06:28Z</time>
      </trkpt>
      <trkpt lat="49.8406" lon="2.49593">
        <ele>96.6</ele>
        <time>2024-07-10T13:06:29Z</time>
      </trkpt>
      <trkpt lat="49.84059" lon="2.49594">
        <ele>96.6</ele>
        <time>2024-07-10T13:06:30Z</time>
      </trkpt>
      <trkpt lat="49.84058" lon="2.49594">
        <ele>96.6</ele>
        <time>2024-07-10T13:06:31Z</time>
      </trkpt>
      <trkpt lat="49.84058" lon="2.49595">
        <ele>96.6</ele>
        <time>2024-07-10T13:06:32Z</time>
      </trkpt>
      <trkpt lat="49.84057" lon="2.49596">
        <ele>96.6</ele>
        <time>2024-07-10T13:06:33Z</time>
      </trkpt>
      <trkpt lat="49.84055" lon="2.49598">
        <ele>96.6</ele>
        <time>2024-07-10T13:06:34Z</time>
      </trkpt>
      <trkpt lat="49.84055" lon="2.49599">
        <ele>96.6</ele>
        <time>2024-07-10T13:06:35Z</time>
      </trkpt>
      <trkpt lat="49.84054" lon="2.49599">
        <ele>96.6</ele>
        <time>2024-07-10T13:06:36Z</time>
      </trkpt>
      <trkpt lat="49.84054" lon="2.496">
        <ele>96.6</ele>
        <time>2024-07-10T13:06:37Z</time>
      </trkpt>
      <trkpt lat="49.84053" lon="2.49601">
        <ele>96.6</ele>
        <time>2024-07-10T13:06:38Z</time>
      </trkpt>
      <trkpt lat="49.84052" lon="2.49602">
        <ele>96.6</ele>
        <time>2024-07-10T13:06:39Z</time>
      </trkpt>
      <trkpt lat="49.84052" lon="2.49603">
        <ele>96.6</ele>
        <time>2024-07-10T13:06:40Z</time>
      </trkpt>
      <trkpt lat="49.84051" lon="2.49603">
        <ele>96.6</ele>
        <time>2024-07-10T13:06:41Z</time>
      </trkpt>
      <trkpt lat="49.8405" lon="2.49604">
        <ele>96.6</ele>
        <time>2024-07-10T13:06:42Z</time>
      </trkpt>
      <trkpt lat="49.84049" lon="2.49605">
        <ele>96.6</ele>
        <time>2024-07-10T13:06:43Z</time>
      </trkpt>
      <trkpt lat="49.84048" lon="2.49606">
        <ele>96.6</ele>
        <time>2024-07-10T13:06:44Z</time>
      </trkpt>
      <trkpt lat="49.84047" lon="2.49607">
        <ele>96.6</ele>
        <time>2024-07-10T13:06:45Z</time>
      </trkpt>
      <trkpt lat="49.84047" lon="2.49608">
        <ele>96.6</ele>
        <time>2024-07-10T13:06:46Z</time>
      </trkpt>
      <trkpt lat="49.84046" lon="2.49609">
        <ele>96.6</ele>
        <time>2024-07-10T13:06:47Z</time>
      </trkpt>
      <trkpt lat="49.84045" lon="2.4961">
        <ele>96.6</ele>
        <time>2024-07-10T13:06:48Z</time>
      </trkpt>
      <trkpt lat="49.84044" lon="2.49611">
        <ele>96.6</ele>
        <time>2024-07-10T13:06:49Z</time>
      </trkpt>
      <trkpt lat="49.84043" lon="2.49612">
        <ele>96.6</ele>
        <time>2024-07-10T13:06:50Z</time>
      </trkpt>
      <trkpt lat="49.84042" lon="2.49613">
        <ele>96.6</ele>
        <time>2024-07-10T13:06:51Z</time>
      </trkpt>
      <trkpt lat="49.84041" lon="2.49614">
        <ele>96.6</ele>
        <time>2024-07-10T13:06:52Z</time>
      </trkpt>
      <trkpt lat="49.8404" lon="2.49615">
        <ele>96.6</ele>
        <time>2024-07-10T13:06:53Z</time>
      </trkpt>
      <trkpt lat="49.84039" lon="2.49616">
        <ele>96.6</ele>
        <time>2024-07-10T13:06:54Z</time>
      </trkpt>
      <trkpt lat="49.84039" lon="2.49617">
        <ele>96.6</ele>
        <time>2024-07-10T13:06:55Z</time>
      </trkpt>
      <trkpt lat="49.84038" lon="2.49618">
        <ele>96.6</ele>
        <time>2024-07-10T13:06:56Z</time>
      </trkpt>
      <trkpt lat="49.84037" lon="2.49619">
        <ele>96.6</ele>
        <time>2024-07-10T13:06:57Z</time>
      </trkpt>
      <trkpt lat="49.84036" lon="2.49619">
        <ele>96.6</ele>
        <time>2024-07-10T13:06:58Z</time>
      </trkpt>
      <trkpt lat="49.84035" lon="2.4962">
        <ele>96.6</ele>
        <time>2024-07-10T13:06:59Z</time>
      </trkpt>
      <trkpt lat="49.84034" lon="2.49621">
        <ele>96.6</ele>
        <time>2024-07-10T13:07:00Z</time>
      </trkpt>
      <trkpt lat="49.84033" lon="2.49622">
        <ele>96.6</ele>
        <time>2024-07-10T13:07:01Z</time>
      </trkpt>
      <trkpt lat="49.84032" lon="2.49623">
        <ele>96.6</ele>
        <time>2024-07-10T13:07:02Z</time>
      </trkpt>
      <trkpt lat="49.84031" lon="2.49624">
        <ele>96.6</ele>
        <time>2024-07-10T13:07:03Z</time>
      </trkpt>
      <trkpt lat="49.8403" lon="2.49624">
        <ele>96.6</ele>
        <time>2024-07-10T13:07:04Z</time>
      </trkpt>
      <trkpt lat="49.84029" lon="2.49625">
        <ele>96.6</ele>
        <time>2024-07-10T13:07:05Z</time>
      </trkpt>
      <trkpt lat="49.84029" lon="2.49626">
        <ele>96.6</ele>
        <time>2024-07-10T13:07:06Z</time>
      </trkpt>
      <trkpt lat="49.84028" lon="2.49627">
        <ele>96.6</ele>
        <time>2024-07-10T13:07:07Z</time>
      </trkpt>
      <trkpt lat="49.84027" lon="2.49627">
        <ele>96.6</ele>
        <time>2024-07-10T13:07:08Z</time>
      </trkpt>
      <trkpt lat="49.84026" lon="2.49628">
        <ele>96.6</ele>
        <time>2024-07-10T13:07:09Z</time>
      </trkpt>
      <trkpt lat="49.84025" lon="2.49629">
        <ele>96.6</ele>
        <time>2024-07-10T13:07:10Z</time>
      </trkpt>
      <trkpt lat="49.84024" lon="2.4963">
        <ele>96.5</ele>
        <time>2024-07-10T13:07:11Z</time>
      </trkpt>
      <trkpt lat="49.84023" lon="2.4963">
        <ele>96.5</ele>
        <time>2024-07-10T13:07:12Z</time>
      </trkpt>
      <trkpt lat="49.84022" lon="2.49631">
        <ele>96.5</ele>
        <time>2024-07-10T13:07:13Z</time>
      </trkpt>
      <trkpt lat="49.84021" lon="2.49632">
        <ele>96.5</ele>
        <time>2024-07-10T13:07:14Z</time>
      </trkpt>
      <trkpt lat="49.8402" lon="2.49632">
        <ele>96.5</ele>
        <time>2024-07-10T13:07:15Z</time>
      </trkpt>
      <trkpt lat="49.84019" lon="2.49633">
        <ele>96.5</ele>
        <time>2024-07-10T13:07:16Z</time>
      </trkpt>
      <trkpt lat="49.84018" lon="2.49634">
        <ele>96.5</ele>
        <time>2024-07-10T13:07:17Z</time>
      </trkpt>
      <trkpt lat="49.84017" lon="2.49635">
        <ele>96.5</ele>
        <time>2024-07-10T13:07:18Z</time>
      </trkpt>
      <trkpt lat="49.84016" lon="2.49636">
        <ele>96.5</ele>
        <time>2024-07-10T13:07:19Z</time>
      </trkpt>
      <trkpt lat="49.84015" lon="2.49637">
        <ele>96.5</ele>
        <time>2024-07-10T13:07:20Z</time>
      </trkpt>
      <trkpt lat="49.84014" lon="2.49638">
        <ele>96.5</ele>
        <time>2024-07-10T13:07:21Z</time>
      </trkpt>
      <trkpt lat="49.84013" lon="2.49638">
        <ele>96.5</ele>
        <time>2024-07-10T13:07:22Z</time>
      </trkpt>
      <trkpt lat="49.84011" lon="2.4964">
        <ele>96.5</ele>
        <time>2024-07-10T13:07:23Z</time>
      </trkpt>
      <trkpt lat="49.84011" lon="2.49641">
        <ele>96.5</ele>
        <time>2024-07-10T13:07:24Z</time>
      </trkpt>
      <trkpt lat="49.8401" lon="2.49642">
        <ele>96.5</ele>
        <time>2024-07-10T13:07:25Z</time>
      </trkpt>
      <trkpt lat="49.84009" lon="2.49643">
        <ele>96.5</ele>
        <time>2024-07-10T13:07:26Z</time>
      </trkpt>
      <trkpt lat="49.84008" lon="2.49644">
        <ele>96.4</ele>
        <time>2024-07-10T13:07:27Z</time>
      </trkpt>
      <trkpt lat="49.84007" lon="2.49645">
        <ele>96.4</ele>
        <time>2024-07-10T13:07:28Z</time>
      </trkpt>
      <trkpt lat="49.84006" lon="2.49646">
        <ele>96.4</ele>
        <time>2024-07-10T13:07:29Z</time>
      </trkpt>
      <trkpt lat="49.84005" lon="2.49647">
        <ele>96.4</ele>
        <time>2024-07-10T13:07:30Z</time>
      </trkpt>
      <trkpt lat="49.84005" lon="2.49648">
        <ele>96.4</ele>
        <time>2024-07-10T13:07:31Z</time>
      </trkpt>
      <trkpt lat="49.84004" lon="2.4965">
        <ele>96.4</ele>
        <time>2024-07-10T13:07:32Z</time>
      </trkpt>
      <trkpt lat="49.84003" lon="2.49651">
        <ele>96.4</ele>
        <time>2024-07-10T13:07:33Z</time>
      </trkpt>
      <trkpt lat="49.84002" lon="2.49652">
        <ele>96.4</ele>
        <time>2024-07-10T13:07:34Z</time>
      </trkpt>
      <trkpt lat="49.84001" lon="2.49653">
        <ele>96.4</ele>
        <time>2024-07-10T13:07:35Z</time>
      </trkpt>
      <trkpt lat="49.84" lon="2.49654">
        <ele>96.4</ele>
        <time>2024-07-10T13:07:36Z</time>
      </trkpt>
      <trkpt lat="49.83999" lon="2.49655">
        <ele>96.4</ele>
        <time>2024-07-10T13:07:37Z</time>
      </trkpt>
      <trkpt lat="49.83998" lon="2.49656">
        <ele>96.4</ele>
        <time>2024-07-10T13:07:38Z</time>
      </trkpt>
      <trkpt lat="49.83997" lon="2.49657">
        <ele>96.3</ele>
        <time>2024-07-10T13:07:39Z</time>
      </trkpt>
      <trkpt lat="49.83997" lon="2.49658">
        <ele>96.3</ele>
        <time>2024-07-10T13:07:40Z</time>
      </trkpt>
      <trkpt lat="49.83996" lon="2.49659">
        <ele>96.3</ele>
        <time>2024-07-10T13:07:41Z</time>
      </trkpt>
      <trkpt lat="49.83995" lon="2.49661">
        <ele>96.3</ele>
        <time>2024-07-10T13:07:42Z</time>
      </trkpt>
      <trkpt lat="49.83994" lon="2.49662">
        <ele>96.3</ele>
        <time>2024-07-10T13:07:43Z</time>
      </trkpt>
      <trkpt lat="49.83993" lon="2.49663">
        <ele>96.3</ele>
        <time>2024-07-10T13:07:44Z</time>
      </trkpt>
      <trkpt lat="49.83992" lon="2.49664">
        <ele>96.3</ele>
        <time>2024-07-10T13:07:45Z</time>
      </trkpt>
      <trkpt lat="49.83992" lon="2.49665">
        <ele>96.3</ele>
        <time>2024-07-10T13:07:46Z</time>
      </trkpt>
      <trkpt lat="49.83991" lon="2.49667">
        <ele>96.3</ele>
        <time>2024-07-10T13:07:47Z</time>
      </trkpt>
      <trkpt lat="49.8399" lon="2.49668">
        <ele>96.3</ele>
        <time>2024-07-10T13:07:48Z</time>
      </trkpt>
      <trkpt lat="49.83989" lon="2.49669">
        <ele>96.2</ele>
        <time>2024-07-10T13:07:49Z</time>
      </trkpt>
      <trkpt lat="49.83988" lon="2.4967">
        <ele>96.2</ele>
        <time>2024-07-10T13:07:50Z</time>
      </trkpt>
      <trkpt lat="49.83988" lon="2.49671">
        <ele>96.2</ele>
        <time>2024-07-10T13:07:51Z</time>
      </trkpt>
      <trkpt lat="49.83987" lon="2.49672">
        <ele>96.2</ele>
        <time>2024-07-10T13:07:52Z</time>
      </trkpt>
      <trkpt lat="49.83986" lon="2.49673">
        <ele>96.2</ele>
        <time>2024-07-10T13:07:53Z</time>
      </trkpt>
      <trkpt lat="49.83985" lon="2.49674">
        <ele>96.2</ele>
        <time>2024-07-10T13:07:54Z</time>
      </trkpt>
      <trkpt lat="49.83984" lon="2.49675">
        <ele>96.2</ele>
        <time>2024-07-10T13:07:55Z</time>
      </trkpt>
      <trkpt lat="49.83983" lon="2.49676">
        <ele>96.2</ele>
        <time>2024-07-10T13:07:56Z</time>
      </trkpt>
      <trkpt lat="49.83983" lon="2.49676">
        <ele>96.2</ele>
        <time>2024-07-10T13:07:57Z</time>
      </trkpt>
      <trkpt lat="49.83982" lon="2.49677">
        <ele>96.2</ele>
        <time>2024-07-10T13:07:58Z</time>
      </trkpt>
      <trkpt lat="49.83981" lon="2.49678">
        <ele>96.2</ele>
        <time>2024-07-10T13:07:59Z</time>
      </trkpt>
      <trkpt lat="49.8398" lon="2.49679">
        <ele>96.1</ele>
        <time>2024-07-10T13:08:00Z</time>
      </trkpt>
      <trkpt lat="49.8398" lon="2.4968">
        <ele>96.1</ele>
        <time>2024-07-10T13:08:01Z</time>
      </trkpt>
      <trkpt lat="49.83979" lon="2.49681">
        <ele>96.1</ele>
        <time>2024-07-10T13:08:02Z</time>
      </trkpt>
      <trkpt lat="49.83978" lon="2.49683">
        <ele>96.1</ele>
        <time>2024-07-10T13:08:03Z</time>
      </trkpt>
      <trkpt lat="49.83977" lon="2.49684">
        <ele>96.1</ele>
        <time>2024-07-10T13:08:04Z</time>
      </trkpt>
      <trkpt lat="49.83976" lon="2.49685">
        <ele>96.1</ele>
        <time>2024-07-10T13:08:05Z</time>
      </trkpt>
      <trkpt lat="49.83975" lon="2.49686">
        <ele>96.1</ele>
        <time>2024-07-10T13:08:06Z</time>
      </trkpt>
      <trkpt lat="49.83974" lon="2.49688">
        <ele>96</ele>
        <time>2024-07-10T13:08:07Z</time>
      </trkpt>
      <trkpt lat="49.83974" lon="2.49689">
        <ele>96</ele>
        <time>2024-07-10T13:08:08Z</time>
      </trkpt>
      <trkpt lat="49.83973" lon="2.4969">
        <ele>96</ele>
        <time>2024-07-10T13:08:09Z</time>
      </trkpt>
      <trkpt lat="49.83972" lon="2.49691">
        <ele>96</ele>
        <time>2024-07-10T13:08:10Z</time>
      </trkpt>
      <trkpt lat="49.8397" lon="2.49693">
        <ele>96</ele>
        <time>2024-07-10T13:08:11Z</time>
      </trkpt>
      <trkpt lat="49.8397" lon="2.49694">
        <ele>96</ele>
        <time>2024-07-10T13:08:12Z</time>
      </trkpt>
      <trkpt lat="49.83969" lon="2.49695">
        <ele>95.9</ele>
        <time>2024-07-10T13:08:13Z</time>
      </trkpt>
      <trkpt lat="49.83968" lon="2.49696">
        <ele>95.9</ele>
        <time>2024-07-10T13:08:14Z</time>
      </trkpt>
      <trkpt lat="49.83967" lon="2.49697">
        <ele>95.9</ele>
        <time>2024-07-10T13:08:15Z</time>
      </trkpt>
      <trkpt lat="49.83966" lon="2.49697">
        <ele>95.9</ele>
        <time>2024-07-10T13:08:16Z</time>
      </trkpt>
      <trkpt lat="49.83965" lon="2.49698">
        <ele>95.9</ele>
        <time>2024-07-10T13:08:17Z</time>
      </trkpt>
      <trkpt lat="49.83964" lon="2.49699">
        <ele>95.9</ele>
        <time>2024-07-10T13:08:18Z</time>
      </trkpt>
      <trkpt lat="49.83963" lon="2.497">
        <ele>95.9</ele>
        <time>2024-07-10T13:08:19Z</time>
      </trkpt>
      <trkpt lat="49.83962" lon="2.49701">
        <ele>95.8</ele>
        <time>2024-07-10T13:08:20Z</time>
      </trkpt>
      <trkpt lat="49.83961" lon="2.49702">
        <ele>95.8</ele>
        <time>2024-07-10T13:08:21Z</time>
      </trkpt>
      <trkpt lat="49.83961" lon="2.49703">
        <ele>95.8</ele>
        <time>2024-07-10T13:08:22Z</time>
      </trkpt>
      <trkpt lat="49.8396" lon="2.49704">
        <ele>95.8</ele>
        <time>2024-07-10T13:08:23Z</time>
      </trkpt>
      <trkpt lat="49.83959" lon="2.49705">
        <ele>95.8</ele>
        <time>2024-07-10T13:08:24Z</time>
      </trkpt>
      <trkpt lat="49.83958" lon="2.49706">
        <ele>95.8</ele>
        <time>2024-07-10T13:08:25Z</time>
      </trkpt>
      <trkpt lat="49.83957" lon="2.49706">
        <ele>95.7</ele>
        <time>2024-07-10T13:08:26Z</time>
      </trkpt>
      <trkpt lat="49.83956" lon="2.49707">
        <ele>95.7</ele>
        <time>2024-07-10T13:08:27Z</time>
      </trkpt>
      <trkpt lat="49.83955" lon="2.49708">
        <ele>95.7</ele>
        <time>2024-07-10T13:08:28Z</time>
      </trkpt>
      <trkpt lat="49.83955" lon="2.49709">
        <ele>95.7</ele>
        <time>2024-07-10T13:08:29Z</time>
      </trkpt>
      <trkpt lat="49.83954" lon="2.4971">
        <ele>95.7</ele>
        <time>2024-07-10T13:08:30Z</time>
      </trkpt>
      <trkpt lat="49.83953" lon="2.49711">
        <ele>95.7</ele>
        <time>2024-07-10T13:08:31Z</time>
      </trkpt>
      <trkpt lat="49.83952" lon="2.49712">
        <ele>95.7</ele>
        <time>2024-07-10T13:08:32Z</time>
      </trkpt>
      <trkpt lat="49.83951" lon="2.49713">
        <ele>95.7</ele>
        <time>2024-07-10T13:08:33Z</time>
      </trkpt>
      <trkpt lat="49.8395" lon="2.49714">
        <ele>95.6</ele>
        <time>2024-07-10T13:08:34Z</time>
      </trkpt>
      <trkpt lat="49.83949" lon="2.49715">
        <ele>95.6</ele>
        <time>2024-07-10T13:08:35Z</time>
      </trkpt>
      <trkpt lat="49.83949" lon="2.49716">
        <ele>95.6</ele>
        <time>2024-07-10T13:08:36Z</time>
      </trkpt>
      <trkpt lat="49.83948" lon="2.49717">
        <ele>95.6</ele>
        <time>2024-07-10T13:08:37Z</time>
      </trkpt>
      <trkpt lat="49.83947" lon="2.49718">
        <ele>95.6</ele>
        <time>2024-07-10T13:08:38Z</time>
      </trkpt>
      <trkpt lat="49.83946" lon="2.49719">
        <ele>95.6</ele>
        <time>2024-07-10T13:08:39Z</time>
      </trkpt>
      <trkpt lat="49.83945" lon="2.4972">
        <ele>95.6</ele>
        <time>2024-07-10T13:08:40Z</time>
      </trkpt>
      <trkpt lat="49.83944" lon="2.49721">
        <ele>95.5</ele>
        <time>2024-07-10T13:08:41Z</time>
      </trkpt>
      <trkpt lat="49.83944" lon="2.49722">
        <ele>95.5</ele>
        <time>2024-07-10T13:08:42Z</time>
      </trkpt>
      <trkpt lat="49.83943" lon="2.49724">
        <ele>95.5</ele>
        <time>2024-07-10T13:08:43Z</time>
      </trkpt>
      <trkpt lat="49.83942" lon="2.49725">
        <ele>95.5</ele>
        <time>2024-07-10T13:08:44Z</time>
      </trkpt>
      <trkpt lat="49.83941" lon="2.49726">
        <ele>95.5</ele>
        <time>2024-07-10T13:08:45Z</time>
      </trkpt>
      <trkpt lat="49.8394" lon="2.49727">
        <ele>95.5</ele>
        <time>2024-07-10T13:08:46Z</time>
      </trkpt>
      <trkpt lat="49.83939" lon="2.49728">
        <ele>95.5</ele>
        <time>2024-07-10T13:08:47Z</time>
      </trkpt>
      <trkpt lat="49.83938" lon="2.4973">
        <ele>95.4</ele>
        <time>2024-07-10T13:08:48Z</time>
      </trkpt>
      <trkpt lat="49.83937" lon="2.4973">
        <ele>95.4</ele>
        <time>2024-07-10T13:08:49Z</time>
      </trkpt>
      <trkpt lat="49.83936" lon="2.49732">
        <ele>95.4</ele>
        <time>2024-07-10T13:08:50Z</time>
      </trkpt>
      <trkpt lat="49.83935" lon="2.49733">
        <ele>95.4</ele>
        <time>2024-07-10T13:08:51Z</time>
      </trkpt>
      <trkpt lat="49.83935" lon="2.49734">
        <ele>95.4</ele>
        <time>2024-07-10T13:08:52Z</time>
      </trkpt>
      <trkpt lat="49.83934" lon="2.49735">
        <ele>95.4</ele>
        <time>2024-07-10T13:08:53Z</time>
      </trkpt>
      <trkpt lat="49.83933" lon="2.49736">
        <ele>95.3</ele>
        <time>2024-07-10T13:08:54Z</time>
      </trkpt>
      <trkpt lat="49.83932" lon="2.49738">
        <ele>95.3</ele>
        <time>2024-07-10T13:08:55Z</time>
      </trkpt>
      <trkpt lat="49.83931" lon="2.49739">
        <ele>95.3</ele>
        <time>2024-07-10T13:08:56Z</time>
      </trkpt>
      <trkpt lat="49.8393" lon="2.4974">
        <ele>95.3</ele>
        <time>2024-07-10T13:08:57Z</time>
      </trkpt>
      <trkpt lat="49.83929" lon="2.49741">
        <ele>95.3</ele>
        <time>2024-07-10T13:08:58Z</time>
      </trkpt>
      <trkpt lat="49.83929" lon="2.49743">
        <ele>95.3</ele>
        <time>2024-07-10T13:08:59Z</time>
      </trkpt>
      <trkpt lat="49.83928" lon="2.49744">
        <ele>95.2</ele>
        <time>2024-07-10T13:09:00Z</time>
      </trkpt>
      <trkpt lat="49.83927" lon="2.49745">
        <ele>95.2</ele>
        <time>2024-07-10T13:09:01Z</time>
      </trkpt>
      <trkpt lat="49.83926" lon="2.49746">
        <ele>95.2</ele>
        <time>2024-07-10T13:09:02Z</time>
      </trkpt>
      <trkpt lat="49.83926" lon="2.49747">
        <ele>95.2</ele>
        <time>2024-07-10T13:09:03Z</time>
      </trkpt>
      <trkpt lat="49.83925" lon="2.49748">
        <ele>95.2</ele>
        <time>2024-07-10T13:09:04Z</time>
      </trkpt>
      <trkpt lat="49.83924" lon="2.49749">
        <ele>95.2</ele>
        <time>2024-07-10T13:09:05Z</time>
      </trkpt>
      <trkpt lat="49.83923" lon="2.49751">
        <ele>95.2</ele>
        <time>2024-07-10T13:09:06Z</time>
      </trkpt>
      <trkpt lat="49.83922" lon="2.49752">
        <ele>95.1</ele>
        <time>2024-07-10T13:09:07Z</time>
      </trkpt>
      <trkpt lat="49.83922" lon="2.49753">
        <ele>95.1</ele>
        <time>2024-07-10T13:09:08Z</time>
      </trkpt>
      <trkpt lat="49.83921" lon="2.49754">
        <ele>95.1</ele>
        <time>2024-07-10T13:09:09Z</time>
      </trkpt>
      <trkpt lat="49.8392" lon="2.49754">
        <ele>95.1</ele>
        <time>2024-07-10T13:09:10Z</time>
      </trkpt>
      <trkpt lat="49.83919" lon="2.49756">
        <ele>95.1</ele>
        <time>2024-07-10T13:09:11Z</time>
      </trkpt>
      <trkpt lat="49.83918" lon="2.49757">
        <ele>95.1</ele>
        <time>2024-07-10T13:09:12Z</time>
      </trkpt>
      <trkpt lat="49.83917" lon="2.49758">
        <ele>95</ele>
        <time>2024-07-10T13:09:13Z</time>
      </trkpt>
      <trkpt lat="49.83916" lon="2.49759">
        <ele>95</ele>
        <time>2024-07-10T13:09:14Z</time>
      </trkpt>
      <trkpt lat="49.83916" lon="2.4976">
        <ele>95</ele>
        <time>2024-07-10T13:09:15Z</time>
      </trkpt>
      <trkpt lat="49.83915" lon="2.49761">
        <ele>95</ele>
        <time>2024-07-10T13:09:16Z</time>
      </trkpt>
      <trkpt lat="49.83914" lon="2.49762">
        <ele>95</ele>
        <time>2024-07-10T13:09:17Z</time>
      </trkpt>
      <trkpt lat="49.83913" lon="2.49763">
        <ele>95</ele>
        <time>2024-07-10T13:09:18Z</time>
      </trkpt>
      <trkpt lat="49.83912" lon="2.49764">
        <ele>95</ele>
        <time>2024-07-10T13:09:19Z</time>
      </trkpt>
      <trkpt lat="49.83911" lon="2.49765">
        <ele>94.9</ele>
        <time>2024-07-10T13:09:20Z</time>
      </trkpt>
      <trkpt lat="49.83911" lon="2.49766">
        <ele>94.9</ele>
        <time>2024-07-10T13:09:21Z</time>
      </trkpt>
      <trkpt lat="49.8391" lon="2.49767">
        <ele>94.9</ele>
        <time>2024-07-10T13:09:22Z</time>
      </trkpt>
      <trkpt lat="49.83909" lon="2.49768">
        <ele>94.9</ele>
        <time>2024-07-10T13:09:23Z</time>
      </trkpt>
      <trkpt lat="49.83908" lon="2.49769">
        <ele>94.9</ele>
        <time>2024-07-10T13:09:24Z</time>
      </trkpt>
      <trkpt lat="49.83908" lon="2.49769">
        <ele>94.9</ele>
        <time>2024-07-10T13:09:25Z</time>
      </trkpt>
      <trkpt lat="49.83907" lon="2.4977">
        <ele>94.9</ele>
        <time>2024-07-10T13:09:26Z</time>
      </trkpt>
      <trkpt lat="49.83906" lon="2.49771">
        <ele>94.8</ele>
        <time>2024-07-10T13:09:27Z</time>
      </trkpt>
      <trkpt lat="49.83905" lon="2.49773">
        <ele>94.8</ele>
        <time>2024-07-10T13:09:28Z</time>
      </trkpt>
      <trkpt lat="49.83905" lon="2.49774">
        <ele>94.8</ele>
        <time>2024-07-10T13:09:29Z</time>
      </trkpt>
      <trkpt lat="49.83904" lon="2.49775">
        <ele>94.8</ele>
        <time>2024-07-10T13:09:30Z</time>
      </trkpt>
      <trkpt lat="49.83903" lon="2.49776">
        <ele>94.8</ele>
        <time>2024-07-10T13:09:31Z</time>
      </trkpt>
      <trkpt lat="49.83902" lon="2.49777">
        <ele>94.8</ele>
        <time>2024-07-10T13:09:32Z</time>
      </trkpt>
      <trkpt lat="49.83901" lon="2.49778">
        <ele>94.7</ele>
        <time>2024-07-10T13:09:33Z</time>
      </trkpt>
      <trkpt lat="49.839" lon="2.49779">
        <ele>94.7</ele>
        <time>2024-07-10T13:09:34Z</time>
      </trkpt>
      <trkpt lat="49.83899" lon="2.4978">
        <ele>94.7</ele>
        <time>2024-07-10T13:09:35Z</time>
      </trkpt>
      <trkpt lat="49.83898" lon="2.4978">
        <ele>94.7</ele>
        <time>2024-07-10T13:09:36Z</time>
      </trkpt>
      <trkpt lat="49.83898" lon="2.49781">
        <ele>94.7</ele>
        <time>2024-07-10T13:09:37Z</time>
      </trkpt>
      <trkpt lat="49.83897" lon="2.49782">
        <ele>94.7</ele>
        <time>2024-07-10T13:09:38Z</time>
      </trkpt>
      <trkpt lat="49.83896" lon="2.49782">
        <ele>94.7</ele>
        <time>2024-07-10T13:09:39Z</time>
      </trkpt>
      <trkpt lat="49.83895" lon="2.49783">
        <ele>94.6</ele>
        <time>2024-07-10T13:09:40Z</time>
      </trkpt>
      <trkpt lat="49.83894" lon="2.49784">
        <ele>94.6</ele>
        <time>2024-07-10T13:09:41Z</time>
      </trkpt>
      <trkpt lat="49.83893" lon="2.49785">
        <ele>94.6</ele>
        <time>2024-07-10T13:09:42Z</time>
      </trkpt>
      <trkpt lat="49.83892" lon="2.49786">
        <ele>94.6</ele>
        <time>2024-07-10T13:09:43Z</time>
      </trkpt>
      <trkpt lat="49.83891" lon="2.49787">
        <ele>94.6</ele>
        <time>2024-07-10T13:09:44Z</time>
      </trkpt>
      <trkpt lat="49.83891" lon="2.49788">
        <ele>94.6</ele>
        <time>2024-07-10T13:09:45Z</time>
      </trkpt>
      <trkpt lat="49.8389" lon="2.49789">
        <ele>94.5</ele>
        <time>2024-07-10T13:09:46Z</time>
      </trkpt>
      <trkpt lat="49.83889" lon="2.49789">
        <ele>94.5</ele>
        <time>2024-07-10T13:09:47Z</time>
      </trkpt>
      <trkpt lat="49.83888" lon="2.4979">
        <ele>94.5</ele>
        <time>2024-07-10T13:09:48Z</time>
      </trkpt>
      <trkpt lat="49.83887" lon="2.49791">
        <ele>94.5</ele>
        <time>2024-07-10T13:09:49Z</time>
      </trkpt>
      <trkpt lat="49.83886" lon="2.49792">
        <ele>94.5</ele>
        <time>2024-07-10T13:09:50Z</time>
      </trkpt>
      <trkpt lat="49.83886" lon="2.49793">
        <ele>94.5</ele>
        <time>2024-07-10T13:09:51Z</time>
      </trkpt>
      <trkpt lat="49.83885" lon="2.49794">
        <ele>94.5</ele>
        <time>2024-07-10T13:09:52Z</time>
      </trkpt>
      <trkpt lat="49.83884" lon="2.49794">
        <ele>94.5</ele>
        <time>2024-07-10T13:09:53Z</time>
      </trkpt>
      <trkpt lat="49.83883" lon="2.49795">
        <ele>94.4</ele>
        <time>2024-07-10T13:09:54Z</time>
      </trkpt>
      <trkpt lat="49.83882" lon="2.49796">
        <ele>94.4</ele>
        <time>2024-07-10T13:09:55Z</time>
      </trkpt>
      <trkpt lat="49.83881" lon="2.49797">
        <ele>94.4</ele>
        <time>2024-07-10T13:09:56Z</time>
      </trkpt>
      <trkpt lat="49.8388" lon="2.49798">
        <ele>94.4</ele>
        <time>2024-07-10T13:09:57Z</time>
      </trkpt>
      <trkpt lat="49.83879" lon="2.49799">
        <ele>94.4</ele>
        <time>2024-07-10T13:09:58Z</time>
      </trkpt>
      <trkpt lat="49.83878" lon="2.498">
        <ele>94.4</ele>
        <time>2024-07-10T13:09:59Z</time>
      </trkpt>
      <trkpt lat="49.83877" lon="2.49801">
        <ele>94.4</ele>
        <time>2024-07-10T13:10:00Z</time>
      </trkpt>
      <trkpt lat="49.83876" lon="2.49802">
        <ele>94.4</ele>
        <time>2024-07-10T13:10:01Z</time>
      </trkpt>
      <trkpt lat="49.83875" lon="2.49803">
        <ele>94.3</ele>
        <time>2024-07-10T13:10:02Z</time>
      </trkpt>
      <trkpt lat="49.83874" lon="2.49803">
        <ele>94.3</ele>
        <time>2024-07-10T13:10:03Z</time>
      </trkpt>
      <trkpt lat="49.83873" lon="2.49804">
        <ele>94.3</ele>
        <time>2024-07-10T13:10:04Z</time>
      </trkpt>
      <trkpt lat="49.83872" lon="2.49806">
        <ele>94.3</ele>
        <time>2024-07-10T13:10:05Z</time>
      </trkpt>
      <trkpt lat="49.83872" lon="2.49807">
        <ele>94.3</ele>
        <time>2024-07-10T13:10:06Z</time>
      </trkpt>
      <trkpt lat="49.83871" lon="2.49808">
        <ele>94.3</ele>
        <time>2024-07-10T13:10:07Z</time>
      </trkpt>
      <trkpt lat="49.8387" lon="2.49809">
        <ele>94.3</ele>
        <time>2024-07-10T13:10:08Z</time>
      </trkpt>
      <trkpt lat="49.83869" lon="2.4981">
        <ele>94.3</ele>
        <time>2024-07-10T13:10:09Z</time>
      </trkpt>
      <trkpt lat="49.83868" lon="2.49811">
        <ele>94.2</ele>
        <time>2024-07-10T13:10:10Z</time>
      </trkpt>
      <trkpt lat="49.83867" lon="2.49812">
        <ele>94.2</ele>
        <time>2024-07-10T13:10:11Z</time>
      </trkpt>
      <trkpt lat="49.83866" lon="2.49813">
        <ele>94.2</ele>
        <time>2024-07-10T13:10:12Z</time>
      </trkpt>
      <trkpt lat="49.83865" lon="2.49814">
        <ele>94.2</ele>
        <time>2024-07-10T13:10:13Z</time>
      </trkpt>
      <trkpt lat="49.83865" lon="2.49815">
        <ele>94.2</ele>
        <time>2024-07-10T13:10:14Z</time>
      </trkpt>
      <trkpt lat="49.83864" lon="2.49816">
        <ele>94.2</ele>
        <time>2024-07-10T13:10:15Z</time>
      </trkpt>
      <trkpt lat="49.83863" lon="2.49817">
        <ele>94.2</ele>
        <time>2024-07-10T13:10:16Z</time>
      </trkpt>
      <trkpt lat="49.83862" lon="2.49818">
        <ele>94.2</ele>
        <time>2024-07-10T13:10:17Z</time>
      </trkpt>
      <trkpt lat="49.83861" lon="2.49819">
        <ele>94.1</ele>
        <time>2024-07-10T13:10:18Z</time>
      </trkpt>
      <trkpt lat="49.83861" lon="2.4982">
        <ele>94.1</ele>
        <time>2024-07-10T13:10:19Z</time>
      </trkpt>
      <trkpt lat="49.8386" lon="2.49821">
        <ele>94.1</ele>
        <time>2024-07-10T13:10:20Z</time>
      </trkpt>
      <trkpt lat="49.83858" lon="2.49822">
        <ele>94.1</ele>
        <time>2024-07-10T13:10:21Z</time>
      </trkpt>
      <trkpt lat="49.83858" lon="2.49823">
        <ele>94.1</ele>
        <time>2024-07-10T13:10:22Z</time>
      </trkpt>
      <trkpt lat="49.83857" lon="2.49823">
        <ele>94.1</ele>
        <time>2024-07-10T13:10:23Z</time>
      </trkpt>
      <trkpt lat="49.83857" lon="2.49824">
        <ele>94.1</ele>
        <time>2024-07-10T13:10:24Z</time>
      </trkpt>
      <trkpt lat="49.83856" lon="2.49825">
        <ele>94.1</ele>
        <time>2024-07-10T13:10:25Z</time>
      </trkpt>
      <trkpt lat="49.83855" lon="2.49826">
        <ele>94.1</ele>
        <time>2024-07-10T13:10:26Z</time>
      </trkpt>
      <trkpt lat="49.83854" lon="2.49827">
        <ele>94</ele>
        <time>2024-07-10T13:10:27Z</time>
      </trkpt>
      <trkpt lat="49.83853" lon="2.49828">
        <ele>94</ele>
        <time>2024-07-10T13:10:28Z</time>
      </trkpt>
      <trkpt lat="49.83853" lon="2.49829">
        <ele>94</ele>
        <time>2024-07-10T13:10:29Z</time>
      </trkpt>
      <trkpt lat="49.83852" lon="2.4983">
        <ele>94</ele>
        <time>2024-07-10T13:10:30Z</time>
      </trkpt>
      <trkpt lat="49.83851" lon="2.4983">
        <ele>94</ele>
        <time>2024-07-10T13:10:31Z</time>
      </trkpt>
      <trkpt lat="49.83851" lon="2.49831">
        <ele>94</ele>
        <time>2024-07-10T13:10:32Z</time>
      </trkpt>
      <trkpt lat="49.8385" lon="2.49832">
        <ele>94</ele>
        <time>2024-07-10T13:10:33Z</time>
      </trkpt>
      <trkpt lat="49.83849" lon="2.49833">
        <ele>94</ele>
        <time>2024-07-10T13:10:34Z</time>
      </trkpt>
      <trkpt lat="49.83849" lon="2.49833">
        <ele>94</ele>
        <time>2024-07-10T13:10:35Z</time>
      </trkpt>
      <trkpt lat="49.83848" lon="2.49834">
        <ele>94</ele>
        <time>2024-07-10T13:10:36Z</time>
      </trkpt>
      <trkpt lat="49.83848" lon="2.49835">
        <ele>93.9</ele>
        <time>2024-07-10T13:10:37Z</time>
      </trkpt>
      <trkpt lat="49.83847" lon="2.49836">
        <ele>93.9</ele>
        <time>2024-07-10T13:10:38Z</time>
      </trkpt>
      <trkpt lat="49.83846" lon="2.49837">
        <ele>93.9</ele>
        <time>2024-07-10T13:10:39Z</time>
      </trkpt>
      <trkpt lat="49.83846" lon="2.49838">
        <ele>93.9</ele>
        <time>2024-07-10T13:10:40Z</time>
      </trkpt>
      <trkpt lat="49.83845" lon="2.49839">
        <ele>93.9</ele>
        <time>2024-07-10T13:10:41Z</time>
      </trkpt>
      <trkpt lat="49.83844" lon="2.4984">
        <ele>93.9</ele>
        <time>2024-07-10T13:10:42Z</time>
      </trkpt>
      <trkpt lat="49.83843" lon="2.49841">
        <ele>93.9</ele>
        <time>2024-07-10T13:10:43Z</time>
      </trkpt>
      <trkpt lat="49.83842" lon="2.49842">
        <ele>93.8</ele>
        <time>2024-07-10T13:10:44Z</time>
      </trkpt>
      <trkpt lat="49.83842" lon="2.49843">
        <ele>93.8</ele>
        <time>2024-07-10T13:10:45Z</time>
      </trkpt>
      <trkpt lat="49.83841" lon="2.49844">
        <ele>93.8</ele>
        <time>2024-07-10T13:10:46Z</time>
      </trkpt>
      <trkpt lat="49.8384" lon="2.49845">
        <ele>93.8</ele>
        <time>2024-07-10T13:10:47Z</time>
      </trkpt>
      <trkpt lat="49.83839" lon="2.49846">
        <ele>93.8</ele>
        <time>2024-07-10T13:10:48Z</time>
      </trkpt>
      <trkpt lat="49.83838" lon="2.49847">
        <ele>93.8</ele>
        <time>2024-07-10T13:10:49Z</time>
      </trkpt>
      <trkpt lat="49.83837" lon="2.49848">
        <ele>93.7</ele>
        <time>2024-07-10T13:10:50Z</time>
      </trkpt>
      <trkpt lat="49.83837" lon="2.4985">
        <ele>93.7</ele>
        <time>2024-07-10T13:10:51Z</time>
      </trkpt>
      <trkpt lat="49.83836" lon="2.49851">
        <ele>93.7</ele>
        <time>2024-07-10T13:10:52Z</time>
      </trkpt>
      <trkpt lat="49.83835" lon="2.49852">
        <ele>93.7</ele>
        <time>2024-07-10T13:10:53Z</time>
      </trkpt>
      <trkpt lat="49.83834" lon="2.49853">
        <ele>93.7</ele>
        <time>2024-07-10T13:10:54Z</time>
      </trkpt>
      <trkpt lat="49.83833" lon="2.49854">
        <ele>93.7</ele>
        <time>2024-07-10T13:10:55Z</time>
      </trkpt>
      <trkpt lat="49.83833" lon="2.49855">
        <ele>93.6</ele>
        <time>2024-07-10T13:10:56Z</time>
      </trkpt>
      <trkpt lat="49.83832" lon="2.49857">
        <ele>93.6</ele>
        <time>2024-07-10T13:10:57Z</time>
      </trkpt>
      <trkpt lat="49.83831" lon="2.49858">
        <ele>93.6</ele>
        <time>2024-07-10T13:10:58Z</time>
      </trkpt>
      <trkpt lat="49.8383" lon="2.49859">
        <ele>93.6</ele>
        <time>2024-07-10T13:10:59Z</time>
      </trkpt>
      <trkpt lat="49.83829" lon="2.4986">
        <ele>93.6</ele>
        <time>2024-07-10T13:11:00Z</time>
      </trkpt>
      <trkpt lat="49.83829" lon="2.49861">
        <ele>93.5</ele>
        <time>2024-07-10T13:11:01Z</time>
      </trkpt>
      <trkpt lat="49.83828" lon="2.49863">
        <ele>93.5</ele>
        <time>2024-07-10T13:11:02Z</time>
      </trkpt>
      <trkpt lat="49.83827" lon="2.49864">
        <ele>93.5</ele>
        <time>2024-07-10T13:11:03Z</time>
      </trkpt>
      <trkpt lat="49.83826" lon="2.49865">
        <ele>93.5</ele>
        <time>2024-07-10T13:11:04Z</time>
      </trkpt>
      <trkpt lat="49.83825" lon="2.49866">
        <ele>93.5</ele>
        <time>2024-07-10T13:11:05Z</time>
      </trkpt>
      <trkpt lat="49.83825" lon="2.49868">
        <ele>93.4</ele>
        <time>2024-07-10T13:11:06Z</time>
      </trkpt>
      <trkpt lat="49.83824" lon="2.49869">
        <ele>93.4</ele>
        <time>2024-07-10T13:11:07Z</time>
      </trkpt>
      <trkpt lat="49.83823" lon="2.4987">
        <ele>93.4</ele>
        <time>2024-07-10T13:11:08Z</time>
      </trkpt>
      <trkpt lat="49.83822" lon="2.49871">
        <ele>93.4</ele>
        <time>2024-07-10T13:11:09Z</time>
      </trkpt>
      <trkpt lat="49.83822" lon="2.49872">
        <ele>93.4</ele>
        <time>2024-07-10T13:11:10Z</time>
      </trkpt>
      <trkpt lat="49.83821" lon="2.49873">
        <ele>93.3</ele>
        <time>2024-07-10T13:11:11Z</time>
      </trkpt>
      <trkpt lat="49.8382" lon="2.49875">
        <ele>93.3</ele>
        <time>2024-07-10T13:11:12Z</time>
      </trkpt>
      <trkpt lat="49.83819" lon="2.49876">
        <ele>93.3</ele>
        <time>2024-07-10T13:11:13Z</time>
      </trkpt>
      <trkpt lat="49.83818" lon="2.49877">
        <ele>93.3</ele>
        <time>2024-07-10T13:11:14Z</time>
      </trkpt>
      <trkpt lat="49.83817" lon="2.49878">
        <ele>93.3</ele>
        <time>2024-07-10T13:11:15Z</time>
      </trkpt>
      <trkpt lat="49.83816" lon="2.49878">
        <ele>93.2</ele>
        <time>2024-07-10T13:11:16Z</time>
      </trkpt>
      <trkpt lat="49.83816" lon="2.49879">
        <ele>93.2</ele>
        <time>2024-07-10T13:11:17Z</time>
      </trkpt>
      <trkpt lat="49.83815" lon="2.4988">
        <ele>93.2</ele>
        <time>2024-07-10T13:11:18Z</time>
      </trkpt>
      <trkpt lat="49.83814" lon="2.49881">
        <ele>93.1</ele>
        <time>2024-07-10T13:11:19Z</time>
      </trkpt>
      <trkpt lat="49.83813" lon="2.49882">
        <ele>93.1</ele>
        <time>2024-07-10T13:11:20Z</time>
      </trkpt>
      <trkpt lat="49.83812" lon="2.49883">
        <ele>93.1</ele>
        <time>2024-07-10T13:11:21Z</time>
      </trkpt>
      <trkpt lat="49.83811" lon="2.49884">
        <ele>93.1</ele>
        <time>2024-07-10T13:11:22Z</time>
      </trkpt>
      <trkpt lat="49.83811" lon="2.49885">
        <ele>93.1</ele>
        <time>2024-07-10T13:11:23Z</time>
      </trkpt>
      <trkpt lat="49.8381" lon="2.49886">
        <ele>93</ele>
        <time>2024-07-10T13:11:24Z</time>
      </trkpt>
      <trkpt lat="49.83809" lon="2.49888">
        <ele>93</ele>
        <time>2024-07-10T13:11:25Z</time>
      </trkpt>
      <trkpt lat="49.83808" lon="2.49889">
        <ele>93</ele>
        <time>2024-07-10T13:11:26Z</time>
      </trkpt>
      <trkpt lat="49.83808" lon="2.4989">
        <ele>93</ele>
        <time>2024-07-10T13:11:27Z</time>
      </trkpt>
      <trkpt lat="49.83807" lon="2.4989">
        <ele>92.9</ele>
        <time>2024-07-10T13:11:28Z</time>
      </trkpt>
      <trkpt lat="49.83806" lon="2.49891">
        <ele>92.9</ele>
        <time>2024-07-10T13:11:29Z</time>
      </trkpt>
      <trkpt lat="49.83805" lon="2.49892">
        <ele>92.9</ele>
        <time>2024-07-10T13:11:30Z</time>
      </trkpt>
      <trkpt lat="49.83804" lon="2.49893">
        <ele>92.9</ele>
        <time>2024-07-10T13:11:31Z</time>
      </trkpt>
      <trkpt lat="49.83804" lon="2.49893">
        <ele>92.8</ele>
        <time>2024-07-10T13:11:32Z</time>
      </trkpt>
      <trkpt lat="49.83803" lon="2.49894">
        <ele>92.8</ele>
        <time>2024-07-10T13:11:33Z</time>
      </trkpt>
      <trkpt lat="49.83802" lon="2.49895">
        <ele>92.8</ele>
        <time>2024-07-10T13:11:34Z</time>
      </trkpt>
      <trkpt lat="49.83801" lon="2.49896">
        <ele>92.7</ele>
        <time>2024-07-10T13:11:35Z</time>
      </trkpt>
      <trkpt lat="49.838" lon="2.49897">
        <ele>92.7</ele>
        <time>2024-07-10T13:11:36Z</time>
      </trkpt>
      <trkpt lat="49.838" lon="2.49898">
        <ele>92.7</ele>
        <time>2024-07-10T13:11:37Z</time>
      </trkpt>
      <trkpt lat="49.83799" lon="2.49899">
        <ele>92.7</ele>
        <time>2024-07-10T13:11:38Z</time>
      </trkpt>
      <trkpt lat="49.83798" lon="2.499">
        <ele>92.6</ele>
        <time>2024-07-10T13:11:39Z</time>
      </trkpt>
      <trkpt lat="49.83797" lon="2.49901">
        <ele>92.6</ele>
        <time>2024-07-10T13:11:40Z</time>
      </trkpt>
      <trkpt lat="49.83796" lon="2.49902">
        <ele>92.6</ele>
        <time>2024-07-10T13:11:41Z</time>
      </trkpt>
      <trkpt lat="49.83795" lon="2.49902">
        <ele>92.6</ele>
        <time>2024-07-10T13:11:42Z</time>
      </trkpt>
      <trkpt lat="49.83794" lon="2.49903">
        <ele>92.5</ele>
        <time>2024-07-10T13:11:43Z</time>
      </trkpt>
      <trkpt lat="49.83793" lon="2.49904">
        <ele>92.5</ele>
        <time>2024-07-10T13:11:44Z</time>
      </trkpt>
      <trkpt lat="49.83793" lon="2.49905">
        <ele>92.5</ele>
        <time>2024-07-10T13:11:45Z</time>
      </trkpt>
      <trkpt lat="49.83792" lon="2.49906">
        <ele>92.5</ele>
        <time>2024-07-10T13:11:46Z</time>
      </trkpt>
      <trkpt lat="49.83792" lon="2.49907">
        <ele>92.4</ele>
        <time>2024-07-10T13:11:47Z</time>
      </trkpt>
      <trkpt lat="49.83791" lon="2.49908">
        <ele>92.4</ele>
        <time>2024-07-10T13:11:48Z</time>
      </trkpt>
      <trkpt lat="49.8379" lon="2.49909">
        <ele>92.4</ele>
        <time>2024-07-10T13:11:49Z</time>
      </trkpt>
      <trkpt lat="49.83789" lon="2.4991">
        <ele>92.4</ele>
        <time>2024-07-10T13:11:50Z</time>
      </trkpt>
      <trkpt lat="49.83788" lon="2.4991">
        <ele>92.3</ele>
        <time>2024-07-10T13:11:51Z</time>
      </trkpt>
      <trkpt lat="49.83788" lon="2.49911">
        <ele>92.3</ele>
        <time>2024-07-10T13:11:52Z</time>
      </trkpt>
      <trkpt lat="49.83787" lon="2.49912">
        <ele>92.3</ele>
        <time>2024-07-10T13:11:53Z</time>
      </trkpt>
      <trkpt lat="49.83786" lon="2.49912">
        <ele>92.3</ele>
        <time>2024-07-10T13:11:54Z</time>
      </trkpt>
      <trkpt lat="49.83785" lon="2.49913">
        <ele>92.2</ele>
        <time>2024-07-10T13:11:55Z</time>
      </trkpt>
      <trkpt lat="49.83784" lon="2.49913">
        <ele>92.2</ele>
        <time>2024-07-10T13:11:56Z</time>
      </trkpt>
      <trkpt lat="49.83783" lon="2.49914">
        <ele>92.2</ele>
        <time>2024-07-10T13:11:57Z</time>
      </trkpt>
      <trkpt lat="49.83782" lon="2.49915">
        <ele>92.2</ele>
        <time>2024-07-10T13:11:58Z</time>
      </trkpt>
      <trkpt lat="49.83781" lon="2.49916">
        <ele>92.1</ele>
        <time>2024-07-10T13:11:59Z</time>
      </trkpt>
      <trkpt lat="49.8378" lon="2.49917">
        <ele>92.1</ele>
        <time>2024-07-10T13:12:00Z</time>
      </trkpt>
      <trkpt lat="49.83779" lon="2.49918">
        <ele>92.1</ele>
        <time>2024-07-10T13:12:01Z</time>
      </trkpt>
      <trkpt lat="49.83778" lon="2.49919">
        <ele>92</ele>
        <time>2024-07-10T13:12:02Z</time>
      </trkpt>
      <trkpt lat="49.83777" lon="2.4992">
        <ele>92</ele>
        <time>2024-07-10T13:12:03Z</time>
      </trkpt>
      <trkpt lat="49.83776" lon="2.49921">
        <ele>92</ele>
        <time>2024-07-10T13:12:04Z</time>
      </trkpt>
      <trkpt lat="49.83776" lon="2.49922">
        <ele>92</ele>
        <time>2024-07-10T13:12:05Z</time>
      </trkpt>
      <trkpt lat="49.83775" lon="2.49923">
        <ele>91.9</ele>
        <time>2024-07-10T13:12:06Z</time>
      </trkpt>
      <trkpt lat="49.83774" lon="2.49923">
        <ele>91.9</ele>
        <time>2024-07-10T13:12:07Z</time>
      </trkpt>
      <trkpt lat="49.83773" lon="2.49924">
        <ele>91.9</ele>
        <time>2024-07-10T13:12:08Z</time>
      </trkpt>
      <trkpt lat="49.83772" lon="2.49925">
        <ele>91.9</ele>
        <time>2024-07-10T13:12:09Z</time>
      </trkpt>
      <trkpt lat="49.83771" lon="2.49926">
        <ele>91.9</ele>
        <time>2024-07-10T13:12:10Z</time>
      </trkpt>
      <trkpt lat="49.8377" lon="2.49927">
        <ele>91.8</ele>
        <time>2024-07-10T13:12:11Z</time>
      </trkpt>
      <trkpt lat="49.83769" lon="2.49928">
        <ele>91.8</ele>
        <time>2024-07-10T13:12:12Z</time>
      </trkpt>
      <trkpt lat="49.83769" lon="2.49928">
        <ele>91.8</ele>
        <time>2024-07-10T13:12:13Z</time>
      </trkpt>
      <trkpt lat="49.83768" lon="2.49928">
        <ele>91.8</ele>
        <time>2024-07-10T13:12:14Z</time>
      </trkpt>
      <trkpt lat="49.83767" lon="2.49929">
        <ele>91.8</ele>
        <time>2024-07-10T13:12:15Z</time>
      </trkpt>
      <trkpt lat="49.83766" lon="2.4993">
        <ele>91.7</ele>
        <time>2024-07-10T13:12:16Z</time>
      </trkpt>
      <trkpt lat="49.83766" lon="2.49931">
        <ele>91.7</ele>
        <time>2024-07-10T13:12:17Z</time>
      </trkpt>
      <trkpt lat="49.83765" lon="2.49932">
        <ele>91.7</ele>
        <time>2024-07-10T13:12:18Z</time>
      </trkpt>
      <trkpt lat="49.83764" lon="2.49933">
        <ele>91.7</ele>
        <time>2024-07-10T13:12:19Z</time>
      </trkpt>
      <trkpt lat="49.83763" lon="2.49934">
        <ele>91.6</ele>
        <time>2024-07-10T13:12:20Z</time>
      </trkpt>
      <trkpt lat="49.83762" lon="2.49935">
        <ele>91.6</ele>
        <time>2024-07-10T13:12:21Z</time>
      </trkpt>
      <trkpt lat="49.83761" lon="2.49936">
        <ele>91.6</ele>
        <time>2024-07-10T13:12:22Z</time>
      </trkpt>
      <trkpt lat="49.8376" lon="2.49936">
        <ele>91.6</ele>
        <time>2024-07-10T13:12:23Z</time>
      </trkpt>
      <trkpt lat="49.83759" lon="2.49937">
        <ele>91.6</ele>
        <time>2024-07-10T13:12:24Z</time>
      </trkpt>
      <trkpt lat="49.83758" lon="2.49938">
        <ele>91.5</ele>
        <time>2024-07-10T13:12:25Z</time>
      </trkpt>
      <trkpt lat="49.83757" lon="2.49939">
        <ele>91.5</ele>
        <time>2024-07-10T13:12:26Z</time>
      </trkpt>
      <trkpt lat="49.83756" lon="2.4994">
        <ele>91.5</ele>
        <time>2024-07-10T13:12:27Z</time>
      </trkpt>
      <trkpt lat="49.83755" lon="2.49941">
        <ele>91.5</ele>
        <time>2024-07-10T13:12:28Z</time>
      </trkpt>
      <trkpt lat="49.83754" lon="2.49942">
        <ele>91.4</ele>
        <time>2024-07-10T13:12:29Z</time>
      </trkpt>
      <trkpt lat="49.83753" lon="2.49942">
        <ele>91.4</ele>
        <time>2024-07-10T13:12:30Z</time>
      </trkpt>
      <trkpt lat="49.83752" lon="2.49943">
        <ele>91.4</ele>
        <time>2024-07-10T13:12:31Z</time>
      </trkpt>
      <trkpt lat="49.83751" lon="2.49944">
        <ele>91.4</ele>
        <time>2024-07-10T13:12:32Z</time>
      </trkpt>
      <trkpt lat="49.8375" lon="2.49945">
        <ele>91.3</ele>
        <time>2024-07-10T13:12:33Z</time>
      </trkpt>
      <trkpt lat="49.8375" lon="2.49946">
        <ele>91.3</ele>
        <time>2024-07-10T13:12:34Z</time>
      </trkpt>
      <trkpt lat="49.83749" lon="2.49947">
        <ele>91.3</ele>
        <time>2024-07-10T13:12:35Z</time>
      </trkpt>
      <trkpt lat="49.83748" lon="2.49948">
        <ele>91.3</ele>
        <time>2024-07-10T13:12:36Z</time>
      </trkpt>
      <trkpt lat="49.83747" lon="2.49949">
        <ele>91.2</ele>
        <time>2024-07-10T13:12:37Z</time>
      </trkpt>
      <trkpt lat="49.83746" lon="2.4995">
        <ele>91.2</ele>
        <time>2024-07-10T13:12:38Z</time>
      </trkpt>
      <trkpt lat="49.83745" lon="2.49951">
        <ele>91.2</ele>
        <time>2024-07-10T13:12:39Z</time>
      </trkpt>
      <trkpt lat="49.83744" lon="2.49952">
        <ele>91.2</ele>
        <time>2024-07-10T13:12:40Z</time>
      </trkpt>
      <trkpt lat="49.83743" lon="2.49953">
        <ele>91.2</ele>
        <time>2024-07-10T13:12:41Z</time>
      </trkpt>
      <trkpt lat="49.83742" lon="2.49954">
        <ele>91.1</ele>
        <time>2024-07-10T13:12:42Z</time>
      </trkpt>
      <trkpt lat="49.83742" lon="2.49955">
        <ele>91.1</ele>
        <time>2024-07-10T13:12:43Z</time>
      </trkpt>
      <trkpt lat="49.83741" lon="2.49956">
        <ele>91.1</ele>
        <time>2024-07-10T13:12:44Z</time>
      </trkpt>
      <trkpt lat="49.8374" lon="2.49957">
        <ele>91.1</ele>
        <time>2024-07-10T13:12:45Z</time>
      </trkpt>
      <trkpt lat="49.83739" lon="2.49958">
        <ele>91.1</ele>
        <time>2024-07-10T13:12:46Z</time>
      </trkpt>
      <trkpt lat="49.83739" lon="2.49959">
        <ele>91</ele>
        <time>2024-07-10T13:12:47Z</time>
      </trkpt>
      <trkpt lat="49.83738" lon="2.4996">
        <ele>91</ele>
        <time>2024-07-10T13:12:48Z</time>
      </trkpt>
      <trkpt lat="49.83737" lon="2.49961">
        <ele>91</ele>
        <time>2024-07-10T13:12:49Z</time>
      </trkpt>
      <trkpt lat="49.83737" lon="2.49962">
        <ele>91</ele>
        <time>2024-07-10T13:12:50Z</time>
      </trkpt>
      <trkpt lat="49.83736" lon="2.49963">
        <ele>91</ele>
        <time>2024-07-10T13:12:51Z</time>
      </trkpt>
      <trkpt lat="49.83736" lon="2.49964">
        <ele>91</ele>
        <time>2024-07-10T13:12:52Z</time>
      </trkpt>
      <trkpt lat="49.83735" lon="2.49965">
        <ele>90.9</ele>
        <time>2024-07-10T13:12:53Z</time>
      </trkpt>
      <trkpt lat="49.83734" lon="2.49966">
        <ele>90.9</ele>
        <time>2024-07-10T13:12:54Z</time>
      </trkpt>
      <trkpt lat="49.83734" lon="2.49967">
        <ele>90.9</ele>
        <time>2024-07-10T13:12:55Z</time>
      </trkpt>
      <trkpt lat="49.83733" lon="2.49968">
        <ele>90.9</ele>
        <time>2024-07-10T13:12:56Z</time>
      </trkpt>
      <trkpt lat="49.83732" lon="2.49969">
        <ele>90.9</ele>
        <time>2024-07-10T13:12:57Z</time>
      </trkpt>
      <trkpt lat="49.83731" lon="2.4997">
        <ele>90.8</ele>
        <time>2024-07-10T13:12:58Z</time>
      </trkpt>
      <trkpt lat="49.83731" lon="2.49971">
        <ele>90.8</ele>
        <time>2024-07-10T13:12:59Z</time>
      </trkpt>
      <trkpt lat="49.8373" lon="2.49972">
        <ele>90.8</ele>
        <time>2024-07-10T13:13:00Z</time>
      </trkpt>
      <trkpt lat="49.83729" lon="2.49973">
        <ele>90.8</ele>
        <time>2024-07-10T13:13:01Z</time>
      </trkpt>
      <trkpt lat="49.83728" lon="2.49974">
        <ele>90.8</ele>
        <time>2024-07-10T13:13:02Z</time>
      </trkpt>
      <trkpt lat="49.83728" lon="2.49975">
        <ele>90.7</ele>
        <time>2024-07-10T13:13:03Z</time>
      </trkpt>
      <trkpt lat="49.83727" lon="2.49975">
        <ele>90.7</ele>
        <time>2024-07-10T13:13:04Z</time>
      </trkpt>
      <trkpt lat="49.83726" lon="2.49976">
        <ele>90.7</ele>
        <time>2024-07-10T13:13:05Z</time>
      </trkpt>
      <trkpt lat="49.83725" lon="2.49977">
        <ele>90.7</ele>
        <time>2024-07-10T13:13:06Z</time>
      </trkpt>
      <trkpt lat="49.83725" lon="2.49978">
        <ele>90.7</ele>
        <time>2024-07-10T13:13:07Z</time>
      </trkpt>
      <trkpt lat="49.83724" lon="2.49979">
        <ele>90.6</ele>
        <time>2024-07-10T13:13:08Z</time>
      </trkpt>
      <trkpt lat="49.83722" lon="2.49979">
        <ele>90.6</ele>
        <time>2024-07-10T13:13:09Z</time>
      </trkpt>
      <trkpt lat="49.83721" lon="2.4998">
        <ele>90.6</ele>
        <time>2024-07-10T13:13:10Z</time>
      </trkpt>
      <trkpt lat="49.83721" lon="2.49981">
        <ele>90.6</ele>
        <time>2024-07-10T13:13:11Z</time>
      </trkpt>
      <trkpt lat="49.8372" lon="2.49982">
        <ele>90.5</ele>
        <time>2024-07-10T13:13:12Z</time>
      </trkpt>
      <trkpt lat="49.83718" lon="2.49983">
        <ele>90.5</ele>
        <time>2024-07-10T13:13:13Z</time>
      </trkpt>
      <trkpt lat="49.83717" lon="2.49984">
        <ele>90.5</ele>
        <time>2024-07-10T13:13:14Z</time>
      </trkpt>
      <trkpt lat="49.83716" lon="2.49985">
        <ele>90.5</ele>
        <time>2024-07-10T13:13:15Z</time>
      </trkpt>
      <trkpt lat="49.83715" lon="2.49985">
        <ele>90.4</ele>
        <time>2024-07-10T13:13:16Z</time>
      </trkpt>
      <trkpt lat="49.83714" lon="2.49986">
        <ele>90.4</ele>
        <time>2024-07-10T13:13:17Z</time>
      </trkpt>
      <trkpt lat="49.83713" lon="2.49987">
        <ele>90.4</ele>
        <time>2024-07-10T13:13:18Z</time>
      </trkpt>
      <trkpt lat="49.83712" lon="2.49988">
        <ele>90.4</ele>
        <time>2024-07-10T13:13:19Z</time>
      </trkpt>
      <trkpt lat="49.8371" lon="2.49989">
        <ele>90.3</ele>
        <time>2024-07-10T13:13:20Z</time>
      </trkpt>
      <trkpt lat="49.8371" lon="2.4999">
        <ele>90.3</ele>
        <time>2024-07-10T13:13:21Z</time>
      </trkpt>
      <trkpt lat="49.83709" lon="2.4999">
        <ele>90.3</ele>
        <time>2024-07-10T13:13:22Z</time>
      </trkpt>
      <trkpt lat="49.83708" lon="2.49991">
        <ele>90.3</ele>
        <time>2024-07-10T13:13:23Z</time>
      </trkpt>
      <trkpt lat="49.83707" lon="2.49992">
        <ele>90.2</ele>
        <time>2024-07-10T13:13:24Z</time>
      </trkpt>
      <trkpt lat="49.83706" lon="2.49993">
        <ele>90.2</ele>
        <time>2024-07-10T13:13:25Z</time>
      </trkpt>
      <trkpt lat="49.83705" lon="2.49994">
        <ele>90.2</ele>
        <time>2024-07-10T13:13:26Z</time>
      </trkpt>
      <trkpt lat="49.83704" lon="2.49995">
        <ele>90.2</ele>
        <time>2024-07-10T13:13:27Z</time>
      </trkpt>
      <trkpt lat="49.83703" lon="2.49996">
        <ele>90.1</ele>
        <time>2024-07-10T13:13:28Z</time>
      </trkpt>
      <trkpt lat="49.83702" lon="2.49997">
        <ele>90.1</ele>
        <time>2024-07-10T13:13:29Z</time>
      </trkpt>
      <trkpt lat="49.83701" lon="2.49998">
        <ele>90.1</ele>
        <time>2024-07-10T13:13:30Z</time>
      </trkpt>
      <trkpt lat="49.837" lon="2.49999">
        <ele>90.1</ele>
        <time>2024-07-10T13:13:31Z</time>
      </trkpt>
      <trkpt lat="49.83699" lon="2.5">
        <ele>90.1</ele>
        <time>2024-07-10T13:13:32Z</time>
      </trkpt>
      <trkpt lat="49.83699" lon="2.50001">
        <ele>90</ele>
        <time>2024-07-10T13:13:33Z</time>
      </trkpt>
      <trkpt lat="49.83698" lon="2.50002">
        <ele>90</ele>
        <time>2024-07-10T13:13:34Z</time>
      </trkpt>
      <trkpt lat="49.83697" lon="2.50003">
        <ele>90</ele>
        <time>2024-07-10T13:13:35Z</time>
      </trkpt>
      <trkpt lat="49.83696" lon="2.50004">
        <ele>90</ele>
        <time>2024-07-10T13:13:36Z</time>
      </trkpt>
      <trkpt lat="49.83696" lon="2.50005">
        <ele>89.9</ele>
        <time>2024-07-10T13:13:37Z</time>
      </trkpt>
      <trkpt lat="49.83695" lon="2.50006">
        <ele>89.9</ele>
        <time>2024-07-10T13:13:38Z</time>
      </trkpt>
      <trkpt lat="49.83694" lon="2.50007">
        <ele>89.9</ele>
        <time>2024-07-10T13:13:39Z</time>
      </trkpt>
      <trkpt lat="49.83694" lon="2.50009">
        <ele>89.9</ele>
        <time>2024-07-10T13:13:40Z</time>
      </trkpt>
      <trkpt lat="49.83693" lon="2.5001">
        <ele>89.9</ele>
        <time>2024-07-10T13:13:41Z</time>
      </trkpt>
      <trkpt lat="49.83692" lon="2.50011">
        <ele>89.8</ele>
        <time>2024-07-10T13:13:42Z</time>
      </trkpt>
      <trkpt lat="49.83692" lon="2.50012">
        <ele>89.8</ele>
        <time>2024-07-10T13:13:43Z</time>
      </trkpt>
      <trkpt lat="49.83691" lon="2.50014">
        <ele>89.8</ele>
        <time>2024-07-10T13:13:44Z</time>
      </trkpt>
      <trkpt lat="49.8369" lon="2.50015">
        <ele>89.8</ele>
        <time>2024-07-10T13:13:45Z</time>
      </trkpt>
      <trkpt lat="49.8369" lon="2.50016">
        <ele>89.7</ele>
        <time>2024-07-10T13:13:46Z</time>
      </trkpt>
      <trkpt lat="49.83689" lon="2.50017">
        <ele>89.7</ele>
        <time>2024-07-10T13:13:47Z</time>
      </trkpt>
      <trkpt lat="49.83688" lon="2.50018">
        <ele>89.7</ele>
        <time>2024-07-10T13:13:48Z</time>
      </trkpt>
      <trkpt lat="49.83688" lon="2.50019">
        <ele>89.7</ele>
        <time>2024-07-10T13:13:49Z</time>
      </trkpt>
      <trkpt lat="49.83687" lon="2.5002">
        <ele>89.6</ele>
        <time>2024-07-10T13:13:50Z</time>
      </trkpt>
      <trkpt lat="49.83686" lon="2.50021">
        <ele>89.6</ele>
        <time>2024-07-10T13:13:51Z</time>
      </trkpt>
      <trkpt lat="49.83686" lon="2.50023">
        <ele>89.6</ele>
        <time>2024-07-10T13:13:52Z</time>
      </trkpt>
      <trkpt lat="49.83685" lon="2.50024">
        <ele>89.5</ele>
        <time>2024-07-10T13:13:53Z</time>
      </trkpt>
      <trkpt lat="49.83684" lon="2.50025">
        <ele>89.5</ele>
        <time>2024-07-10T13:13:54Z</time>
      </trkpt>
      <trkpt lat="49.83684" lon="2.50026">
        <ele>89.5</ele>
        <time>2024-07-10T13:13:55Z</time>
      </trkpt>
      <trkpt lat="49.83683" lon="2.50027">
        <ele>89.5</ele>
        <time>2024-07-10T13:13:56Z</time>
      </trkpt>
      <trkpt lat="49.83682" lon="2.50029">
        <ele>89.4</ele>
        <time>2024-07-10T13:13:57Z</time>
      </trkpt>
      <trkpt lat="49.83681" lon="2.5003">
        <ele>89.4</ele>
        <time>2024-07-10T13:13:58Z</time>
      </trkpt>
      <trkpt lat="49.83681" lon="2.50032">
        <ele>89.3</ele>
        <time>2024-07-10T13:13:59Z</time>
      </trkpt>
      <trkpt lat="49.8368" lon="2.50033">
        <ele>89.3</ele>
        <time>2024-07-10T13:14:00Z</time>
      </trkpt>
      <trkpt lat="49.83679" lon="2.50035">
        <ele>89.3</ele>
        <time>2024-07-10T13:14:01Z</time>
      </trkpt>
      <trkpt lat="49.83678" lon="2.50036">
        <ele>89.2</ele>
        <time>2024-07-10T13:14:02Z</time>
      </trkpt>
      <trkpt lat="49.83678" lon="2.50037">
        <ele>89.2</ele>
        <time>2024-07-10T13:14:03Z</time>
      </trkpt>
      <trkpt lat="49.83677" lon="2.50039">
        <ele>89.2</ele>
        <time>2024-07-10T13:14:04Z</time>
      </trkpt>
      <trkpt lat="49.83676" lon="2.5004">
        <ele>89.1</ele>
        <time>2024-07-10T13:14:05Z</time>
      </trkpt>
      <trkpt lat="49.83675" lon="2.50041">
        <ele>89.1</ele>
        <time>2024-07-10T13:14:06Z</time>
      </trkpt>
      <trkpt lat="49.83675" lon="2.50042">
        <ele>89</ele>
        <time>2024-07-10T13:14:07Z</time>
      </trkpt>
      <trkpt lat="49.83674" lon="2.50044">
        <ele>89</ele>
        <time>2024-07-10T13:14:08Z</time>
      </trkpt>
      <trkpt lat="49.83673" lon="2.50045">
        <ele>89</ele>
        <time>2024-07-10T13:14:09Z</time>
      </trkpt>
      <trkpt lat="49.83672" lon="2.50046">
        <ele>88.9</ele>
        <time>2024-07-10T13:14:10Z</time>
      </trkpt>
      <trkpt lat="49.83672" lon="2.50047">
        <ele>88.9</ele>
        <time>2024-07-10T13:14:11Z</time>
      </trkpt>
      <trkpt lat="49.83671" lon="2.50048">
        <ele>88.9</ele>
        <time>2024-07-10T13:14:12Z</time>
      </trkpt>
      <trkpt lat="49.8367" lon="2.50049">
        <ele>88.8</ele>
        <time>2024-07-10T13:14:13Z</time>
      </trkpt>
      <trkpt lat="49.83669" lon="2.5005">
        <ele>88.8</ele>
        <time>2024-07-10T13:14:14Z</time>
      </trkpt>
      <trkpt lat="49.83668" lon="2.50051">
        <ele>88.8</ele>
        <time>2024-07-10T13:14:15Z</time>
      </trkpt>
      <trkpt lat="49.83667" lon="2.50052">
        <ele>88.7</ele>
        <time>2024-07-10T13:14:16Z</time>
      </trkpt>
      <trkpt lat="49.83666" lon="2.50053">
        <ele>88.7</ele>
        <time>2024-07-10T13:14:17Z</time>
      </trkpt>
      <trkpt lat="49.83665" lon="2.50054">
        <ele>88.6</ele>
        <time>2024-07-10T13:14:18Z</time>
      </trkpt>
      <trkpt lat="49.83665" lon="2.50055">
        <ele>88.6</ele>
        <time>2024-07-10T13:14:19Z</time>
      </trkpt>
      <trkpt lat="49.83664" lon="2.50056">
        <ele>88.6</ele>
        <time>2024-07-10T13:14:20Z</time>
      </trkpt>
      <trkpt lat="49.83663" lon="2.50057">
        <ele>88.5</ele>
        <time>2024-07-10T13:14:21Z</time>
      </trkpt>
      <trkpt lat="49.83662" lon="2.50058">
        <ele>88.5</ele>
        <time>2024-07-10T13:14:22Z</time>
      </trkpt>
      <trkpt lat="49.83661" lon="2.50059">
        <ele>88.5</ele>
        <time>2024-07-10T13:14:23Z</time>
      </trkpt>
      <trkpt lat="49.8366" lon="2.5006">
        <ele>88.4</ele>
        <time>2024-07-10T13:14:24Z</time>
      </trkpt>
      <trkpt lat="49.83659" lon="2.50061">
        <ele>88.4</ele>
        <time>2024-07-10T13:14:25Z</time>
      </trkpt>
      <trkpt lat="49.83658" lon="2.50062">
        <ele>88.3</ele>
        <time>2024-07-10T13:14:26Z</time>
      </trkpt>
      <trkpt lat="49.83657" lon="2.50063">
        <ele>88.3</ele>
        <time>2024-07-10T13:14:27Z</time>
      </trkpt>
      <trkpt lat="49.83657" lon="2.50064">
        <ele>88.3</ele>
        <time>2024-07-10T13:14:28Z</time>
      </trkpt>
      <trkpt lat="49.83656" lon="2.50066">
        <ele>88.2</ele>
        <time>2024-07-10T13:14:29Z</time>
      </trkpt>
      <trkpt lat="49.83655" lon="2.50067">
        <ele>88.2</ele>
        <time>2024-07-10T13:14:30Z</time>
      </trkpt>
      <trkpt lat="49.83654" lon="2.50068">
        <ele>88.1</ele>
        <time>2024-07-10T13:14:31Z</time>
      </trkpt>
      <trkpt lat="49.83653" lon="2.50069">
        <ele>88.1</ele>
        <time>2024-07-10T13:14:32Z</time>
      </trkpt>
      <trkpt lat="49.83653" lon="2.5007">
        <ele>88.1</ele>
        <time>2024-07-10T13:14:33Z</time>
      </trkpt>
      <trkpt lat="49.83652" lon="2.50071">
        <ele>88</ele>
        <time>2024-07-10T13:14:34Z</time>
      </trkpt>
      <trkpt lat="49.83651" lon="2.50072">
        <ele>88</ele>
        <time>2024-07-10T13:14:35Z</time>
      </trkpt>
      <trkpt lat="49.8365" lon="2.50073">
        <ele>87.9</ele>
        <time>2024-07-10T13:14:36Z</time>
      </trkpt>
      <trkpt lat="49.83649" lon="2.50075">
        <ele>87.9</ele>
        <time>2024-07-10T13:14:37Z</time>
      </trkpt>
      <trkpt lat="49.83648" lon="2.50076">
        <ele>87.8</ele>
        <time>2024-07-10T13:14:38Z</time>
      </trkpt>
      <trkpt lat="49.83648" lon="2.50077">
        <ele>87.8</ele>
        <time>2024-07-10T13:14:39Z</time>
      </trkpt>
      <trkpt lat="49.83647" lon="2.50079">
        <ele>87.8</ele>
        <time>2024-07-10T13:14:40Z</time>
      </trkpt>
      <trkpt lat="49.83645" lon="2.50081">
        <ele>87.7</ele>
        <time>2024-07-10T13:14:41Z</time>
      </trkpt>
      <trkpt lat="49.83645" lon="2.50082">
        <ele>87.6</ele>
        <time>2024-07-10T13:14:42Z</time>
      </trkpt>
      <trkpt lat="49.83644" lon="2.50083">
        <ele>87.6</ele>
        <time>2024-07-10T13:14:43Z</time>
      </trkpt>
      <trkpt lat="49.83643" lon="2.50084">
        <ele>87.6</ele>
        <time>2024-07-10T13:14:44Z</time>
      </trkpt>
      <trkpt lat="49.83643" lon="2.50085">
        <ele>87.5</ele>
        <time>2024-07-10T13:14:45Z</time>
      </trkpt>
      <trkpt lat="49.83642" lon="2.50086">
        <ele>87.5</ele>
        <time>2024-07-10T13:14:46Z</time>
      </trkpt>
      <trkpt lat="49.83641" lon="2.50088">
        <ele>87.4</ele>
        <time>2024-07-10T13:14:47Z</time>
      </trkpt>
      <trkpt lat="49.8364" lon="2.50089">
        <ele>87.4</ele>
        <time>2024-07-10T13:14:48Z</time>
      </trkpt>
      <trkpt lat="49.83639" lon="2.5009">
        <ele>87.4</ele>
        <time>2024-07-10T13:14:49Z</time>
      </trkpt>
      <trkpt lat="49.83639" lon="2.50091">
        <ele>87.3</ele>
        <time>2024-07-10T13:14:50Z</time>
      </trkpt>
      <trkpt lat="49.83638" lon="2.50092">
        <ele>87.3</ele>
        <time>2024-07-10T13:14:51Z</time>
      </trkpt>
      <trkpt lat="49.83637" lon="2.50093">
        <ele>87.2</ele>
        <time>2024-07-10T13:14:52Z</time>
      </trkpt>
      <trkpt lat="49.83636" lon="2.50094">
        <ele>87.2</ele>
        <time>2024-07-10T13:14:53Z</time>
      </trkpt>
      <trkpt lat="49.83636" lon="2.50094">
        <ele>87.2</ele>
        <time>2024-07-10T13:14:54Z</time>
      </trkpt>
      <trkpt lat="49.83635" lon="2.50095">
        <ele>87.1</ele>
        <time>2024-07-10T13:14:55Z</time>
      </trkpt>
      <trkpt lat="49.83634" lon="2.50096">
        <ele>87.1</ele>
        <time>2024-07-10T13:14:56Z</time>
      </trkpt>
      <trkpt lat="49.83633" lon="2.50097">
        <ele>87.1</ele>
        <time>2024-07-10T13:14:57Z</time>
      </trkpt>
      <trkpt lat="49.83632" lon="2.50098">
        <ele>87</ele>
        <time>2024-07-10T13:14:58Z</time>
      </trkpt>
      <trkpt lat="49.83631" lon="2.501">
        <ele>87</ele>
        <time>2024-07-10T13:14:59Z</time>
      </trkpt>
      <trkpt lat="49.8363" lon="2.50101">
        <ele>86.9</ele>
        <time>2024-07-10T13:15:00Z</time>
      </trkpt>
      <trkpt lat="49.8363" lon="2.50101">
        <ele>86.9</ele>
        <time>2024-07-10T13:15:01Z</time>
      </trkpt>
      <trkpt lat="49.83629" lon="2.50102">
        <ele>86.8</ele>
        <time>2024-07-10T13:15:02Z</time>
      </trkpt>
      <trkpt lat="49.83628" lon="2.50104">
        <ele>86.8</ele>
        <time>2024-07-10T13:15:03Z</time>
      </trkpt>
      <trkpt lat="49.83627" lon="2.50104">
        <ele>86.8</ele>
        <time>2024-07-10T13:15:04Z</time>
      </trkpt>
      <trkpt lat="49.83626" lon="2.50105">
        <ele>86.7</ele>
        <time>2024-07-10T13:15:05Z</time>
      </trkpt>
      <trkpt lat="49.83625" lon="2.50106">
        <ele>86.7</ele>
        <time>2024-07-10T13:15:06Z</time>
      </trkpt>
      <trkpt lat="49.83625" lon="2.50107">
        <ele>86.7</ele>
        <time>2024-07-10T13:15:07Z</time>
      </trkpt>
      <trkpt lat="49.83624" lon="2.50108">
        <ele>86.6</ele>
        <time>2024-07-10T13:15:08Z</time>
      </trkpt>
      <trkpt lat="49.83623" lon="2.5011">
        <ele>86.6</ele>
        <time>2024-07-10T13:15:09Z</time>
      </trkpt>
      <trkpt lat="49.83623" lon="2.50111">
        <ele>86.5</ele>
        <time>2024-07-10T13:15:10Z</time>
      </trkpt>
      <trkpt lat="49.83622" lon="2.50112">
        <ele>86.5</ele>
        <time>2024-07-10T13:15:11Z</time>
      </trkpt>
      <trkpt lat="49.83621" lon="2.50113">
        <ele>86.5</ele>
        <time>2024-07-10T13:15:12Z</time>
      </trkpt>
      <trkpt lat="49.8362" lon="2.50114">
        <ele>86.4</ele>
        <time>2024-07-10T13:15:13Z</time>
      </trkpt>
      <trkpt lat="49.8362" lon="2.50115">
        <ele>86.4</ele>
        <time>2024-07-10T13:15:14Z</time>
      </trkpt>
      <trkpt lat="49.83619" lon="2.50116">
        <ele>86.3</ele>
        <time>2024-07-10T13:15:15Z</time>
      </trkpt>
      <trkpt lat="49.83618" lon="2.50117">
        <ele>86.3</ele>
        <time>2024-07-10T13:15:16Z</time>
      </trkpt>
      <trkpt lat="49.83617" lon="2.50118">
        <ele>86.3</ele>
        <time>2024-07-10T13:15:17Z</time>
      </trkpt>
      <trkpt lat="49.83617" lon="2.50119">
        <ele>86.2</ele>
        <time>2024-07-10T13:15:18Z</time>
      </trkpt>
      <trkpt lat="49.83616" lon="2.5012">
        <ele>86.2</ele>
        <time>2024-07-10T13:15:19Z</time>
      </trkpt>
      <trkpt lat="49.83616" lon="2.5012">
        <ele>86.2</ele>
        <time>2024-07-10T13:15:20Z</time>
      </trkpt>
      <trkpt lat="49.83615" lon="2.5012">
        <ele>86.2</ele>
        <time>2024-07-10T13:15:21Z</time>
      </trkpt>
      <trkpt lat="49.83614" lon="2.50121">
        <ele>86.1</ele>
        <time>2024-07-10T13:15:22Z</time>
      </trkpt>
      <trkpt lat="49.83613" lon="2.50122">
        <ele>86.1</ele>
        <time>2024-07-10T13:15:23Z</time>
      </trkpt>
      <trkpt lat="49.83612" lon="2.50123">
        <ele>86.1</ele>
        <time>2024-07-10T13:15:24Z</time>
      </trkpt>
      <trkpt lat="49.83612" lon="2.50124">
        <ele>86</ele>
        <time>2024-07-10T13:15:25Z</time>
      </trkpt>
      <trkpt lat="49.83611" lon="2.50125">
        <ele>86</ele>
        <time>2024-07-10T13:15:26Z</time>
      </trkpt>
      <trkpt lat="49.8361" lon="2.50126">
        <ele>86</ele>
        <time>2024-07-10T13:15:27Z</time>
      </trkpt>
      <trkpt lat="49.83609" lon="2.50127">
        <ele>85.9</ele>
        <time>2024-07-10T13:15:28Z</time>
      </trkpt>
      <trkpt lat="49.83608" lon="2.50127">
        <ele>85.9</ele>
        <time>2024-07-10T13:15:29Z</time>
      </trkpt>
      <trkpt lat="49.83608" lon="2.50128">
        <ele>85.9</ele>
        <time>2024-07-10T13:15:30Z</time>
      </trkpt>
      <trkpt lat="49.83607" lon="2.50129">
        <ele>85.8</ele>
        <time>2024-07-10T13:15:31Z</time>
      </trkpt>
      <trkpt lat="49.83606" lon="2.5013">
        <ele>85.8</ele>
        <time>2024-07-10T13:15:32Z</time>
      </trkpt>
      <trkpt lat="49.83606" lon="2.50131">
        <ele>85.8</ele>
        <time>2024-07-10T13:15:33Z</time>
      </trkpt>
      <trkpt lat="49.83605" lon="2.50132">
        <ele>85.8</ele>
        <time>2024-07-10T13:15:34Z</time>
      </trkpt>
      <trkpt lat="49.83604" lon="2.50132">
        <ele>85.7</ele>
        <time>2024-07-10T13:15:35Z</time>
      </trkpt>
      <trkpt lat="49.83604" lon="2.50133">
        <ele>85.7</ele>
        <time>2024-07-10T13:15:36Z</time>
      </trkpt>
      <trkpt lat="49.83603" lon="2.50134">
        <ele>85.7</ele>
        <time>2024-07-10T13:15:37Z</time>
      </trkpt>
      <trkpt lat="49.83603" lon="2.50135">
        <ele>85.7</ele>
        <time>2024-07-10T13:15:38Z</time>
      </trkpt>
      <trkpt lat="49.83602" lon="2.50136">
        <ele>85.6</ele>
        <time>2024-07-10T13:15:39Z</time>
      </trkpt>
      <trkpt lat="49.83601" lon="2.50137">
        <ele>85.6</ele>
        <time>2024-07-10T13:15:40Z</time>
      </trkpt>
      <trkpt lat="49.836" lon="2.50138">
        <ele>85.6</ele>
        <time>2024-07-10T13:15:41Z</time>
      </trkpt>
      <trkpt lat="49.836" lon="2.50138">
        <ele>85.6</ele>
        <time>2024-07-10T13:15:42Z</time>
      </trkpt>
      <trkpt lat="49.83599" lon="2.50139">
        <ele>85.5</ele>
        <time>2024-07-10T13:15:43Z</time>
      </trkpt>
      <trkpt lat="49.83598" lon="2.5014">
        <ele>85.5</ele>
        <time>2024-07-10T13:15:44Z</time>
      </trkpt>
      <trkpt lat="49.83597" lon="2.50141">
        <ele>85.5</ele>
        <time>2024-07-10T13:15:45Z</time>
      </trkpt>
      <trkpt lat="49.83596" lon="2.50142">
        <ele>85.4</ele>
        <time>2024-07-10T13:15:46Z</time>
      </trkpt>
      <trkpt lat="49.83595" lon="2.50143">
        <ele>85.4</ele>
        <time>2024-07-10T13:15:47Z</time>
      </trkpt>
      <trkpt lat="49.83594" lon="2.50145">
        <ele>85.4</ele>
        <time>2024-07-10T13:15:48Z</time>
      </trkpt>
      <trkpt lat="49.83593" lon="2.50146">
        <ele>85.4</ele>
        <time>2024-07-10T13:15:49Z</time>
      </trkpt>
      <trkpt lat="49.83593" lon="2.50147">
        <ele>85.3</ele>
        <time>2024-07-10T13:15:50Z</time>
      </trkpt>
      <trkpt lat="49.83591" lon="2.50149">
        <ele>85.3</ele>
        <time>2024-07-10T13:15:51Z</time>
      </trkpt>
      <trkpt lat="49.8359" lon="2.5015">
        <ele>85.3</ele>
        <time>2024-07-10T13:15:52Z</time>
      </trkpt>
      <trkpt lat="49.8359" lon="2.5015">
        <ele>85.2</ele>
        <time>2024-07-10T13:15:53Z</time>
      </trkpt>
      <trkpt lat="49.83589" lon="2.50151">
        <ele>85.2</ele>
        <time>2024-07-10T13:15:54Z</time>
      </trkpt>
      <trkpt lat="49.83588" lon="2.50153">
        <ele>85.2</ele>
        <time>2024-07-10T13:15:55Z</time>
      </trkpt>
      <trkpt lat="49.83587" lon="2.50154">
        <ele>85.2</ele>
        <time>2024-07-10T13:15:56Z</time>
      </trkpt>
      <trkpt lat="49.83586" lon="2.50155">
        <ele>85.1</ele>
        <time>2024-07-10T13:15:57Z</time>
      </trkpt>
      <trkpt lat="49.83585" lon="2.50156">
        <ele>85.1</ele>
        <time>2024-07-10T13:15:58Z</time>
      </trkpt>
      <trkpt lat="49.83584" lon="2.50157">
        <ele>85.1</ele>
        <time>2024-07-10T13:15:59Z</time>
      </trkpt>
      <trkpt lat="49.83583" lon="2.50158">
        <ele>85.1</ele>
        <time>2024-07-10T13:16:00Z</time>
      </trkpt>
      <trkpt lat="49.83582" lon="2.50159">
        <ele>85</ele>
        <time>2024-07-10T13:16:01Z</time>
      </trkpt>
      <trkpt lat="49.83581" lon="2.5016">
        <ele>85</ele>
        <time>2024-07-10T13:16:02Z</time>
      </trkpt>
      <trkpt lat="49.8358" lon="2.50161">
        <ele>85</ele>
        <time>2024-07-10T13:16:03Z</time>
      </trkpt>
      <trkpt lat="49.83579" lon="2.50162">
        <ele>84.9</ele>
        <time>2024-07-10T13:16:04Z</time>
      </trkpt>
      <trkpt lat="49.83578" lon="2.50163">
        <ele>84.9</ele>
        <time>2024-07-10T13:16:05Z</time>
      </trkpt>
      <trkpt lat="49.83576" lon="2.50165">
        <ele>84.9</ele>
        <time>2024-07-10T13:16:06Z</time>
      </trkpt>
      <trkpt lat="49.83576" lon="2.50165">
        <ele>84.9</ele>
        <time>2024-07-10T13:16:07Z</time>
      </trkpt>
      <trkpt lat="49.83575" lon="2.50166">
        <ele>84.8</ele>
        <time>2024-07-10T13:16:08Z</time>
      </trkpt>
      <trkpt lat="49.83574" lon="2.50167">
        <ele>84.8</ele>
        <time>2024-07-10T13:16:09Z</time>
      </trkpt>
      <trkpt lat="49.83573" lon="2.50168">
        <ele>84.8</ele>
        <time>2024-07-10T13:16:10Z</time>
      </trkpt>
      <trkpt lat="49.83572" lon="2.50169">
        <ele>84.8</ele>
        <time>2024-07-10T13:16:11Z</time>
      </trkpt>
      <trkpt lat="49.83571" lon="2.5017">
        <ele>84.8</ele>
        <time>2024-07-10T13:16:12Z</time>
      </trkpt>
      <trkpt lat="49.83571" lon="2.50171">
        <ele>84.7</ele>
        <time>2024-07-10T13:16:13Z</time>
      </trkpt>
      <trkpt lat="49.8357" lon="2.50172">
        <ele>84.7</ele>
        <time>2024-07-10T13:16:14Z</time>
      </trkpt>
      <trkpt lat="49.83569" lon="2.50173">
        <ele>84.7</ele>
        <time>2024-07-10T13:16:15Z</time>
      </trkpt>
      <trkpt lat="49.83568" lon="2.50174">
        <ele>84.7</ele>
        <time>2024-07-10T13:16:16Z</time>
      </trkpt>
      <trkpt lat="49.83567" lon="2.50175">
        <ele>84.7</ele>
        <time>2024-07-10T13:16:17Z</time>
      </trkpt>
      <trkpt lat="49.83566" lon="2.50176">
        <ele>84.6</ele>
        <time>2024-07-10T13:16:18Z</time>
      </trkpt>
      <trkpt lat="49.83565" lon="2.50177">
        <ele>84.6</ele>
        <time>2024-07-10T13:16:19Z</time>
      </trkpt>
      <trkpt lat="49.83564" lon="2.5018">
        <ele>84.6</ele>
        <time>2024-07-10T13:16:21Z</time>
      </trkpt>
      <trkpt lat="49.83563" lon="2.50181">
        <ele>84.6</ele>
        <time>2024-07-10T13:16:22Z</time>
      </trkpt>
      <trkpt lat="49.83562" lon="2.50181">
        <ele>84.5</ele>
        <time>2024-07-10T13:16:23Z</time>
      </trkpt>
      <trkpt lat="49.83561" lon="2.50183">
        <ele>84.5</ele>
        <time>2024-07-10T13:16:24Z</time>
      </trkpt>
      <trkpt lat="49.8356" lon="2.50184">
        <ele>84.5</ele>
        <time>2024-07-10T13:16:25Z</time>
      </trkpt>
      <trkpt lat="49.83559" lon="2.50185">
        <ele>84.5</ele>
        <time>2024-07-10T13:16:26Z</time>
      </trkpt>
      <trkpt lat="49.83558" lon="2.50186">
        <ele>84.5</ele>
        <time>2024-07-10T13:16:27Z</time>
      </trkpt>
      <trkpt lat="49.83557" lon="2.50187">
        <ele>84.5</ele>
        <time>2024-07-10T13:16:28Z</time>
      </trkpt>
      <trkpt lat="49.83557" lon="2.50188">
        <ele>84.5</ele>
        <time>2024-07-10T13:16:29Z</time>
      </trkpt>
      <trkpt lat="49.83556" lon="2.50189">
        <ele>84.4</ele>
        <time>2024-07-10T13:16:30Z</time>
      </trkpt>
      <trkpt lat="49.83555" lon="2.50191">
        <ele>84.4</ele>
        <time>2024-07-10T13:16:31Z</time>
      </trkpt>
      <trkpt lat="49.83554" lon="2.50192">
        <ele>84.4</ele>
        <time>2024-07-10T13:16:32Z</time>
      </trkpt>
      <trkpt lat="49.83554" lon="2.50193">
        <ele>84.4</ele>
        <time>2024-07-10T13:16:33Z</time>
      </trkpt>
      <trkpt lat="49.83553" lon="2.50195">
        <ele>84.4</ele>
        <time>2024-07-10T13:16:34Z</time>
      </trkpt>
      <trkpt lat="49.83552" lon="2.50196">
        <ele>84.4</ele>
        <time>2024-07-10T13:16:35Z</time>
      </trkpt>
      <trkpt lat="49.83551" lon="2.50197">
        <ele>84.4</ele>
        <time>2024-07-10T13:16:36Z</time>
      </trkpt>
      <trkpt lat="49.83551" lon="2.50199">
        <ele>84.3</ele>
        <time>2024-07-10T13:16:37Z</time>
      </trkpt>
      <trkpt lat="49.8355" lon="2.502">
        <ele>84.3</ele>
        <time>2024-07-10T13:16:38Z</time>
      </trkpt>
      <trkpt lat="49.83549" lon="2.50202">
        <ele>84.3</ele>
        <time>2024-07-10T13:16:39Z</time>
      </trkpt>
      <trkpt lat="49.83549" lon="2.50203">
        <ele>84.3</ele>
        <time>2024-07-10T13:16:40Z</time>
      </trkpt>
      <trkpt lat="49.83548" lon="2.50205">
        <ele>84.3</ele>
        <time>2024-07-10T13:16:41Z</time>
      </trkpt>
      <trkpt lat="49.83547" lon="2.50206">
        <ele>84.3</ele>
        <time>2024-07-10T13:16:42Z</time>
      </trkpt>
      <trkpt lat="49.83547" lon="2.50208">
        <ele>84.3</ele>
        <time>2024-07-10T13:16:43Z</time>
      </trkpt>
      <trkpt lat="49.83546" lon="2.50209">
        <ele>84.2</ele>
        <time>2024-07-10T13:16:44Z</time>
      </trkpt>
      <trkpt lat="49.83546" lon="2.50211">
        <ele>84.2</ele>
        <time>2024-07-10T13:16:45Z</time>
      </trkpt>
      <trkpt lat="49.83545" lon="2.50212">
        <ele>84.2</ele>
        <time>2024-07-10T13:16:46Z</time>
      </trkpt>
      <trkpt lat="49.83545" lon="2.50214">
        <ele>84.2</ele>
        <time>2024-07-10T13:16:47Z</time>
      </trkpt>
      <trkpt lat="49.83545" lon="2.50215">
        <ele>84.2</ele>
        <time>2024-07-10T13:16:48Z</time>
      </trkpt>
      <trkpt lat="49.83544" lon="2.50217">
        <ele>84.2</ele>
        <time>2024-07-10T13:16:49Z</time>
      </trkpt>
      <trkpt lat="49.83544" lon="2.50218">
        <ele>84.2</ele>
        <time>2024-07-10T13:16:50Z</time>
      </trkpt>
      <trkpt lat="49.83544" lon="2.50219">
        <ele>84.2</ele>
        <time>2024-07-10T13:16:51Z</time>
      </trkpt>
      <trkpt lat="49.83543" lon="2.50221">
        <ele>84.2</ele>
        <time>2024-07-10T13:16:52Z</time>
      </trkpt>
      <trkpt lat="49.83543" lon="2.50222">
        <ele>84.2</ele>
        <time>2024-07-10T13:16:53Z</time>
      </trkpt>
      <trkpt lat="49.83542" lon="2.50223">
        <ele>84.2</ele>
        <time>2024-07-10T13:16:54Z</time>
      </trkpt>
      <trkpt lat="49.83542" lon="2.50224">
        <ele>84.2</ele>
        <time>2024-07-10T13:16:55Z</time>
      </trkpt>
      <trkpt lat="49.83541" lon="2.50225">
        <ele>84.2</ele>
        <time>2024-07-10T13:16:56Z</time>
      </trkpt>
      <trkpt lat="49.8354" lon="2.50227">
        <ele>84.2</ele>
        <time>2024-07-10T13:16:57Z</time>
      </trkpt>
      <trkpt lat="49.8354" lon="2.50228">
        <ele>84.1</ele>
        <time>2024-07-10T13:16:58Z</time>
      </trkpt>
      <trkpt lat="49.83539" lon="2.50229">
        <ele>84.1</ele>
        <time>2024-07-10T13:16:59Z</time>
      </trkpt>
      <trkpt lat="49.83539" lon="2.5023">
        <ele>84.1</ele>
        <time>2024-07-10T13:17:00Z</time>
      </trkpt>
      <trkpt lat="49.83539" lon="2.50231">
        <ele>84.1</ele>
        <time>2024-07-10T13:17:01Z</time>
      </trkpt>
      <trkpt lat="49.83538" lon="2.50232">
        <ele>84.1</ele>
        <time>2024-07-10T13:17:02Z</time>
      </trkpt>
      <trkpt lat="49.83538" lon="2.50233">
        <ele>84.1</ele>
        <time>2024-07-10T13:17:03Z</time>
      </trkpt>
      <trkpt lat="49.83537" lon="2.50234">
        <ele>84.1</ele>
        <time>2024-07-10T13:17:04Z</time>
      </trkpt>
      <trkpt lat="49.83536" lon="2.50235">
        <ele>84.1</ele>
        <time>2024-07-10T13:17:05Z</time>
      </trkpt>
      <trkpt lat="49.83536" lon="2.50236">
        <ele>84.1</ele>
        <time>2024-07-10T13:17:06Z</time>
      </trkpt>
      <trkpt lat="49.83535" lon="2.50237">
        <ele>84.1</ele>
        <time>2024-07-10T13:17:07Z</time>
      </trkpt>
      <trkpt lat="49.83535" lon="2.50237">
        <ele>84.1</ele>
        <time>2024-07-10T13:17:08Z</time>
      </trkpt>
      <trkpt lat="49.83535" lon="2.50237">
        <ele>84.1</ele>
        <time>2024-07-10T13:17:09Z</time>
      </trkpt>
      <trkpt lat="49.83535" lon="2.50237">
        <ele>84.1</ele>
        <time>2024-07-10T13:17:10Z</time>
      </trkpt>
      <trkpt lat="49.83534" lon="2.50236">
        <ele>84.1</ele>
        <time>2024-07-10T13:17:11Z</time>
      </trkpt>
      <trkpt lat="49.83534" lon="2.50236">
        <ele>84.1</ele>
        <time>2024-07-10T13:17:12Z</time>
      </trkpt>
      <trkpt lat="49.83534" lon="2.50236">
        <ele>84.1</ele>
        <time>2024-07-10T13:17:13Z</time>
      </trkpt>
      <trkpt lat="49.83534" lon="2.50236">
        <ele>84.1</ele>
        <time>2024-07-10T13:17:14Z</time>
      </trkpt>
      <trkpt lat="49.83534" lon="2.50235">
        <ele>84.1</ele>
        <time>2024-07-10T13:17:15Z</time>
      </trkpt>
      <trkpt lat="49.83534" lon="2.50235">
        <ele>84.1</ele>
        <time>2024-07-10T13:17:16Z</time>
      </trkpt>
      <trkpt lat="49.83534" lon="2.50235">
        <ele>84.1</ele>
        <time>2024-07-10T13:17:17Z</time>
      </trkpt>
      <trkpt lat="49.83534" lon="2.50235">
        <ele>84.1</ele>
        <time>2024-07-10T13:17:18Z</time>
      </trkpt>
      <trkpt lat="49.83534" lon="2.50235">
        <ele>84.1</ele>
        <time>2024-07-10T13:17:19Z</time>
      </trkpt>
      <trkpt lat="49.83534" lon="2.50235">
        <ele>84.1</ele>
        <time>2024-07-10T13:17:20Z</time>
      </trkpt>
      <trkpt lat="49.83534" lon="2.50235">
        <ele>84.1</ele>
        <time>2024-07-10T13:17:21Z</time>
      </trkpt>
      <trkpt lat="49.83534" lon="2.50235">
        <ele>84.1</ele>
        <time>2024-07-10T13:17:22Z</time>
      </trkpt>
      <trkpt lat="49.83534" lon="2.50235">
        <ele>84.1</ele>
        <time>2024-07-10T13:17:23Z</time>
      </trkpt>
      <trkpt lat="49.83534" lon="2.50235">
        <ele>84.1</ele>
        <time>2024-07-10T13:17:24Z</time>
      </trkpt>
      <trkpt lat="49.83534" lon="2.50235">
        <ele>84.1</ele>
        <time>2024-07-10T13:17:25Z</time>
      </trkpt>
      <trkpt lat="49.83534" lon="2.50235">
        <ele>84.1</ele>
        <time>2024-07-10T13:17:26Z</time>
      </trkpt>
      <trkpt lat="49.83534" lon="2.50234">
        <ele>84.1</ele>
        <time>2024-07-10T13:17:27Z</time>
      </trkpt>
      <trkpt lat="49.83534" lon="2.50234">
        <ele>84.1</ele>
        <time>2024-07-10T13:17:28Z</time>
      </trkpt>
      <trkpt lat="49.83534" lon="2.50234">
        <ele>84.1</ele>
        <time>2024-07-10T13:17:29Z</time>
      </trkpt>
      <trkpt lat="49.83534" lon="2.50234">
        <ele>84.1</ele>
        <time>2024-07-10T13:17:30Z</time>
      </trkpt>
      <trkpt lat="49.83534" lon="2.50234">
        <ele>84.1</ele>
        <time>2024-07-10T13:17:31Z</time>
      </trkpt>
      <trkpt lat="49.83534" lon="2.50234">
        <ele>84.1</ele>
        <time>2024-07-10T13:17:32Z</time>
      </trkpt>
      <trkpt lat="49.83534" lon="2.50234">
        <ele>84.1</ele>
        <time>2024-07-10T13:17:33Z</time>
      </trkpt>
      <trkpt lat="49.83534" lon="2.50234">
        <ele>84.1</ele>
        <time>2024-07-10T13:17:34Z</time>
      </trkpt>
      <trkpt lat="49.83534" lon="2.50234">
        <ele>84.1</ele>
        <time>2024-07-10T13:17:35Z</time>
      </trkpt>
      <trkpt lat="49.83534" lon="2.50234">
        <ele>84.1</ele>
        <time>2024-07-10T13:17:36Z</time>
      </trkpt>
      <trkpt lat="49.83534" lon="2.50234">
        <ele>84.1</ele>
        <time>2024-07-10T13:17:37Z</time>
      </trkpt>
      <trkpt lat="49.83534" lon="2.50234">
        <ele>84.1</ele>
        <time>2024-07-10T13:17:38Z</time>
      </trkpt>
      <trkpt lat="49.83534" lon="2.50234">
        <ele>84.1</ele>
        <time>2024-07-10T13:17:39Z</time>
      </trkpt>
      <trkpt lat="49.83534" lon="2.50234">
        <ele>84.1</ele>
        <time>2024-07-10T13:17:40Z</time>
      </trkpt>
      <trkpt lat="49.83534" lon="2.50234">
        <ele>84.1</ele>
        <time>2024-07-10T13:17:41Z</time>
      </trkpt>
      <trkpt lat="49.83534" lon="2.50234">
        <ele>84.1</ele>
        <time>2024-07-10T13:17:42Z</time>
      </trkpt>
      <trkpt lat="49.83534" lon="2.50234">
        <ele>84.1</ele>
        <time>2024-07-10T13:17:43Z</time>
      </trkpt>
      <trkpt lat="49.83534" lon="2.50234">
        <ele>84.1</ele>
        <time>2024-07-10T13:17:44Z</time>
      </trkpt>
      <trkpt lat="49.83534" lon="2.50234">
        <ele>84.1</ele>
        <time>2024-07-10T13:17:45Z</time>
      </trkpt>
      <trkpt lat="49.83534" lon="2.50234">
        <ele>84.1</ele>
        <time>2024-07-10T13:17:46Z</time>
      </trkpt>
      <trkpt lat="49.83534" lon="2.50234">
        <ele>84.1</ele>
        <time>2024-07-10T13:17:47Z</time>
      </trkpt>
      <trkpt lat="49.83534" lon="2.50234">
        <ele>84.1</ele>
        <time>2024-07-10T13:17:48Z</time>
      </trkpt>
      <trkpt lat="49.83534" lon="2.50234">
        <ele>84.1</ele>
        <time>2024-07-10T13:17:49Z</time>
      </trkpt>
      <trkpt lat="49.83534" lon="2.50234">
        <ele>84.1</ele>
        <time>2024-07-10T13:17:50Z</time>
      </trkpt>
      <trkpt lat="49.83534" lon="2.50234">
        <ele>84.1</ele>
        <time>2024-07-10T13:17:51Z</time>
      </trkpt>
      <trkpt lat="49.83534" lon="2.50234">
        <ele>84.1</ele>
        <time>2024-07-10T13:17:52Z</time>
      </trkpt>
      <trkpt lat="49.83534" lon="2.50234">
        <ele>84.1</ele>
        <time>2024-07-10T13:17:53Z</time>
      </trkpt>
      <trkpt lat="49.83534" lon="2.50234">
        <ele>84.1</ele>
        <time>2024-07-10T13:17:54Z</time>
      </trkpt>
      <trkpt lat="49.83534" lon="2.50234">
        <ele>84.1</ele>
        <time>2024-07-10T13:17:55Z</time>
      </trkpt>
      <trkpt lat="49.83534" lon="2.50234">
        <ele>84.1</ele>
        <time>2024-07-10T13:17:56Z</time>
      </trkpt>
      <trkpt lat="49.83534" lon="2.50234">
        <ele>84.1</ele>
        <time>2024-07-10T13:17:57Z</time>
      </trkpt>
      <trkpt lat="49.83534" lon="2.50234">
        <ele>84.1</ele>
        <time>2024-07-10T13:17:58Z</time>
      </trkpt>
      <trkpt lat="49.83534" lon="2.50234">
        <ele>84.1</ele>
        <time>2024-07-10T13:17:59Z</time>
      </trkpt>
      <trkpt lat="49.83534" lon="2.50234">
        <ele>84.1</ele>
        <time>2024-07-10T13:18:00Z</time>
      </trkpt>
      <trkpt lat="49.83534" lon="2.50234">
        <ele>84.1</ele>
        <time>2024-07-10T13:18:01Z</time>
      </trkpt>
      <trkpt lat="49.83534" lon="2.50234">
        <ele>84.1</ele>
        <time>2024-07-10T13:18:02Z</time>
      </trkpt>
      <trkpt lat="49.83534" lon="2.50234">
        <ele>84.1</ele>
        <time>2024-07-10T13:18:03Z</time>
      </trkpt>
      <trkpt lat="49.83534" lon="2.50234">
        <ele>84.1</ele>
        <time>2024-07-10T13:18:04Z</time>
      </trkpt>
      <trkpt lat="49.83534" lon="2.50234">
        <ele>84.1</ele>
        <time>2024-07-10T13:18:05Z</time>
      </trkpt>
      <trkpt lat="49.83534" lon="2.50234">
        <ele>84.1</ele>
        <time>2024-07-10T13:18:06Z</time>
      </trkpt>
      <trkpt lat="49.83534" lon="2.50234">
        <ele>84.1</ele>
        <time>2024-07-10T13:18:07Z</time>
      </trkpt>
      <trkpt lat="49.83534" lon="2.50234">
        <ele>84.1</ele>
        <time>2024-07-10T13:18:08Z</time>
      </trkpt>
      <trkpt lat="49.83534" lon="2.50234">
        <ele>84.1</ele>
        <time>2024-07-10T13:18:09Z</time>
      </trkpt>
      <trkpt lat="49.83534" lon="2.50234">
        <ele>84.1</ele>
        <time>2024-07-10T13:18:10Z</time>
      </trkpt>
      <trkpt lat="49.83534" lon="2.50234">
        <ele>84.1</ele>
        <time>2024-07-10T13:18:11Z</time>
      </trkpt>
      <trkpt lat="49.83534" lon="2.50234">
        <ele>84.1</ele>
        <time>2024-07-10T13:18:12Z</time>
      </trkpt>
      <trkpt lat="49.83534" lon="2.50234">
        <ele>84.1</ele>
        <time>2024-07-10T13:18:13Z</time>
      </trkpt>
      <trkpt lat="49.83534" lon="2.50234">
        <ele>84.1</ele>
        <time>2024-07-10T13:18:14Z</time>
      </trkpt>
      <trkpt lat="49.83534" lon="2.50234">
        <ele>84.1</ele>
        <time>2024-07-10T13:18:15Z</time>
      </trkpt>
      <trkpt lat="49.83534" lon="2.50234">
        <ele>84.1</ele>
        <time>2024-07-10T13:18:16Z</time>
      </trkpt>
      <trkpt lat="49.83534" lon="2.50234">
        <ele>84.1</ele>
        <time>2024-07-10T13:18:17Z</time>
      </trkpt>
      <trkpt lat="49.83534" lon="2.50234">
        <ele>84.1</ele>
        <time>2024-07-10T13:18:18Z</time>
      </trkpt>
      <trkpt lat="49.83534" lon="2.50234">
        <ele>84.1</ele>
        <time>2024-07-10T13:18:19Z</time>
      </trkpt>
      <trkpt lat="49.83534" lon="2.50234">
        <ele>84.1</ele>
        <time>2024-07-10T13:18:20Z</time>
      </trkpt>
      <trkpt lat="49.83534" lon="2.50234">
        <ele>84.1</ele>
        <time>2024-07-10T13:18:21Z</time>
      </trkpt>
      <trkpt lat="49.83534" lon="2.50234">
        <ele>84.1</ele>
        <time>2024-07-10T13:18:22Z</time>
      </trkpt>
      <trkpt lat="49.83534" lon="2.50234">
        <ele>84.1</ele>
        <time>2024-07-10T13:18:23Z</time>
      </trkpt>
      <trkpt lat="49.83534" lon="2.50234">
        <ele>84.1</ele>
        <time>2024-07-10T13:18:24Z</time>
      </trkpt>
      <trkpt lat="49.83534" lon="2.50234">
        <ele>84.1</ele>
        <time>2024-07-10T13:18:25Z</time>
      </trkpt>
      <trkpt lat="49.83534" lon="2.50234">
        <ele>84.1</ele>
        <time>2024-07-10T13:18:26Z</time>
      </trkpt>
      <trkpt lat="49.83534" lon="2.50234">
        <ele>84.1</ele>
        <time>2024-07-10T13:18:27Z</time>
      </trkpt>
      <trkpt lat="49.83534" lon="2.50234">
        <ele>84.1</ele>
        <time>2024-07-10T13:18:28Z</time>
      </trkpt>
      <trkpt lat="49.83534" lon="2.50234">
        <ele>84.1</ele>
        <time>2024-07-10T13:18:29Z</time>
      </trkpt>
      <trkpt lat="49.83534" lon="2.50234">
        <ele>84.1</ele>
        <time>2024-07-10T13:18:30Z</time>
      </trkpt>
      <trkpt lat="49.83534" lon="2.50234">
        <ele>84.1</ele>
        <time>2024-07-10T13:18:31Z</time>
      </trkpt>
      <trkpt lat="49.83534" lon="2.50234">
        <ele>84.1</ele>
        <time>2024-07-10T13:18:32Z</time>
      </trkpt>
      <trkpt lat="49.83534" lon="2.50234">
        <ele>84.1</ele>
        <time>2024-07-10T13:18:33Z</time>
      </trkpt>
      <trkpt lat="49.83534" lon="2.50234">
        <ele>84.1</ele>
        <time>2024-07-10T13:18:34Z</time>
      </trkpt>
      <trkpt lat="49.83534" lon="2.50234">
        <ele>84.1</ele>
        <time>2024-07-10T13:18:35Z</time>
      </trkpt>
      <trkpt lat="49.83534" lon="2.50234">
        <ele>84.1</ele>
        <time>2024-07-10T13:18:36Z</time>
      </trkpt>
      <trkpt lat="49.83534" lon="2.50234">
        <ele>84.1</ele>
        <time>2024-07-10T13:18:37Z</time>
      </trkpt>
      <trkpt lat="49.83534" lon="2.50234">
        <ele>84.1</ele>
        <time>2024-07-10T13:18:38Z</time>
      </trkpt>
      <trkpt lat="49.83534" lon="2.50234">
        <ele>84.1</ele>
        <time>2024-07-10T13:18:39Z</time>
      </trkpt>
      <trkpt lat="49.83534" lon="2.50234">
        <ele>84.1</ele>
        <time>2024-07-10T13:18:40Z</time>
      </trkpt>
      <trkpt lat="49.83534" lon="2.50234">
        <ele>84.1</ele>
        <time>2024-07-10T13:18:41Z</time>
      </trkpt>
      <trkpt lat="49.83534" lon="2.50234">
        <ele>84.1</ele>
        <time>2024-07-10T13:18:42Z</time>
      </trkpt>
      <trkpt lat="49.83534" lon="2.50234">
        <ele>84.1</ele>
        <time>2024-07-10T13:18:43Z</time>
      </trkpt>
      <trkpt lat="49.83534" lon="2.50234">
        <ele>84.1</ele>
        <time>2024-07-10T13:18:44Z</time>
      </trkpt>
      <trkpt lat="49.83534" lon="2.50234">
        <ele>84.1</ele>
        <time>2024-07-10T13:18:45Z</time>
      </trkpt>
      <trkpt lat="49.83534" lon="2.50234">
        <ele>84.1</ele>
        <time>2024-07-10T13:18:46Z</time>
      </trkpt>
      <trkpt lat="49.83534" lon="2.50234">
        <ele>84.1</ele>
        <time>2024-07-10T13:18:47Z</time>
      </trkpt>
      <trkpt lat="49.83534" lon="2.50234">
        <ele>84.1</ele>
        <time>2024-07-10T13:18:48Z</time>
      </trkpt>
      <trkpt lat="49.83534" lon="2.50234">
        <ele>84.1</ele>
        <time>2024-07-10T13:18:49Z</time>
      </trkpt>
      <trkpt lat="49.83534" lon="2.50234">
        <ele>84.1</ele>
        <time>2024-07-10T13:18:50Z</time>
      </trkpt>
      <trkpt lat="49.83534" lon="2.50234">
        <ele>84.1</ele>
        <time>2024-07-10T13:18:51Z</time>
      </trkpt>
      <trkpt lat="49.83534" lon="2.50234">
        <ele>84.1</ele>
        <time>2024-07-10T13:18:52Z</time>
      </trkpt>
      <trkpt lat="49.83534" lon="2.50234">
        <ele>84.1</ele>
        <time>2024-07-10T13:18:53Z</time>
      </trkpt>
      <trkpt lat="49.83534" lon="2.50234">
        <ele>84.1</ele>
        <time>2024-07-10T13:18:54Z</time>
      </trkpt>
      <trkpt lat="49.83534" lon="2.50234">
        <ele>84.1</ele>
        <time>2024-07-10T13:18:55Z</time>
      </trkpt>
      <trkpt lat="49.83534" lon="2.50234">
        <ele>84.1</ele>
        <time>2024-07-10T13:18:56Z</time>
      </trkpt>
      <trkpt lat="49.83534" lon="2.50234">
        <ele>84.1</ele>
        <time>2024-07-10T13:18:57Z</time>
      </trkpt>
      <trkpt lat="49.83534" lon="2.50234">
        <ele>84.1</ele>
        <time>2024-07-10T13:18:58Z</time>
      </trkpt>
      <trkpt lat="49.83534" lon="2.50234">
        <ele>84.1</ele>
        <time>2024-07-10T13:18:59Z</time>
      </trkpt>
      <trkpt lat="49.83534" lon="2.50234">
        <ele>84.1</ele>
        <time>2024-07-10T13:19:00Z</time>
      </trkpt>
      <trkpt lat="49.83534" lon="2.50234">
        <ele>84.1</ele>
        <time>2024-07-10T13:19:01Z</time>
      </trkpt>
      <trkpt lat="49.83534" lon="2.50234">
        <ele>84.1</ele>
        <time>2024-07-10T13:19:02Z</time>
      </trkpt>
      <trkpt lat="49.83534" lon="2.50234">
        <ele>84.1</ele>
        <time>2024-07-10T13:19:03Z</time>
      </trkpt>
      <trkpt lat="49.83534" lon="2.50234">
        <ele>84.1</ele>
        <time>2024-07-10T13:19:04Z</time>
      </trkpt>
      <trkpt lat="49.83534" lon="2.50234">
        <ele>84.1</ele>
        <time>2024-07-10T13:19:05Z</time>
      </trkpt>
      <trkpt lat="49.83534" lon="2.50234">
        <ele>84.1</ele>
        <time>2024-07-10T13:19:06Z</time>
      </trkpt>
      <trkpt lat="49.83534" lon="2.50234">
        <ele>84.1</ele>
        <time>2024-07-10T13:19:07Z</time>
      </trkpt>
      <trkpt lat="49.83534" lon="2.50234">
        <ele>84.1</ele>
        <time>2024-07-10T13:19:08Z</time>
      </trkpt>
      <trkpt lat="49.83534" lon="2.50234">
        <ele>84.1</ele>
        <time>2024-07-10T13:19:09Z</time>
      </trkpt>
      <trkpt lat="49.83534" lon="2.50234">
        <ele>84.1</ele>
        <time>2024-07-10T13:19:10Z</time>
      </trkpt>
      <trkpt lat="49.83534" lon="2.50234">
        <ele>84.1</ele>
        <time>2024-07-10T13:19:11Z</time>
      </trkpt>
      <trkpt lat="49.83534" lon="2.50234">
        <ele>84.1</ele>
        <time>2024-07-10T13:19:12Z</time>
      </trkpt>
      <trkpt lat="49.83534" lon="2.50234">
        <ele>84.1</ele>
        <time>2024-07-10T13:19:13Z</time>
      </trkpt>
      <trkpt lat="49.83538" lon="2.50234">
        <ele>84.1</ele>
        <time>2024-07-10T13:19:14Z</time>
      </trkpt>
      <trkpt lat="49.83538" lon="2.50234">
        <ele>84.1</ele>
        <time>2024-07-10T13:19:15Z</time>
      </trkpt>
      <trkpt lat="49.83538" lon="2.50234">
        <ele>84.1</ele>
        <time>2024-07-10T13:19:16Z</time>
      </trkpt>
      <trkpt lat="49.83537" lon="2.50234">
        <ele>84.1</ele>
        <time>2024-07-10T13:19:17Z</time>
      </trkpt>
      <trkpt lat="49.83536" lon="2.50235">
        <ele>84.1</ele>
        <time>2024-07-10T13:19:18Z</time>
      </trkpt>
      <trkpt lat="49.83535" lon="2.50235">
        <ele>84.1</ele>
        <time>2024-07-10T13:19:19Z</time>
      </trkpt>
      <trkpt lat="49.83534" lon="2.50236">
        <ele>84.1</ele>
        <time>2024-07-10T13:19:20Z</time>
      </trkpt>
      <trkpt lat="49.83534" lon="2.50236">
        <ele>84.1</ele>
        <time>2024-07-10T13:19:21Z</time>
      </trkpt>
      <trkpt lat="49.83533" lon="2.50237">
        <ele>84.1</ele>
        <time>2024-07-10T13:19:22Z</time>
      </trkpt>
      <trkpt lat="49.83532" lon="2.50238">
        <ele>84</ele>
        <time>2024-07-10T13:19:23Z</time>
      </trkpt>
      <trkpt lat="49.83531" lon="2.50239">
        <ele>84</ele>
        <time>2024-07-10T13:19:24Z</time>
      </trkpt>
      <trkpt lat="49.8353" lon="2.5024">
        <ele>84</ele>
        <time>2024-07-10T13:19:25Z</time>
      </trkpt>
      <trkpt lat="49.83528" lon="2.50241">
        <ele>84</ele>
        <time>2024-07-10T13:19:26Z</time>
      </trkpt>
      <trkpt lat="49.83527" lon="2.50242">
        <ele>84</ele>
        <time>2024-07-10T13:19:27Z</time>
      </trkpt>
      <trkpt lat="49.83525" lon="2.50243">
        <ele>83.9</ele>
        <time>2024-07-10T13:19:28Z</time>
      </trkpt>
      <trkpt lat="49.83524" lon="2.50244">
        <ele>83.9</ele>
        <time>2024-07-10T13:19:29Z</time>
      </trkpt>
      <trkpt lat="49.83524" lon="2.50245">
        <ele>83.9</ele>
        <time>2024-07-10T13:19:30Z</time>
      </trkpt>
      <trkpt lat="49.83522" lon="2.50246">
        <ele>83.9</ele>
        <time>2024-07-10T13:19:31Z</time>
      </trkpt>
      <trkpt lat="49.83521" lon="2.50247">
        <ele>83.9</ele>
        <time>2024-07-10T13:19:32Z</time>
      </trkpt>
      <trkpt lat="49.8352" lon="2.50248">
        <ele>83.9</ele>
        <time>2024-07-10T13:19:33Z</time>
      </trkpt>
      <trkpt lat="49.83519" lon="2.5025">
        <ele>83.9</ele>
        <time>2024-07-10T13:19:34Z</time>
      </trkpt>
      <trkpt lat="49.83518" lon="2.50251">
        <ele>83.9</ele>
        <time>2024-07-10T13:19:35Z</time>
      </trkpt>
      <trkpt lat="49.83517" lon="2.50252">
        <ele>83.9</ele>
        <time>2024-07-10T13:19:36Z</time>
      </trkpt>
      <trkpt lat="49.83516" lon="2.50255">
        <ele>83.8</ele>
        <time>2024-07-10T13:19:37Z</time>
      </trkpt>
      <trkpt lat="49.83516" lon="2.50256">
        <ele>83.8</ele>
        <time>2024-07-10T13:19:38Z</time>
      </trkpt>
      <trkpt lat="49.83515" lon="2.50257">
        <ele>83.8</ele>
        <time>2024-07-10T13:19:39Z</time>
      </trkpt>
      <trkpt lat="49.83514" lon="2.50258">
        <ele>83.8</ele>
        <time>2024-07-10T13:19:40Z</time>
      </trkpt>
      <trkpt lat="49.83514" lon="2.50259">
        <ele>83.8</ele>
        <time>2024-07-10T13:19:41Z</time>
      </trkpt>
      <trkpt lat="49.83513" lon="2.5026">
        <ele>83.8</ele>
        <time>2024-07-10T13:19:42Z</time>
      </trkpt>
      <trkpt lat="49.83512" lon="2.50262">
        <ele>83.8</ele>
        <time>2024-07-10T13:19:43Z</time>
      </trkpt>
      <trkpt lat="49.83512" lon="2.50263">
        <ele>83.8</ele>
        <time>2024-07-10T13:19:44Z</time>
      </trkpt>
      <trkpt lat="49.83511" lon="2.50264">
        <ele>83.8</ele>
        <time>2024-07-10T13:19:45Z</time>
      </trkpt>
      <trkpt lat="49.8351" lon="2.50265">
        <ele>83.8</ele>
        <time>2024-07-10T13:19:46Z</time>
      </trkpt>
      <trkpt lat="49.8351" lon="2.50266">
        <ele>83.8</ele>
        <time>2024-07-10T13:19:47Z</time>
      </trkpt>
      <trkpt lat="49.83509" lon="2.50267">
        <ele>83.8</ele>
        <time>2024-07-10T13:19:48Z</time>
      </trkpt>
      <trkpt lat="49.83508" lon="2.50268">
        <ele>83.8</ele>
        <time>2024-07-10T13:19:49Z</time>
      </trkpt>
      <trkpt lat="49.83508" lon="2.50269">
        <ele>83.8</ele>
        <time>2024-07-10T13:19:50Z</time>
      </trkpt>
      <trkpt lat="49.83507" lon="2.50271">
        <ele>83.8</ele>
        <time>2024-07-10T13:19:51Z</time>
      </trkpt>
      <trkpt lat="49.83507" lon="2.50272">
        <ele>83.8</ele>
        <time>2024-07-10T13:19:52Z</time>
      </trkpt>
      <trkpt lat="49.83506" lon="2.50273">
        <ele>83.8</ele>
        <time>2024-07-10T13:19:53Z</time>
      </trkpt>
      <trkpt lat="49.83506" lon="2.50274">
        <ele>83.8</ele>
        <time>2024-07-10T13:19:54Z</time>
      </trkpt>
      <trkpt lat="49.83505" lon="2.50275">
        <ele>83.8</ele>
        <time>2024-07-10T13:19:55Z</time>
      </trkpt>
      <trkpt lat="49.83504" lon="2.50277">
        <ele>83.8</ele>
        <time>2024-07-10T13:19:56Z</time>
      </trkpt>
      <trkpt lat="49.83504" lon="2.50278">
        <ele>83.8</ele>
        <time>2024-07-10T13:19:57Z</time>
      </trkpt>
      <trkpt lat="49.83503" lon="2.50279">
        <ele>83.8</ele>
        <time>2024-07-10T13:19:58Z</time>
      </trkpt>
      <trkpt lat="49.83502" lon="2.5028">
        <ele>83.8</ele>
        <time>2024-07-10T13:19:59Z</time>
      </trkpt>
      <trkpt lat="49.83501" lon="2.50281">
        <ele>83.8</ele>
        <time>2024-07-10T13:20:00Z</time>
      </trkpt>
      <trkpt lat="49.835" lon="2.50282">
        <ele>83.8</ele>
        <time>2024-07-10T13:20:01Z</time>
      </trkpt>
      <trkpt lat="49.835" lon="2.50282">
        <ele>83.8</ele>
        <time>2024-07-10T13:20:02Z</time>
      </trkpt>
      <trkpt lat="49.83499" lon="2.50283">
        <ele>83.8</ele>
        <time>2024-07-10T13:20:03Z</time>
      </trkpt>
      <trkpt lat="49.83498" lon="2.50284">
        <ele>83.8</ele>
        <time>2024-07-10T13:20:04Z</time>
      </trkpt>
      <trkpt lat="49.83497" lon="2.50285">
        <ele>83.8</ele>
        <time>2024-07-10T13:20:05Z</time>
      </trkpt>
      <trkpt lat="49.83496" lon="2.50286">
        <ele>83.8</ele>
        <time>2024-07-10T13:20:06Z</time>
      </trkpt>
      <trkpt lat="49.83496" lon="2.50287">
        <ele>83.8</ele>
        <time>2024-07-10T13:20:07Z</time>
      </trkpt>
      <trkpt lat="49.83495" lon="2.50288">
        <ele>83.8</ele>
        <time>2024-07-10T13:20:08Z</time>
      </trkpt>
      <trkpt lat="49.83494" lon="2.50289">
        <ele>83.8</ele>
        <time>2024-07-10T13:20:09Z</time>
      </trkpt>
      <trkpt lat="49.83493" lon="2.5029">
        <ele>83.8</ele>
        <time>2024-07-10T13:20:10Z</time>
      </trkpt>
      <trkpt lat="49.83493" lon="2.50291">
        <ele>83.8</ele>
        <time>2024-07-10T13:20:11Z</time>
      </trkpt>
      <trkpt lat="49.83492" lon="2.50292">
        <ele>83.8</ele>
        <time>2024-07-10T13:20:12Z</time>
      </trkpt>
      <trkpt lat="49.83491" lon="2.50293">
        <ele>83.9</ele>
        <time>2024-07-10T13:20:13Z</time>
      </trkpt>
      <trkpt lat="49.8349" lon="2.50294">
        <ele>83.9</ele>
        <time>2024-07-10T13:20:14Z</time>
      </trkpt>
      <trkpt lat="49.83489" lon="2.50295">
        <ele>83.9</ele>
        <time>2024-07-10T13:20:15Z</time>
      </trkpt>
      <trkpt lat="49.83489" lon="2.50296">
        <ele>83.9</ele>
        <time>2024-07-10T13:20:16Z</time>
      </trkpt>
      <trkpt lat="49.83488" lon="2.50296">
        <ele>83.9</ele>
        <time>2024-07-10T13:20:17Z</time>
      </trkpt>
      <trkpt lat="49.83487" lon="2.50297">
        <ele>83.9</ele>
        <time>2024-07-10T13:20:18Z</time>
      </trkpt>
      <trkpt lat="49.83486" lon="2.50298">
        <ele>83.9</ele>
        <time>2024-07-10T13:20:19Z</time>
      </trkpt>
      <trkpt lat="49.83485" lon="2.50299">
        <ele>83.9</ele>
        <time>2024-07-10T13:20:20Z</time>
      </trkpt>
      <trkpt lat="49.83485" lon="2.503">
        <ele>83.9</ele>
        <time>2024-07-10T13:20:21Z</time>
      </trkpt>
      <trkpt lat="49.83484" lon="2.50301">
        <ele>83.9</ele>
        <time>2024-07-10T13:20:22Z</time>
      </trkpt>
      <trkpt lat="49.83483" lon="2.50302">
        <ele>84</ele>
        <time>2024-07-10T13:20:23Z</time>
      </trkpt>
      <trkpt lat="49.83482" lon="2.50303">
        <ele>84</ele>
        <time>2024-07-10T13:20:24Z</time>
      </trkpt>
      <trkpt lat="49.83481" lon="2.50304">
        <ele>84</ele>
        <time>2024-07-10T13:20:25Z</time>
      </trkpt>
      <trkpt lat="49.8348" lon="2.50305">
        <ele>84</ele>
        <time>2024-07-10T13:20:26Z</time>
      </trkpt>
      <trkpt lat="49.83479" lon="2.50306">
        <ele>84</ele>
        <time>2024-07-10T13:20:27Z</time>
      </trkpt>
      <trkpt lat="49.83478" lon="2.50308">
        <ele>84</ele>
        <time>2024-07-10T13:20:28Z</time>
      </trkpt>
      <trkpt lat="49.83477" lon="2.50309">
        <ele>84</ele>
        <time>2024-07-10T13:20:29Z</time>
      </trkpt>
      <trkpt lat="49.83476" lon="2.50309">
        <ele>84</ele>
        <time>2024-07-10T13:20:30Z</time>
      </trkpt>
      <trkpt lat="49.83474" lon="2.50311">
        <ele>84.1</ele>
        <time>2024-07-10T13:20:31Z</time>
      </trkpt>
      <trkpt lat="49.83474" lon="2.50312">
        <ele>84.1</ele>
        <time>2024-07-10T13:20:32Z</time>
      </trkpt>
      <trkpt lat="49.83473" lon="2.50312">
        <ele>84.1</ele>
        <time>2024-07-10T13:20:33Z</time>
      </trkpt>
      <trkpt lat="49.83472" lon="2.50313">
        <ele>84.1</ele>
        <time>2024-07-10T13:20:34Z</time>
      </trkpt>
      <trkpt lat="49.83471" lon="2.50314">
        <ele>84.1</ele>
        <time>2024-07-10T13:20:35Z</time>
      </trkpt>
      <trkpt lat="49.8347" lon="2.50315">
        <ele>84.1</ele>
        <time>2024-07-10T13:20:36Z</time>
      </trkpt>
      <trkpt lat="49.83469" lon="2.50316">
        <ele>84.1</ele>
        <time>2024-07-10T13:20:37Z</time>
      </trkpt>
      <trkpt lat="49.83468" lon="2.50317">
        <ele>84.2</ele>
        <time>2024-07-10T13:20:38Z</time>
      </trkpt>
      <trkpt lat="49.83467" lon="2.50318">
        <ele>84.2</ele>
        <time>2024-07-10T13:20:39Z</time>
      </trkpt>
      <trkpt lat="49.83466" lon="2.50319">
        <ele>84.2</ele>
        <time>2024-07-10T13:20:40Z</time>
      </trkpt>
      <trkpt lat="49.83465" lon="2.5032">
        <ele>84.2</ele>
        <time>2024-07-10T13:20:41Z</time>
      </trkpt>
      <trkpt lat="49.83464" lon="2.50321">
        <ele>84.2</ele>
        <time>2024-07-10T13:20:42Z</time>
      </trkpt>
      <trkpt lat="49.83464" lon="2.50322">
        <ele>84.2</ele>
        <time>2024-07-10T13:20:43Z</time>
      </trkpt>
      <trkpt lat="49.83463" lon="2.50323">
        <ele>84.3</ele>
        <time>2024-07-10T13:20:44Z</time>
      </trkpt>
      <trkpt lat="49.83462" lon="2.50324">
        <ele>84.3</ele>
        <time>2024-07-10T13:20:45Z</time>
      </trkpt>
      <trkpt lat="49.83461" lon="2.50324">
        <ele>84.3</ele>
        <time>2024-07-10T13:20:46Z</time>
      </trkpt>
      <trkpt lat="49.8346" lon="2.50325">
        <ele>84.3</ele>
        <time>2024-07-10T13:20:47Z</time>
      </trkpt>
      <trkpt lat="49.83459" lon="2.50326">
        <ele>84.3</ele>
        <time>2024-07-10T13:20:48Z</time>
      </trkpt>
      <trkpt lat="49.83458" lon="2.50327">
        <ele>84.4</ele>
        <time>2024-07-10T13:20:49Z</time>
      </trkpt>
      <trkpt lat="49.83458" lon="2.50328">
        <ele>84.4</ele>
        <time>2024-07-10T13:20:50Z</time>
      </trkpt>
      <trkpt lat="49.83457" lon="2.50329">
        <ele>84.4</ele>
        <time>2024-07-10T13:20:51Z</time>
      </trkpt>
      <trkpt lat="49.83456" lon="2.5033">
        <ele>84.4</ele>
        <time>2024-07-10T13:20:52Z</time>
      </trkpt>
      <trkpt lat="49.83455" lon="2.50331">
        <ele>84.4</ele>
        <time>2024-07-10T13:20:53Z</time>
      </trkpt>
      <trkpt lat="49.83455" lon="2.50331">
        <ele>84.5</ele>
        <time>2024-07-10T13:20:54Z</time>
      </trkpt>
      <trkpt lat="49.83454" lon="2.50332">
        <ele>84.5</ele>
        <time>2024-07-10T13:20:55Z</time>
      </trkpt>
      <trkpt lat="49.83453" lon="2.50333">
        <ele>84.5</ele>
        <time>2024-07-10T13:20:56Z</time>
      </trkpt>
      <trkpt lat="49.83452" lon="2.50334">
        <ele>84.5</ele>
        <time>2024-07-10T13:20:57Z</time>
      </trkpt>
      <trkpt lat="49.83451" lon="2.50335">
        <ele>84.6</ele>
        <time>2024-07-10T13:20:58Z</time>
      </trkpt>
      <trkpt lat="49.83451" lon="2.50336">
        <ele>84.6</ele>
        <time>2024-07-10T13:20:59Z</time>
      </trkpt>
      <trkpt lat="49.8345" lon="2.50337">
        <ele>84.6</ele>
        <time>2024-07-10T13:21:00Z</time>
      </trkpt>
      <trkpt lat="49.83449" lon="2.50337">
        <ele>84.6</ele>
        <time>2024-07-10T13:21:01Z</time>
      </trkpt>
      <trkpt lat="49.83448" lon="2.50338">
        <ele>84.7</ele>
        <time>2024-07-10T13:21:02Z</time>
      </trkpt>
      <trkpt lat="49.83447" lon="2.50339">
        <ele>84.7</ele>
        <time>2024-07-10T13:21:03Z</time>
      </trkpt>
      <trkpt lat="49.83447" lon="2.5034">
        <ele>84.7</ele>
        <time>2024-07-10T13:21:04Z</time>
      </trkpt>
      <trkpt lat="49.83446" lon="2.50341">
        <ele>84.7</ele>
        <time>2024-07-10T13:21:05Z</time>
      </trkpt>
      <trkpt lat="49.83445" lon="2.50342">
        <ele>84.8</ele>
        <time>2024-07-10T13:21:06Z</time>
      </trkpt>
      <trkpt lat="49.83444" lon="2.50342">
        <ele>84.8</ele>
        <time>2024-07-10T13:21:07Z</time>
      </trkpt>
      <trkpt lat="49.83443" lon="2.50343">
        <ele>84.8</ele>
        <time>2024-07-10T13:21:08Z</time>
      </trkpt>
      <trkpt lat="49.83442" lon="2.50344">
        <ele>84.8</ele>
        <time>2024-07-10T13:21:09Z</time>
      </trkpt>
      <trkpt lat="49.83441" lon="2.50345">
        <ele>84.9</ele>
        <time>2024-07-10T13:21:10Z</time>
      </trkpt>
      <trkpt lat="49.8344" lon="2.50346">
        <ele>84.9</ele>
        <time>2024-07-10T13:21:11Z</time>
      </trkpt>
      <trkpt lat="49.83439" lon="2.50347">
        <ele>84.9</ele>
        <time>2024-07-10T13:21:12Z</time>
      </trkpt>
      <trkpt lat="49.83438" lon="2.50347">
        <ele>85</ele>
        <time>2024-07-10T13:21:13Z</time>
      </trkpt>
      <trkpt lat="49.83437" lon="2.50348">
        <ele>85</ele>
        <time>2024-07-10T13:21:14Z</time>
      </trkpt>
      <trkpt lat="49.83436" lon="2.50349">
        <ele>85</ele>
        <time>2024-07-10T13:21:15Z</time>
      </trkpt>
      <trkpt lat="49.83435" lon="2.50351">
        <ele>85.1</ele>
        <time>2024-07-10T13:21:16Z</time>
      </trkpt>
      <trkpt lat="49.83434" lon="2.50352">
        <ele>85.1</ele>
        <time>2024-07-10T13:21:17Z</time>
      </trkpt>
      <trkpt lat="49.83433" lon="2.50352">
        <ele>85.1</ele>
        <time>2024-07-10T13:21:18Z</time>
      </trkpt>
      <trkpt lat="49.83432" lon="2.50353">
        <ele>85.1</ele>
        <time>2024-07-10T13:21:19Z</time>
      </trkpt>
      <trkpt lat="49.83431" lon="2.50354">
        <ele>85.2</ele>
        <time>2024-07-10T13:21:20Z</time>
      </trkpt>
      <trkpt lat="49.8343" lon="2.50355">
        <ele>85.2</ele>
        <time>2024-07-10T13:21:21Z</time>
      </trkpt>
      <trkpt lat="49.83429" lon="2.50356">
        <ele>85.2</ele>
        <time>2024-07-10T13:21:22Z</time>
      </trkpt>
      <trkpt lat="49.83428" lon="2.50356">
        <ele>85.3</ele>
        <time>2024-07-10T13:21:23Z</time>
      </trkpt>
      <trkpt lat="49.83427" lon="2.50357">
        <ele>85.3</ele>
        <time>2024-07-10T13:21:24Z</time>
      </trkpt>
      <trkpt lat="49.83426" lon="2.50358">
        <ele>85.3</ele>
        <time>2024-07-10T13:21:25Z</time>
      </trkpt>
      <trkpt lat="49.83425" lon="2.50359">
        <ele>85.4</ele>
        <time>2024-07-10T13:21:26Z</time>
      </trkpt>
      <trkpt lat="49.83424" lon="2.50359">
        <ele>85.4</ele>
        <time>2024-07-10T13:21:27Z</time>
      </trkpt>
      <trkpt lat="49.83424" lon="2.5036">
        <ele>85.4</ele>
        <time>2024-07-10T13:21:28Z</time>
      </trkpt>
      <trkpt lat="49.83423" lon="2.5036">
        <ele>85.5</ele>
        <time>2024-07-10T13:21:29Z</time>
      </trkpt>
      <trkpt lat="49.83422" lon="2.50361">
        <ele>85.5</ele>
        <time>2024-07-10T13:21:30Z</time>
      </trkpt>
      <trkpt lat="49.83421" lon="2.50362">
        <ele>85.5</ele>
        <time>2024-07-10T13:21:31Z</time>
      </trkpt>
      <trkpt lat="49.8342" lon="2.50362">
        <ele>85.6</ele>
        <time>2024-07-10T13:21:32Z</time>
      </trkpt>
      <trkpt lat="49.83419" lon="2.50363">
        <ele>85.6</ele>
        <time>2024-07-10T13:21:33Z</time>
      </trkpt>
      <trkpt lat="49.83418" lon="2.50364">
        <ele>85.6</ele>
        <time>2024-07-10T13:21:34Z</time>
      </trkpt>
      <trkpt lat="49.83418" lon="2.50364">
        <ele>85.6</ele>
        <time>2024-07-10T13:21:35Z</time>
      </trkpt>
      <trkpt lat="49.83417" lon="2.50365">
        <ele>85.7</ele>
        <time>2024-07-10T13:21:36Z</time>
      </trkpt>
      <trkpt lat="49.83416" lon="2.50365">
        <ele>85.7</ele>
        <time>2024-07-10T13:21:37Z</time>
      </trkpt>
      <trkpt lat="49.83415" lon="2.50365">
        <ele>85.7</ele>
        <time>2024-07-10T13:21:38Z</time>
      </trkpt>
      <trkpt lat="49.83415" lon="2.50366">
        <ele>85.7</ele>
        <time>2024-07-10T13:21:39Z</time>
      </trkpt>
      <trkpt lat="49.83414" lon="2.50366">
        <ele>85.8</ele>
        <time>2024-07-10T13:21:40Z</time>
      </trkpt>
      <trkpt lat="49.83413" lon="2.50367">
        <ele>85.8</ele>
        <time>2024-07-10T13:21:41Z</time>
      </trkpt>
      <trkpt lat="49.83412" lon="2.50367">
        <ele>85.8</ele>
        <time>2024-07-10T13:21:42Z</time>
      </trkpt>
      <trkpt lat="49.83412" lon="2.50368">
        <ele>85.8</ele>
        <time>2024-07-10T13:21:43Z</time>
      </trkpt>
      <trkpt lat="49.83411" lon="2.50368">
        <ele>85.9</ele>
        <time>2024-07-10T13:21:44Z</time>
      </trkpt>
      <trkpt lat="49.8341" lon="2.50369">
        <ele>85.9</ele>
        <time>2024-07-10T13:21:45Z</time>
      </trkpt>
      <trkpt lat="49.83409" lon="2.50369">
        <ele>85.9</ele>
        <time>2024-07-10T13:21:46Z</time>
      </trkpt>
      <trkpt lat="49.83408" lon="2.5037">
        <ele>86</ele>
        <time>2024-07-10T13:21:47Z</time>
      </trkpt>
      <trkpt lat="49.83407" lon="2.5037">
        <ele>86</ele>
        <time>2024-07-10T13:21:48Z</time>
      </trkpt>
      <trkpt lat="49.83406" lon="2.50371">
        <ele>86</ele>
        <time>2024-07-10T13:21:49Z</time>
      </trkpt>
      <trkpt lat="49.83405" lon="2.50371">
        <ele>86.1</ele>
        <time>2024-07-10T13:21:50Z</time>
      </trkpt>
      <trkpt lat="49.83405" lon="2.50372">
        <ele>86.1</ele>
        <time>2024-07-10T13:21:51Z</time>
      </trkpt>
      <trkpt lat="49.83404" lon="2.50372">
        <ele>86.1</ele>
        <time>2024-07-10T13:21:52Z</time>
      </trkpt>
      <trkpt lat="49.83403" lon="2.50373">
        <ele>86.1</ele>
        <time>2024-07-10T13:21:53Z</time>
      </trkpt>
      <trkpt lat="49.83402" lon="2.50374">
        <ele>86.2</ele>
        <time>2024-07-10T13:21:54Z</time>
      </trkpt>
      <trkpt lat="49.83401" lon="2.50374">
        <ele>86.2</ele>
        <time>2024-07-10T13:21:55Z</time>
      </trkpt>
      <trkpt lat="49.834" lon="2.50375">
        <ele>86.2</ele>
        <time>2024-07-10T13:21:56Z</time>
      </trkpt>
      <trkpt lat="49.834" lon="2.50375">
        <ele>86.3</ele>
        <time>2024-07-10T13:21:57Z</time>
      </trkpt>
      <trkpt lat="49.83399" lon="2.50376">
        <ele>86.3</ele>
        <time>2024-07-10T13:21:58Z</time>
      </trkpt>
      <trkpt lat="49.83398" lon="2.50377">
        <ele>86.4</ele>
        <time>2024-07-10T13:21:59Z</time>
      </trkpt>
      <trkpt lat="49.83397" lon="2.50378">
        <ele>86.4</ele>
        <time>2024-07-10T13:22:00Z</time>
      </trkpt>
      <trkpt lat="49.83396" lon="2.50378">
        <ele>86.4</ele>
        <time>2024-07-10T13:22:01Z</time>
      </trkpt>
      <trkpt lat="49.83395" lon="2.50379">
        <ele>86.5</ele>
        <time>2024-07-10T13:22:02Z</time>
      </trkpt>
      <trkpt lat="49.83394" lon="2.5038">
        <ele>86.5</ele>
        <time>2024-07-10T13:22:03Z</time>
      </trkpt>
      <trkpt lat="49.83393" lon="2.5038">
        <ele>86.6</ele>
        <time>2024-07-10T13:22:04Z</time>
      </trkpt>
      <trkpt lat="49.83392" lon="2.50381">
        <ele>86.6</ele>
        <time>2024-07-10T13:22:05Z</time>
      </trkpt>
      <trkpt lat="49.83391" lon="2.50381">
        <ele>86.6</ele>
        <time>2024-07-10T13:22:06Z</time>
      </trkpt>
      <trkpt lat="49.8339" lon="2.50382">
        <ele>86.7</ele>
        <time>2024-07-10T13:22:07Z</time>
      </trkpt>
      <trkpt lat="49.83389" lon="2.50383">
        <ele>86.7</ele>
        <time>2024-07-10T13:22:08Z</time>
      </trkpt>
      <trkpt lat="49.83389" lon="2.50383">
        <ele>86.8</ele>
        <time>2024-07-10T13:22:09Z</time>
      </trkpt>
      <trkpt lat="49.83387" lon="2.50384">
        <ele>86.8</ele>
        <time>2024-07-10T13:22:10Z</time>
      </trkpt>
      <trkpt lat="49.83386" lon="2.50384">
        <ele>86.8</ele>
        <time>2024-07-10T13:22:11Z</time>
      </trkpt>
      <trkpt lat="49.83385" lon="2.50385">
        <ele>86.9</ele>
        <time>2024-07-10T13:22:12Z</time>
      </trkpt>
      <trkpt lat="49.83384" lon="2.50386">
        <ele>86.9</ele>
        <time>2024-07-10T13:22:13Z</time>
      </trkpt>
      <trkpt lat="49.83383" lon="2.50386">
        <ele>87</ele>
        <time>2024-07-10T13:22:14Z</time>
      </trkpt>
      <trkpt lat="49.83382" lon="2.50387">
        <ele>87</ele>
        <time>2024-07-10T13:22:15Z</time>
      </trkpt>
      <trkpt lat="49.83381" lon="2.50388">
        <ele>87.1</ele>
        <time>2024-07-10T13:22:16Z</time>
      </trkpt>
      <trkpt lat="49.8338" lon="2.50388">
        <ele>87.1</ele>
        <time>2024-07-10T13:22:17Z</time>
      </trkpt>
      <trkpt lat="49.83379" lon="2.50389">
        <ele>87.1</ele>
        <time>2024-07-10T13:22:18Z</time>
      </trkpt>
      <trkpt lat="49.83378" lon="2.5039">
        <ele>87.2</ele>
        <time>2024-07-10T13:22:19Z</time>
      </trkpt>
      <trkpt lat="49.83377" lon="2.5039">
        <ele>87.2</ele>
        <time>2024-07-10T13:22:20Z</time>
      </trkpt>
      <trkpt lat="49.83376" lon="2.50391">
        <ele>87.3</ele>
        <time>2024-07-10T13:22:21Z</time>
      </trkpt>
      <trkpt lat="49.83375" lon="2.50392">
        <ele>87.3</ele>
        <time>2024-07-10T13:22:22Z</time>
      </trkpt>
      <trkpt lat="49.83374" lon="2.50393">
        <ele>87.3</ele>
        <time>2024-07-10T13:22:23Z</time>
      </trkpt>
      <trkpt lat="49.83373" lon="2.50394">
        <ele>87.4</ele>
        <time>2024-07-10T13:22:24Z</time>
      </trkpt>
      <trkpt lat="49.83372" lon="2.50394">
        <ele>87.4</ele>
        <time>2024-07-10T13:22:25Z</time>
      </trkpt>
      <trkpt lat="49.83371" lon="2.50395">
        <ele>87.5</ele>
        <time>2024-07-10T13:22:26Z</time>
      </trkpt>
      <trkpt lat="49.8337" lon="2.50396">
        <ele>87.5</ele>
        <time>2024-07-10T13:22:27Z</time>
      </trkpt>
      <trkpt lat="49.83369" lon="2.50396">
        <ele>87.5</ele>
        <time>2024-07-10T13:22:28Z</time>
      </trkpt>
      <trkpt lat="49.83368" lon="2.50397">
        <ele>87.6</ele>
        <time>2024-07-10T13:22:29Z</time>
      </trkpt>
      <trkpt lat="49.83367" lon="2.50398">
        <ele>87.6</ele>
        <time>2024-07-10T13:22:30Z</time>
      </trkpt>
      <trkpt lat="49.83366" lon="2.50398">
        <ele>87.6</ele>
        <time>2024-07-10T13:22:31Z</time>
      </trkpt>
      <trkpt lat="49.83365" lon="2.50399">
        <ele>87.7</ele>
        <time>2024-07-10T13:22:32Z</time>
      </trkpt>
      <trkpt lat="49.83364" lon="2.504">
        <ele>87.7</ele>
        <time>2024-07-10T13:22:33Z</time>
      </trkpt>
      <trkpt lat="49.83363" lon="2.50401">
        <ele>87.8</ele>
        <time>2024-07-10T13:22:34Z</time>
      </trkpt>
      <trkpt lat="49.83362" lon="2.50402">
        <ele>87.8</ele>
        <time>2024-07-10T13:22:35Z</time>
      </trkpt>
      <trkpt lat="49.83361" lon="2.50403">
        <ele>87.8</ele>
        <time>2024-07-10T13:22:36Z</time>
      </trkpt>
      <trkpt lat="49.83361" lon="2.50404">
        <ele>87.9</ele>
        <time>2024-07-10T13:22:37Z</time>
      </trkpt>
      <trkpt lat="49.8336" lon="2.50405">
        <ele>87.9</ele>
        <time>2024-07-10T13:22:38Z</time>
      </trkpt>
      <trkpt lat="49.83359" lon="2.50406">
        <ele>87.9</ele>
        <time>2024-07-10T13:22:39Z</time>
      </trkpt>
      <trkpt lat="49.83358" lon="2.50406">
        <ele>88</ele>
        <time>2024-07-10T13:22:40Z</time>
      </trkpt>
      <trkpt lat="49.83357" lon="2.50407">
        <ele>88</ele>
        <time>2024-07-10T13:22:41Z</time>
      </trkpt>
      <trkpt lat="49.83356" lon="2.50408">
        <ele>88</ele>
        <time>2024-07-10T13:22:42Z</time>
      </trkpt>
      <trkpt lat="49.83355" lon="2.50409">
        <ele>88.1</ele>
        <time>2024-07-10T13:22:43Z</time>
      </trkpt>
      <trkpt lat="49.83354" lon="2.5041">
        <ele>88.1</ele>
        <time>2024-07-10T13:22:44Z</time>
      </trkpt>
      <trkpt lat="49.83354" lon="2.5041">
        <ele>88.1</ele>
        <time>2024-07-10T13:22:45Z</time>
      </trkpt>
      <trkpt lat="49.83353" lon="2.50411">
        <ele>88.2</ele>
        <time>2024-07-10T13:22:46Z</time>
      </trkpt>
      <trkpt lat="49.83352" lon="2.50412">
        <ele>88.2</ele>
        <time>2024-07-10T13:22:47Z</time>
      </trkpt>
      <trkpt lat="49.83351" lon="2.50413">
        <ele>88.2</ele>
        <time>2024-07-10T13:22:48Z</time>
      </trkpt>
      <trkpt lat="49.8335" lon="2.50413">
        <ele>88.3</ele>
        <time>2024-07-10T13:22:49Z</time>
      </trkpt>
      <trkpt lat="49.83349" lon="2.50414">
        <ele>88.3</ele>
        <time>2024-07-10T13:22:50Z</time>
      </trkpt>
      <trkpt lat="49.83349" lon="2.50414">
        <ele>88.3</ele>
        <time>2024-07-10T13:22:51Z</time>
      </trkpt>
      <trkpt lat="49.83348" lon="2.50415">
        <ele>88.4</ele>
        <time>2024-07-10T13:22:52Z</time>
      </trkpt>
      <trkpt lat="49.83347" lon="2.50416">
        <ele>88.4</ele>
        <time>2024-07-10T13:22:53Z</time>
      </trkpt>
      <trkpt lat="49.83346" lon="2.50416">
        <ele>88.4</ele>
        <time>2024-07-10T13:22:54Z</time>
      </trkpt>
      <trkpt lat="49.83345" lon="2.50417">
        <ele>88.5</ele>
        <time>2024-07-10T13:22:55Z</time>
      </trkpt>
      <trkpt lat="49.83344" lon="2.50417">
        <ele>88.5</ele>
        <time>2024-07-10T13:22:56Z</time>
      </trkpt>
      <trkpt lat="49.83343" lon="2.50417">
        <ele>88.5</ele>
        <time>2024-07-10T13:22:57Z</time>
      </trkpt>
      <trkpt lat="49.83342" lon="2.50418">
        <ele>88.5</ele>
        <time>2024-07-10T13:22:58Z</time>
      </trkpt>
      <trkpt lat="49.83341" lon="2.50419">
        <ele>88.6</ele>
        <time>2024-07-10T13:22:59Z</time>
      </trkpt>
      <trkpt lat="49.8334" lon="2.50419">
        <ele>88.6</ele>
        <time>2024-07-10T13:23:00Z</time>
      </trkpt>
      <trkpt lat="49.8334" lon="2.5042">
        <ele>88.6</ele>
        <time>2024-07-10T13:23:01Z</time>
      </trkpt>
      <trkpt lat="49.83339" lon="2.5042">
        <ele>88.6</ele>
        <time>2024-07-10T13:23:02Z</time>
      </trkpt>
      <trkpt lat="49.83338" lon="2.50421">
        <ele>88.7</ele>
        <time>2024-07-10T13:23:03Z</time>
      </trkpt>
      <trkpt lat="49.83337" lon="2.50421">
        <ele>88.7</ele>
        <time>2024-07-10T13:23:04Z</time>
      </trkpt>
      <trkpt lat="49.83336" lon="2.50422">
        <ele>88.7</ele>
        <time>2024-07-10T13:23:05Z</time>
      </trkpt>
      <trkpt lat="49.83335" lon="2.50422">
        <ele>88.8</ele>
        <time>2024-07-10T13:23:06Z</time>
      </trkpt>
      <trkpt lat="49.83334" lon="2.50423">
        <ele>88.8</ele>
        <time>2024-07-10T13:23:07Z</time>
      </trkpt>
      <trkpt lat="49.83333" lon="2.50424">
        <ele>88.8</ele>
        <time>2024-07-10T13:23:08Z</time>
      </trkpt>
      <trkpt lat="49.83332" lon="2.50424">
        <ele>88.8</ele>
        <time>2024-07-10T13:23:09Z</time>
      </trkpt>
      <trkpt lat="49.83331" lon="2.50425">
        <ele>88.9</ele>
        <time>2024-07-10T13:23:10Z</time>
      </trkpt>
      <trkpt lat="49.8333" lon="2.50426">
        <ele>88.9</ele>
        <time>2024-07-10T13:23:11Z</time>
      </trkpt>
      <trkpt lat="49.83329" lon="2.50426">
        <ele>88.9</ele>
        <time>2024-07-10T13:23:12Z</time>
      </trkpt>
      <trkpt lat="49.83328" lon="2.50427">
        <ele>89</ele>
        <time>2024-07-10T13:23:13Z</time>
      </trkpt>
      <trkpt lat="49.83327" lon="2.50428">
        <ele>89</ele>
        <time>2024-07-10T13:23:14Z</time>
      </trkpt>
      <trkpt lat="49.83326" lon="2.50428">
        <ele>89</ele>
        <time>2024-07-10T13:23:15Z</time>
      </trkpt>
      <trkpt lat="49.83325" lon="2.5043">
        <ele>89</ele>
        <time>2024-07-10T13:23:16Z</time>
      </trkpt>
      <trkpt lat="49.83323" lon="2.50431">
        <ele>89.1</ele>
        <time>2024-07-10T13:23:17Z</time>
      </trkpt>
      <trkpt lat="49.83322" lon="2.50432">
        <ele>89.1</ele>
        <time>2024-07-10T13:23:18Z</time>
      </trkpt>
      <trkpt lat="49.83321" lon="2.50432">
        <ele>89.1</ele>
        <time>2024-07-10T13:23:19Z</time>
      </trkpt>
      <trkpt lat="49.83319" lon="2.50434">
        <ele>89.2</ele>
        <time>2024-07-10T13:23:20Z</time>
      </trkpt>
      <trkpt lat="49.83319" lon="2.50434">
        <ele>89.2</ele>
        <time>2024-07-10T13:23:21Z</time>
      </trkpt>
      <trkpt lat="49.83318" lon="2.50435">
        <ele>89.2</ele>
        <time>2024-07-10T13:23:22Z</time>
      </trkpt>
      <trkpt lat="49.83317" lon="2.50435">
        <ele>89.2</ele>
        <time>2024-07-10T13:23:23Z</time>
      </trkpt>
      <trkpt lat="49.83316" lon="2.50436">
        <ele>89.3</ele>
        <time>2024-07-10T13:23:24Z</time>
      </trkpt>
      <trkpt lat="49.83315" lon="2.50436">
        <ele>89.3</ele>
        <time>2024-07-10T13:23:25Z</time>
      </trkpt>
      <trkpt lat="49.83314" lon="2.50437">
        <ele>89.3</ele>
        <time>2024-07-10T13:23:26Z</time>
      </trkpt>
      <trkpt lat="49.83313" lon="2.50438">
        <ele>89.3</ele>
        <time>2024-07-10T13:23:27Z</time>
      </trkpt>
      <trkpt lat="49.83312" lon="2.50439">
        <ele>89.3</ele>
        <time>2024-07-10T13:23:28Z</time>
      </trkpt>
      <trkpt lat="49.83311" lon="2.5044">
        <ele>89.4</ele>
        <time>2024-07-10T13:23:29Z</time>
      </trkpt>
      <trkpt lat="49.8331" lon="2.5044">
        <ele>89.4</ele>
        <time>2024-07-10T13:23:30Z</time>
      </trkpt>
      <trkpt lat="49.83309" lon="2.50441">
        <ele>89.4</ele>
        <time>2024-07-10T13:23:31Z</time>
      </trkpt>
      <trkpt lat="49.83308" lon="2.50442">
        <ele>89.4</ele>
        <time>2024-07-10T13:23:32Z</time>
      </trkpt>
      <trkpt lat="49.83308" lon="2.50443">
        <ele>89.4</ele>
        <time>2024-07-10T13:23:33Z</time>
      </trkpt>
      <trkpt lat="49.83307" lon="2.50443">
        <ele>89.4</ele>
        <time>2024-07-10T13:23:34Z</time>
      </trkpt>
      <trkpt lat="49.83306" lon="2.50444">
        <ele>89.5</ele>
        <time>2024-07-10T13:23:35Z</time>
      </trkpt>
      <trkpt lat="49.83305" lon="2.50445">
        <ele>89.5</ele>
        <time>2024-07-10T13:23:36Z</time>
      </trkpt>
      <trkpt lat="49.83304" lon="2.50446">
        <ele>89.5</ele>
        <time>2024-07-10T13:23:37Z</time>
      </trkpt>
      <trkpt lat="49.83303" lon="2.50447">
        <ele>89.5</ele>
        <time>2024-07-10T13:23:38Z</time>
      </trkpt>
      <trkpt lat="49.83302" lon="2.50447">
        <ele>89.5</ele>
        <time>2024-07-10T13:23:39Z</time>
      </trkpt>
      <trkpt lat="49.83301" lon="2.50448">
        <ele>89.5</ele>
        <time>2024-07-10T13:23:40Z</time>
      </trkpt>
      <trkpt lat="49.833" lon="2.50449">
        <ele>89.6</ele>
        <time>2024-07-10T13:23:41Z</time>
      </trkpt>
      <trkpt lat="49.83299" lon="2.50449">
        <ele>89.6</ele>
        <time>2024-07-10T13:23:42Z</time>
      </trkpt>
      <trkpt lat="49.83298" lon="2.50449">
        <ele>89.6</ele>
        <time>2024-07-10T13:23:43Z</time>
      </trkpt>
      <trkpt lat="49.83297" lon="2.5045">
        <ele>89.6</ele>
        <time>2024-07-10T13:23:44Z</time>
      </trkpt>
      <trkpt lat="49.83296" lon="2.5045">
        <ele>89.6</ele>
        <time>2024-07-10T13:23:45Z</time>
      </trkpt>
      <trkpt lat="49.83295" lon="2.50451">
        <ele>89.7</ele>
        <time>2024-07-10T13:23:46Z</time>
      </trkpt>
      <trkpt lat="49.83294" lon="2.50451">
        <ele>89.7</ele>
        <time>2024-07-10T13:23:47Z</time>
      </trkpt>
      <trkpt lat="49.83293" lon="2.50452">
        <ele>89.7</ele>
        <time>2024-07-10T13:23:48Z</time>
      </trkpt>
      <trkpt lat="49.83293" lon="2.50452">
        <ele>89.7</ele>
        <time>2024-07-10T13:23:49Z</time>
      </trkpt>
      <trkpt lat="49.83292" lon="2.50453">
        <ele>89.7</ele>
        <time>2024-07-10T13:23:50Z</time>
      </trkpt>
      <trkpt lat="49.83291" lon="2.50453">
        <ele>89.7</ele>
        <time>2024-07-10T13:23:51Z</time>
      </trkpt>
      <trkpt lat="49.83289" lon="2.50453">
        <ele>89.8</ele>
        <time>2024-07-10T13:23:52Z</time>
      </trkpt>
      <trkpt lat="49.83288" lon="2.50454">
        <ele>89.8</ele>
        <time>2024-07-10T13:23:53Z</time>
      </trkpt>
      <trkpt lat="49.83287" lon="2.50455">
        <ele>89.8</ele>
        <time>2024-07-10T13:23:54Z</time>
      </trkpt>
      <trkpt lat="49.83286" lon="2.50455">
        <ele>89.8</ele>
        <time>2024-07-10T13:23:55Z</time>
      </trkpt>
      <trkpt lat="49.83286" lon="2.50456">
        <ele>89.8</ele>
        <time>2024-07-10T13:23:56Z</time>
      </trkpt>
      <trkpt lat="49.83285" lon="2.50456">
        <ele>89.9</ele>
        <time>2024-07-10T13:23:57Z</time>
      </trkpt>
      <trkpt lat="49.83284" lon="2.50457">
        <ele>89.9</ele>
        <time>2024-07-10T13:23:58Z</time>
      </trkpt>
      <trkpt lat="49.83283" lon="2.50458">
        <ele>89.9</ele>
        <time>2024-07-10T13:23:59Z</time>
      </trkpt>
      <trkpt lat="49.83282" lon="2.50458">
        <ele>89.9</ele>
        <time>2024-07-10T13:24:00Z</time>
      </trkpt>
      <trkpt lat="49.83281" lon="2.50459">
        <ele>89.9</ele>
        <time>2024-07-10T13:24:01Z</time>
      </trkpt>
      <trkpt lat="49.8328" lon="2.50459">
        <ele>90</ele>
        <time>2024-07-10T13:24:02Z</time>
      </trkpt>
      <trkpt lat="49.83278" lon="2.5046">
        <ele>90</ele>
        <time>2024-07-10T13:24:03Z</time>
      </trkpt>
      <trkpt lat="49.83278" lon="2.5046">
        <ele>90</ele>
        <time>2024-07-10T13:24:04Z</time>
      </trkpt>
      <trkpt lat="49.83277" lon="2.50461">
        <ele>90</ele>
        <time>2024-07-10T13:24:05Z</time>
      </trkpt>
      <trkpt lat="49.83276" lon="2.50462">
        <ele>90</ele>
        <time>2024-07-10T13:24:06Z</time>
      </trkpt>
      <trkpt lat="49.83275" lon="2.50462">
        <ele>90.1</ele>
        <time>2024-07-10T13:24:07Z</time>
      </trkpt>
      <trkpt lat="49.83274" lon="2.50463">
        <ele>90.1</ele>
        <time>2024-07-10T13:24:08Z</time>
      </trkpt>
      <trkpt lat="49.83273" lon="2.50463">
        <ele>90.1</ele>
        <time>2024-07-10T13:24:09Z</time>
      </trkpt>
      <trkpt lat="49.83272" lon="2.50464">
        <ele>90.1</ele>
        <time>2024-07-10T13:24:10Z</time>
      </trkpt>
      <trkpt lat="49.83271" lon="2.50464">
        <ele>90.1</ele>
        <time>2024-07-10T13:24:11Z</time>
      </trkpt>
      <trkpt lat="49.8327" lon="2.50465">
        <ele>90.2</ele>
        <time>2024-07-10T13:24:12Z</time>
      </trkpt>
      <trkpt lat="49.83269" lon="2.50466">
        <ele>90.2</ele>
        <time>2024-07-10T13:24:13Z</time>
      </trkpt>
      <trkpt lat="49.83268" lon="2.50466">
        <ele>90.2</ele>
        <time>2024-07-10T13:24:14Z</time>
      </trkpt>
      <trkpt lat="49.83267" lon="2.50467">
        <ele>90.2</ele>
        <time>2024-07-10T13:24:15Z</time>
      </trkpt>
      <trkpt lat="49.83266" lon="2.50468">
        <ele>90.2</ele>
        <time>2024-07-10T13:24:16Z</time>
      </trkpt>
      <trkpt lat="49.83265" lon="2.50469">
        <ele>90.3</ele>
        <time>2024-07-10T13:24:17Z</time>
      </trkpt>
      <trkpt lat="49.83264" lon="2.50469">
        <ele>90.3</ele>
        <time>2024-07-10T13:24:18Z</time>
      </trkpt>
      <trkpt lat="49.83263" lon="2.5047">
        <ele>90.3</ele>
        <time>2024-07-10T13:24:19Z</time>
      </trkpt>
      <trkpt lat="49.83262" lon="2.50471">
        <ele>90.3</ele>
        <time>2024-07-10T13:24:20Z</time>
      </trkpt>
      <trkpt lat="49.83261" lon="2.50472">
        <ele>90.3</ele>
        <time>2024-07-10T13:24:21Z</time>
      </trkpt>
      <trkpt lat="49.8326" lon="2.50472">
        <ele>90.4</ele>
        <time>2024-07-10T13:24:22Z</time>
      </trkpt>
      <trkpt lat="49.83259" lon="2.50473">
        <ele>90.4</ele>
        <time>2024-07-10T13:24:23Z</time>
      </trkpt>
      <trkpt lat="49.83259" lon="2.50474">
        <ele>90.4</ele>
        <time>2024-07-10T13:24:24Z</time>
      </trkpt>
      <trkpt lat="49.83258" lon="2.50474">
        <ele>90.4</ele>
        <time>2024-07-10T13:24:25Z</time>
      </trkpt>
      <trkpt lat="49.83257" lon="2.50475">
        <ele>90.4</ele>
        <time>2024-07-10T13:24:26Z</time>
      </trkpt>
      <trkpt lat="49.83256" lon="2.50476">
        <ele>90.5</ele>
        <time>2024-07-10T13:24:27Z</time>
      </trkpt>
      <trkpt lat="49.83254" lon="2.50476">
        <ele>90.5</ele>
        <time>2024-07-10T13:24:28Z</time>
      </trkpt>
      <trkpt lat="49.83253" lon="2.50477">
        <ele>90.5</ele>
        <time>2024-07-10T13:24:29Z</time>
      </trkpt>
      <trkpt lat="49.83252" lon="2.50478">
        <ele>90.5</ele>
        <time>2024-07-10T13:24:30Z</time>
      </trkpt>
      <trkpt lat="49.83251" lon="2.50478">
        <ele>90.5</ele>
        <time>2024-07-10T13:24:31Z</time>
      </trkpt>
      <trkpt lat="49.83249" lon="2.50479">
        <ele>90.6</ele>
        <time>2024-07-10T13:24:32Z</time>
      </trkpt>
      <trkpt lat="49.83248" lon="2.50479">
        <ele>90.6</ele>
        <time>2024-07-10T13:24:33Z</time>
      </trkpt>
      <trkpt lat="49.83247" lon="2.5048">
        <ele>90.6</ele>
        <time>2024-07-10T13:24:34Z</time>
      </trkpt>
      <trkpt lat="49.83246" lon="2.50481">
        <ele>90.7</ele>
        <time>2024-07-10T13:24:35Z</time>
      </trkpt>
      <trkpt lat="49.83245" lon="2.50482">
        <ele>90.7</ele>
        <time>2024-07-10T13:24:36Z</time>
      </trkpt>
      <trkpt lat="49.83244" lon="2.50483">
        <ele>90.7</ele>
        <time>2024-07-10T13:24:37Z</time>
      </trkpt>
      <trkpt lat="49.83243" lon="2.50484">
        <ele>90.7</ele>
        <time>2024-07-10T13:24:38Z</time>
      </trkpt>
      <trkpt lat="49.83242" lon="2.50485">
        <ele>90.7</ele>
        <time>2024-07-10T13:24:39Z</time>
      </trkpt>
      <trkpt lat="49.83241" lon="2.50485">
        <ele>90.8</ele>
        <time>2024-07-10T13:24:40Z</time>
      </trkpt>
      <trkpt lat="49.83239" lon="2.50487">
        <ele>90.8</ele>
        <time>2024-07-10T13:24:41Z</time>
      </trkpt>
      <trkpt lat="49.83238" lon="2.50487">
        <ele>90.8</ele>
        <time>2024-07-10T13:24:42Z</time>
      </trkpt>
      <trkpt lat="49.83238" lon="2.50488">
        <ele>90.8</ele>
        <time>2024-07-10T13:24:43Z</time>
      </trkpt>
      <trkpt lat="49.83236" lon="2.50489">
        <ele>90.9</ele>
        <time>2024-07-10T13:24:44Z</time>
      </trkpt>
      <trkpt lat="49.83235" lon="2.50489">
        <ele>90.9</ele>
        <time>2024-07-10T13:24:45Z</time>
      </trkpt>
      <trkpt lat="49.83234" lon="2.5049">
        <ele>90.9</ele>
        <time>2024-07-10T13:24:46Z</time>
      </trkpt>
      <trkpt lat="49.83232" lon="2.50491">
        <ele>90.9</ele>
        <time>2024-07-10T13:24:47Z</time>
      </trkpt>
      <trkpt lat="49.83232" lon="2.50492">
        <ele>91</ele>
        <time>2024-07-10T13:24:48Z</time>
      </trkpt>
      <trkpt lat="49.83231" lon="2.50492">
        <ele>91</ele>
        <time>2024-07-10T13:24:49Z</time>
      </trkpt>
      <trkpt lat="49.8323" lon="2.50493">
        <ele>91</ele>
        <time>2024-07-10T13:24:50Z</time>
      </trkpt>
      <trkpt lat="49.83229" lon="2.50493">
        <ele>91</ele>
        <time>2024-07-10T13:24:51Z</time>
      </trkpt>
      <trkpt lat="49.83228" lon="2.50494">
        <ele>91</ele>
        <time>2024-07-10T13:24:52Z</time>
      </trkpt>
      <trkpt lat="49.83227" lon="2.50494">
        <ele>91.1</ele>
        <time>2024-07-10T13:24:53Z</time>
      </trkpt>
      <trkpt lat="49.83226" lon="2.50495">
        <ele>91.1</ele>
        <time>2024-07-10T13:24:54Z</time>
      </trkpt>
      <trkpt lat="49.83224" lon="2.50495">
        <ele>91.1</ele>
        <time>2024-07-10T13:24:55Z</time>
      </trkpt>
      <trkpt lat="49.83223" lon="2.50496">
        <ele>91.1</ele>
        <time>2024-07-10T13:24:56Z</time>
      </trkpt>
      <trkpt lat="49.83222" lon="2.50496">
        <ele>91.2</ele>
        <time>2024-07-10T13:24:57Z</time>
      </trkpt>
      <trkpt lat="49.83221" lon="2.50496">
        <ele>91.2</ele>
        <time>2024-07-10T13:24:58Z</time>
      </trkpt>
      <trkpt lat="49.8322" lon="2.50497">
        <ele>91.2</ele>
        <time>2024-07-10T13:24:59Z</time>
      </trkpt>
      <trkpt lat="49.83219" lon="2.50498">
        <ele>91.2</ele>
        <time>2024-07-10T13:25:00Z</time>
      </trkpt>
      <trkpt lat="49.83219" lon="2.50498">
        <ele>91.2</ele>
        <time>2024-07-10T13:25:01Z</time>
      </trkpt>
      <trkpt lat="49.83218" lon="2.50499">
        <ele>91.3</ele>
        <time>2024-07-10T13:25:02Z</time>
      </trkpt>
      <trkpt lat="49.83217" lon="2.50499">
        <ele>91.3</ele>
        <time>2024-07-10T13:25:03Z</time>
      </trkpt>
      <trkpt lat="49.83216" lon="2.505">
        <ele>91.3</ele>
        <time>2024-07-10T13:25:04Z</time>
      </trkpt>
      <trkpt lat="49.83215" lon="2.50501">
        <ele>91.3</ele>
        <time>2024-07-10T13:25:05Z</time>
      </trkpt>
      <trkpt lat="49.83214" lon="2.50501">
        <ele>91.3</ele>
        <time>2024-07-10T13:25:06Z</time>
      </trkpt>
      <trkpt lat="49.83213" lon="2.50502">
        <ele>91.4</ele>
        <time>2024-07-10T13:25:07Z</time>
      </trkpt>
      <trkpt lat="49.83213" lon="2.50503">
        <ele>91.4</ele>
        <time>2024-07-10T13:25:08Z</time>
      </trkpt>
      <trkpt lat="49.83212" lon="2.50503">
        <ele>91.4</ele>
        <time>2024-07-10T13:25:09Z</time>
      </trkpt>
      <trkpt lat="49.83211" lon="2.50504">
        <ele>91.4</ele>
        <time>2024-07-10T13:25:10Z</time>
      </trkpt>
      <trkpt lat="49.8321" lon="2.50505">
        <ele>91.4</ele>
        <time>2024-07-10T13:25:11Z</time>
      </trkpt>
      <trkpt lat="49.83209" lon="2.50505">
        <ele>91.5</ele>
        <time>2024-07-10T13:25:12Z</time>
      </trkpt>
      <trkpt lat="49.83208" lon="2.50506">
        <ele>91.5</ele>
        <time>2024-07-10T13:25:13Z</time>
      </trkpt>
      <trkpt lat="49.83207" lon="2.50507">
        <ele>91.5</ele>
        <time>2024-07-10T13:25:14Z</time>
      </trkpt>
      <trkpt lat="49.83206" lon="2.50507">
        <ele>91.5</ele>
        <time>2024-07-10T13:25:15Z</time>
      </trkpt>
      <trkpt lat="49.83205" lon="2.50508">
        <ele>91.6</ele>
        <time>2024-07-10T13:25:16Z</time>
      </trkpt>
      <trkpt lat="49.83204" lon="2.50508">
        <ele>91.6</ele>
        <time>2024-07-10T13:25:17Z</time>
      </trkpt>
      <trkpt lat="49.83203" lon="2.50509">
        <ele>91.6</ele>
        <time>2024-07-10T13:25:18Z</time>
      </trkpt>
      <trkpt lat="49.83202" lon="2.5051">
        <ele>91.6</ele>
        <time>2024-07-10T13:25:19Z</time>
      </trkpt>
      <trkpt lat="49.83201" lon="2.5051">
        <ele>91.7</ele>
        <time>2024-07-10T13:25:20Z</time>
      </trkpt>
      <trkpt lat="49.832" lon="2.50511">
        <ele>91.7</ele>
        <time>2024-07-10T13:25:21Z</time>
      </trkpt>
      <trkpt lat="49.83199" lon="2.50512">
        <ele>91.7</ele>
        <time>2024-07-10T13:25:22Z</time>
      </trkpt>
      <trkpt lat="49.83198" lon="2.50512">
        <ele>91.7</ele>
        <time>2024-07-10T13:25:23Z</time>
      </trkpt>
      <trkpt lat="49.83197" lon="2.50513">
        <ele>91.8</ele>
        <time>2024-07-10T13:25:24Z</time>
      </trkpt>
      <trkpt lat="49.83196" lon="2.50513">
        <ele>91.8</ele>
        <time>2024-07-10T13:25:25Z</time>
      </trkpt>
      <trkpt lat="49.83195" lon="2.50514">
        <ele>91.8</ele>
        <time>2024-07-10T13:25:26Z</time>
      </trkpt>
      <trkpt lat="49.83194" lon="2.50514">
        <ele>91.8</ele>
        <time>2024-07-10T13:25:27Z</time>
      </trkpt>
      <trkpt lat="49.83193" lon="2.50514">
        <ele>91.9</ele>
        <time>2024-07-10T13:25:28Z</time>
      </trkpt>
      <trkpt lat="49.83192" lon="2.50515">
        <ele>91.9</ele>
        <time>2024-07-10T13:25:29Z</time>
      </trkpt>
      <trkpt lat="49.83191" lon="2.50516">
        <ele>91.9</ele>
        <time>2024-07-10T13:25:30Z</time>
      </trkpt>
      <trkpt lat="49.8319" lon="2.50516">
        <ele>91.9</ele>
        <time>2024-07-10T13:25:31Z</time>
      </trkpt>
      <trkpt lat="49.8319" lon="2.50517">
        <ele>92</ele>
        <time>2024-07-10T13:25:32Z</time>
      </trkpt>
      <trkpt lat="49.83189" lon="2.50517">
        <ele>92</ele>
        <time>2024-07-10T13:25:33Z</time>
      </trkpt>
      <trkpt lat="49.83188" lon="2.50518">
        <ele>92</ele>
        <time>2024-07-10T13:25:34Z</time>
      </trkpt>
      <trkpt lat="49.83187" lon="2.50518">
        <ele>92.1</ele>
        <time>2024-07-10T13:25:35Z</time>
      </trkpt>
      <trkpt lat="49.83186" lon="2.50519">
        <ele>92.1</ele>
        <time>2024-07-10T13:25:36Z</time>
      </trkpt>
      <trkpt lat="49.83185" lon="2.50519">
        <ele>92.1</ele>
        <time>2024-07-10T13:25:37Z</time>
      </trkpt>
      <trkpt lat="49.83184" lon="2.5052">
        <ele>92.1</ele>
        <time>2024-07-10T13:25:38Z</time>
      </trkpt>
      <trkpt lat="49.83183" lon="2.5052">
        <ele>92.2</ele>
        <time>2024-07-10T13:25:39Z</time>
      </trkpt>
      <trkpt lat="49.83182" lon="2.50521">
        <ele>92.2</ele>
        <time>2024-07-10T13:25:40Z</time>
      </trkpt>
      <trkpt lat="49.83181" lon="2.50522">
        <ele>92.2</ele>
        <time>2024-07-10T13:25:41Z</time>
      </trkpt>
      <trkpt lat="49.8318" lon="2.50522">
        <ele>92.3</ele>
        <time>2024-07-10T13:25:42Z</time>
      </trkpt>
      <trkpt lat="49.83179" lon="2.50523">
        <ele>92.3</ele>
        <time>2024-07-10T13:25:43Z</time>
      </trkpt>
      <trkpt lat="49.83178" lon="2.50523">
        <ele>92.3</ele>
        <time>2024-07-10T13:25:44Z</time>
      </trkpt>
      <trkpt lat="49.83177" lon="2.50524">
        <ele>92.3</ele>
        <time>2024-07-10T13:25:45Z</time>
      </trkpt>
      <trkpt lat="49.83176" lon="2.50524">
        <ele>92.4</ele>
        <time>2024-07-10T13:25:46Z</time>
      </trkpt>
      <trkpt lat="49.83175" lon="2.50525">
        <ele>92.4</ele>
        <time>2024-07-10T13:25:47Z</time>
      </trkpt>
      <trkpt lat="49.83174" lon="2.50525">
        <ele>92.4</ele>
        <time>2024-07-10T13:25:48Z</time>
      </trkpt>
      <trkpt lat="49.83173" lon="2.50526">
        <ele>92.4</ele>
        <time>2024-07-10T13:25:49Z</time>
      </trkpt>
      <trkpt lat="49.83172" lon="2.50527">
        <ele>92.5</ele>
        <time>2024-07-10T13:25:50Z</time>
      </trkpt>
      <trkpt lat="49.83171" lon="2.50528">
        <ele>92.5</ele>
        <time>2024-07-10T13:25:51Z</time>
      </trkpt>
      <trkpt lat="49.83171" lon="2.50528">
        <ele>92.5</ele>
        <time>2024-07-10T13:25:52Z</time>
      </trkpt>
      <trkpt lat="49.8317" lon="2.50528">
        <ele>92.5</ele>
        <time>2024-07-10T13:25:53Z</time>
      </trkpt>
      <trkpt lat="49.83169" lon="2.50529">
        <ele>92.6</ele>
        <time>2024-07-10T13:25:54Z</time>
      </trkpt>
      <trkpt lat="49.83168" lon="2.50529">
        <ele>92.6</ele>
        <time>2024-07-10T13:25:55Z</time>
      </trkpt>
      <trkpt lat="49.83167" lon="2.5053">
        <ele>92.6</ele>
        <time>2024-07-10T13:25:56Z</time>
      </trkpt>
      <trkpt lat="49.83166" lon="2.50531">
        <ele>92.6</ele>
        <time>2024-07-10T13:25:57Z</time>
      </trkpt>
      <trkpt lat="49.83165" lon="2.50531">
        <ele>92.7</ele>
        <time>2024-07-10T13:25:58Z</time>
      </trkpt>
      <trkpt lat="49.83164" lon="2.50532">
        <ele>92.7</ele>
        <time>2024-07-10T13:25:59Z</time>
      </trkpt>
      <trkpt lat="49.83163" lon="2.50532">
        <ele>92.7</ele>
        <time>2024-07-10T13:26:00Z</time>
      </trkpt>
      <trkpt lat="49.83162" lon="2.50533">
        <ele>92.8</ele>
        <time>2024-07-10T13:26:01Z</time>
      </trkpt>
      <trkpt lat="49.83162" lon="2.50533">
        <ele>92.8</ele>
        <time>2024-07-10T13:26:02Z</time>
      </trkpt>
      <trkpt lat="49.83161" lon="2.50534">
        <ele>92.8</ele>
        <time>2024-07-10T13:26:03Z</time>
      </trkpt>
      <trkpt lat="49.8316" lon="2.50534">
        <ele>92.8</ele>
        <time>2024-07-10T13:26:04Z</time>
      </trkpt>
      <trkpt lat="49.83159" lon="2.50535">
        <ele>92.9</ele>
        <time>2024-07-10T13:26:05Z</time>
      </trkpt>
      <trkpt lat="49.83158" lon="2.50536">
        <ele>92.9</ele>
        <time>2024-07-10T13:26:06Z</time>
      </trkpt>
      <trkpt lat="49.83157" lon="2.50536">
        <ele>92.9</ele>
        <time>2024-07-10T13:26:07Z</time>
      </trkpt>
      <trkpt lat="49.83156" lon="2.50537">
        <ele>93</ele>
        <time>2024-07-10T13:26:08Z</time>
      </trkpt>
      <trkpt lat="49.83155" lon="2.50537">
        <ele>93</ele>
        <time>2024-07-10T13:26:09Z</time>
      </trkpt>
      <trkpt lat="49.83154" lon="2.50538">
        <ele>93</ele>
        <time>2024-07-10T13:26:10Z</time>
      </trkpt>
      <trkpt lat="49.83153" lon="2.50538">
        <ele>93.1</ele>
        <time>2024-07-10T13:26:11Z</time>
      </trkpt>
      <trkpt lat="49.83152" lon="2.50539">
        <ele>93.1</ele>
        <time>2024-07-10T13:26:12Z</time>
      </trkpt>
      <trkpt lat="49.83151" lon="2.5054">
        <ele>93.1</ele>
        <time>2024-07-10T13:26:13Z</time>
      </trkpt>
      <trkpt lat="49.8315" lon="2.5054">
        <ele>93.2</ele>
        <time>2024-07-10T13:26:14Z</time>
      </trkpt>
      <trkpt lat="49.83149" lon="2.50541">
        <ele>93.2</ele>
        <time>2024-07-10T13:26:15Z</time>
      </trkpt>
      <trkpt lat="49.83148" lon="2.50541">
        <ele>93.2</ele>
        <time>2024-07-10T13:26:16Z</time>
      </trkpt>
      <trkpt lat="49.83147" lon="2.50542">
        <ele>93.3</ele>
        <time>2024-07-10T13:26:17Z</time>
      </trkpt>
      <trkpt lat="49.83146" lon="2.50542">
        <ele>93.3</ele>
        <time>2024-07-10T13:26:18Z</time>
      </trkpt>
      <trkpt lat="49.83145" lon="2.50543">
        <ele>93.3</ele>
        <time>2024-07-10T13:26:19Z</time>
      </trkpt>
      <trkpt lat="49.83144" lon="2.50543">
        <ele>93.4</ele>
        <time>2024-07-10T13:26:20Z</time>
      </trkpt>
      <trkpt lat="49.83142" lon="2.50544">
        <ele>93.4</ele>
        <time>2024-07-10T13:26:21Z</time>
      </trkpt>
      <trkpt lat="49.83141" lon="2.50545">
        <ele>93.4</ele>
        <time>2024-07-10T13:26:22Z</time>
      </trkpt>
      <trkpt lat="49.8314" lon="2.50545">
        <ele>93.5</ele>
        <time>2024-07-10T13:26:23Z</time>
      </trkpt>
      <trkpt lat="49.83139" lon="2.50546">
        <ele>93.5</ele>
        <time>2024-07-10T13:26:24Z</time>
      </trkpt>
      <trkpt lat="49.83138" lon="2.50547">
        <ele>93.5</ele>
        <time>2024-07-10T13:26:25Z</time>
      </trkpt>
      <trkpt lat="49.83137" lon="2.50547">
        <ele>93.6</ele>
        <time>2024-07-10T13:26:26Z</time>
      </trkpt>
      <trkpt lat="49.83136" lon="2.50548">
        <ele>93.6</ele>
        <time>2024-07-10T13:26:27Z</time>
      </trkpt>
      <trkpt lat="49.83135" lon="2.50548">
        <ele>93.7</ele>
        <time>2024-07-10T13:26:28Z</time>
      </trkpt>
      <trkpt lat="49.83134" lon="2.50549">
        <ele>93.7</ele>
        <time>2024-07-10T13:26:29Z</time>
      </trkpt>
      <trkpt lat="49.83133" lon="2.5055">
        <ele>93.7</ele>
        <time>2024-07-10T13:26:30Z</time>
      </trkpt>
      <trkpt lat="49.83132" lon="2.5055">
        <ele>93.8</ele>
        <time>2024-07-10T13:26:31Z</time>
      </trkpt>
      <trkpt lat="49.83131" lon="2.50551">
        <ele>93.8</ele>
        <time>2024-07-10T13:26:32Z</time>
      </trkpt>
      <trkpt lat="49.8313" lon="2.50552">
        <ele>93.8</ele>
        <time>2024-07-10T13:26:33Z</time>
      </trkpt>
      <trkpt lat="49.83129" lon="2.50553">
        <ele>93.9</ele>
        <time>2024-07-10T13:26:34Z</time>
      </trkpt>
      <trkpt lat="49.83128" lon="2.50553">
        <ele>93.9</ele>
        <time>2024-07-10T13:26:35Z</time>
      </trkpt>
      <trkpt lat="49.83127" lon="2.50554">
        <ele>93.9</ele>
        <time>2024-07-10T13:26:36Z</time>
      </trkpt>
      <trkpt lat="49.83126" lon="2.50555">
        <ele>94</ele>
        <time>2024-07-10T13:26:37Z</time>
      </trkpt>
      <trkpt lat="49.83125" lon="2.50555">
        <ele>94</ele>
        <time>2024-07-10T13:26:38Z</time>
      </trkpt>
      <trkpt lat="49.83124" lon="2.50556">
        <ele>94.1</ele>
        <time>2024-07-10T13:26:39Z</time>
      </trkpt>
      <trkpt lat="49.83123" lon="2.50557">
        <ele>94.1</ele>
        <time>2024-07-10T13:26:40Z</time>
      </trkpt>
      <trkpt lat="49.83122" lon="2.50557">
        <ele>94.1</ele>
        <time>2024-07-10T13:26:41Z</time>
      </trkpt>
      <trkpt lat="49.8312" lon="2.50558">
        <ele>94.2</ele>
        <time>2024-07-10T13:26:42Z</time>
      </trkpt>
      <trkpt lat="49.8312" lon="2.50559">
        <ele>94.2</ele>
        <time>2024-07-10T13:26:43Z</time>
      </trkpt>
      <trkpt lat="49.83119" lon="2.50559">
        <ele>94.2</ele>
        <time>2024-07-10T13:26:44Z</time>
      </trkpt>
      <trkpt lat="49.83118" lon="2.5056">
        <ele>94.3</ele>
        <time>2024-07-10T13:26:45Z</time>
      </trkpt>
      <trkpt lat="49.83118" lon="2.5056">
        <ele>94.3</ele>
        <time>2024-07-10T13:26:46Z</time>
      </trkpt>
      <trkpt lat="49.83117" lon="2.50561">
        <ele>94.3</ele>
        <time>2024-07-10T13:26:47Z</time>
      </trkpt>
      <trkpt lat="49.83116" lon="2.50562">
        <ele>94.4</ele>
        <time>2024-07-10T13:26:48Z</time>
      </trkpt>
      <trkpt lat="49.83115" lon="2.50562">
        <ele>94.4</ele>
        <time>2024-07-10T13:26:49Z</time>
      </trkpt>
      <trkpt lat="49.83114" lon="2.50563">
        <ele>94.5</ele>
        <time>2024-07-10T13:26:50Z</time>
      </trkpt>
      <trkpt lat="49.83113" lon="2.50563">
        <ele>94.5</ele>
        <time>2024-07-10T13:26:51Z</time>
      </trkpt>
      <trkpt lat="49.83112" lon="2.50564">
        <ele>94.5</ele>
        <time>2024-07-10T13:26:52Z</time>
      </trkpt>
      <trkpt lat="49.83111" lon="2.50565">
        <ele>94.6</ele>
        <time>2024-07-10T13:26:53Z</time>
      </trkpt>
      <trkpt lat="49.8311" lon="2.50565">
        <ele>94.6</ele>
        <time>2024-07-10T13:26:54Z</time>
      </trkpt>
      <trkpt lat="49.83109" lon="2.50566">
        <ele>94.7</ele>
        <time>2024-07-10T13:26:55Z</time>
      </trkpt>
      <trkpt lat="49.83108" lon="2.50567">
        <ele>94.7</ele>
        <time>2024-07-10T13:26:56Z</time>
      </trkpt>
      <trkpt lat="49.83107" lon="2.50567">
        <ele>94.7</ele>
        <time>2024-07-10T13:26:57Z</time>
      </trkpt>
      <trkpt lat="49.83106" lon="2.50568">
        <ele>94.8</ele>
        <time>2024-07-10T13:26:58Z</time>
      </trkpt>
      <trkpt lat="49.83105" lon="2.50568">
        <ele>94.8</ele>
        <time>2024-07-10T13:26:59Z</time>
      </trkpt>
      <trkpt lat="49.83104" lon="2.50569">
        <ele>94.9</ele>
        <time>2024-07-10T13:27:00Z</time>
      </trkpt>
      <trkpt lat="49.83103" lon="2.50569">
        <ele>94.9</ele>
        <time>2024-07-10T13:27:01Z</time>
      </trkpt>
      <trkpt lat="49.83102" lon="2.5057">
        <ele>94.9</ele>
        <time>2024-07-10T13:27:02Z</time>
      </trkpt>
      <trkpt lat="49.83101" lon="2.5057">
        <ele>95</ele>
        <time>2024-07-10T13:27:03Z</time>
      </trkpt>
      <trkpt lat="49.83101" lon="2.50571">
        <ele>95</ele>
        <time>2024-07-10T13:27:04Z</time>
      </trkpt>
      <trkpt lat="49.831" lon="2.50571">
        <ele>95</ele>
        <time>2024-07-10T13:27:05Z</time>
      </trkpt>
      <trkpt lat="49.83099" lon="2.50572">
        <ele>95.1</ele>
        <time>2024-07-10T13:27:06Z</time>
      </trkpt>
      <trkpt lat="49.83098" lon="2.50572">
        <ele>95.1</ele>
        <time>2024-07-10T13:27:07Z</time>
      </trkpt>
      <trkpt lat="49.83097" lon="2.50573">
        <ele>95.1</ele>
        <time>2024-07-10T13:27:08Z</time>
      </trkpt>
      <trkpt lat="49.83097" lon="2.50573">
        <ele>95.2</ele>
        <time>2024-07-10T13:27:09Z</time>
      </trkpt>
      <trkpt lat="49.83096" lon="2.50573">
        <ele>95.2</ele>
        <time>2024-07-10T13:27:10Z</time>
      </trkpt>
      <trkpt lat="49.83095" lon="2.50574">
        <ele>95.2</ele>
        <time>2024-07-10T13:27:11Z</time>
      </trkpt>
      <trkpt lat="49.83094" lon="2.50574">
        <ele>95.2</ele>
        <time>2024-07-10T13:27:12Z</time>
      </trkpt>
      <trkpt lat="49.83094" lon="2.50575">
        <ele>95.3</ele>
        <time>2024-07-10T13:27:13Z</time>
      </trkpt>
      <trkpt lat="49.83093" lon="2.50575">
        <ele>95.3</ele>
        <time>2024-07-10T13:27:14Z</time>
      </trkpt>
      <trkpt lat="49.83092" lon="2.50576">
        <ele>95.3</ele>
        <time>2024-07-10T13:27:15Z</time>
      </trkpt>
      <trkpt lat="49.83091" lon="2.50577">
        <ele>95.4</ele>
        <time>2024-07-10T13:27:16Z</time>
      </trkpt>
      <trkpt lat="49.8309" lon="2.50577">
        <ele>95.4</ele>
        <time>2024-07-10T13:27:17Z</time>
      </trkpt>
      <trkpt lat="49.8309" lon="2.50577">
        <ele>95.4</ele>
        <time>2024-07-10T13:27:18Z</time>
      </trkpt>
      <trkpt lat="49.83089" lon="2.50578">
        <ele>95.5</ele>
        <time>2024-07-10T13:27:19Z</time>
      </trkpt>
      <trkpt lat="49.83088" lon="2.50578">
        <ele>95.5</ele>
        <time>2024-07-10T13:27:20Z</time>
      </trkpt>
      <trkpt lat="49.83087" lon="2.50579">
        <ele>95.5</ele>
        <time>2024-07-10T13:27:21Z</time>
      </trkpt>
      <trkpt lat="49.83086" lon="2.50579">
        <ele>95.6</ele>
        <time>2024-07-10T13:27:22Z</time>
      </trkpt>
      <trkpt lat="49.83085" lon="2.5058">
        <ele>95.6</ele>
        <time>2024-07-10T13:27:23Z</time>
      </trkpt>
      <trkpt lat="49.83084" lon="2.5058">
        <ele>95.6</ele>
        <time>2024-07-10T13:27:24Z</time>
      </trkpt>
      <trkpt lat="49.83083" lon="2.50581">
        <ele>95.7</ele>
        <time>2024-07-10T13:27:25Z</time>
      </trkpt>
      <trkpt lat="49.83082" lon="2.50581">
        <ele>95.7</ele>
        <time>2024-07-10T13:27:26Z</time>
      </trkpt>
      <trkpt lat="49.83082" lon="2.50582">
        <ele>95.7</ele>
        <time>2024-07-10T13:27:27Z</time>
      </trkpt>
      <trkpt lat="49.83081" lon="2.50583">
        <ele>95.8</ele>
        <time>2024-07-10T13:27:28Z</time>
      </trkpt>
      <trkpt lat="49.8308" lon="2.50583">
        <ele>95.8</ele>
        <time>2024-07-10T13:27:29Z</time>
      </trkpt>
      <trkpt lat="49.83079" lon="2.50584">
        <ele>95.8</ele>
        <time>2024-07-10T13:27:30Z</time>
      </trkpt>
      <trkpt lat="49.83078" lon="2.50584">
        <ele>95.9</ele>
        <time>2024-07-10T13:27:31Z</time>
      </trkpt>
      <trkpt lat="49.83078" lon="2.50585">
        <ele>95.9</ele>
        <time>2024-07-10T13:27:32Z</time>
      </trkpt>
      <trkpt lat="49.83077" lon="2.50585">
        <ele>95.9</ele>
        <time>2024-07-10T13:27:33Z</time>
      </trkpt>
      <trkpt lat="49.83076" lon="2.50586">
        <ele>96</ele>
        <time>2024-07-10T13:27:34Z</time>
      </trkpt>
      <trkpt lat="49.83075" lon="2.50587">
        <ele>96</ele>
        <time>2024-07-10T13:27:35Z</time>
      </trkpt>
      <trkpt lat="49.83074" lon="2.50587">
        <ele>96</ele>
        <time>2024-07-10T13:27:36Z</time>
      </trkpt>
      <trkpt lat="49.83074" lon="2.50587">
        <ele>96.1</ele>
        <time>2024-07-10T13:27:37Z</time>
      </trkpt>
      <trkpt lat="49.83073" lon="2.50588">
        <ele>96.1</ele>
        <time>2024-07-10T13:27:38Z</time>
      </trkpt>
      <trkpt lat="49.83072" lon="2.50588">
        <ele>96.1</ele>
        <time>2024-07-10T13:27:39Z</time>
      </trkpt>
      <trkpt lat="49.83071" lon="2.50588">
        <ele>96.1</ele>
        <time>2024-07-10T13:27:40Z</time>
      </trkpt>
      <trkpt lat="49.8307" lon="2.50589">
        <ele>96.2</ele>
        <time>2024-07-10T13:27:41Z</time>
      </trkpt>
      <trkpt lat="49.83069" lon="2.50589">
        <ele>96.2</ele>
        <time>2024-07-10T13:27:42Z</time>
      </trkpt>
      <trkpt lat="49.83068" lon="2.50589">
        <ele>96.3</ele>
        <time>2024-07-10T13:27:43Z</time>
      </trkpt>
      <trkpt lat="49.83067" lon="2.50589">
        <ele>96.3</ele>
        <time>2024-07-10T13:27:44Z</time>
      </trkpt>
      <trkpt lat="49.83066" lon="2.5059">
        <ele>96.3</ele>
        <time>2024-07-10T13:27:45Z</time>
      </trkpt>
      <trkpt lat="49.83065" lon="2.5059">
        <ele>96.4</ele>
        <time>2024-07-10T13:27:46Z</time>
      </trkpt>
      <trkpt lat="49.83065" lon="2.5059">
        <ele>96.4</ele>
        <time>2024-07-10T13:27:47Z</time>
      </trkpt>
      <trkpt lat="49.83064" lon="2.5059">
        <ele>96.4</ele>
        <time>2024-07-10T13:27:48Z</time>
      </trkpt>
      <trkpt lat="49.83063" lon="2.5059">
        <ele>96.5</ele>
        <time>2024-07-10T13:27:49Z</time>
      </trkpt>
      <trkpt lat="49.83062" lon="2.50591">
        <ele>96.5</ele>
        <time>2024-07-10T13:27:50Z</time>
      </trkpt>
      <trkpt lat="49.83062" lon="2.50591">
        <ele>96.5</ele>
        <time>2024-07-10T13:27:51Z</time>
      </trkpt>
      <trkpt lat="49.83061" lon="2.50591">
        <ele>96.6</ele>
        <time>2024-07-10T13:27:52Z</time>
      </trkpt>
      <trkpt lat="49.8306" lon="2.50592">
        <ele>96.6</ele>
        <time>2024-07-10T13:27:53Z</time>
      </trkpt>
      <trkpt lat="49.8306" lon="2.50592">
        <ele>96.6</ele>
        <time>2024-07-10T13:27:54Z</time>
      </trkpt>
      <trkpt lat="49.83059" lon="2.50592">
        <ele>96.6</ele>
        <time>2024-07-10T13:27:55Z</time>
      </trkpt>
      <trkpt lat="49.83059" lon="2.50591">
        <ele>96.6</ele>
        <time>2024-07-10T13:27:56Z</time>
      </trkpt>
      <trkpt lat="49.83059" lon="2.5059">
        <ele>96.7</ele>
        <time>2024-07-10T13:27:57Z</time>
      </trkpt>
      <trkpt lat="49.83059" lon="2.5059">
        <ele>96.7</ele>
        <time>2024-07-10T13:27:58Z</time>
      </trkpt>
      <trkpt lat="49.83059" lon="2.5059">
        <ele>96.7</ele>
        <time>2024-07-10T13:27:59Z</time>
      </trkpt>
      <trkpt lat="49.83059" lon="2.5059">
        <ele>96.7</ele>
        <time>2024-07-10T13:28:00Z</time>
      </trkpt>
      <trkpt lat="49.83059" lon="2.5059">
        <ele>96.7</ele>
        <time>2024-07-10T13:28:01Z</time>
      </trkpt>
      <trkpt lat="49.83059" lon="2.5059">
        <ele>96.7</ele>
        <time>2024-07-10T13:28:02Z</time>
      </trkpt>
      <trkpt lat="49.83059" lon="2.5059">
        <ele>96.7</ele>
        <time>2024-07-10T13:28:03Z</time>
      </trkpt>
      <trkpt lat="49.83059" lon="2.5059">
        <ele>96.7</ele>
        <time>2024-07-10T13:28:04Z</time>
      </trkpt>
      <trkpt lat="49.83059" lon="2.5059">
        <ele>96.7</ele>
        <time>2024-07-10T13:28:05Z</time>
      </trkpt>
      <trkpt lat="49.83059" lon="2.5059">
        <ele>96.7</ele>
        <time>2024-07-10T13:28:06Z</time>
      </trkpt>
      <trkpt lat="49.83059" lon="2.5059">
        <ele>96.7</ele>
        <time>2024-07-10T13:28:07Z</time>
      </trkpt>
      <trkpt lat="49.83059" lon="2.5059">
        <ele>96.7</ele>
        <time>2024-07-10T13:28:08Z</time>
      </trkpt>
      <trkpt lat="49.83059" lon="2.5059">
        <ele>96.7</ele>
        <time>2024-07-10T13:28:09Z</time>
      </trkpt>
      <trkpt lat="49.83059" lon="2.5059">
        <ele>96.7</ele>
        <time>2024-07-10T13:28:10Z</time>
      </trkpt>
      <trkpt lat="49.83059" lon="2.5059">
        <ele>96.7</ele>
        <time>2024-07-10T13:28:11Z</time>
      </trkpt>
      <trkpt lat="49.83059" lon="2.5059">
        <ele>96.7</ele>
        <time>2024-07-10T13:28:12Z</time>
      </trkpt>
      <trkpt lat="49.83059" lon="2.50589">
        <ele>96.7</ele>
        <time>2024-07-10T13:28:13Z</time>
      </trkpt>
      <trkpt lat="49.83059" lon="2.50589">
        <ele>96.7</ele>
        <time>2024-07-10T13:28:14Z</time>
      </trkpt>
      <trkpt lat="49.83059" lon="2.50589">
        <ele>96.7</ele>
        <time>2024-07-10T13:28:15Z</time>
      </trkpt>
      <trkpt lat="49.83059" lon="2.50589">
        <ele>96.7</ele>
        <time>2024-07-10T13:28:16Z</time>
      </trkpt>
      <trkpt lat="49.83059" lon="2.50589">
        <ele>96.7</ele>
        <time>2024-07-10T13:28:17Z</time>
      </trkpt>
      <trkpt lat="49.83059" lon="2.50589">
        <ele>96.7</ele>
        <time>2024-07-10T13:28:18Z</time>
      </trkpt>
      <trkpt lat="49.83059" lon="2.50589">
        <ele>96.7</ele>
        <time>2024-07-10T13:28:19Z</time>
      </trkpt>
      <trkpt lat="49.83059" lon="2.50589">
        <ele>96.7</ele>
        <time>2024-07-10T13:28:20Z</time>
      </trkpt>
      <trkpt lat="49.83059" lon="2.50589">
        <ele>96.7</ele>
        <time>2024-07-10T13:28:21Z</time>
      </trkpt>
      <trkpt lat="49.83059" lon="2.50589">
        <ele>96.7</ele>
        <time>2024-07-10T13:28:22Z</time>
      </trkpt>
      <trkpt lat="49.83059" lon="2.50589">
        <ele>96.7</ele>
        <time>2024-07-10T13:28:23Z</time>
      </trkpt>
      <trkpt lat="49.83059" lon="2.50589">
        <ele>96.7</ele>
        <time>2024-07-10T13:28:24Z</time>
      </trkpt>
      <trkpt lat="49.83059" lon="2.50589">
        <ele>96.7</ele>
        <time>2024-07-10T13:28:25Z</time>
      </trkpt>
      <trkpt lat="49.83059" lon="2.50589">
        <ele>96.7</ele>
        <time>2024-07-10T13:28:26Z</time>
      </trkpt>
      <trkpt lat="49.83059" lon="2.50589">
        <ele>96.7</ele>
        <time>2024-07-10T13:28:27Z</time>
      </trkpt>
      <trkpt lat="49.83059" lon="2.50589">
        <ele>96.7</ele>
        <time>2024-07-10T13:28:28Z</time>
      </trkpt>
      <trkpt lat="49.83059" lon="2.50589">
        <ele>96.7</ele>
        <time>2024-07-10T13:28:29Z</time>
      </trkpt>
      <trkpt lat="49.83059" lon="2.50589">
        <ele>96.7</ele>
        <time>2024-07-10T13:28:30Z</time>
      </trkpt>
      <trkpt lat="49.83059" lon="2.50589">
        <ele>96.7</ele>
        <time>2024-07-10T13:28:31Z</time>
      </trkpt>
      <trkpt lat="49.83059" lon="2.50589">
        <ele>96.7</ele>
        <time>2024-07-10T13:28:32Z</time>
      </trkpt>
      <trkpt lat="49.83059" lon="2.50589">
        <ele>96.7</ele>
        <time>2024-07-10T13:28:33Z</time>
      </trkpt>
      <trkpt lat="49.83059" lon="2.50589">
        <ele>96.7</ele>
        <time>2024-07-10T13:28:34Z</time>
      </trkpt>
      <trkpt lat="49.83059" lon="2.50589">
        <ele>96.7</ele>
        <time>2024-07-10T13:28:35Z</time>
      </trkpt>
      <trkpt lat="49.83059" lon="2.50589">
        <ele>96.7</ele>
        <time>2024-07-10T13:28:36Z</time>
      </trkpt>
      <trkpt lat="49.83059" lon="2.50589">
        <ele>96.7</ele>
        <time>2024-07-10T13:28:37Z</time>
      </trkpt>
      <trkpt lat="49.83059" lon="2.50589">
        <ele>96.7</ele>
        <time>2024-07-10T13:28:38Z</time>
      </trkpt>
      <trkpt lat="49.83059" lon="2.50589">
        <ele>96.7</ele>
        <time>2024-07-10T13:28:39Z</time>
      </trkpt>
      <trkpt lat="49.83059" lon="2.50589">
        <ele>96.7</ele>
        <time>2024-07-10T13:28:40Z</time>
      </trkpt>
      <trkpt lat="49.83059" lon="2.50589">
        <ele>96.7</ele>
        <time>2024-07-10T13:28:41Z</time>
      </trkpt>
      <trkpt lat="49.83059" lon="2.50589">
        <ele>96.7</ele>
        <time>2024-07-10T13:28:42Z</time>
      </trkpt>
      <trkpt lat="49.83059" lon="2.50589">
        <ele>96.7</ele>
        <time>2024-07-10T13:28:43Z</time>
      </trkpt>
      <trkpt lat="49.83059" lon="2.50589">
        <ele>96.7</ele>
        <time>2024-07-10T13:28:44Z</time>
      </trkpt>
      <trkpt lat="49.83059" lon="2.50589">
        <ele>96.7</ele>
        <time>2024-07-10T13:28:45Z</time>
      </trkpt>
      <trkpt lat="49.83059" lon="2.50589">
        <ele>96.7</ele>
        <time>2024-07-10T13:28:46Z</time>
      </trkpt>
      <trkpt lat="49.83059" lon="2.50589">
        <ele>96.7</ele>
        <time>2024-07-10T13:28:47Z</time>
      </trkpt>
      <trkpt lat="49.83059" lon="2.50589">
        <ele>96.7</ele>
        <time>2024-07-10T13:28:48Z</time>
      </trkpt>
      <trkpt lat="49.83059" lon="2.50589">
        <ele>96.7</ele>
        <time>2024-07-10T13:28:49Z</time>
      </trkpt>
      <trkpt lat="49.83059" lon="2.50589">
        <ele>96.7</ele>
        <time>2024-07-10T13:28:50Z</time>
      </trkpt>
      <trkpt lat="49.83059" lon="2.50589">
        <ele>96.7</ele>
        <time>2024-07-10T13:28:51Z</time>
      </trkpt>
      <trkpt lat="49.83059" lon="2.50589">
        <ele>96.7</ele>
        <time>2024-07-10T13:28:52Z</time>
      </trkpt>
      <trkpt lat="49.83059" lon="2.50589">
        <ele>96.7</ele>
        <time>2024-07-10T13:28:53Z</time>
      </trkpt>
      <trkpt lat="49.83059" lon="2.50589">
        <ele>96.7</ele>
        <time>2024-07-10T13:28:54Z</time>
      </trkpt>
      <trkpt lat="49.83059" lon="2.50589">
        <ele>96.7</ele>
        <time>2024-07-10T13:28:55Z</time>
      </trkpt>
      <trkpt lat="49.83059" lon="2.50589">
        <ele>96.7</ele>
        <time>2024-07-10T13:28:56Z</time>
      </trkpt>
      <trkpt lat="49.83059" lon="2.50589">
        <ele>96.7</ele>
        <time>2024-07-10T13:28:57Z</time>
      </trkpt>
      <trkpt lat="49.83059" lon="2.50589">
        <ele>96.7</ele>
        <time>2024-07-10T13:28:58Z</time>
      </trkpt>
      <trkpt lat="49.83059" lon="2.50589">
        <ele>96.7</ele>
        <time>2024-07-10T13:28:59Z</time>
      </trkpt>
      <trkpt lat="49.83059" lon="2.50589">
        <ele>96.7</ele>
        <time>2024-07-10T13:29:00Z</time>
      </trkpt>
      <trkpt lat="49.83059" lon="2.50589">
        <ele>96.7</ele>
        <time>2024-07-10T13:29:01Z</time>
      </trkpt>
      <trkpt lat="49.83059" lon="2.50589">
        <ele>96.7</ele>
        <time>2024-07-10T13:29:02Z</time>
      </trkpt>
      <trkpt lat="49.83059" lon="2.50589">
        <ele>96.7</ele>
        <time>2024-07-10T13:29:03Z</time>
      </trkpt>
      <trkpt lat="49.83059" lon="2.50589">
        <ele>96.7</ele>
        <time>2024-07-10T13:29:04Z</time>
      </trkpt>
      <trkpt lat="49.83059" lon="2.50589">
        <ele>96.7</ele>
        <time>2024-07-10T13:29:05Z</time>
      </trkpt>
      <trkpt lat="49.83059" lon="2.50589">
        <ele>96.7</ele>
        <time>2024-07-10T13:29:06Z</time>
      </trkpt>
      <trkpt lat="49.83059" lon="2.50589">
        <ele>96.7</ele>
        <time>2024-07-10T13:29:07Z</time>
      </trkpt>
      <trkpt lat="49.83059" lon="2.50589">
        <ele>96.7</ele>
        <time>2024-07-10T13:29:08Z</time>
      </trkpt>
      <trkpt lat="49.83059" lon="2.50589">
        <ele>96.7</ele>
        <time>2024-07-10T13:29:09Z</time>
      </trkpt>
      <trkpt lat="49.83059" lon="2.50589">
        <ele>96.7</ele>
        <time>2024-07-10T13:29:10Z</time>
      </trkpt>
      <trkpt lat="49.83059" lon="2.50589">
        <ele>96.7</ele>
        <time>2024-07-10T13:29:11Z</time>
      </trkpt>
      <trkpt lat="49.83059" lon="2.50589">
        <ele>96.7</ele>
        <time>2024-07-10T13:29:12Z</time>
      </trkpt>
      <trkpt lat="49.83059" lon="2.50589">
        <ele>96.7</ele>
        <time>2024-07-10T13:29:13Z</time>
      </trkpt>
      <trkpt lat="49.83059" lon="2.50589">
        <ele>96.7</ele>
        <time>2024-07-10T13:29:14Z</time>
      </trkpt>
      <trkpt lat="49.83059" lon="2.50589">
        <ele>96.7</ele>
        <time>2024-07-10T13:29:15Z</time>
      </trkpt>
      <trkpt lat="49.83059" lon="2.50589">
        <ele>96.7</ele>
        <time>2024-07-10T13:29:16Z</time>
      </trkpt>
      <trkpt lat="49.83059" lon="2.50589">
        <ele>96.7</ele>
        <time>2024-07-10T13:29:17Z</time>
      </trkpt>
      <trkpt lat="49.83059" lon="2.50589">
        <ele>96.7</ele>
        <time>2024-07-10T13:29:18Z</time>
      </trkpt>
      <trkpt lat="49.83059" lon="2.50589">
        <ele>96.7</ele>
        <time>2024-07-10T13:29:19Z</time>
      </trkpt>
      <trkpt lat="49.83059" lon="2.50589">
        <ele>96.7</ele>
        <time>2024-07-10T13:29:20Z</time>
      </trkpt>
      <trkpt lat="49.83059" lon="2.50589">
        <ele>96.7</ele>
        <time>2024-07-10T13:29:21Z</time>
      </trkpt>
      <trkpt lat="49.83059" lon="2.50589">
        <ele>96.7</ele>
        <time>2024-07-10T13:29:22Z</time>
      </trkpt>
      <trkpt lat="49.83059" lon="2.50589">
        <ele>96.7</ele>
        <time>2024-07-10T13:29:23Z</time>
      </trkpt>
      <trkpt lat="49.83059" lon="2.50589">
        <ele>96.7</ele>
        <time>2024-07-10T13:29:24Z</time>
      </trkpt>
      <trkpt lat="49.83059" lon="2.50589">
        <ele>96.7</ele>
        <time>2024-07-10T13:29:25Z</time>
      </trkpt>
      <trkpt lat="49.83059" lon="2.50589">
        <ele>96.7</ele>
        <time>2024-07-10T13:29:26Z</time>
      </trkpt>
      <trkpt lat="49.83059" lon="2.50589">
        <ele>96.7</ele>
        <time>2024-07-10T13:29:27Z</time>
      </trkpt>
      <trkpt lat="49.83059" lon="2.50589">
        <ele>96.7</ele>
        <time>2024-07-10T13:29:28Z</time>
      </trkpt>
      <trkpt lat="49.83059" lon="2.50589">
        <ele>96.7</ele>
        <time>2024-07-10T13:29:29Z</time>
      </trkpt>
      <trkpt lat="49.83059" lon="2.50589">
        <ele>96.7</ele>
        <time>2024-07-10T13:29:30Z</time>
      </trkpt>
      <trkpt lat="49.83059" lon="2.50589">
        <ele>96.7</ele>
        <time>2024-07-10T13:29:31Z</time>
      </trkpt>
      <trkpt lat="49.83059" lon="2.50589">
        <ele>96.7</ele>
        <time>2024-07-10T13:29:32Z</time>
      </trkpt>
      <trkpt lat="49.83059" lon="2.50589">
        <ele>96.7</ele>
        <time>2024-07-10T13:29:33Z</time>
      </trkpt>
      <trkpt lat="49.83059" lon="2.50589">
        <ele>96.7</ele>
        <time>2024-07-10T13:29:34Z</time>
      </trkpt>
      <trkpt lat="49.83059" lon="2.50589">
        <ele>96.7</ele>
        <time>2024-07-10T13:29:35Z</time>
      </trkpt>
      <trkpt lat="49.83059" lon="2.50589">
        <ele>96.7</ele>
        <time>2024-07-10T13:29:36Z</time>
      </trkpt>
      <trkpt lat="49.83059" lon="2.50589">
        <ele>96.7</ele>
        <time>2024-07-10T13:29:37Z</time>
      </trkpt>
      <trkpt lat="49.83059" lon="2.50589">
        <ele>96.7</ele>
        <time>2024-07-10T13:29:38Z</time>
      </trkpt>
      <trkpt lat="49.83059" lon="2.50589">
        <ele>96.7</ele>
        <time>2024-07-10T13:29:39Z</time>
      </trkpt>
      <trkpt lat="49.83059" lon="2.50589">
        <ele>96.7</ele>
        <time>2024-07-10T13:29:40Z</time>
      </trkpt>
      <trkpt lat="49.83059" lon="2.50589">
        <ele>96.7</ele>
        <time>2024-07-10T13:29:41Z</time>
      </trkpt>
      <trkpt lat="49.83059" lon="2.50589">
        <ele>96.7</ele>
        <time>2024-07-10T13:29:42Z</time>
      </trkpt>
      <trkpt lat="49.83059" lon="2.50589">
        <ele>96.7</ele>
        <time>2024-07-10T13:29:43Z</time>
      </trkpt>
      <trkpt lat="49.83059" lon="2.50589">
        <ele>96.7</ele>
        <time>2024-07-10T13:29:44Z</time>
      </trkpt>
      <trkpt lat="49.83059" lon="2.50589">
        <ele>96.7</ele>
        <time>2024-07-10T13:29:45Z</time>
      </trkpt>
      <trkpt lat="49.83059" lon="2.50589">
        <ele>96.7</ele>
        <time>2024-07-10T13:29:46Z</time>
      </trkpt>
      <trkpt lat="49.83059" lon="2.50589">
        <ele>96.7</ele>
        <time>2024-07-10T13:29:47Z</time>
      </trkpt>
      <trkpt lat="49.83059" lon="2.50589">
        <ele>96.7</ele>
        <time>2024-07-10T13:29:48Z</time>
      </trkpt>
      <trkpt lat="49.83059" lon="2.50589">
        <ele>96.7</ele>
        <time>2024-07-10T13:29:49Z</time>
      </trkpt>
      <trkpt lat="49.83059" lon="2.50589">
        <ele>96.7</ele>
        <time>2024-07-10T13:29:50Z</time>
      </trkpt>
      <trkpt lat="49.83059" lon="2.50589">
        <ele>96.7</ele>
        <time>2024-07-10T13:29:51Z</time>
      </trkpt>
      <trkpt lat="49.83059" lon="2.50589">
        <ele>96.7</ele>
        <time>2024-07-10T13:29:52Z</time>
      </trkpt>
      <trkpt lat="49.83059" lon="2.50589">
        <ele>96.7</ele>
        <time>2024-07-10T13:29:53Z</time>
      </trkpt>
      <trkpt lat="49.83059" lon="2.50589">
        <ele>96.7</ele>
        <time>2024-07-10T13:29:54Z</time>
      </trkpt>
      <trkpt lat="49.83059" lon="2.50589">
        <ele>96.7</ele>
        <time>2024-07-10T13:29:55Z</time>
      </trkpt>
      <trkpt lat="49.83059" lon="2.50589">
        <ele>96.7</ele>
        <time>2024-07-10T13:29:56Z</time>
      </trkpt>
      <trkpt lat="49.83059" lon="2.50589">
        <ele>96.7</ele>
        <time>2024-07-10T13:29:57Z</time>
      </trkpt>
      <trkpt lat="49.83059" lon="2.50589">
        <ele>96.7</ele>
        <time>2024-07-10T13:29:58Z</time>
      </trkpt>
      <trkpt lat="49.83059" lon="2.50589">
        <ele>96.7</ele>
        <time>2024-07-10T13:29:59Z</time>
      </trkpt>
      <trkpt lat="49.83059" lon="2.50589">
        <ele>96.7</ele>
        <time>2024-07-10T13:30:00Z</time>
      </trkpt>
      <trkpt lat="49.83059" lon="2.50589">
        <ele>96.7</ele>
        <time>2024-07-10T13:30:01Z</time>
      </trkpt>
      <trkpt lat="49.83059" lon="2.50589">
        <ele>96.7</ele>
        <time>2024-07-10T13:30:02Z</time>
      </trkpt>
      <trkpt lat="49.83059" lon="2.50589">
        <ele>96.7</ele>
        <time>2024-07-10T13:30:03Z</time>
      </trkpt>
      <trkpt lat="49.83059" lon="2.50589">
        <ele>96.7</ele>
        <time>2024-07-10T13:30:04Z</time>
      </trkpt>
      <trkpt lat="49.83059" lon="2.50589">
        <ele>96.7</ele>
        <time>2024-07-10T13:30:05Z</time>
      </trkpt>
      <trkpt lat="49.83059" lon="2.50589">
        <ele>96.7</ele>
        <time>2024-07-10T13:30:06Z</time>
      </trkpt>
      <trkpt lat="49.83059" lon="2.50589">
        <ele>96.7</ele>
        <time>2024-07-10T13:30:07Z</time>
      </trkpt>
      <trkpt lat="49.83059" lon="2.50589">
        <ele>96.7</ele>
        <time>2024-07-10T13:30:08Z</time>
      </trkpt>
      <trkpt lat="49.83059" lon="2.50589">
        <ele>96.7</ele>
        <time>2024-07-10T13:30:09Z</time>
      </trkpt>
      <trkpt lat="49.83059" lon="2.50589">
        <ele>96.7</ele>
        <time>2024-07-10T13:30:10Z</time>
      </trkpt>
      <trkpt lat="49.83059" lon="2.50589">
        <ele>96.7</ele>
        <time>2024-07-10T13:30:11Z</time>
      </trkpt>
      <trkpt lat="49.83059" lon="2.50589">
        <ele>96.7</ele>
        <time>2024-07-10T13:30:12Z</time>
      </trkpt>
      <trkpt lat="49.83059" lon="2.50589">
        <ele>96.7</ele>
        <time>2024-07-10T13:30:13Z</time>
      </trkpt>
      <trkpt lat="49.83059" lon="2.50589">
        <ele>96.7</ele>
        <time>2024-07-10T13:30:14Z</time>
      </trkpt>
      <trkpt lat="49.83059" lon="2.50589">
        <ele>96.7</ele>
        <time>2024-07-10T13:30:15Z</time>
      </trkpt>
      <trkpt lat="49.83059" lon="2.50589">
        <ele>96.7</ele>
        <time>2024-07-10T13:30:16Z</time>
      </trkpt>
      <trkpt lat="49.83059" lon="2.50589">
        <ele>96.7</ele>
        <time>2024-07-10T13:30:17Z</time>
      </trkpt>
      <trkpt lat="49.83059" lon="2.50589">
        <ele>96.7</ele>
        <time>2024-07-10T13:30:18Z</time>
      </trkpt>
      <trkpt lat="49.83059" lon="2.50589">
        <ele>96.7</ele>
        <time>2024-07-10T13:30:19Z</time>
      </trkpt>
      <trkpt lat="49.83059" lon="2.50589">
        <ele>96.7</ele>
        <time>2024-07-10T13:30:20Z</time>
      </trkpt>
      <trkpt lat="49.83059" lon="2.50589">
        <ele>96.7</ele>
        <time>2024-07-10T13:30:21Z</time>
      </trkpt>
      <trkpt lat="49.83059" lon="2.50589">
        <ele>96.7</ele>
        <time>2024-07-10T13:30:22Z</time>
      </trkpt>
      <trkpt lat="49.83059" lon="2.50589">
        <ele>96.7</ele>
        <time>2024-07-10T13:30:23Z</time>
      </trkpt>
      <trkpt lat="49.83059" lon="2.50589">
        <ele>96.7</ele>
        <time>2024-07-10T13:30:24Z</time>
      </trkpt>
      <trkpt lat="49.83059" lon="2.50589">
        <ele>96.7</ele>
        <time>2024-07-10T13:30:25Z</time>
      </trkpt>
      <trkpt lat="49.83059" lon="2.50589">
        <ele>96.7</ele>
        <time>2024-07-10T13:30:26Z</time>
      </trkpt>
      <trkpt lat="49.83059" lon="2.50589">
        <ele>96.7</ele>
        <time>2024-07-10T13:30:27Z</time>
      </trkpt>
      <trkpt lat="49.83059" lon="2.50589">
        <ele>96.7</ele>
        <time>2024-07-10T13:30:28Z</time>
      </trkpt>
      <trkpt lat="49.83059" lon="2.50589">
        <ele>96.7</ele>
        <time>2024-07-10T13:30:29Z</time>
      </trkpt>
      <trkpt lat="49.83059" lon="2.50589">
        <ele>96.7</ele>
        <time>2024-07-10T13:30:30Z</time>
      </trkpt>
      <trkpt lat="49.83059" lon="2.50589">
        <ele>96.7</ele>
        <time>2024-07-10T13:30:31Z</time>
      </trkpt>
      <trkpt lat="49.83059" lon="2.50589">
        <ele>96.7</ele>
        <time>2024-07-10T13:30:32Z</time>
      </trkpt>
      <trkpt lat="49.83059" lon="2.50589">
        <ele>96.7</ele>
        <time>2024-07-10T13:30:33Z</time>
      </trkpt>
      <trkpt lat="49.83059" lon="2.50589">
        <ele>96.7</ele>
        <time>2024-07-10T13:30:34Z</time>
      </trkpt>
      <trkpt lat="49.83059" lon="2.50589">
        <ele>96.7</ele>
        <time>2024-07-10T13:30:35Z</time>
      </trkpt>
      <trkpt lat="49.83059" lon="2.50589">
        <ele>96.7</ele>
        <time>2024-07-10T13:30:36Z</time>
      </trkpt>
      <trkpt lat="49.83059" lon="2.50589">
        <ele>96.7</ele>
        <time>2024-07-10T13:30:37Z</time>
      </trkpt>
      <trkpt lat="49.83059" lon="2.50589">
        <ele>96.7</ele>
        <time>2024-07-10T13:30:38Z</time>
      </trkpt>
      <trkpt lat="49.83059" lon="2.50589">
        <ele>96.7</ele>
        <time>2024-07-10T13:30:39Z</time>
      </trkpt>
      <trkpt lat="49.83059" lon="2.50589">
        <ele>96.7</ele>
        <time>2024-07-10T13:30:40Z</time>
      </trkpt>
      <trkpt lat="49.83059" lon="2.50589">
        <ele>96.7</ele>
        <time>2024-07-10T13:30:41Z</time>
      </trkpt>
      <trkpt lat="49.83059" lon="2.50589">
        <ele>96.7</ele>
        <time>2024-07-10T13:30:42Z</time>
      </trkpt>
      <trkpt lat="49.83059" lon="2.50589">
        <ele>96.7</ele>
        <time>2024-07-10T13:30:43Z</time>
      </trkpt>
      <trkpt lat="49.83061" lon="2.50591">
        <ele>96.8</ele>
        <time>2024-07-10T13:30:44Z</time>
      </trkpt>
      <trkpt lat="49.83061" lon="2.50591">
        <ele>96.9</ele>
        <time>2024-07-10T13:30:45Z</time>
      </trkpt>
      <trkpt lat="49.83061" lon="2.50591">
        <ele>96.9</ele>
        <time>2024-07-10T13:30:46Z</time>
      </trkpt>
      <trkpt lat="49.83061" lon="2.50591">
        <ele>96.9</ele>
        <time>2024-07-10T13:30:47Z</time>
      </trkpt>
      <trkpt lat="49.8306" lon="2.50591">
        <ele>96.9</ele>
        <time>2024-07-10T13:30:48Z</time>
      </trkpt>
      <trkpt lat="49.8306" lon="2.50591">
        <ele>96.9</ele>
        <time>2024-07-10T13:30:49Z</time>
      </trkpt>
      <trkpt lat="49.8306" lon="2.50591">
        <ele>96.9</ele>
        <time>2024-07-10T13:30:50Z</time>
      </trkpt>
      <trkpt lat="49.83059" lon="2.50591">
        <ele>97</ele>
        <time>2024-07-10T13:30:51Z</time>
      </trkpt>
      <trkpt lat="49.83058" lon="2.50591">
        <ele>97</ele>
        <time>2024-07-10T13:30:52Z</time>
      </trkpt>
      <trkpt lat="49.83057" lon="2.50589">
        <ele>97</ele>
        <time>2024-07-10T13:30:53Z</time>
      </trkpt>
      <trkpt lat="49.83057" lon="2.50588">
        <ele>97</ele>
        <time>2024-07-10T13:30:54Z</time>
      </trkpt>
      <trkpt lat="49.83056" lon="2.50587">
        <ele>97</ele>
        <time>2024-07-10T13:30:55Z</time>
      </trkpt>
      <trkpt lat="49.83056" lon="2.50586">
        <ele>97</ele>
        <time>2024-07-10T13:30:56Z</time>
      </trkpt>
      <trkpt lat="49.83056" lon="2.50584">
        <ele>97</ele>
        <time>2024-07-10T13:30:57Z</time>
      </trkpt>
      <trkpt lat="49.83056" lon="2.50582">
        <ele>97</ele>
        <time>2024-07-10T13:30:58Z</time>
      </trkpt>
      <trkpt lat="49.83056" lon="2.50581">
        <ele>97</ele>
        <time>2024-07-10T13:30:59Z</time>
      </trkpt>
      <trkpt lat="49.83056" lon="2.50579">
        <ele>97</ele>
        <time>2024-07-10T13:31:00Z</time>
      </trkpt>
      <trkpt lat="49.83056" lon="2.50577">
        <ele>97</ele>
        <time>2024-07-10T13:31:01Z</time>
      </trkpt>
      <trkpt lat="49.83056" lon="2.50576">
        <ele>97</ele>
        <time>2024-07-10T13:31:02Z</time>
      </trkpt>
      <trkpt lat="49.83056" lon="2.50574">
        <ele>97</ele>
        <time>2024-07-10T13:31:03Z</time>
      </trkpt>
      <trkpt lat="49.83056" lon="2.50573">
        <ele>97</ele>
        <time>2024-07-10T13:31:04Z</time>
      </trkpt>
      <trkpt lat="49.83056" lon="2.50572">
        <ele>97</ele>
        <time>2024-07-10T13:31:05Z</time>
      </trkpt>
      <trkpt lat="49.83056" lon="2.5057">
        <ele>97</ele>
        <time>2024-07-10T13:31:06Z</time>
      </trkpt>
      <trkpt lat="49.83057" lon="2.5057">
        <ele>97.1</ele>
        <time>2024-07-10T13:31:07Z</time>
      </trkpt>
      <trkpt lat="49.83057" lon="2.50569">
        <ele>97.1</ele>
        <time>2024-07-10T13:31:08Z</time>
      </trkpt>
      <trkpt lat="49.83058" lon="2.50568">
        <ele>97.1</ele>
        <time>2024-07-10T13:31:09Z</time>
      </trkpt>
      <trkpt lat="49.83058" lon="2.50567">
        <ele>97.1</ele>
        <time>2024-07-10T13:31:10Z</time>
      </trkpt>
      <trkpt lat="49.83058" lon="2.50565">
        <ele>97.1</ele>
        <time>2024-07-10T13:31:11Z</time>
      </trkpt>
      <trkpt lat="49.83058" lon="2.50563">
        <ele>97.1</ele>
        <time>2024-07-10T13:31:12Z</time>
      </trkpt>
      <trkpt lat="49.83058" lon="2.50561">
        <ele>97.1</ele>
        <time>2024-07-10T13:31:13Z</time>
      </trkpt>
      <trkpt lat="49.83059" lon="2.50559">
        <ele>97.1</ele>
        <time>2024-07-10T13:31:14Z</time>
      </trkpt>
      <trkpt lat="49.83059" lon="2.50556">
        <ele>97.1</ele>
        <time>2024-07-10T13:31:15Z</time>
      </trkpt>
      <trkpt lat="49.83059" lon="2.50554">
        <ele>97.2</ele>
        <time>2024-07-10T13:31:16Z</time>
      </trkpt>
      <trkpt lat="49.8306" lon="2.50552">
        <ele>97.2</ele>
        <time>2024-07-10T13:31:17Z</time>
      </trkpt>
      <trkpt lat="49.83059" lon="2.50549">
        <ele>97.2</ele>
        <time>2024-07-10T13:31:18Z</time>
      </trkpt>
      <trkpt lat="49.83059" lon="2.50547">
        <ele>97.2</ele>
        <time>2024-07-10T13:31:19Z</time>
      </trkpt>
      <trkpt lat="49.83059" lon="2.50546">
        <ele>97.2</ele>
        <time>2024-07-10T13:31:20Z</time>
      </trkpt>
      <trkpt lat="49.83059" lon="2.50544">
        <ele>97.2</ele>
        <time>2024-07-10T13:31:21Z</time>
      </trkpt>
      <trkpt lat="49.83059" lon="2.50542">
        <ele>97.2</ele>
        <time>2024-07-10T13:31:22Z</time>
      </trkpt>
      <trkpt lat="49.83059" lon="2.50541">
        <ele>97.2</ele>
        <time>2024-07-10T13:31:23Z</time>
      </trkpt>
      <trkpt lat="49.83059" lon="2.50539">
        <ele>97.2</ele>
        <time>2024-07-10T13:31:24Z</time>
      </trkpt>
      <trkpt lat="49.83059" lon="2.50537">
        <ele>97.3</ele>
        <time>2024-07-10T13:31:25Z</time>
      </trkpt>
      <trkpt lat="49.83059" lon="2.50536">
        <ele>97.3</ele>
        <time>2024-07-10T13:31:26Z</time>
      </trkpt>
      <trkpt lat="49.83059" lon="2.50534">
        <ele>97.3</ele>
        <time>2024-07-10T13:31:27Z</time>
      </trkpt>
      <trkpt lat="49.83059" lon="2.50533">
        <ele>97.3</ele>
        <time>2024-07-10T13:31:28Z</time>
      </trkpt>
      <trkpt lat="49.83059" lon="2.50531">
        <ele>97.3</ele>
        <time>2024-07-10T13:31:29Z</time>
      </trkpt>
      <trkpt lat="49.83059" lon="2.50529">
        <ele>97.3</ele>
        <time>2024-07-10T13:31:30Z</time>
      </trkpt>
      <trkpt lat="49.8306" lon="2.50528">
        <ele>97.3</ele>
        <time>2024-07-10T13:31:31Z</time>
      </trkpt>
      <trkpt lat="49.8306" lon="2.50526">
        <ele>97.3</ele>
        <time>2024-07-10T13:31:32Z</time>
      </trkpt>
      <trkpt lat="49.8306" lon="2.50524">
        <ele>97.3</ele>
        <time>2024-07-10T13:31:33Z</time>
      </trkpt>
      <trkpt lat="49.8306" lon="2.50522">
        <ele>97.3</ele>
        <time>2024-07-10T13:31:34Z</time>
      </trkpt>
      <trkpt lat="49.83061" lon="2.50521">
        <ele>97.3</ele>
        <time>2024-07-10T13:31:35Z</time>
      </trkpt>
      <trkpt lat="49.83061" lon="2.50519">
        <ele>97.3</ele>
        <time>2024-07-10T13:31:36Z</time>
      </trkpt>
      <trkpt lat="49.83061" lon="2.50517">
        <ele>97.3</ele>
        <time>2024-07-10T13:31:37Z</time>
      </trkpt>
      <trkpt lat="49.83062" lon="2.50516">
        <ele>97.3</ele>
        <time>2024-07-10T13:31:38Z</time>
      </trkpt>
      <trkpt lat="49.83062" lon="2.50514">
        <ele>97.3</ele>
        <time>2024-07-10T13:31:39Z</time>
      </trkpt>
      <trkpt lat="49.83062" lon="2.50512">
        <ele>97.3</ele>
        <time>2024-07-10T13:31:40Z</time>
      </trkpt>
      <trkpt lat="49.83062" lon="2.5051">
        <ele>97.3</ele>
        <time>2024-07-10T13:31:41Z</time>
      </trkpt>
      <trkpt lat="49.83062" lon="2.50509">
        <ele>97.3</ele>
        <time>2024-07-10T13:31:42Z</time>
      </trkpt>
      <trkpt lat="49.83063" lon="2.50507">
        <ele>97.3</ele>
        <time>2024-07-10T13:31:43Z</time>
      </trkpt>
      <trkpt lat="49.83063" lon="2.50505">
        <ele>97.3</ele>
        <time>2024-07-10T13:31:44Z</time>
      </trkpt>
      <trkpt lat="49.83063" lon="2.50503">
        <ele>97.3</ele>
        <time>2024-07-10T13:31:45Z</time>
      </trkpt>
      <trkpt lat="49.83063" lon="2.50502">
        <ele>97.3</ele>
        <time>2024-07-10T13:31:46Z</time>
      </trkpt>
      <trkpt lat="49.83064" lon="2.505">
        <ele>97.3</ele>
        <time>2024-07-10T13:31:47Z</time>
      </trkpt>
      <trkpt lat="49.83064" lon="2.50498">
        <ele>97.3</ele>
        <time>2024-07-10T13:31:48Z</time>
      </trkpt>
      <trkpt lat="49.83064" lon="2.50497">
        <ele>97.3</ele>
        <time>2024-07-10T13:31:49Z</time>
      </trkpt>
      <trkpt lat="49.83064" lon="2.50495">
        <ele>97.3</ele>
        <time>2024-07-10T13:31:50Z</time>
      </trkpt>
      <trkpt lat="49.83065" lon="2.50493">
        <ele>97.3</ele>
        <time>2024-07-10T13:31:51Z</time>
      </trkpt>
      <trkpt lat="49.83065" lon="2.50492">
        <ele>97.3</ele>
        <time>2024-07-10T13:31:52Z</time>
      </trkpt>
      <trkpt lat="49.83065" lon="2.5049">
        <ele>97.3</ele>
        <time>2024-07-10T13:31:53Z</time>
      </trkpt>
      <trkpt lat="49.83065" lon="2.50489">
        <ele>97.3</ele>
        <time>2024-07-10T13:31:54Z</time>
      </trkpt>
      <trkpt lat="49.83065" lon="2.50487">
        <ele>97.3</ele>
        <time>2024-07-10T13:31:55Z</time>
      </trkpt>
      <trkpt lat="49.83065" lon="2.50486">
        <ele>97.3</ele>
        <time>2024-07-10T13:31:56Z</time>
      </trkpt>
      <trkpt lat="49.83066" lon="2.50484">
        <ele>97.3</ele>
        <time>2024-07-10T13:31:57Z</time>
      </trkpt>
      <trkpt lat="49.83066" lon="2.50482">
        <ele>97.3</ele>
        <time>2024-07-10T13:31:58Z</time>
      </trkpt>
      <trkpt lat="49.83066" lon="2.50481">
        <ele>97.3</ele>
        <time>2024-07-10T13:31:59Z</time>
      </trkpt>
      <trkpt lat="49.83066" lon="2.50477">
        <ele>97.3</ele>
        <time>2024-07-10T13:32:00Z</time>
      </trkpt>
      <trkpt lat="49.83066" lon="2.50476">
        <ele>97.3</ele>
        <time>2024-07-10T13:32:01Z</time>
      </trkpt>
      <trkpt lat="49.83066" lon="2.50475">
        <ele>97.3</ele>
        <time>2024-07-10T13:32:02Z</time>
      </trkpt>
      <trkpt lat="49.83066" lon="2.50473">
        <ele>97.3</ele>
        <time>2024-07-10T13:32:03Z</time>
      </trkpt>
      <trkpt lat="49.83067" lon="2.50471">
        <ele>97.3</ele>
        <time>2024-07-10T13:32:04Z</time>
      </trkpt>
      <trkpt lat="49.83067" lon="2.50469">
        <ele>97.3</ele>
        <time>2024-07-10T13:32:05Z</time>
      </trkpt>
      <trkpt lat="49.83067" lon="2.50468">
        <ele>97.3</ele>
        <time>2024-07-10T13:32:06Z</time>
      </trkpt>
      <trkpt lat="49.83067" lon="2.50466">
        <ele>97.3</ele>
        <time>2024-07-10T13:32:07Z</time>
      </trkpt>
      <trkpt lat="49.83067" lon="2.50464">
        <ele>97.3</ele>
        <time>2024-07-10T13:32:08Z</time>
      </trkpt>
      <trkpt lat="49.83067" lon="2.50461">
        <ele>97.3</ele>
        <time>2024-07-10T13:32:09Z</time>
      </trkpt>
      <trkpt lat="49.83068" lon="2.50459">
        <ele>97.3</ele>
        <time>2024-07-10T13:32:10Z</time>
      </trkpt>
      <trkpt lat="49.83068" lon="2.50458">
        <ele>97.3</ele>
        <time>2024-07-10T13:32:11Z</time>
      </trkpt>
      <trkpt lat="49.83068" lon="2.50456">
        <ele>97.3</ele>
        <time>2024-07-10T13:32:12Z</time>
      </trkpt>
      <trkpt lat="49.83068" lon="2.50454">
        <ele>97.3</ele>
        <time>2024-07-10T13:32:13Z</time>
      </trkpt>
      <trkpt lat="49.83068" lon="2.50453">
        <ele>97.3</ele>
        <time>2024-07-10T13:32:14Z</time>
      </trkpt>
      <trkpt lat="49.83069" lon="2.50451">
        <ele>97.3</ele>
        <time>2024-07-10T13:32:15Z</time>
      </trkpt>
      <trkpt lat="49.83069" lon="2.50449">
        <ele>97.3</ele>
        <time>2024-07-10T13:32:16Z</time>
      </trkpt>
      <trkpt lat="49.83069" lon="2.50448">
        <ele>97.3</ele>
        <time>2024-07-10T13:32:17Z</time>
      </trkpt>
      <trkpt lat="49.83069" lon="2.50446">
        <ele>97.3</ele>
        <time>2024-07-10T13:32:18Z</time>
      </trkpt>
      <trkpt lat="49.8307" lon="2.50444">
        <ele>97.3</ele>
        <time>2024-07-10T13:32:19Z</time>
      </trkpt>
      <trkpt lat="49.8307" lon="2.50442">
        <ele>97.3</ele>
        <time>2024-07-10T13:32:20Z</time>
      </trkpt>
      <trkpt lat="49.8307" lon="2.50441">
        <ele>97.3</ele>
        <time>2024-07-10T13:32:21Z</time>
      </trkpt>
      <trkpt lat="49.8307" lon="2.50439">
        <ele>97.3</ele>
        <time>2024-07-10T13:32:22Z</time>
      </trkpt>
      <trkpt lat="49.8307" lon="2.50437">
        <ele>97.3</ele>
        <time>2024-07-10T13:32:23Z</time>
      </trkpt>
      <trkpt lat="49.8307" lon="2.50435">
        <ele>97.3</ele>
        <time>2024-07-10T13:32:24Z</time>
      </trkpt>
      <trkpt lat="49.8307" lon="2.50433">
        <ele>97.3</ele>
        <time>2024-07-10T13:32:25Z</time>
      </trkpt>
      <trkpt lat="49.83071" lon="2.50432">
        <ele>97.3</ele>
        <time>2024-07-10T13:32:26Z</time>
      </trkpt>
      <trkpt lat="49.83071" lon="2.5043">
        <ele>97.3</ele>
        <time>2024-07-10T13:32:27Z</time>
      </trkpt>
      <trkpt lat="49.83071" lon="2.50429">
        <ele>97.3</ele>
        <time>2024-07-10T13:32:28Z</time>
      </trkpt>
      <trkpt lat="49.83071" lon="2.50427">
        <ele>97.3</ele>
        <time>2024-07-10T13:32:29Z</time>
      </trkpt>
      <trkpt lat="49.83071" lon="2.50426">
        <ele>97.3</ele>
        <time>2024-07-10T13:32:30Z</time>
      </trkpt>
      <trkpt lat="49.83072" lon="2.50424">
        <ele>97.3</ele>
        <time>2024-07-10T13:32:31Z</time>
      </trkpt>
      <trkpt lat="49.83072" lon="2.50422">
        <ele>97.3</ele>
        <time>2024-07-10T13:32:32Z</time>
      </trkpt>
      <trkpt lat="49.83072" lon="2.5042">
        <ele>97.4</ele>
        <time>2024-07-10T13:32:33Z</time>
      </trkpt>
      <trkpt lat="49.83072" lon="2.50418">
        <ele>97.4</ele>
        <time>2024-07-10T13:32:34Z</time>
      </trkpt>
      <trkpt lat="49.83073" lon="2.50417">
        <ele>97.4</ele>
        <time>2024-07-10T13:32:35Z</time>
      </trkpt>
      <trkpt lat="49.83073" lon="2.50415">
        <ele>97.4</ele>
        <time>2024-07-10T13:32:36Z</time>
      </trkpt>
      <trkpt lat="49.83073" lon="2.50414">
        <ele>97.4</ele>
        <time>2024-07-10T13:32:37Z</time>
      </trkpt>
      <trkpt lat="49.83074" lon="2.50413">
        <ele>97.4</ele>
        <time>2024-07-10T13:32:38Z</time>
      </trkpt>
      <trkpt lat="49.83074" lon="2.50411">
        <ele>97.4</ele>
        <time>2024-07-10T13:32:39Z</time>
      </trkpt>
      <trkpt lat="49.83074" lon="2.50409">
        <ele>97.4</ele>
        <time>2024-07-10T13:32:40Z</time>
      </trkpt>
      <trkpt lat="49.83074" lon="2.50408">
        <ele>97.4</ele>
        <time>2024-07-10T13:32:41Z</time>
      </trkpt>
      <trkpt lat="49.83075" lon="2.50406">
        <ele>97.4</ele>
        <time>2024-07-10T13:32:42Z</time>
      </trkpt>
      <trkpt lat="49.83075" lon="2.50405">
        <ele>97.4</ele>
        <time>2024-07-10T13:32:43Z</time>
      </trkpt>
      <trkpt lat="49.83075" lon="2.50403">
        <ele>97.4</ele>
        <time>2024-07-10T13:32:44Z</time>
      </trkpt>
      <trkpt lat="49.83075" lon="2.50402">
        <ele>97.4</ele>
        <time>2024-07-10T13:32:45Z</time>
      </trkpt>
      <trkpt lat="49.83076" lon="2.504">
        <ele>97.4</ele>
        <time>2024-07-10T13:32:46Z</time>
      </trkpt>
      <trkpt lat="49.83076" lon="2.50398">
        <ele>97.4</ele>
        <time>2024-07-10T13:32:47Z</time>
      </trkpt>
      <trkpt lat="49.83076" lon="2.50397">
        <ele>97.4</ele>
        <time>2024-07-10T13:32:48Z</time>
      </trkpt>
      <trkpt lat="49.83076" lon="2.50395">
        <ele>97.4</ele>
        <time>2024-07-10T13:32:49Z</time>
      </trkpt>
      <trkpt lat="49.83076" lon="2.50393">
        <ele>97.4</ele>
        <time>2024-07-10T13:32:50Z</time>
      </trkpt>
      <trkpt lat="49.83076" lon="2.50392">
        <ele>97.4</ele>
        <time>2024-07-10T13:32:51Z</time>
      </trkpt>
      <trkpt lat="49.83077" lon="2.5039">
        <ele>97.4</ele>
        <time>2024-07-10T13:32:52Z</time>
      </trkpt>
      <trkpt lat="49.83077" lon="2.50388">
        <ele>97.5</ele>
        <time>2024-07-10T13:32:53Z</time>
      </trkpt>
      <trkpt lat="49.83077" lon="2.50387">
        <ele>97.5</ele>
        <time>2024-07-10T13:32:54Z</time>
      </trkpt>
      <trkpt lat="49.83077" lon="2.50385">
        <ele>97.5</ele>
        <time>2024-07-10T13:32:55Z</time>
      </trkpt>
      <trkpt lat="49.83077" lon="2.50383">
        <ele>97.5</ele>
        <time>2024-07-10T13:32:56Z</time>
      </trkpt>
      <trkpt lat="49.83077" lon="2.50381">
        <ele>97.5</ele>
        <time>2024-07-10T13:32:57Z</time>
      </trkpt>
      <trkpt lat="49.83078" lon="2.5038">
        <ele>97.5</ele>
        <time>2024-07-10T13:32:58Z</time>
      </trkpt>
      <trkpt lat="49.83078" lon="2.50378">
        <ele>97.5</ele>
        <time>2024-07-10T13:32:59Z</time>
      </trkpt>
      <trkpt lat="49.83078" lon="2.50376">
        <ele>97.5</ele>
        <time>2024-07-10T13:33:00Z</time>
      </trkpt>
      <trkpt lat="49.83078" lon="2.50375">
        <ele>97.5</ele>
        <time>2024-07-10T13:33:01Z</time>
      </trkpt>
      <trkpt lat="49.83078" lon="2.50373">
        <ele>97.5</ele>
        <time>2024-07-10T13:33:02Z</time>
      </trkpt>
      <trkpt lat="49.83078" lon="2.50371">
        <ele>97.5</ele>
        <time>2024-07-10T13:33:03Z</time>
      </trkpt>
      <trkpt lat="49.83078" lon="2.50369">
        <ele>97.5</ele>
        <time>2024-07-10T13:33:04Z</time>
      </trkpt>
      <trkpt lat="49.83078" lon="2.50367">
        <ele>97.6</ele>
        <time>2024-07-10T13:33:05Z</time>
      </trkpt>
      <trkpt lat="49.83078" lon="2.50365">
        <ele>97.6</ele>
        <time>2024-07-10T13:33:06Z</time>
      </trkpt>
      <trkpt lat="49.83078" lon="2.50364">
        <ele>97.6</ele>
        <time>2024-07-10T13:33:07Z</time>
      </trkpt>
      <trkpt lat="49.83078" lon="2.50362">
        <ele>97.6</ele>
        <time>2024-07-10T13:33:08Z</time>
      </trkpt>
      <trkpt lat="49.83078" lon="2.5036">
        <ele>97.6</ele>
        <time>2024-07-10T13:33:09Z</time>
      </trkpt>
      <trkpt lat="49.83079" lon="2.50359">
        <ele>97.6</ele>
        <time>2024-07-10T13:33:10Z</time>
      </trkpt>
      <trkpt lat="49.83079" lon="2.50357">
        <ele>97.6</ele>
        <time>2024-07-10T13:33:11Z</time>
      </trkpt>
      <trkpt lat="49.83079" lon="2.50355">
        <ele>97.6</ele>
        <time>2024-07-10T13:33:12Z</time>
      </trkpt>
      <trkpt lat="49.83079" lon="2.50353">
        <ele>97.6</ele>
        <time>2024-07-10T13:33:13Z</time>
      </trkpt>
      <trkpt lat="49.83079" lon="2.50351">
        <ele>97.6</ele>
        <time>2024-07-10T13:33:14Z</time>
      </trkpt>
      <trkpt lat="49.83079" lon="2.5035">
        <ele>97.7</ele>
        <time>2024-07-10T13:33:15Z</time>
      </trkpt>
      <trkpt lat="49.83079" lon="2.50348">
        <ele>97.7</ele>
        <time>2024-07-10T13:33:16Z</time>
      </trkpt>
      <trkpt lat="49.83079" lon="2.50346">
        <ele>97.7</ele>
        <time>2024-07-10T13:33:17Z</time>
      </trkpt>
      <trkpt lat="49.83079" lon="2.50345">
        <ele>97.7</ele>
        <time>2024-07-10T13:33:18Z</time>
      </trkpt>
      <trkpt lat="49.83079" lon="2.50343">
        <ele>97.7</ele>
        <time>2024-07-10T13:33:19Z</time>
      </trkpt>
      <trkpt lat="49.83079" lon="2.50341">
        <ele>97.7</ele>
        <time>2024-07-10T13:33:20Z</time>
      </trkpt>
      <trkpt lat="49.83079" lon="2.50338">
        <ele>97.7</ele>
        <time>2024-07-10T13:33:21Z</time>
      </trkpt>
      <trkpt lat="49.83079" lon="2.50337">
        <ele>97.7</ele>
        <time>2024-07-10T13:33:22Z</time>
      </trkpt>
      <trkpt lat="49.83079" lon="2.50335">
        <ele>97.8</ele>
        <time>2024-07-10T13:33:23Z</time>
      </trkpt>
      <trkpt lat="49.8308" lon="2.50334">
        <ele>97.8</ele>
        <time>2024-07-10T13:33:24Z</time>
      </trkpt>
      <trkpt lat="49.8308" lon="2.50332">
        <ele>97.8</ele>
        <time>2024-07-10T13:33:25Z</time>
      </trkpt>
      <trkpt lat="49.8308" lon="2.5033">
        <ele>97.8</ele>
        <time>2024-07-10T13:33:26Z</time>
      </trkpt>
      <trkpt lat="49.8308" lon="2.50328">
        <ele>97.8</ele>
        <time>2024-07-10T13:33:27Z</time>
      </trkpt>
      <trkpt lat="49.8308" lon="2.50326">
        <ele>97.8</ele>
        <time>2024-07-10T13:33:28Z</time>
      </trkpt>
      <trkpt lat="49.8308" lon="2.50325">
        <ele>97.8</ele>
        <time>2024-07-10T13:33:29Z</time>
      </trkpt>
      <trkpt lat="49.8308" lon="2.50323">
        <ele>97.8</ele>
        <time>2024-07-10T13:33:30Z</time>
      </trkpt>
      <trkpt lat="49.8308" lon="2.50321">
        <ele>97.9</ele>
        <time>2024-07-10T13:33:31Z</time>
      </trkpt>
      <trkpt lat="49.83081" lon="2.5032">
        <ele>97.9</ele>
        <time>2024-07-10T13:33:32Z</time>
      </trkpt>
      <trkpt lat="49.83081" lon="2.50318">
        <ele>97.9</ele>
        <time>2024-07-10T13:33:33Z</time>
      </trkpt>
      <trkpt lat="49.83081" lon="2.50316">
        <ele>97.9</ele>
        <time>2024-07-10T13:33:34Z</time>
      </trkpt>
      <trkpt lat="49.83081" lon="2.50315">
        <ele>97.9</ele>
        <time>2024-07-10T13:33:35Z</time>
      </trkpt>
      <trkpt lat="49.83081" lon="2.50313">
        <ele>97.9</ele>
        <time>2024-07-10T13:33:36Z</time>
      </trkpt>
      <trkpt lat="49.83081" lon="2.50311">
        <ele>97.9</ele>
        <time>2024-07-10T13:33:37Z</time>
      </trkpt>
      <trkpt lat="49.83082" lon="2.5031">
        <ele>97.9</ele>
        <time>2024-07-10T13:33:38Z</time>
      </trkpt>
      <trkpt lat="49.83082" lon="2.50307">
        <ele>98</ele>
        <time>2024-07-10T13:33:39Z</time>
      </trkpt>
      <trkpt lat="49.83082" lon="2.50305">
        <ele>98</ele>
        <time>2024-07-10T13:33:40Z</time>
      </trkpt>
      <trkpt lat="49.83082" lon="2.50304">
        <ele>98</ele>
        <time>2024-07-10T13:33:41Z</time>
      </trkpt>
      <trkpt lat="49.83083" lon="2.50302">
        <ele>98</ele>
        <time>2024-07-10T13:33:42Z</time>
      </trkpt>
      <trkpt lat="49.83083" lon="2.503">
        <ele>98</ele>
        <time>2024-07-10T13:33:43Z</time>
      </trkpt>
      <trkpt lat="49.83083" lon="2.50299">
        <ele>98</ele>
        <time>2024-07-10T13:33:44Z</time>
      </trkpt>
      <trkpt lat="49.83083" lon="2.50297">
        <ele>98</ele>
        <time>2024-07-10T13:33:45Z</time>
      </trkpt>
      <trkpt lat="49.83083" lon="2.50295">
        <ele>98</ele>
        <time>2024-07-10T13:33:46Z</time>
      </trkpt>
      <trkpt lat="49.83084" lon="2.50294">
        <ele>98</ele>
        <time>2024-07-10T13:33:47Z</time>
      </trkpt>
      <trkpt lat="49.83084" lon="2.50292">
        <ele>98</ele>
        <time>2024-07-10T13:33:48Z</time>
      </trkpt>
      <trkpt lat="49.83085" lon="2.50291">
        <ele>98.1</ele>
        <time>2024-07-10T13:33:49Z</time>
      </trkpt>
      <trkpt lat="49.83085" lon="2.50289">
        <ele>98.1</ele>
        <time>2024-07-10T13:33:50Z</time>
      </trkpt>
      <trkpt lat="49.83086" lon="2.50288">
        <ele>98.1</ele>
        <time>2024-07-10T13:33:51Z</time>
      </trkpt>
      <trkpt lat="49.83086" lon="2.50286">
        <ele>98.1</ele>
        <time>2024-07-10T13:33:52Z</time>
      </trkpt>
      <trkpt lat="49.83086" lon="2.50284">
        <ele>98.1</ele>
        <time>2024-07-10T13:33:53Z</time>
      </trkpt>
      <trkpt lat="49.83086" lon="2.50283">
        <ele>98.1</ele>
        <time>2024-07-10T13:33:54Z</time>
      </trkpt>
      <trkpt lat="49.83086" lon="2.50281">
        <ele>98.1</ele>
        <time>2024-07-10T13:33:55Z</time>
      </trkpt>
      <trkpt lat="49.83086" lon="2.50279">
        <ele>98.1</ele>
        <time>2024-07-10T13:33:56Z</time>
      </trkpt>
      <trkpt lat="49.83086" lon="2.50278">
        <ele>98.1</ele>
        <time>2024-07-10T13:33:57Z</time>
      </trkpt>
      <trkpt lat="49.83086" lon="2.50276">
        <ele>98.1</ele>
        <time>2024-07-10T13:33:58Z</time>
      </trkpt>
      <trkpt lat="49.83086" lon="2.50274">
        <ele>98.1</ele>
        <time>2024-07-10T13:33:59Z</time>
      </trkpt>
      <trkpt lat="49.83087" lon="2.50273">
        <ele>98.1</ele>
        <time>2024-07-10T13:34:00Z</time>
      </trkpt>
      <trkpt lat="49.83087" lon="2.50271">
        <ele>98.1</ele>
        <time>2024-07-10T13:34:01Z</time>
      </trkpt>
      <trkpt lat="49.83087" lon="2.50269">
        <ele>98.2</ele>
        <time>2024-07-10T13:34:02Z</time>
      </trkpt>
      <trkpt lat="49.83087" lon="2.50268">
        <ele>98.2</ele>
        <time>2024-07-10T13:34:03Z</time>
      </trkpt>
      <trkpt lat="49.83087" lon="2.50266">
        <ele>98.2</ele>
        <time>2024-07-10T13:34:04Z</time>
      </trkpt>
      <trkpt lat="49.83087" lon="2.50264">
        <ele>98.2</ele>
        <time>2024-07-10T13:34:05Z</time>
      </trkpt>
      <trkpt lat="49.83087" lon="2.50263">
        <ele>98.2</ele>
        <time>2024-07-10T13:34:06Z</time>
      </trkpt>
      <trkpt lat="49.83088" lon="2.50262">
        <ele>98.2</ele>
        <time>2024-07-10T13:34:07Z</time>
      </trkpt>
      <trkpt lat="49.83088" lon="2.5026">
        <ele>98.2</ele>
        <time>2024-07-10T13:34:08Z</time>
      </trkpt>
      <trkpt lat="49.83089" lon="2.50257">
        <ele>98.2</ele>
        <time>2024-07-10T13:34:09Z</time>
      </trkpt>
      <trkpt lat="49.83089" lon="2.50256">
        <ele>98.2</ele>
        <time>2024-07-10T13:34:10Z</time>
      </trkpt>
      <trkpt lat="49.83089" lon="2.50255">
        <ele>98.2</ele>
        <time>2024-07-10T13:34:11Z</time>
      </trkpt>
      <trkpt lat="49.8309" lon="2.50253">
        <ele>98.2</ele>
        <time>2024-07-10T13:34:12Z</time>
      </trkpt>
      <trkpt lat="49.8309" lon="2.50252">
        <ele>98.2</ele>
        <time>2024-07-10T13:34:13Z</time>
      </trkpt>
      <trkpt lat="49.83091" lon="2.5025">
        <ele>98.2</ele>
        <time>2024-07-10T13:34:14Z</time>
      </trkpt>
      <trkpt lat="49.83091" lon="2.50249">
        <ele>98.2</ele>
        <time>2024-07-10T13:34:15Z</time>
      </trkpt>
      <trkpt lat="49.83091" lon="2.50247">
        <ele>98.2</ele>
        <time>2024-07-10T13:34:16Z</time>
      </trkpt>
      <trkpt lat="49.83092" lon="2.50245">
        <ele>98.2</ele>
        <time>2024-07-10T13:34:17Z</time>
      </trkpt>
      <trkpt lat="49.83092" lon="2.50243">
        <ele>98.3</ele>
        <time>2024-07-10T13:34:18Z</time>
      </trkpt>
      <trkpt lat="49.83092" lon="2.50242">
        <ele>98.3</ele>
        <time>2024-07-10T13:34:19Z</time>
      </trkpt>
      <trkpt lat="49.83093" lon="2.5024">
        <ele>98.3</ele>
        <time>2024-07-10T13:34:20Z</time>
      </trkpt>
      <trkpt lat="49.83093" lon="2.50238">
        <ele>98.3</ele>
        <time>2024-07-10T13:34:21Z</time>
      </trkpt>
      <trkpt lat="49.83093" lon="2.50237">
        <ele>98.3</ele>
        <time>2024-07-10T13:34:22Z</time>
      </trkpt>
      <trkpt lat="49.83093" lon="2.50235">
        <ele>98.3</ele>
        <time>2024-07-10T13:34:23Z</time>
      </trkpt>
      <trkpt lat="49.83093" lon="2.50233">
        <ele>98.3</ele>
        <time>2024-07-10T13:34:24Z</time>
      </trkpt>
      <trkpt lat="49.83094" lon="2.50232">
        <ele>98.3</ele>
        <time>2024-07-10T13:34:25Z</time>
      </trkpt>
      <trkpt lat="49.83094" lon="2.5023">
        <ele>98.3</ele>
        <time>2024-07-10T13:34:26Z</time>
      </trkpt>
      <trkpt lat="49.83094" lon="2.50228">
        <ele>98.3</ele>
        <time>2024-07-10T13:34:27Z</time>
      </trkpt>
      <trkpt lat="49.83094" lon="2.50226">
        <ele>98.3</ele>
        <time>2024-07-10T13:34:28Z</time>
      </trkpt>
      <trkpt lat="49.83095" lon="2.50225">
        <ele>98.3</ele>
        <time>2024-07-10T13:34:29Z</time>
      </trkpt>
      <trkpt lat="49.83095" lon="2.50223">
        <ele>98.3</ele>
        <time>2024-07-10T13:34:30Z</time>
      </trkpt>
      <trkpt lat="49.83095" lon="2.50222">
        <ele>98.3</ele>
        <time>2024-07-10T13:34:31Z</time>
      </trkpt>
      <trkpt lat="49.83095" lon="2.5022">
        <ele>98.3</ele>
        <time>2024-07-10T13:34:32Z</time>
      </trkpt>
      <trkpt lat="49.83095" lon="2.50218">
        <ele>98.3</ele>
        <time>2024-07-10T13:34:33Z</time>
      </trkpt>
      <trkpt lat="49.83096" lon="2.50216">
        <ele>98.3</ele>
        <time>2024-07-10T13:34:34Z</time>
      </trkpt>
      <trkpt lat="49.83096" lon="2.50215">
        <ele>98.3</ele>
        <time>2024-07-10T13:34:35Z</time>
      </trkpt>
      <trkpt lat="49.83096" lon="2.50212">
        <ele>98.3</ele>
        <time>2024-07-10T13:34:36Z</time>
      </trkpt>
      <trkpt lat="49.83096" lon="2.5021">
        <ele>98.3</ele>
        <time>2024-07-10T13:34:37Z</time>
      </trkpt>
      <trkpt lat="49.83096" lon="2.50209">
        <ele>98.3</ele>
        <time>2024-07-10T13:34:38Z</time>
      </trkpt>
      <trkpt lat="49.83097" lon="2.50208">
        <ele>98.3</ele>
        <time>2024-07-10T13:34:39Z</time>
      </trkpt>
      <trkpt lat="49.83097" lon="2.50206">
        <ele>98.3</ele>
        <time>2024-07-10T13:34:40Z</time>
      </trkpt>
      <trkpt lat="49.83097" lon="2.50204">
        <ele>98.3</ele>
        <time>2024-07-10T13:34:41Z</time>
      </trkpt>
      <trkpt lat="49.83097" lon="2.50203">
        <ele>98.3</ele>
        <time>2024-07-10T13:34:42Z</time>
      </trkpt>
      <trkpt lat="49.83098" lon="2.50201">
        <ele>98.3</ele>
        <time>2024-07-10T13:34:43Z</time>
      </trkpt>
      <trkpt lat="49.83098" lon="2.50199">
        <ele>98.3</ele>
        <time>2024-07-10T13:34:44Z</time>
      </trkpt>
      <trkpt lat="49.83098" lon="2.50198">
        <ele>98.3</ele>
        <time>2024-07-10T13:34:45Z</time>
      </trkpt>
      <trkpt lat="49.83098" lon="2.50196">
        <ele>98.3</ele>
        <time>2024-07-10T13:34:46Z</time>
      </trkpt>
      <trkpt lat="49.83099" lon="2.50195">
        <ele>98.3</ele>
        <time>2024-07-10T13:34:47Z</time>
      </trkpt>
      <trkpt lat="49.83099" lon="2.50193">
        <ele>98.3</ele>
        <time>2024-07-10T13:34:48Z</time>
      </trkpt>
      <trkpt lat="49.83099" lon="2.50191">
        <ele>98.3</ele>
        <time>2024-07-10T13:34:49Z</time>
      </trkpt>
      <trkpt lat="49.831" lon="2.5019">
        <ele>98.3</ele>
        <time>2024-07-10T13:34:50Z</time>
      </trkpt>
      <trkpt lat="49.831" lon="2.50188">
        <ele>98.3</ele>
        <time>2024-07-10T13:34:51Z</time>
      </trkpt>
      <trkpt lat="49.831" lon="2.50186">
        <ele>98.3</ele>
        <time>2024-07-10T13:34:52Z</time>
      </trkpt>
      <trkpt lat="49.831" lon="2.50184">
        <ele>98.3</ele>
        <time>2024-07-10T13:34:53Z</time>
      </trkpt>
      <trkpt lat="49.83101" lon="2.50183">
        <ele>98.3</ele>
        <time>2024-07-10T13:34:54Z</time>
      </trkpt>
      <trkpt lat="49.83101" lon="2.50181">
        <ele>98.3</ele>
        <time>2024-07-10T13:34:55Z</time>
      </trkpt>
      <trkpt lat="49.83101" lon="2.5018">
        <ele>98.3</ele>
        <time>2024-07-10T13:34:56Z</time>
      </trkpt>
      <trkpt lat="49.83101" lon="2.50178">
        <ele>98.3</ele>
        <time>2024-07-10T13:34:57Z</time>
      </trkpt>
      <trkpt lat="49.83102" lon="2.50176">
        <ele>98.3</ele>
        <time>2024-07-10T13:34:58Z</time>
      </trkpt>
      <trkpt lat="49.83102" lon="2.50175">
        <ele>98.3</ele>
        <time>2024-07-10T13:34:59Z</time>
      </trkpt>
      <trkpt lat="49.83102" lon="2.50173">
        <ele>98.3</ele>
        <time>2024-07-10T13:35:00Z</time>
      </trkpt>
      <trkpt lat="49.83102" lon="2.50171">
        <ele>98.3</ele>
        <time>2024-07-10T13:35:01Z</time>
      </trkpt>
      <trkpt lat="49.83102" lon="2.5017">
        <ele>98.2</ele>
        <time>2024-07-10T13:35:02Z</time>
      </trkpt>
      <trkpt lat="49.83102" lon="2.50168">
        <ele>98.2</ele>
        <time>2024-07-10T13:35:03Z</time>
      </trkpt>
      <trkpt lat="49.83102" lon="2.50166">
        <ele>98.2</ele>
        <time>2024-07-10T13:35:04Z</time>
      </trkpt>
      <trkpt lat="49.83103" lon="2.50164">
        <ele>98.2</ele>
        <time>2024-07-10T13:35:05Z</time>
      </trkpt>
      <trkpt lat="49.83103" lon="2.50163">
        <ele>98.2</ele>
        <time>2024-07-10T13:35:06Z</time>
      </trkpt>
      <trkpt lat="49.83103" lon="2.50161">
        <ele>98.2</ele>
        <time>2024-07-10T13:35:07Z</time>
      </trkpt>
      <trkpt lat="49.83104" lon="2.50159">
        <ele>98.2</ele>
        <time>2024-07-10T13:35:08Z</time>
      </trkpt>
      <trkpt lat="49.83104" lon="2.50158">
        <ele>98.2</ele>
        <time>2024-07-10T13:35:09Z</time>
      </trkpt>
      <trkpt lat="49.83104" lon="2.50156">
        <ele>98.2</ele>
        <time>2024-07-10T13:35:10Z</time>
      </trkpt>
      <trkpt lat="49.83104" lon="2.50154">
        <ele>98.2</ele>
        <time>2024-07-10T13:35:11Z</time>
      </trkpt>
      <trkpt lat="49.83104" lon="2.50153">
        <ele>98.2</ele>
        <time>2024-07-10T13:35:12Z</time>
      </trkpt>
      <trkpt lat="49.83104" lon="2.50151">
        <ele>98.2</ele>
        <time>2024-07-10T13:35:13Z</time>
      </trkpt>
      <trkpt lat="49.83104" lon="2.50149">
        <ele>98.2</ele>
        <time>2024-07-10T13:35:14Z</time>
      </trkpt>
      <trkpt lat="49.83105" lon="2.50148">
        <ele>98.2</ele>
        <time>2024-07-10T13:35:15Z</time>
      </trkpt>
      <trkpt lat="49.83105" lon="2.50146">
        <ele>98.2</ele>
        <time>2024-07-10T13:35:16Z</time>
      </trkpt>
      <trkpt lat="49.83105" lon="2.50144">
        <ele>98.2</ele>
        <time>2024-07-10T13:35:17Z</time>
      </trkpt>
      <trkpt lat="49.83105" lon="2.50143">
        <ele>98.2</ele>
        <time>2024-07-10T13:35:18Z</time>
      </trkpt>
      <trkpt lat="49.83106" lon="2.50141">
        <ele>98.1</ele>
        <time>2024-07-10T13:35:19Z</time>
      </trkpt>
      <trkpt lat="49.83106" lon="2.5014">
        <ele>98.1</ele>
        <time>2024-07-10T13:35:20Z</time>
      </trkpt>
      <trkpt lat="49.83106" lon="2.50138">
        <ele>98.1</ele>
        <time>2024-07-10T13:35:21Z</time>
      </trkpt>
      <trkpt lat="49.83107" lon="2.50136">
        <ele>98.1</ele>
        <time>2024-07-10T13:35:22Z</time>
      </trkpt>
      <trkpt lat="49.83107" lon="2.50135">
        <ele>98.1</ele>
        <time>2024-07-10T13:35:23Z</time>
      </trkpt>
      <trkpt lat="49.83107" lon="2.50133">
        <ele>98.1</ele>
        <time>2024-07-10T13:35:24Z</time>
      </trkpt>
      <trkpt lat="49.83108" lon="2.50132">
        <ele>98.1</ele>
        <time>2024-07-10T13:35:25Z</time>
      </trkpt>
      <trkpt lat="49.83108" lon="2.5013">
        <ele>98.1</ele>
        <time>2024-07-10T13:35:26Z</time>
      </trkpt>
      <trkpt lat="49.83109" lon="2.50128">
        <ele>98.1</ele>
        <time>2024-07-10T13:35:27Z</time>
      </trkpt>
      <trkpt lat="49.83109" lon="2.50127">
        <ele>98.1</ele>
        <time>2024-07-10T13:35:28Z</time>
      </trkpt>
      <trkpt lat="49.83109" lon="2.50125">
        <ele>98.1</ele>
        <time>2024-07-10T13:35:29Z</time>
      </trkpt>
      <trkpt lat="49.8311" lon="2.50123">
        <ele>98.1</ele>
        <time>2024-07-10T13:35:30Z</time>
      </trkpt>
      <trkpt lat="49.8311" lon="2.50122">
        <ele>98.1</ele>
        <time>2024-07-10T13:35:31Z</time>
      </trkpt>
      <trkpt lat="49.8311" lon="2.5012">
        <ele>98.1</ele>
        <time>2024-07-10T13:35:32Z</time>
      </trkpt>
      <trkpt lat="49.83111" lon="2.50119">
        <ele>98.1</ele>
        <time>2024-07-10T13:35:33Z</time>
      </trkpt>
      <trkpt lat="49.83111" lon="2.50117">
        <ele>98.1</ele>
        <time>2024-07-10T13:35:34Z</time>
      </trkpt>
      <trkpt lat="49.83112" lon="2.50116">
        <ele>98.1</ele>
        <time>2024-07-10T13:35:35Z</time>
      </trkpt>
      <trkpt lat="49.83112" lon="2.50114">
        <ele>98.1</ele>
        <time>2024-07-10T13:35:36Z</time>
      </trkpt>
      <trkpt lat="49.83113" lon="2.50112">
        <ele>98.1</ele>
        <time>2024-07-10T13:35:37Z</time>
      </trkpt>
      <trkpt lat="49.83113" lon="2.50111">
        <ele>98.1</ele>
        <time>2024-07-10T13:35:38Z</time>
      </trkpt>
      <trkpt lat="49.83114" lon="2.50108">
        <ele>98.1</ele>
        <time>2024-07-10T13:35:39Z</time>
      </trkpt>
      <trkpt lat="49.83114" lon="2.50107">
        <ele>98.1</ele>
        <time>2024-07-10T13:35:40Z</time>
      </trkpt>
      <trkpt lat="49.83114" lon="2.50105">
        <ele>98.1</ele>
        <time>2024-07-10T13:35:41Z</time>
      </trkpt>
      <trkpt lat="49.83114" lon="2.50103">
        <ele>98</ele>
        <time>2024-07-10T13:35:42Z</time>
      </trkpt>
      <trkpt lat="49.83115" lon="2.50102">
        <ele>98</ele>
        <time>2024-07-10T13:35:43Z</time>
      </trkpt>
      <trkpt lat="49.83115" lon="2.501">
        <ele>98</ele>
        <time>2024-07-10T13:35:44Z</time>
      </trkpt>
      <trkpt lat="49.83115" lon="2.50098">
        <ele>98</ele>
        <time>2024-07-10T13:35:45Z</time>
      </trkpt>
      <trkpt lat="49.83116" lon="2.50097">
        <ele>98</ele>
        <time>2024-07-10T13:35:46Z</time>
      </trkpt>
      <trkpt lat="49.83116" lon="2.50095">
        <ele>98</ele>
        <time>2024-07-10T13:35:47Z</time>
      </trkpt>
      <trkpt lat="49.83116" lon="2.50092">
        <ele>98</ele>
        <time>2024-07-10T13:35:48Z</time>
      </trkpt>
      <trkpt lat="49.83117" lon="2.50091">
        <ele>98</ele>
        <time>2024-07-10T13:35:49Z</time>
      </trkpt>
      <trkpt lat="49.83117" lon="2.5009">
        <ele>98</ele>
        <time>2024-07-10T13:35:50Z</time>
      </trkpt>
      <trkpt lat="49.83117" lon="2.50088">
        <ele>98</ele>
        <time>2024-07-10T13:35:51Z</time>
      </trkpt>
      <trkpt lat="49.83117" lon="2.50086">
        <ele>98</ele>
        <time>2024-07-10T13:35:52Z</time>
      </trkpt>
      <trkpt lat="49.83118" lon="2.50085">
        <ele>98</ele>
        <time>2024-07-10T13:35:53Z</time>
      </trkpt>
      <trkpt lat="49.83118" lon="2.50083">
        <ele>98</ele>
        <time>2024-07-10T13:35:54Z</time>
      </trkpt>
      <trkpt lat="49.83118" lon="2.50081">
        <ele>98</ele>
        <time>2024-07-10T13:35:55Z</time>
      </trkpt>
      <trkpt lat="49.83118" lon="2.50079">
        <ele>98</ele>
        <time>2024-07-10T13:35:56Z</time>
      </trkpt>
      <trkpt lat="49.83119" lon="2.50076">
        <ele>98</ele>
        <time>2024-07-10T13:35:57Z</time>
      </trkpt>
      <trkpt lat="49.83119" lon="2.50075">
        <ele>98</ele>
        <time>2024-07-10T13:35:58Z</time>
      </trkpt>
      <trkpt lat="49.83119" lon="2.50074">
        <ele>98</ele>
        <time>2024-07-10T13:35:59Z</time>
      </trkpt>
      <trkpt lat="49.83119" lon="2.50072">
        <ele>98</ele>
        <time>2024-07-10T13:36:00Z</time>
      </trkpt>
      <trkpt lat="49.83119" lon="2.5007">
        <ele>98</ele>
        <time>2024-07-10T13:36:01Z</time>
      </trkpt>
      <trkpt lat="49.83119" lon="2.50069">
        <ele>98</ele>
        <time>2024-07-10T13:36:02Z</time>
      </trkpt>
      <trkpt lat="49.83119" lon="2.50067">
        <ele>98</ele>
        <time>2024-07-10T13:36:03Z</time>
      </trkpt>
      <trkpt lat="49.8312" lon="2.50065">
        <ele>98</ele>
        <time>2024-07-10T13:36:04Z</time>
      </trkpt>
      <trkpt lat="49.8312" lon="2.50064">
        <ele>98</ele>
        <time>2024-07-10T13:36:05Z</time>
      </trkpt>
      <trkpt lat="49.8312" lon="2.50062">
        <ele>98</ele>
        <time>2024-07-10T13:36:06Z</time>
      </trkpt>
      <trkpt lat="49.8312" lon="2.50061">
        <ele>97.9</ele>
        <time>2024-07-10T13:36:07Z</time>
      </trkpt>
      <trkpt lat="49.8312" lon="2.50059">
        <ele>97.9</ele>
        <time>2024-07-10T13:36:08Z</time>
      </trkpt>
      <trkpt lat="49.8312" lon="2.50057">
        <ele>97.9</ele>
        <time>2024-07-10T13:36:09Z</time>
      </trkpt>
      <trkpt lat="49.8312" lon="2.50056">
        <ele>97.9</ele>
        <time>2024-07-10T13:36:10Z</time>
      </trkpt>
      <trkpt lat="49.83121" lon="2.50054">
        <ele>97.9</ele>
        <time>2024-07-10T13:36:11Z</time>
      </trkpt>
      <trkpt lat="49.83121" lon="2.50052">
        <ele>97.9</ele>
        <time>2024-07-10T13:36:12Z</time>
      </trkpt>
      <trkpt lat="49.83121" lon="2.50051">
        <ele>97.9</ele>
        <time>2024-07-10T13:36:13Z</time>
      </trkpt>
      <trkpt lat="49.83121" lon="2.5005">
        <ele>97.9</ele>
        <time>2024-07-10T13:36:14Z</time>
      </trkpt>
      <trkpt lat="49.83122" lon="2.50048">
        <ele>97.9</ele>
        <time>2024-07-10T13:36:15Z</time>
      </trkpt>
      <trkpt lat="49.83122" lon="2.50046">
        <ele>97.9</ele>
        <time>2024-07-10T13:36:16Z</time>
      </trkpt>
      <trkpt lat="49.83122" lon="2.50045">
        <ele>97.9</ele>
        <time>2024-07-10T13:36:17Z</time>
      </trkpt>
      <trkpt lat="49.83123" lon="2.50044">
        <ele>97.9</ele>
        <time>2024-07-10T13:36:18Z</time>
      </trkpt>
      <trkpt lat="49.83123" lon="2.50042">
        <ele>97.9</ele>
        <time>2024-07-10T13:36:19Z</time>
      </trkpt>
      <trkpt lat="49.83123" lon="2.50041">
        <ele>97.9</ele>
        <time>2024-07-10T13:36:20Z</time>
      </trkpt>
      <trkpt lat="49.83124" lon="2.50038">
        <ele>97.9</ele>
        <time>2024-07-10T13:36:21Z</time>
      </trkpt>
      <trkpt lat="49.83124" lon="2.50037">
        <ele>97.9</ele>
        <time>2024-07-10T13:36:22Z</time>
      </trkpt>
      <trkpt lat="49.83124" lon="2.50036">
        <ele>97.9</ele>
        <time>2024-07-10T13:36:23Z</time>
      </trkpt>
      <trkpt lat="49.83124" lon="2.50035">
        <ele>97.9</ele>
        <time>2024-07-10T13:36:24Z</time>
      </trkpt>
      <trkpt lat="49.83125" lon="2.50034">
        <ele>97.9</ele>
        <time>2024-07-10T13:36:25Z</time>
      </trkpt>
      <trkpt lat="49.83125" lon="2.50032">
        <ele>97.9</ele>
        <time>2024-07-10T13:36:26Z</time>
      </trkpt>
      <trkpt lat="49.83126" lon="2.50031">
        <ele>97.9</ele>
        <time>2024-07-10T13:36:27Z</time>
      </trkpt>
      <trkpt lat="49.83126" lon="2.50029">
        <ele>97.8</ele>
        <time>2024-07-10T13:36:28Z</time>
      </trkpt>
      <trkpt lat="49.83126" lon="2.50027">
        <ele>97.8</ele>
        <time>2024-07-10T13:36:29Z</time>
      </trkpt>
      <trkpt lat="49.83127" lon="2.50026">
        <ele>97.8</ele>
        <time>2024-07-10T13:36:30Z</time>
      </trkpt>
      <trkpt lat="49.83127" lon="2.50025">
        <ele>97.8</ele>
        <time>2024-07-10T13:36:31Z</time>
      </trkpt>
      <trkpt lat="49.83127" lon="2.50023">
        <ele>97.8</ele>
        <time>2024-07-10T13:36:32Z</time>
      </trkpt>
      <trkpt lat="49.83128" lon="2.50022">
        <ele>97.8</ele>
        <time>2024-07-10T13:36:33Z</time>
      </trkpt>
      <trkpt lat="49.83128" lon="2.5002">
        <ele>97.8</ele>
        <time>2024-07-10T13:36:34Z</time>
      </trkpt>
      <trkpt lat="49.83128" lon="2.50019">
        <ele>97.8</ele>
        <time>2024-07-10T13:36:35Z</time>
      </trkpt>
      <trkpt lat="49.83129" lon="2.50017">
        <ele>97.8</ele>
        <time>2024-07-10T13:36:36Z</time>
      </trkpt>
      <trkpt lat="49.83129" lon="2.50015">
        <ele>97.8</ele>
        <time>2024-07-10T13:36:37Z</time>
      </trkpt>
      <trkpt lat="49.8313" lon="2.50014">
        <ele>97.8</ele>
        <time>2024-07-10T13:36:38Z</time>
      </trkpt>
      <trkpt lat="49.8313" lon="2.50012">
        <ele>97.8</ele>
        <time>2024-07-10T13:36:39Z</time>
      </trkpt>
      <trkpt lat="49.8313" lon="2.50011">
        <ele>97.8</ele>
        <time>2024-07-10T13:36:40Z</time>
      </trkpt>
      <trkpt lat="49.83131" lon="2.50009">
        <ele>97.8</ele>
        <time>2024-07-10T13:36:41Z</time>
      </trkpt>
      <trkpt lat="49.83131" lon="2.50008">
        <ele>97.8</ele>
        <time>2024-07-10T13:36:42Z</time>
      </trkpt>
      <trkpt lat="49.83131" lon="2.50006">
        <ele>97.8</ele>
        <time>2024-07-10T13:36:43Z</time>
      </trkpt>
      <trkpt lat="49.83131" lon="2.50004">
        <ele>97.8</ele>
        <time>2024-07-10T13:36:44Z</time>
      </trkpt>
      <trkpt lat="49.83132" lon="2.50002">
        <ele>97.8</ele>
        <time>2024-07-10T13:36:45Z</time>
      </trkpt>
      <trkpt lat="49.83132" lon="2.49999">
        <ele>97.7</ele>
        <time>2024-07-10T13:36:46Z</time>
      </trkpt>
      <trkpt lat="49.83132" lon="2.49998">
        <ele>97.7</ele>
        <time>2024-07-10T13:36:47Z</time>
      </trkpt>
      <trkpt lat="49.83132" lon="2.49997">
        <ele>97.7</ele>
        <time>2024-07-10T13:36:48Z</time>
      </trkpt>
      <trkpt lat="49.83132" lon="2.49995">
        <ele>97.7</ele>
        <time>2024-07-10T13:36:49Z</time>
      </trkpt>
      <trkpt lat="49.83133" lon="2.49993">
        <ele>97.7</ele>
        <time>2024-07-10T13:36:50Z</time>
      </trkpt>
      <trkpt lat="49.83133" lon="2.49992">
        <ele>97.7</ele>
        <time>2024-07-10T13:36:51Z</time>
      </trkpt>
      <trkpt lat="49.83133" lon="2.4999">
        <ele>97.7</ele>
        <time>2024-07-10T13:36:52Z</time>
      </trkpt>
      <trkpt lat="49.83133" lon="2.49988">
        <ele>97.7</ele>
        <time>2024-07-10T13:36:53Z</time>
      </trkpt>
      <trkpt lat="49.83133" lon="2.49986">
        <ele>97.7</ele>
        <time>2024-07-10T13:36:54Z</time>
      </trkpt>
      <trkpt lat="49.83134" lon="2.49983">
        <ele>97.7</ele>
        <time>2024-07-10T13:36:55Z</time>
      </trkpt>
      <trkpt lat="49.83134" lon="2.49982">
        <ele>97.7</ele>
        <time>2024-07-10T13:36:56Z</time>
      </trkpt>
      <trkpt lat="49.83134" lon="2.49981">
        <ele>97.7</ele>
        <time>2024-07-10T13:36:57Z</time>
      </trkpt>
      <trkpt lat="49.83135" lon="2.49977">
        <ele>97.7</ele>
        <time>2024-07-10T13:36:58Z</time>
      </trkpt>
      <trkpt lat="49.83135" lon="2.49976">
        <ele>97.7</ele>
        <time>2024-07-10T13:36:59Z</time>
      </trkpt>
      <trkpt lat="49.83135" lon="2.49975">
        <ele>97.7</ele>
        <time>2024-07-10T13:37:00Z</time>
      </trkpt>
      <trkpt lat="49.83135" lon="2.49973">
        <ele>97.7</ele>
        <time>2024-07-10T13:37:01Z</time>
      </trkpt>
      <trkpt lat="49.83136" lon="2.49972">
        <ele>97.7</ele>
        <time>2024-07-10T13:37:02Z</time>
      </trkpt>
      <trkpt lat="49.83136" lon="2.4997">
        <ele>97.7</ele>
        <time>2024-07-10T13:37:03Z</time>
      </trkpt>
      <trkpt lat="49.83136" lon="2.49968">
        <ele>97.7</ele>
        <time>2024-07-10T13:37:04Z</time>
      </trkpt>
      <trkpt lat="49.83136" lon="2.49966">
        <ele>97.7</ele>
        <time>2024-07-10T13:37:05Z</time>
      </trkpt>
      <trkpt lat="49.83137" lon="2.49965">
        <ele>97.7</ele>
        <time>2024-07-10T13:37:06Z</time>
      </trkpt>
      <trkpt lat="49.83137" lon="2.49963">
        <ele>97.7</ele>
        <time>2024-07-10T13:37:07Z</time>
      </trkpt>
      <trkpt lat="49.83137" lon="2.49961">
        <ele>97.7</ele>
        <time>2024-07-10T13:37:08Z</time>
      </trkpt>
      <trkpt lat="49.83137" lon="2.49959">
        <ele>97.7</ele>
        <time>2024-07-10T13:37:09Z</time>
      </trkpt>
      <trkpt lat="49.83138" lon="2.49957">
        <ele>97.7</ele>
        <time>2024-07-10T13:37:10Z</time>
      </trkpt>
      <trkpt lat="49.83138" lon="2.49956">
        <ele>97.7</ele>
        <time>2024-07-10T13:37:11Z</time>
      </trkpt>
      <trkpt lat="49.83138" lon="2.49954">
        <ele>97.7</ele>
        <time>2024-07-10T13:37:12Z</time>
      </trkpt>
      <trkpt lat="49.83138" lon="2.49952">
        <ele>97.7</ele>
        <time>2024-07-10T13:37:13Z</time>
      </trkpt>
      <trkpt lat="49.83139" lon="2.49951">
        <ele>97.8</ele>
        <time>2024-07-10T13:37:14Z</time>
      </trkpt>
      <trkpt lat="49.83139" lon="2.49949">
        <ele>97.8</ele>
        <time>2024-07-10T13:37:15Z</time>
      </trkpt>
      <trkpt lat="49.83139" lon="2.49947">
        <ele>97.8</ele>
        <time>2024-07-10T13:37:16Z</time>
      </trkpt>
      <trkpt lat="49.8314" lon="2.49946">
        <ele>97.8</ele>
        <time>2024-07-10T13:37:17Z</time>
      </trkpt>
      <trkpt lat="49.8314" lon="2.49944">
        <ele>97.8</ele>
        <time>2024-07-10T13:37:18Z</time>
      </trkpt>
      <trkpt lat="49.8314" lon="2.49942">
        <ele>97.8</ele>
        <time>2024-07-10T13:37:19Z</time>
      </trkpt>
      <trkpt lat="49.8314" lon="2.4994">
        <ele>97.8</ele>
        <time>2024-07-10T13:37:20Z</time>
      </trkpt>
      <trkpt lat="49.8314" lon="2.49939">
        <ele>97.8</ele>
        <time>2024-07-10T13:37:21Z</time>
      </trkpt>
      <trkpt lat="49.83141" lon="2.49937">
        <ele>97.8</ele>
        <time>2024-07-10T13:37:22Z</time>
      </trkpt>
      <trkpt lat="49.83141" lon="2.49935">
        <ele>97.8</ele>
        <time>2024-07-10T13:37:23Z</time>
      </trkpt>
      <trkpt lat="49.83141" lon="2.49934">
        <ele>97.9</ele>
        <time>2024-07-10T13:37:24Z</time>
      </trkpt>
      <trkpt lat="49.83141" lon="2.49932">
        <ele>97.9</ele>
        <time>2024-07-10T13:37:25Z</time>
      </trkpt>
      <trkpt lat="49.83142" lon="2.49931">
        <ele>97.9</ele>
        <time>2024-07-10T13:37:26Z</time>
      </trkpt>
      <trkpt lat="49.83142" lon="2.49929">
        <ele>97.9</ele>
        <time>2024-07-10T13:37:27Z</time>
      </trkpt>
      <trkpt lat="49.83142" lon="2.49928">
        <ele>97.9</ele>
        <time>2024-07-10T13:37:28Z</time>
      </trkpt>
      <trkpt lat="49.83142" lon="2.49926">
        <ele>97.9</ele>
        <time>2024-07-10T13:37:29Z</time>
      </trkpt>
      <trkpt lat="49.83143" lon="2.49924">
        <ele>97.9</ele>
        <time>2024-07-10T13:37:30Z</time>
      </trkpt>
      <trkpt lat="49.83143" lon="2.49923">
        <ele>97.9</ele>
        <time>2024-07-10T13:37:31Z</time>
      </trkpt>
      <trkpt lat="49.83143" lon="2.49921">
        <ele>97.9</ele>
        <time>2024-07-10T13:37:32Z</time>
      </trkpt>
      <trkpt lat="49.83143" lon="2.4992">
        <ele>97.9</ele>
        <time>2024-07-10T13:37:33Z</time>
      </trkpt>
      <trkpt lat="49.83143" lon="2.49918">
        <ele>97.9</ele>
        <time>2024-07-10T13:37:34Z</time>
      </trkpt>
      <trkpt lat="49.83144" lon="2.49916">
        <ele>98</ele>
        <time>2024-07-10T13:37:35Z</time>
      </trkpt>
      <trkpt lat="49.83144" lon="2.49915">
        <ele>98</ele>
        <time>2024-07-10T13:37:36Z</time>
      </trkpt>
      <trkpt lat="49.83144" lon="2.49913">
        <ele>98</ele>
        <time>2024-07-10T13:37:37Z</time>
      </trkpt>
      <trkpt lat="49.83144" lon="2.49911">
        <ele>98</ele>
        <time>2024-07-10T13:37:38Z</time>
      </trkpt>
      <trkpt lat="49.83145" lon="2.4991">
        <ele>98</ele>
        <time>2024-07-10T13:37:39Z</time>
      </trkpt>
      <trkpt lat="49.83145" lon="2.49908">
        <ele>98</ele>
        <time>2024-07-10T13:37:40Z</time>
      </trkpt>
      <trkpt lat="49.83145" lon="2.49907">
        <ele>98</ele>
        <time>2024-07-10T13:37:41Z</time>
      </trkpt>
      <trkpt lat="49.83145" lon="2.49905">
        <ele>98</ele>
        <time>2024-07-10T13:37:42Z</time>
      </trkpt>
      <trkpt lat="49.83145" lon="2.49904">
        <ele>98</ele>
        <time>2024-07-10T13:37:43Z</time>
      </trkpt>
      <trkpt lat="49.83145" lon="2.49902">
        <ele>98</ele>
        <time>2024-07-10T13:37:44Z</time>
      </trkpt>
      <trkpt lat="49.83146" lon="2.49901">
        <ele>98</ele>
        <time>2024-07-10T13:37:45Z</time>
      </trkpt>
      <trkpt lat="49.83146" lon="2.49899">
        <ele>98.1</ele>
        <time>2024-07-10T13:37:46Z</time>
      </trkpt>
      <trkpt lat="49.83146" lon="2.49898">
        <ele>98.1</ele>
        <time>2024-07-10T13:37:47Z</time>
      </trkpt>
      <trkpt lat="49.83146" lon="2.49896">
        <ele>98.1</ele>
        <time>2024-07-10T13:37:48Z</time>
      </trkpt>
      <trkpt lat="49.83146" lon="2.49894">
        <ele>98.1</ele>
        <time>2024-07-10T13:37:49Z</time>
      </trkpt>
      <trkpt lat="49.83146" lon="2.49893">
        <ele>98.1</ele>
        <time>2024-07-10T13:37:50Z</time>
      </trkpt>
      <trkpt lat="49.83147" lon="2.49891">
        <ele>98.1</ele>
        <time>2024-07-10T13:37:51Z</time>
      </trkpt>
      <trkpt lat="49.83147" lon="2.4989">
        <ele>98.1</ele>
        <time>2024-07-10T13:37:52Z</time>
      </trkpt>
      <trkpt lat="49.83147" lon="2.49888">
        <ele>98.1</ele>
        <time>2024-07-10T13:37:53Z</time>
      </trkpt>
      <trkpt lat="49.83148" lon="2.49886">
        <ele>98.2</ele>
        <time>2024-07-10T13:37:54Z</time>
      </trkpt>
      <trkpt lat="49.83148" lon="2.49885">
        <ele>98.2</ele>
        <time>2024-07-10T13:37:55Z</time>
      </trkpt>
      <trkpt lat="49.83148" lon="2.49883">
        <ele>98.2</ele>
        <time>2024-07-10T13:37:56Z</time>
      </trkpt>
      <trkpt lat="49.83148" lon="2.49881">
        <ele>98.2</ele>
        <time>2024-07-10T13:37:57Z</time>
      </trkpt>
      <trkpt lat="49.83149" lon="2.49879">
        <ele>98.2</ele>
        <time>2024-07-10T13:37:58Z</time>
      </trkpt>
      <trkpt lat="49.83149" lon="2.49878">
        <ele>98.2</ele>
        <time>2024-07-10T13:37:59Z</time>
      </trkpt>
      <trkpt lat="49.8315" lon="2.49877">
        <ele>98.2</ele>
        <time>2024-07-10T13:38:00Z</time>
      </trkpt>
      <trkpt lat="49.8315" lon="2.49875">
        <ele>98.3</ele>
        <time>2024-07-10T13:38:01Z</time>
      </trkpt>
      <trkpt lat="49.8315" lon="2.49874">
        <ele>98.3</ele>
        <time>2024-07-10T13:38:02Z</time>
      </trkpt>
      <trkpt lat="49.8315" lon="2.49872">
        <ele>98.3</ele>
        <time>2024-07-10T13:38:03Z</time>
      </trkpt>
      <trkpt lat="49.83151" lon="2.4987">
        <ele>98.3</ele>
        <time>2024-07-10T13:38:04Z</time>
      </trkpt>
      <trkpt lat="49.83151" lon="2.49869">
        <ele>98.3</ele>
        <time>2024-07-10T13:38:05Z</time>
      </trkpt>
      <trkpt lat="49.83151" lon="2.49867">
        <ele>98.3</ele>
        <time>2024-07-10T13:38:06Z</time>
      </trkpt>
      <trkpt lat="49.83152" lon="2.49865">
        <ele>98.3</ele>
        <time>2024-07-10T13:38:07Z</time>
      </trkpt>
      <trkpt lat="49.83152" lon="2.49864">
        <ele>98.4</ele>
        <time>2024-07-10T13:38:08Z</time>
      </trkpt>
      <trkpt lat="49.83152" lon="2.49862">
        <ele>98.4</ele>
        <time>2024-07-10T13:38:09Z</time>
      </trkpt>
      <trkpt lat="49.83153" lon="2.49861">
        <ele>98.4</ele>
        <time>2024-07-10T13:38:10Z</time>
      </trkpt>
      <trkpt lat="49.83153" lon="2.49859">
        <ele>98.4</ele>
        <time>2024-07-10T13:38:11Z</time>
      </trkpt>
      <trkpt lat="49.83153" lon="2.49857">
        <ele>98.4</ele>
        <time>2024-07-10T13:38:12Z</time>
      </trkpt>
      <trkpt lat="49.83153" lon="2.49855">
        <ele>98.4</ele>
        <time>2024-07-10T13:38:13Z</time>
      </trkpt>
      <trkpt lat="49.83154" lon="2.49854">
        <ele>98.4</ele>
        <time>2024-07-10T13:38:14Z</time>
      </trkpt>
      <trkpt lat="49.83154" lon="2.49852">
        <ele>98.5</ele>
        <time>2024-07-10T13:38:15Z</time>
      </trkpt>
      <trkpt lat="49.83154" lon="2.4985">
        <ele>98.5</ele>
        <time>2024-07-10T13:38:16Z</time>
      </trkpt>
      <trkpt lat="49.83155" lon="2.49849">
        <ele>98.5</ele>
        <time>2024-07-10T13:38:17Z</time>
      </trkpt>
      <trkpt lat="49.83155" lon="2.49847">
        <ele>98.5</ele>
        <time>2024-07-10T13:38:18Z</time>
      </trkpt>
      <trkpt lat="49.83155" lon="2.49845">
        <ele>98.5</ele>
        <time>2024-07-10T13:38:19Z</time>
      </trkpt>
      <trkpt lat="49.83156" lon="2.49844">
        <ele>98.5</ele>
        <time>2024-07-10T13:38:20Z</time>
      </trkpt>
      <trkpt lat="49.83156" lon="2.49842">
        <ele>98.5</ele>
        <time>2024-07-10T13:38:21Z</time>
      </trkpt>
      <trkpt lat="49.83156" lon="2.4984">
        <ele>98.5</ele>
        <time>2024-07-10T13:38:22Z</time>
      </trkpt>
      <trkpt lat="49.83156" lon="2.49839">
        <ele>98.6</ele>
        <time>2024-07-10T13:38:23Z</time>
      </trkpt>
      <trkpt lat="49.83156" lon="2.49837">
        <ele>98.6</ele>
        <time>2024-07-10T13:38:24Z</time>
      </trkpt>
      <trkpt lat="49.83156" lon="2.49835">
        <ele>98.6</ele>
        <time>2024-07-10T13:38:25Z</time>
      </trkpt>
      <trkpt lat="49.83156" lon="2.49834">
        <ele>98.6</ele>
        <time>2024-07-10T13:38:26Z</time>
      </trkpt>
      <trkpt lat="49.83156" lon="2.49832">
        <ele>98.6</ele>
        <time>2024-07-10T13:38:27Z</time>
      </trkpt>
      <trkpt lat="49.83157" lon="2.49831">
        <ele>98.6</ele>
        <time>2024-07-10T13:38:28Z</time>
      </trkpt>
      <trkpt lat="49.83157" lon="2.49829">
        <ele>98.6</ele>
        <time>2024-07-10T13:38:29Z</time>
      </trkpt>
      <trkpt lat="49.83157" lon="2.49827">
        <ele>98.6</ele>
        <time>2024-07-10T13:38:30Z</time>
      </trkpt>
      <trkpt lat="49.83157" lon="2.49826">
        <ele>98.7</ele>
        <time>2024-07-10T13:38:31Z</time>
      </trkpt>
      <trkpt lat="49.83158" lon="2.49824">
        <ele>98.7</ele>
        <time>2024-07-10T13:38:32Z</time>
      </trkpt>
      <trkpt lat="49.83158" lon="2.49822">
        <ele>98.7</ele>
        <time>2024-07-10T13:38:33Z</time>
      </trkpt>
      <trkpt lat="49.83158" lon="2.49821">
        <ele>98.7</ele>
        <time>2024-07-10T13:38:34Z</time>
      </trkpt>
      <trkpt lat="49.83159" lon="2.49819">
        <ele>98.7</ele>
        <time>2024-07-10T13:38:35Z</time>
      </trkpt>
      <trkpt lat="49.83159" lon="2.49818">
        <ele>98.7</ele>
        <time>2024-07-10T13:38:36Z</time>
      </trkpt>
      <trkpt lat="49.83159" lon="2.49816">
        <ele>98.7</ele>
        <time>2024-07-10T13:38:37Z</time>
      </trkpt>
      <trkpt lat="49.83159" lon="2.49814">
        <ele>98.7</ele>
        <time>2024-07-10T13:38:38Z</time>
      </trkpt>
      <trkpt lat="49.8316" lon="2.49813">
        <ele>98.8</ele>
        <time>2024-07-10T13:38:39Z</time>
      </trkpt>
      <trkpt lat="49.8316" lon="2.49811">
        <ele>98.8</ele>
        <time>2024-07-10T13:38:40Z</time>
      </trkpt>
      <trkpt lat="49.8316" lon="2.49809">
        <ele>98.8</ele>
        <time>2024-07-10T13:38:41Z</time>
      </trkpt>
      <trkpt lat="49.83161" lon="2.49808">
        <ele>98.8</ele>
        <time>2024-07-10T13:38:42Z</time>
      </trkpt>
      <trkpt lat="49.83161" lon="2.49806">
        <ele>98.8</ele>
        <time>2024-07-10T13:38:43Z</time>
      </trkpt>
      <trkpt lat="49.83161" lon="2.49805">
        <ele>98.8</ele>
        <time>2024-07-10T13:38:44Z</time>
      </trkpt>
      <trkpt lat="49.83161" lon="2.49803">
        <ele>98.8</ele>
        <time>2024-07-10T13:38:45Z</time>
      </trkpt>
      <trkpt lat="49.83162" lon="2.49802">
        <ele>98.9</ele>
        <time>2024-07-10T13:38:46Z</time>
      </trkpt>
      <trkpt lat="49.83162" lon="2.498">
        <ele>98.9</ele>
        <time>2024-07-10T13:38:47Z</time>
      </trkpt>
      <trkpt lat="49.83162" lon="2.49799">
        <ele>98.9</ele>
        <time>2024-07-10T13:38:48Z</time>
      </trkpt>
      <trkpt lat="49.83163" lon="2.49797">
        <ele>98.9</ele>
        <time>2024-07-10T13:38:49Z</time>
      </trkpt>
      <trkpt lat="49.83163" lon="2.49796">
        <ele>98.9</ele>
        <time>2024-07-10T13:38:50Z</time>
      </trkpt>
      <trkpt lat="49.83164" lon="2.49795">
        <ele>98.9</ele>
        <time>2024-07-10T13:38:51Z</time>
      </trkpt>
      <trkpt lat="49.83164" lon="2.49793">
        <ele>99</ele>
        <time>2024-07-10T13:38:52Z</time>
      </trkpt>
      <trkpt lat="49.83164" lon="2.49792">
        <ele>99</ele>
        <time>2024-07-10T13:38:53Z</time>
      </trkpt>
      <trkpt lat="49.83165" lon="2.4979">
        <ele>99</ele>
        <time>2024-07-10T13:38:54Z</time>
      </trkpt>
      <trkpt lat="49.83165" lon="2.49789">
        <ele>99</ele>
        <time>2024-07-10T13:38:55Z</time>
      </trkpt>
      <trkpt lat="49.83165" lon="2.49788">
        <ele>99</ele>
        <time>2024-07-10T13:38:56Z</time>
      </trkpt>
      <trkpt lat="49.83165" lon="2.49786">
        <ele>99</ele>
        <time>2024-07-10T13:38:57Z</time>
      </trkpt>
      <trkpt lat="49.83165" lon="2.49784">
        <ele>99</ele>
        <time>2024-07-10T13:38:58Z</time>
      </trkpt>
      <trkpt lat="49.83166" lon="2.49783">
        <ele>99.1</ele>
        <time>2024-07-10T13:38:59Z</time>
      </trkpt>
      <trkpt lat="49.83166" lon="2.49781">
        <ele>99.1</ele>
        <time>2024-07-10T13:39:00Z</time>
      </trkpt>
      <trkpt lat="49.83166" lon="2.4978">
        <ele>99.1</ele>
        <time>2024-07-10T13:39:01Z</time>
      </trkpt>
      <trkpt lat="49.83166" lon="2.49778">
        <ele>99.1</ele>
        <time>2024-07-10T13:39:02Z</time>
      </trkpt>
      <trkpt lat="49.83167" lon="2.49776">
        <ele>99.1</ele>
        <time>2024-07-10T13:39:03Z</time>
      </trkpt>
      <trkpt lat="49.83167" lon="2.49775">
        <ele>99.1</ele>
        <time>2024-07-10T13:39:04Z</time>
      </trkpt>
      <trkpt lat="49.83167" lon="2.49773">
        <ele>99.2</ele>
        <time>2024-07-10T13:39:05Z</time>
      </trkpt>
      <trkpt lat="49.83168" lon="2.49772">
        <ele>99.2</ele>
        <time>2024-07-10T13:39:06Z</time>
      </trkpt>
      <trkpt lat="49.83168" lon="2.4977">
        <ele>99.2</ele>
        <time>2024-07-10T13:39:07Z</time>
      </trkpt>
      <trkpt lat="49.83168" lon="2.49769">
        <ele>99.2</ele>
        <time>2024-07-10T13:39:08Z</time>
      </trkpt>
      <trkpt lat="49.83169" lon="2.49767">
        <ele>99.2</ele>
        <time>2024-07-10T13:39:09Z</time>
      </trkpt>
      <trkpt lat="49.83169" lon="2.49766">
        <ele>99.2</ele>
        <time>2024-07-10T13:39:10Z</time>
      </trkpt>
      <trkpt lat="49.83169" lon="2.49764">
        <ele>99.3</ele>
        <time>2024-07-10T13:39:11Z</time>
      </trkpt>
      <trkpt lat="49.83169" lon="2.49763">
        <ele>99.3</ele>
        <time>2024-07-10T13:39:12Z</time>
      </trkpt>
      <trkpt lat="49.8317" lon="2.49761">
        <ele>99.3</ele>
        <time>2024-07-10T13:39:13Z</time>
      </trkpt>
      <trkpt lat="49.8317" lon="2.49759">
        <ele>99.3</ele>
        <time>2024-07-10T13:39:14Z</time>
      </trkpt>
      <trkpt lat="49.8317" lon="2.49758">
        <ele>99.3</ele>
        <time>2024-07-10T13:39:15Z</time>
      </trkpt>
      <trkpt lat="49.8317" lon="2.49756">
        <ele>99.3</ele>
        <time>2024-07-10T13:39:16Z</time>
      </trkpt>
      <trkpt lat="49.83171" lon="2.49754">
        <ele>99.4</ele>
        <time>2024-07-10T13:39:17Z</time>
      </trkpt>
      <trkpt lat="49.83171" lon="2.49753">
        <ele>99.4</ele>
        <time>2024-07-10T13:39:18Z</time>
      </trkpt>
      <trkpt lat="49.83171" lon="2.49751">
        <ele>99.4</ele>
        <time>2024-07-10T13:39:19Z</time>
      </trkpt>
      <trkpt lat="49.83171" lon="2.49749">
        <ele>99.4</ele>
        <time>2024-07-10T13:39:20Z</time>
      </trkpt>
      <trkpt lat="49.83171" lon="2.49748">
        <ele>99.4</ele>
        <time>2024-07-10T13:39:21Z</time>
      </trkpt>
      <trkpt lat="49.83171" lon="2.49746">
        <ele>99.4</ele>
        <time>2024-07-10T13:39:22Z</time>
      </trkpt>
      <trkpt lat="49.83172" lon="2.49744">
        <ele>99.5</ele>
        <time>2024-07-10T13:39:23Z</time>
      </trkpt>
      <trkpt lat="49.83172" lon="2.49743">
        <ele>99.5</ele>
        <time>2024-07-10T13:39:24Z</time>
      </trkpt>
      <trkpt lat="49.83172" lon="2.49741">
        <ele>99.5</ele>
        <time>2024-07-10T13:39:25Z</time>
      </trkpt>
      <trkpt lat="49.83172" lon="2.4974">
        <ele>99.5</ele>
        <time>2024-07-10T13:39:26Z</time>
      </trkpt>
      <trkpt lat="49.83173" lon="2.49738">
        <ele>99.5</ele>
        <time>2024-07-10T13:39:27Z</time>
      </trkpt>
      <trkpt lat="49.83173" lon="2.49737">
        <ele>99.6</ele>
        <time>2024-07-10T13:39:28Z</time>
      </trkpt>
      <trkpt lat="49.83173" lon="2.49735">
        <ele>99.6</ele>
        <time>2024-07-10T13:39:29Z</time>
      </trkpt>
      <trkpt lat="49.83173" lon="2.49733">
        <ele>99.6</ele>
        <time>2024-07-10T13:39:30Z</time>
      </trkpt>
      <trkpt lat="49.83174" lon="2.49731">
        <ele>99.6</ele>
        <time>2024-07-10T13:39:31Z</time>
      </trkpt>
      <trkpt lat="49.83174" lon="2.4973">
        <ele>99.7</ele>
        <time>2024-07-10T13:39:32Z</time>
      </trkpt>
      <trkpt lat="49.83174" lon="2.49729">
        <ele>99.7</ele>
        <time>2024-07-10T13:39:33Z</time>
      </trkpt>
      <trkpt lat="49.83175" lon="2.49727">
        <ele>99.7</ele>
        <time>2024-07-10T13:39:34Z</time>
      </trkpt>
      <trkpt lat="49.83175" lon="2.49726">
        <ele>99.7</ele>
        <time>2024-07-10T13:39:35Z</time>
      </trkpt>
      <trkpt lat="49.83175" lon="2.49724">
        <ele>99.7</ele>
        <time>2024-07-10T13:39:36Z</time>
      </trkpt>
      <trkpt lat="49.83175" lon="2.49723">
        <ele>99.7</ele>
        <time>2024-07-10T13:39:37Z</time>
      </trkpt>
      <trkpt lat="49.83176" lon="2.49721">
        <ele>99.8</ele>
        <time>2024-07-10T13:39:38Z</time>
      </trkpt>
      <trkpt lat="49.83176" lon="2.4972">
        <ele>99.8</ele>
        <time>2024-07-10T13:39:39Z</time>
      </trkpt>
      <trkpt lat="49.83176" lon="2.49718">
        <ele>99.8</ele>
        <time>2024-07-10T13:39:40Z</time>
      </trkpt>
      <trkpt lat="49.83176" lon="2.49717">
        <ele>99.8</ele>
        <time>2024-07-10T13:39:41Z</time>
      </trkpt>
      <trkpt lat="49.83176" lon="2.49715">
        <ele>99.8</ele>
        <time>2024-07-10T13:39:42Z</time>
      </trkpt>
      <trkpt lat="49.83176" lon="2.49714">
        <ele>99.9</ele>
        <time>2024-07-10T13:39:43Z</time>
      </trkpt>
      <trkpt lat="49.83177" lon="2.49712">
        <ele>99.9</ele>
        <time>2024-07-10T13:39:44Z</time>
      </trkpt>
      <trkpt lat="49.83177" lon="2.49711">
        <ele>99.9</ele>
        <time>2024-07-10T13:39:45Z</time>
      </trkpt>
      <trkpt lat="49.83177" lon="2.49709">
        <ele>99.9</ele>
        <time>2024-07-10T13:39:46Z</time>
      </trkpt>
      <trkpt lat="49.83177" lon="2.49708">
        <ele>99.9</ele>
        <time>2024-07-10T13:39:47Z</time>
      </trkpt>
      <trkpt lat="49.83177" lon="2.49706">
        <ele>100</ele>
        <time>2024-07-10T13:39:48Z</time>
      </trkpt>
      <trkpt lat="49.83178" lon="2.49705">
        <ele>100</ele>
        <time>2024-07-10T13:39:49Z</time>
      </trkpt>
      <trkpt lat="49.83178" lon="2.49703">
        <ele>100</ele>
        <time>2024-07-10T13:39:50Z</time>
      </trkpt>
      <trkpt lat="49.83178" lon="2.49702">
        <ele>100</ele>
        <time>2024-07-10T13:39:51Z</time>
      </trkpt>
      <trkpt lat="49.83179" lon="2.497">
        <ele>100</ele>
        <time>2024-07-10T13:39:52Z</time>
      </trkpt>
      <trkpt lat="49.83179" lon="2.49699">
        <ele>100</ele>
        <time>2024-07-10T13:39:53Z</time>
      </trkpt>
      <trkpt lat="49.83179" lon="2.49697">
        <ele>100.1</ele>
        <time>2024-07-10T13:39:54Z</time>
      </trkpt>
      <trkpt lat="49.83179" lon="2.49696">
        <ele>100.1</ele>
        <time>2024-07-10T13:39:55Z</time>
      </trkpt>
      <trkpt lat="49.83179" lon="2.49694">
        <ele>100.1</ele>
        <time>2024-07-10T13:39:56Z</time>
      </trkpt>
      <trkpt lat="49.83179" lon="2.49692">
        <ele>100.1</ele>
        <time>2024-07-10T13:39:57Z</time>
      </trkpt>
      <trkpt lat="49.8318" lon="2.49691">
        <ele>100.1</ele>
        <time>2024-07-10T13:39:58Z</time>
      </trkpt>
      <trkpt lat="49.8318" lon="2.49689">
        <ele>100.1</ele>
        <time>2024-07-10T13:39:59Z</time>
      </trkpt>
      <trkpt lat="49.8318" lon="2.49688">
        <ele>100.2</ele>
        <time>2024-07-10T13:40:00Z</time>
      </trkpt>
      <trkpt lat="49.83181" lon="2.49687">
        <ele>100.2</ele>
        <time>2024-07-10T13:40:01Z</time>
      </trkpt>
      <trkpt lat="49.83181" lon="2.49685">
        <ele>100.2</ele>
        <time>2024-07-10T13:40:02Z</time>
      </trkpt>
      <trkpt lat="49.83181" lon="2.49684">
        <ele>100.2</ele>
        <time>2024-07-10T13:40:03Z</time>
      </trkpt>
      <trkpt lat="49.83182" lon="2.49683">
        <ele>100.2</ele>
        <time>2024-07-10T13:40:04Z</time>
      </trkpt>
      <trkpt lat="49.83182" lon="2.49681">
        <ele>100.2</ele>
        <time>2024-07-10T13:40:05Z</time>
      </trkpt>
      <trkpt lat="49.83182" lon="2.4968">
        <ele>100.3</ele>
        <time>2024-07-10T13:40:06Z</time>
      </trkpt>
      <trkpt lat="49.83183" lon="2.49679">
        <ele>100.3</ele>
        <time>2024-07-10T13:40:07Z</time>
      </trkpt>
      <trkpt lat="49.83183" lon="2.49677">
        <ele>100.3</ele>
        <time>2024-07-10T13:40:08Z</time>
      </trkpt>
      <trkpt lat="49.83183" lon="2.49676">
        <ele>100.3</ele>
        <time>2024-07-10T13:40:09Z</time>
      </trkpt>
      <trkpt lat="49.83184" lon="2.49675">
        <ele>100.3</ele>
        <time>2024-07-10T13:40:10Z</time>
      </trkpt>
      <trkpt lat="49.83184" lon="2.49673">
        <ele>100.3</ele>
        <time>2024-07-10T13:40:11Z</time>
      </trkpt>
      <trkpt lat="49.83185" lon="2.49672">
        <ele>100.3</ele>
        <time>2024-07-10T13:40:12Z</time>
      </trkpt>
      <trkpt lat="49.83185" lon="2.49671">
        <ele>100.3</ele>
        <time>2024-07-10T13:40:13Z</time>
      </trkpt>
      <trkpt lat="49.83186" lon="2.4967">
        <ele>100.4</ele>
        <time>2024-07-10T13:40:14Z</time>
      </trkpt>
      <trkpt lat="49.83187" lon="2.49668">
        <ele>100.4</ele>
        <time>2024-07-10T13:40:15Z</time>
      </trkpt>
      <trkpt lat="49.83187" lon="2.49667">
        <ele>100.4</ele>
        <time>2024-07-10T13:40:16Z</time>
      </trkpt>
      <trkpt lat="49.83187" lon="2.49666">
        <ele>100.4</ele>
        <time>2024-07-10T13:40:17Z</time>
      </trkpt>
      <trkpt lat="49.83188" lon="2.49665">
        <ele>100.4</ele>
        <time>2024-07-10T13:40:18Z</time>
      </trkpt>
      <trkpt lat="49.83188" lon="2.49663">
        <ele>100.4</ele>
        <time>2024-07-10T13:40:19Z</time>
      </trkpt>
      <trkpt lat="49.83189" lon="2.49662">
        <ele>100.4</ele>
        <time>2024-07-10T13:40:20Z</time>
      </trkpt>
      <trkpt lat="49.83189" lon="2.49661">
        <ele>100.4</ele>
        <time>2024-07-10T13:40:21Z</time>
      </trkpt>
      <trkpt lat="49.8319" lon="2.4966">
        <ele>100.5</ele>
        <time>2024-07-10T13:40:22Z</time>
      </trkpt>
      <trkpt lat="49.8319" lon="2.49659">
        <ele>100.5</ele>
        <time>2024-07-10T13:40:23Z</time>
      </trkpt>
      <trkpt lat="49.83191" lon="2.49657">
        <ele>100.5</ele>
        <time>2024-07-10T13:40:24Z</time>
      </trkpt>
      <trkpt lat="49.83191" lon="2.49656">
        <ele>100.5</ele>
        <time>2024-07-10T13:40:25Z</time>
      </trkpt>
      <trkpt lat="49.83192" lon="2.49655">
        <ele>100.5</ele>
        <time>2024-07-10T13:40:26Z</time>
      </trkpt>
      <trkpt lat="49.83192" lon="2.49653">
        <ele>100.5</ele>
        <time>2024-07-10T13:40:27Z</time>
      </trkpt>
      <trkpt lat="49.83193" lon="2.49651">
        <ele>100.5</ele>
        <time>2024-07-10T13:40:28Z</time>
      </trkpt>
      <trkpt lat="49.83193" lon="2.4965">
        <ele>100.5</ele>
        <time>2024-07-10T13:40:29Z</time>
      </trkpt>
      <trkpt lat="49.83193" lon="2.49649">
        <ele>100.5</ele>
        <time>2024-07-10T13:40:30Z</time>
      </trkpt>
      <trkpt lat="49.83194" lon="2.49647">
        <ele>100.5</ele>
        <time>2024-07-10T13:40:31Z</time>
      </trkpt>
      <trkpt lat="49.83194" lon="2.49646">
        <ele>100.5</ele>
        <time>2024-07-10T13:40:32Z</time>
      </trkpt>
      <trkpt lat="49.83195" lon="2.49644">
        <ele>100.5</ele>
        <time>2024-07-10T13:40:33Z</time>
      </trkpt>
      <trkpt lat="49.83195" lon="2.49643">
        <ele>100.6</ele>
        <time>2024-07-10T13:40:34Z</time>
      </trkpt>
      <trkpt lat="49.83196" lon="2.49641">
        <ele>100.6</ele>
        <time>2024-07-10T13:40:35Z</time>
      </trkpt>
      <trkpt lat="49.83196" lon="2.4964">
        <ele>100.6</ele>
        <time>2024-07-10T13:40:36Z</time>
      </trkpt>
      <trkpt lat="49.83197" lon="2.49639">
        <ele>100.6</ele>
        <time>2024-07-10T13:40:37Z</time>
      </trkpt>
      <trkpt lat="49.83198" lon="2.49638">
        <ele>100.6</ele>
        <time>2024-07-10T13:40:38Z</time>
      </trkpt>
      <trkpt lat="49.83198" lon="2.49636">
        <ele>100.6</ele>
        <time>2024-07-10T13:40:39Z</time>
      </trkpt>
      <trkpt lat="49.83199" lon="2.49635">
        <ele>100.6</ele>
        <time>2024-07-10T13:40:40Z</time>
      </trkpt>
      <trkpt lat="49.832" lon="2.49634">
        <ele>100.6</ele>
        <time>2024-07-10T13:40:41Z</time>
      </trkpt>
      <trkpt lat="49.832" lon="2.49633">
        <ele>100.6</ele>
        <time>2024-07-10T13:40:42Z</time>
      </trkpt>
      <trkpt lat="49.83201" lon="2.49632">
        <ele>100.6</ele>
        <time>2024-07-10T13:40:43Z</time>
      </trkpt>
      <trkpt lat="49.83201" lon="2.4963">
        <ele>100.6</ele>
        <time>2024-07-10T13:40:44Z</time>
      </trkpt>
      <trkpt lat="49.83202" lon="2.49629">
        <ele>100.6</ele>
        <time>2024-07-10T13:40:45Z</time>
      </trkpt>
      <trkpt lat="49.83203" lon="2.49628">
        <ele>100.6</ele>
        <time>2024-07-10T13:40:46Z</time>
      </trkpt>
      <trkpt lat="49.83203" lon="2.49627">
        <ele>100.6</ele>
        <time>2024-07-10T13:40:47Z</time>
      </trkpt>
      <trkpt lat="49.83204" lon="2.49626">
        <ele>100.6</ele>
        <time>2024-07-10T13:40:48Z</time>
      </trkpt>
      <trkpt lat="49.83204" lon="2.49624">
        <ele>100.6</ele>
        <time>2024-07-10T13:40:49Z</time>
      </trkpt>
      <trkpt lat="49.83205" lon="2.49623">
        <ele>100.6</ele>
        <time>2024-07-10T13:40:50Z</time>
      </trkpt>
      <trkpt lat="49.83205" lon="2.49622">
        <ele>100.6</ele>
        <time>2024-07-10T13:40:51Z</time>
      </trkpt>
      <trkpt lat="49.83206" lon="2.49621">
        <ele>100.6</ele>
        <time>2024-07-10T13:40:52Z</time>
      </trkpt>
      <trkpt lat="49.83207" lon="2.49619">
        <ele>100.6</ele>
        <time>2024-07-10T13:40:53Z</time>
      </trkpt>
      <trkpt lat="49.83207" lon="2.49618">
        <ele>100.6</ele>
        <time>2024-07-10T13:40:54Z</time>
      </trkpt>
      <trkpt lat="49.83208" lon="2.49617">
        <ele>100.6</ele>
        <time>2024-07-10T13:40:55Z</time>
      </trkpt>
      <trkpt lat="49.83208" lon="2.49616">
        <ele>100.6</ele>
        <time>2024-07-10T13:40:56Z</time>
      </trkpt>
      <trkpt lat="49.83208" lon="2.49615">
        <ele>100.6</ele>
        <time>2024-07-10T13:40:57Z</time>
      </trkpt>
      <trkpt lat="49.83209" lon="2.49614">
        <ele>100.6</ele>
        <time>2024-07-10T13:40:58Z</time>
      </trkpt>
      <trkpt lat="49.83209" lon="2.49612">
        <ele>100.6</ele>
        <time>2024-07-10T13:40:59Z</time>
      </trkpt>
      <trkpt lat="49.83209" lon="2.49611">
        <ele>100.6</ele>
        <time>2024-07-10T13:41:00Z</time>
      </trkpt>
      <trkpt lat="49.8321" lon="2.4961">
        <ele>100.6</ele>
        <time>2024-07-10T13:41:01Z</time>
      </trkpt>
      <trkpt lat="49.8321" lon="2.49608">
        <ele>100.6</ele>
        <time>2024-07-10T13:41:02Z</time>
      </trkpt>
      <trkpt lat="49.83211" lon="2.49607">
        <ele>100.6</ele>
        <time>2024-07-10T13:41:03Z</time>
      </trkpt>
      <trkpt lat="49.83211" lon="2.49605">
        <ele>100.6</ele>
        <time>2024-07-10T13:41:04Z</time>
      </trkpt>
      <trkpt lat="49.83211" lon="2.49604">
        <ele>100.6</ele>
        <time>2024-07-10T13:41:05Z</time>
      </trkpt>
      <trkpt lat="49.83212" lon="2.49602">
        <ele>100.6</ele>
        <time>2024-07-10T13:41:06Z</time>
      </trkpt>
      <trkpt lat="49.83212" lon="2.496">
        <ele>100.6</ele>
        <time>2024-07-10T13:41:07Z</time>
      </trkpt>
      <trkpt lat="49.83213" lon="2.49599">
        <ele>100.6</ele>
        <time>2024-07-10T13:41:08Z</time>
      </trkpt>
      <trkpt lat="49.83213" lon="2.49597">
        <ele>100.6</ele>
        <time>2024-07-10T13:41:09Z</time>
      </trkpt>
      <trkpt lat="49.83213" lon="2.49596">
        <ele>100.6</ele>
        <time>2024-07-10T13:41:10Z</time>
      </trkpt>
      <trkpt lat="49.83214" lon="2.49595">
        <ele>100.6</ele>
        <time>2024-07-10T13:41:11Z</time>
      </trkpt>
      <trkpt lat="49.83214" lon="2.49593">
        <ele>100.6</ele>
        <time>2024-07-10T13:41:12Z</time>
      </trkpt>
      <trkpt lat="49.83214" lon="2.49592">
        <ele>100.6</ele>
        <time>2024-07-10T13:41:13Z</time>
      </trkpt>
      <trkpt lat="49.83215" lon="2.4959">
        <ele>100.6</ele>
        <time>2024-07-10T13:41:14Z</time>
      </trkpt>
      <trkpt lat="49.83215" lon="2.49588">
        <ele>100.6</ele>
        <time>2024-07-10T13:41:15Z</time>
      </trkpt>
      <trkpt lat="49.83215" lon="2.49587">
        <ele>100.6</ele>
        <time>2024-07-10T13:41:16Z</time>
      </trkpt>
      <trkpt lat="49.83216" lon="2.49585">
        <ele>100.6</ele>
        <time>2024-07-10T13:41:17Z</time>
      </trkpt>
      <trkpt lat="49.83216" lon="2.49584">
        <ele>100.6</ele>
        <time>2024-07-10T13:41:18Z</time>
      </trkpt>
      <trkpt lat="49.83216" lon="2.49582">
        <ele>100.6</ele>
        <time>2024-07-10T13:41:19Z</time>
      </trkpt>
      <trkpt lat="49.83216" lon="2.4958">
        <ele>100.6</ele>
        <time>2024-07-10T13:41:20Z</time>
      </trkpt>
      <trkpt lat="49.83216" lon="2.49579">
        <ele>100.6</ele>
        <time>2024-07-10T13:41:21Z</time>
      </trkpt>
      <trkpt lat="49.83217" lon="2.49577">
        <ele>100.6</ele>
        <time>2024-07-10T13:41:22Z</time>
      </trkpt>
      <trkpt lat="49.83217" lon="2.49576">
        <ele>100.6</ele>
        <time>2024-07-10T13:41:23Z</time>
      </trkpt>
      <trkpt lat="49.83217" lon="2.49574">
        <ele>100.6</ele>
        <time>2024-07-10T13:41:24Z</time>
      </trkpt>
      <trkpt lat="49.83218" lon="2.49573">
        <ele>100.6</ele>
        <time>2024-07-10T13:41:25Z</time>
      </trkpt>
      <trkpt lat="49.83218" lon="2.49571">
        <ele>100.6</ele>
        <time>2024-07-10T13:41:26Z</time>
      </trkpt>
      <trkpt lat="49.83218" lon="2.4957">
        <ele>100.6</ele>
        <time>2024-07-10T13:41:27Z</time>
      </trkpt>
      <trkpt lat="49.83219" lon="2.49568">
        <ele>100.6</ele>
        <time>2024-07-10T13:41:28Z</time>
      </trkpt>
      <trkpt lat="49.83219" lon="2.49567">
        <ele>100.6</ele>
        <time>2024-07-10T13:41:29Z</time>
      </trkpt>
      <trkpt lat="49.83219" lon="2.49565">
        <ele>100.6</ele>
        <time>2024-07-10T13:41:30Z</time>
      </trkpt>
      <trkpt lat="49.8322" lon="2.49564">
        <ele>100.6</ele>
        <time>2024-07-10T13:41:31Z</time>
      </trkpt>
      <trkpt lat="49.8322" lon="2.49562">
        <ele>100.6</ele>
        <time>2024-07-10T13:41:32Z</time>
      </trkpt>
      <trkpt lat="49.83221" lon="2.49561">
        <ele>100.6</ele>
        <time>2024-07-10T13:41:33Z</time>
      </trkpt>
      <trkpt lat="49.83221" lon="2.49559">
        <ele>100.6</ele>
        <time>2024-07-10T13:41:34Z</time>
      </trkpt>
      <trkpt lat="49.83221" lon="2.49558">
        <ele>100.6</ele>
        <time>2024-07-10T13:41:35Z</time>
      </trkpt>
      <trkpt lat="49.83222" lon="2.49557">
        <ele>100.6</ele>
        <time>2024-07-10T13:41:36Z</time>
      </trkpt>
      <trkpt lat="49.83222" lon="2.49555">
        <ele>100.6</ele>
        <time>2024-07-10T13:41:37Z</time>
      </trkpt>
      <trkpt lat="49.83222" lon="2.49554">
        <ele>100.5</ele>
        <time>2024-07-10T13:41:38Z</time>
      </trkpt>
      <trkpt lat="49.83223" lon="2.49552">
        <ele>100.5</ele>
        <time>2024-07-10T13:41:39Z</time>
      </trkpt>
      <trkpt lat="49.83223" lon="2.49551">
        <ele>100.5</ele>
        <time>2024-07-10T13:41:40Z</time>
      </trkpt>
      <trkpt lat="49.83224" lon="2.49549">
        <ele>100.5</ele>
        <time>2024-07-10T13:41:41Z</time>
      </trkpt>
      <trkpt lat="49.83224" lon="2.49548">
        <ele>100.5</ele>
        <time>2024-07-10T13:41:42Z</time>
      </trkpt>
      <trkpt lat="49.83225" lon="2.49547">
        <ele>100.5</ele>
        <time>2024-07-10T13:41:43Z</time>
      </trkpt>
      <trkpt lat="49.83225" lon="2.49546">
        <ele>100.5</ele>
        <time>2024-07-10T13:41:44Z</time>
      </trkpt>
      <trkpt lat="49.83225" lon="2.49545">
        <ele>100.5</ele>
        <time>2024-07-10T13:41:45Z</time>
      </trkpt>
      <trkpt lat="49.83226" lon="2.49543">
        <ele>100.5</ele>
        <time>2024-07-10T13:41:46Z</time>
      </trkpt>
      <trkpt lat="49.83226" lon="2.49542">
        <ele>100.5</ele>
        <time>2024-07-10T13:41:47Z</time>
      </trkpt>
      <trkpt lat="49.83227" lon="2.49541">
        <ele>100.5</ele>
        <time>2024-07-10T13:41:48Z</time>
      </trkpt>
      <trkpt lat="49.83227" lon="2.4954">
        <ele>100.5</ele>
        <time>2024-07-10T13:41:49Z</time>
      </trkpt>
      <trkpt lat="49.83227" lon="2.49538">
        <ele>100.5</ele>
        <time>2024-07-10T13:41:50Z</time>
      </trkpt>
      <trkpt lat="49.83228" lon="2.49537">
        <ele>100.5</ele>
        <time>2024-07-10T13:41:51Z</time>
      </trkpt>
      <trkpt lat="49.83229" lon="2.49537">
        <ele>100.5</ele>
        <time>2024-07-10T13:41:52Z</time>
      </trkpt>
      <trkpt lat="49.8323" lon="2.49538">
        <ele>100.5</ele>
        <time>2024-07-10T13:41:53Z</time>
      </trkpt>
      <trkpt lat="49.8323" lon="2.49538">
        <ele>100.5</ele>
        <time>2024-07-10T13:41:54Z</time>
      </trkpt>
      <trkpt lat="49.83231" lon="2.49538">
        <ele>100.5</ele>
        <time>2024-07-10T13:41:55Z</time>
      </trkpt>
      <trkpt lat="49.83231" lon="2.49538">
        <ele>100.5</ele>
        <time>2024-07-10T13:41:56Z</time>
      </trkpt>
      <trkpt lat="49.83231" lon="2.49537">
        <ele>100.5</ele>
        <time>2024-07-10T13:41:57Z</time>
      </trkpt>
      <trkpt lat="49.83231" lon="2.49537">
        <ele>100.5</ele>
        <time>2024-07-10T13:41:58Z</time>
      </trkpt>
      <trkpt lat="49.83231" lon="2.49537">
        <ele>100.5</ele>
        <time>2024-07-10T13:41:59Z</time>
      </trkpt>
      <trkpt lat="49.83231" lon="2.49537">
        <ele>100.5</ele>
        <time>2024-07-10T13:42:00Z</time>
      </trkpt>
      <trkpt lat="49.83231" lon="2.49537">
        <ele>100.5</ele>
        <time>2024-07-10T13:42:01Z</time>
      </trkpt>
      <trkpt lat="49.83231" lon="2.49537">
        <ele>100.5</ele>
        <time>2024-07-10T13:42:02Z</time>
      </trkpt>
      <trkpt lat="49.83231" lon="2.49537">
        <ele>100.5</ele>
        <time>2024-07-10T13:42:03Z</time>
      </trkpt>
      <trkpt lat="49.83231" lon="2.49537">
        <ele>100.5</ele>
        <time>2024-07-10T13:42:04Z</time>
      </trkpt>
      <trkpt lat="49.83231" lon="2.49537">
        <ele>100.5</ele>
        <time>2024-07-10T13:42:05Z</time>
      </trkpt>
      <trkpt lat="49.83232" lon="2.49537">
        <ele>100.5</ele>
        <time>2024-07-10T13:42:06Z</time>
      </trkpt>
      <trkpt lat="49.83232" lon="2.49537">
        <ele>100.5</ele>
        <time>2024-07-10T13:42:07Z</time>
      </trkpt>
      <trkpt lat="49.83232" lon="2.49537">
        <ele>100.5</ele>
        <time>2024-07-10T13:42:08Z</time>
      </trkpt>
      <trkpt lat="49.83232" lon="2.49537">
        <ele>100.5</ele>
        <time>2024-07-10T13:42:09Z</time>
      </trkpt>
      <trkpt lat="49.83232" lon="2.49537">
        <ele>100.5</ele>
        <time>2024-07-10T13:42:10Z</time>
      </trkpt>
      <trkpt lat="49.83232" lon="2.49537">
        <ele>100.5</ele>
        <time>2024-07-10T13:42:11Z</time>
      </trkpt>
      <trkpt lat="49.83232" lon="2.49537">
        <ele>100.5</ele>
        <time>2024-07-10T13:42:12Z</time>
      </trkpt>
      <trkpt lat="49.83231" lon="2.49537">
        <ele>100.5</ele>
        <time>2024-07-10T13:42:13Z</time>
      </trkpt>
      <trkpt lat="49.83231" lon="2.49537">
        <ele>100.5</ele>
        <time>2024-07-10T13:42:14Z</time>
      </trkpt>
      <trkpt lat="49.83231" lon="2.49537">
        <ele>100.5</ele>
        <time>2024-07-10T13:42:15Z</time>
      </trkpt>
      <trkpt lat="49.83231" lon="2.49537">
        <ele>100.5</ele>
        <time>2024-07-10T13:42:16Z</time>
      </trkpt>
      <trkpt lat="49.83231" lon="2.49537">
        <ele>100.5</ele>
        <time>2024-07-10T13:42:17Z</time>
      </trkpt>
      <trkpt lat="49.83231" lon="2.49537">
        <ele>100.5</ele>
        <time>2024-07-10T13:42:18Z</time>
      </trkpt>
      <trkpt lat="49.83231" lon="2.49537">
        <ele>100.5</ele>
        <time>2024-07-10T13:42:19Z</time>
      </trkpt>
      <trkpt lat="49.83231" lon="2.49537">
        <ele>100.5</ele>
        <time>2024-07-10T13:42:20Z</time>
      </trkpt>
      <trkpt lat="49.83231" lon="2.49537">
        <ele>100.5</ele>
        <time>2024-07-10T13:42:21Z</time>
      </trkpt>
      <trkpt lat="49.83231" lon="2.49537">
        <ele>100.5</ele>
        <time>2024-07-10T13:42:22Z</time>
      </trkpt>
      <trkpt lat="49.83231" lon="2.49537">
        <ele>100.5</ele>
        <time>2024-07-10T13:42:23Z</time>
      </trkpt>
      <trkpt lat="49.83229" lon="2.49539">
        <ele>100.5</ele>
        <time>2024-07-10T13:42:24Z</time>
      </trkpt>
      <trkpt lat="49.83229" lon="2.49538">
        <ele>100.5</ele>
        <time>2024-07-10T13:42:25Z</time>
      </trkpt>
      <trkpt lat="49.83229" lon="2.49537">
        <ele>100.5</ele>
        <time>2024-07-10T13:42:26Z</time>
      </trkpt>
      <trkpt lat="49.83231" lon="2.49537">
        <ele>100.5</ele>
        <time>2024-07-10T13:42:27Z</time>
      </trkpt>
      <trkpt lat="49.83231" lon="2.49534">
        <ele>100.4</ele>
        <time>2024-07-10T13:42:28Z</time>
      </trkpt>
      <trkpt lat="49.83231" lon="2.49532">
        <ele>100.4</ele>
        <time>2024-07-10T13:42:29Z</time>
      </trkpt>
      <trkpt lat="49.83232" lon="2.49531">
        <ele>100.4</ele>
        <time>2024-07-10T13:42:30Z</time>
      </trkpt>
      <trkpt lat="49.83232" lon="2.4953">
        <ele>100.4</ele>
        <time>2024-07-10T13:42:31Z</time>
      </trkpt>
      <trkpt lat="49.83232" lon="2.49529">
        <ele>100.4</ele>
        <time>2024-07-10T13:42:32Z</time>
      </trkpt>
      <trkpt lat="49.83232" lon="2.49528">
        <ele>100.4</ele>
        <time>2024-07-10T13:42:33Z</time>
      </trkpt>
      <trkpt lat="49.83233" lon="2.49527">
        <ele>100.4</ele>
        <time>2024-07-10T13:42:34Z</time>
      </trkpt>
      <trkpt lat="49.83233" lon="2.49526">
        <ele>100.4</ele>
        <time>2024-07-10T13:42:35Z</time>
      </trkpt>
      <trkpt lat="49.83233" lon="2.49525">
        <ele>100.4</ele>
        <time>2024-07-10T13:42:36Z</time>
      </trkpt>
      <trkpt lat="49.83234" lon="2.49523">
        <ele>100.4</ele>
        <time>2024-07-10T13:42:37Z</time>
      </trkpt>
      <trkpt lat="49.83234" lon="2.49522">
        <ele>100.4</ele>
        <time>2024-07-10T13:42:38Z</time>
      </trkpt>
      <trkpt lat="49.83235" lon="2.49521">
        <ele>100.4</ele>
        <time>2024-07-10T13:42:39Z</time>
      </trkpt>
      <trkpt lat="49.83236" lon="2.4952">
        <ele>100.4</ele>
        <time>2024-07-10T13:42:40Z</time>
      </trkpt>
      <trkpt lat="49.83237" lon="2.49519">
        <ele>100.3</ele>
        <time>2024-07-10T13:42:41Z</time>
      </trkpt>
      <trkpt lat="49.83237" lon="2.49518">
        <ele>100.3</ele>
        <time>2024-07-10T13:42:42Z</time>
      </trkpt>
      <trkpt lat="49.83237" lon="2.49516">
        <ele>100.3</ele>
        <time>2024-07-10T13:42:43Z</time>
      </trkpt>
      <trkpt lat="49.83238" lon="2.49515">
        <ele>100.3</ele>
        <time>2024-07-10T13:42:44Z</time>
      </trkpt>
      <trkpt lat="49.83238" lon="2.49514">
        <ele>100.3</ele>
        <time>2024-07-10T13:42:45Z</time>
      </trkpt>
      <trkpt lat="49.83238" lon="2.49512">
        <ele>100.3</ele>
        <time>2024-07-10T13:42:46Z</time>
      </trkpt>
      <trkpt lat="49.83239" lon="2.49511">
        <ele>100.3</ele>
        <time>2024-07-10T13:42:47Z</time>
      </trkpt>
      <trkpt lat="49.8324" lon="2.4951">
        <ele>100.3</ele>
        <time>2024-07-10T13:42:48Z</time>
      </trkpt>
      <trkpt lat="49.8324" lon="2.49509">
        <ele>100.3</ele>
        <time>2024-07-10T13:42:49Z</time>
      </trkpt>
      <trkpt lat="49.83241" lon="2.49508">
        <ele>100.2</ele>
        <time>2024-07-10T13:42:50Z</time>
      </trkpt>
      <trkpt lat="49.83241" lon="2.49506">
        <ele>100.2</ele>
        <time>2024-07-10T13:42:51Z</time>
      </trkpt>
      <trkpt lat="49.83241" lon="2.49505">
        <ele>100.2</ele>
        <time>2024-07-10T13:42:52Z</time>
      </trkpt>
      <trkpt lat="49.83242" lon="2.49504">
        <ele>100.2</ele>
        <time>2024-07-10T13:42:53Z</time>
      </trkpt>
      <trkpt lat="49.83242" lon="2.49502">
        <ele>100.2</ele>
        <time>2024-07-10T13:42:54Z</time>
      </trkpt>
      <trkpt lat="49.83243" lon="2.49501">
        <ele>100.2</ele>
        <time>2024-07-10T13:42:55Z</time>
      </trkpt>
      <trkpt lat="49.83243" lon="2.495">
        <ele>100.2</ele>
        <time>2024-07-10T13:42:56Z</time>
      </trkpt>
      <trkpt lat="49.83244" lon="2.49498">
        <ele>100.2</ele>
        <time>2024-07-10T13:42:57Z</time>
      </trkpt>
      <trkpt lat="49.83244" lon="2.49497">
        <ele>100.1</ele>
        <time>2024-07-10T13:42:58Z</time>
      </trkpt>
      <trkpt lat="49.83245" lon="2.49495">
        <ele>100.1</ele>
        <time>2024-07-10T13:42:59Z</time>
      </trkpt>
      <trkpt lat="49.83245" lon="2.49494">
        <ele>100.1</ele>
        <time>2024-07-10T13:43:00Z</time>
      </trkpt>
      <trkpt lat="49.83245" lon="2.49492">
        <ele>100.1</ele>
        <time>2024-07-10T13:43:01Z</time>
      </trkpt>
      <trkpt lat="49.83246" lon="2.49491">
        <ele>100.1</ele>
        <time>2024-07-10T13:43:02Z</time>
      </trkpt>
      <trkpt lat="49.83246" lon="2.49489">
        <ele>100.1</ele>
        <time>2024-07-10T13:43:03Z</time>
      </trkpt>
      <trkpt lat="49.83247" lon="2.49487">
        <ele>100.1</ele>
        <time>2024-07-10T13:43:04Z</time>
      </trkpt>
      <trkpt lat="49.83247" lon="2.49486">
        <ele>100</ele>
        <time>2024-07-10T13:43:05Z</time>
      </trkpt>
      <trkpt lat="49.83248" lon="2.49484">
        <ele>100</ele>
        <time>2024-07-10T13:43:06Z</time>
      </trkpt>
      <trkpt lat="49.83248" lon="2.49482">
        <ele>100</ele>
        <time>2024-07-10T13:43:07Z</time>
      </trkpt>
      <trkpt lat="49.83248" lon="2.49481">
        <ele>100</ele>
        <time>2024-07-10T13:43:08Z</time>
      </trkpt>
      <trkpt lat="49.83249" lon="2.49479">
        <ele>100</ele>
        <time>2024-07-10T13:43:09Z</time>
      </trkpt>
      <trkpt lat="49.83249" lon="2.49477">
        <ele>100</ele>
        <time>2024-07-10T13:43:10Z</time>
      </trkpt>
      <trkpt lat="49.8325" lon="2.49476">
        <ele>100</ele>
        <time>2024-07-10T13:43:11Z</time>
      </trkpt>
      <trkpt lat="49.8325" lon="2.49474">
        <ele>99.9</ele>
        <time>2024-07-10T13:43:12Z</time>
      </trkpt>
      <trkpt lat="49.8325" lon="2.49473">
        <ele>99.9</ele>
        <time>2024-07-10T13:43:13Z</time>
      </trkpt>
      <trkpt lat="49.83251" lon="2.49471">
        <ele>99.9</ele>
        <time>2024-07-10T13:43:14Z</time>
      </trkpt>
      <trkpt lat="49.83251" lon="2.49469">
        <ele>99.9</ele>
        <time>2024-07-10T13:43:15Z</time>
      </trkpt>
      <trkpt lat="49.83251" lon="2.49468">
        <ele>99.9</ele>
        <time>2024-07-10T13:43:16Z</time>
      </trkpt>
      <trkpt lat="49.83251" lon="2.49466">
        <ele>99.9</ele>
        <time>2024-07-10T13:43:17Z</time>
      </trkpt>
      <trkpt lat="49.83252" lon="2.49464">
        <ele>99.9</ele>
        <time>2024-07-10T13:43:18Z</time>
      </trkpt>
      <trkpt lat="49.83252" lon="2.49463">
        <ele>99.8</ele>
        <time>2024-07-10T13:43:19Z</time>
      </trkpt>
      <trkpt lat="49.83252" lon="2.49461">
        <ele>99.8</ele>
        <time>2024-07-10T13:43:20Z</time>
      </trkpt>
      <trkpt lat="49.83253" lon="2.4946">
        <ele>99.8</ele>
        <time>2024-07-10T13:43:21Z</time>
      </trkpt>
      <trkpt lat="49.83254" lon="2.49458">
        <ele>99.8</ele>
        <time>2024-07-10T13:43:22Z</time>
      </trkpt>
      <trkpt lat="49.83254" lon="2.49457">
        <ele>99.8</ele>
        <time>2024-07-10T13:43:23Z</time>
      </trkpt>
      <trkpt lat="49.83255" lon="2.49455">
        <ele>99.8</ele>
        <time>2024-07-10T13:43:25Z</time>
      </trkpt>
      <trkpt lat="49.83255" lon="2.49454">
        <ele>99.8</ele>
        <time>2024-07-10T13:43:26Z</time>
      </trkpt>
      <trkpt lat="49.83255" lon="2.49452">
        <ele>99.7</ele>
        <time>2024-07-10T13:43:27Z</time>
      </trkpt>
      <trkpt lat="49.83256" lon="2.49451">
        <ele>99.7</ele>
        <time>2024-07-10T13:43:28Z</time>
      </trkpt>
      <trkpt lat="49.83256" lon="2.49449">
        <ele>99.7</ele>
        <time>2024-07-10T13:43:29Z</time>
      </trkpt>
      <trkpt lat="49.83257" lon="2.49448">
        <ele>99.7</ele>
        <time>2024-07-10T13:43:30Z</time>
      </trkpt>
      <trkpt lat="49.83257" lon="2.49446">
        <ele>99.7</ele>
        <time>2024-07-10T13:43:31Z</time>
      </trkpt>
      <trkpt lat="49.83258" lon="2.49445">
        <ele>99.7</ele>
        <time>2024-07-10T13:43:32Z</time>
      </trkpt>
      <trkpt lat="49.83258" lon="2.49443">
        <ele>99.7</ele>
        <time>2024-07-10T13:43:33Z</time>
      </trkpt>
      <trkpt lat="49.83259" lon="2.49442">
        <ele>99.6</ele>
        <time>2024-07-10T13:43:34Z</time>
      </trkpt>
      <trkpt lat="49.83259" lon="2.4944">
        <ele>99.6</ele>
        <time>2024-07-10T13:43:35Z</time>
      </trkpt>
      <trkpt lat="49.8326" lon="2.49438">
        <ele>99.6</ele>
        <time>2024-07-10T13:43:36Z</time>
      </trkpt>
      <trkpt lat="49.8326" lon="2.49436">
        <ele>99.6</ele>
        <time>2024-07-10T13:43:37Z</time>
      </trkpt>
      <trkpt lat="49.83261" lon="2.49435">
        <ele>99.6</ele>
        <time>2024-07-10T13:43:38Z</time>
      </trkpt>
      <trkpt lat="49.83261" lon="2.49434">
        <ele>99.6</ele>
        <time>2024-07-10T13:43:39Z</time>
      </trkpt>
      <trkpt lat="49.83261" lon="2.49432">
        <ele>99.6</ele>
        <time>2024-07-10T13:43:40Z</time>
      </trkpt>
      <trkpt lat="49.83261" lon="2.4943">
        <ele>99.5</ele>
        <time>2024-07-10T13:43:41Z</time>
      </trkpt>
      <trkpt lat="49.83262" lon="2.49429">
        <ele>99.5</ele>
        <time>2024-07-10T13:43:42Z</time>
      </trkpt>
      <trkpt lat="49.83262" lon="2.49427">
        <ele>99.5</ele>
        <time>2024-07-10T13:43:43Z</time>
      </trkpt>
      <trkpt lat="49.83262" lon="2.49425">
        <ele>99.5</ele>
        <time>2024-07-10T13:43:44Z</time>
      </trkpt>
      <trkpt lat="49.83262" lon="2.49423">
        <ele>99.5</ele>
        <time>2024-07-10T13:43:45Z</time>
      </trkpt>
      <trkpt lat="49.83263" lon="2.49422">
        <ele>99.5</ele>
        <time>2024-07-10T13:43:46Z</time>
      </trkpt>
      <trkpt lat="49.83263" lon="2.4942">
        <ele>99.5</ele>
        <time>2024-07-10T13:43:47Z</time>
      </trkpt>
      <trkpt lat="49.83263" lon="2.49418">
        <ele>99.4</ele>
        <time>2024-07-10T13:43:48Z</time>
      </trkpt>
      <trkpt lat="49.83264" lon="2.49417">
        <ele>99.4</ele>
        <time>2024-07-10T13:43:49Z</time>
      </trkpt>
      <trkpt lat="49.83264" lon="2.49415">
        <ele>99.4</ele>
        <time>2024-07-10T13:43:50Z</time>
      </trkpt>
      <trkpt lat="49.83264" lon="2.49414">
        <ele>99.4</ele>
        <time>2024-07-10T13:43:51Z</time>
      </trkpt>
      <trkpt lat="49.83265" lon="2.49412">
        <ele>99.4</ele>
        <time>2024-07-10T13:43:52Z</time>
      </trkpt>
      <trkpt lat="49.83265" lon="2.4941">
        <ele>99.4</ele>
        <time>2024-07-10T13:43:53Z</time>
      </trkpt>
      <trkpt lat="49.83266" lon="2.49409">
        <ele>99.4</ele>
        <time>2024-07-10T13:43:54Z</time>
      </trkpt>
      <trkpt lat="49.83266" lon="2.49407">
        <ele>99.4</ele>
        <time>2024-07-10T13:43:55Z</time>
      </trkpt>
      <trkpt lat="49.83267" lon="2.49406">
        <ele>99.3</ele>
        <time>2024-07-10T13:43:56Z</time>
      </trkpt>
      <trkpt lat="49.83267" lon="2.49404">
        <ele>99.3</ele>
        <time>2024-07-10T13:43:57Z</time>
      </trkpt>
      <trkpt lat="49.83268" lon="2.49403">
        <ele>99.3</ele>
        <time>2024-07-10T13:43:58Z</time>
      </trkpt>
      <trkpt lat="49.83268" lon="2.49401">
        <ele>99.3</ele>
        <time>2024-07-10T13:43:59Z</time>
      </trkpt>
      <trkpt lat="49.83268" lon="2.494">
        <ele>99.3</ele>
        <time>2024-07-10T13:44:00Z</time>
      </trkpt>
      <trkpt lat="49.83269" lon="2.49398">
        <ele>99.3</ele>
        <time>2024-07-10T13:44:01Z</time>
      </trkpt>
      <trkpt lat="49.83269" lon="2.49397">
        <ele>99.3</ele>
        <time>2024-07-10T13:44:02Z</time>
      </trkpt>
      <trkpt lat="49.83269" lon="2.49396">
        <ele>99.3</ele>
        <time>2024-07-10T13:44:03Z</time>
      </trkpt>
      <trkpt lat="49.8327" lon="2.49394">
        <ele>99.2</ele>
        <time>2024-07-10T13:44:04Z</time>
      </trkpt>
      <trkpt lat="49.8327" lon="2.49393">
        <ele>99.2</ele>
        <time>2024-07-10T13:44:05Z</time>
      </trkpt>
      <trkpt lat="49.83271" lon="2.49391">
        <ele>99.2</ele>
        <time>2024-07-10T13:44:06Z</time>
      </trkpt>
      <trkpt lat="49.83271" lon="2.4939">
        <ele>99.2</ele>
        <time>2024-07-10T13:44:07Z</time>
      </trkpt>
      <trkpt lat="49.83272" lon="2.49389">
        <ele>99.2</ele>
        <time>2024-07-10T13:44:08Z</time>
      </trkpt>
      <trkpt lat="49.83272" lon="2.49388">
        <ele>99.2</ele>
        <time>2024-07-10T13:44:09Z</time>
      </trkpt>
      <trkpt lat="49.83273" lon="2.49386">
        <ele>99.2</ele>
        <time>2024-07-10T13:44:10Z</time>
      </trkpt>
      <trkpt lat="49.83273" lon="2.49385">
        <ele>99.2</ele>
        <time>2024-07-10T13:44:11Z</time>
      </trkpt>
      <trkpt lat="49.83274" lon="2.49384">
        <ele>99.1</ele>
        <time>2024-07-10T13:44:12Z</time>
      </trkpt>
      <trkpt lat="49.83275" lon="2.49382">
        <ele>99.1</ele>
        <time>2024-07-10T13:44:13Z</time>
      </trkpt>
      <trkpt lat="49.83275" lon="2.49381">
        <ele>99.1</ele>
        <time>2024-07-10T13:44:14Z</time>
      </trkpt>
      <trkpt lat="49.83276" lon="2.4938">
        <ele>99.1</ele>
        <time>2024-07-10T13:44:15Z</time>
      </trkpt>
      <trkpt lat="49.83276" lon="2.49378">
        <ele>99.1</ele>
        <time>2024-07-10T13:44:16Z</time>
      </trkpt>
      <trkpt lat="49.83277" lon="2.49377">
        <ele>99.1</ele>
        <time>2024-07-10T13:44:17Z</time>
      </trkpt>
      <trkpt lat="49.83277" lon="2.49376">
        <ele>99.1</ele>
        <time>2024-07-10T13:44:18Z</time>
      </trkpt>
      <trkpt lat="49.83277" lon="2.49374">
        <ele>99.1</ele>
        <time>2024-07-10T13:44:19Z</time>
      </trkpt>
      <trkpt lat="49.83278" lon="2.49373">
        <ele>99.1</ele>
        <time>2024-07-10T13:44:20Z</time>
      </trkpt>
      <trkpt lat="49.83278" lon="2.49371">
        <ele>99</ele>
        <time>2024-07-10T13:44:21Z</time>
      </trkpt>
      <trkpt lat="49.83279" lon="2.4937">
        <ele>99</ele>
        <time>2024-07-10T13:44:22Z</time>
      </trkpt>
      <trkpt lat="49.83279" lon="2.49369">
        <ele>99</ele>
        <time>2024-07-10T13:44:23Z</time>
      </trkpt>
      <trkpt lat="49.83279" lon="2.49367">
        <ele>99</ele>
        <time>2024-07-10T13:44:24Z</time>
      </trkpt>
      <trkpt lat="49.8328" lon="2.49366">
        <ele>99</ele>
        <time>2024-07-10T13:44:25Z</time>
      </trkpt>
      <trkpt lat="49.8328" lon="2.49365">
        <ele>99</ele>
        <time>2024-07-10T13:44:26Z</time>
      </trkpt>
      <trkpt lat="49.8328" lon="2.49364">
        <ele>99</ele>
        <time>2024-07-10T13:44:27Z</time>
      </trkpt>
      <trkpt lat="49.83281" lon="2.49362">
        <ele>99</ele>
        <time>2024-07-10T13:44:28Z</time>
      </trkpt>
      <trkpt lat="49.83281" lon="2.49361">
        <ele>99</ele>
        <time>2024-07-10T13:44:29Z</time>
      </trkpt>
      <trkpt lat="49.83281" lon="2.4936">
        <ele>98.9</ele>
        <time>2024-07-10T13:44:30Z</time>
      </trkpt>
      <trkpt lat="49.83282" lon="2.49359">
        <ele>98.9</ele>
        <time>2024-07-10T13:44:31Z</time>
      </trkpt>
      <trkpt lat="49.83282" lon="2.49358">
        <ele>98.9</ele>
        <time>2024-07-10T13:44:32Z</time>
      </trkpt>
      <trkpt lat="49.83282" lon="2.49356">
        <ele>98.9</ele>
        <time>2024-07-10T13:44:33Z</time>
      </trkpt>
      <trkpt lat="49.83283" lon="2.49355">
        <ele>98.9</ele>
        <time>2024-07-10T13:44:34Z</time>
      </trkpt>
      <trkpt lat="49.83283" lon="2.49353">
        <ele>98.9</ele>
        <time>2024-07-10T13:44:35Z</time>
      </trkpt>
      <trkpt lat="49.83283" lon="2.49352">
        <ele>98.9</ele>
        <time>2024-07-10T13:44:36Z</time>
      </trkpt>
      <trkpt lat="49.83284" lon="2.49351">
        <ele>98.9</ele>
        <time>2024-07-10T13:44:37Z</time>
      </trkpt>
      <trkpt lat="49.83284" lon="2.49349">
        <ele>98.8</ele>
        <time>2024-07-10T13:44:38Z</time>
      </trkpt>
      <trkpt lat="49.83284" lon="2.49347">
        <ele>98.8</ele>
        <time>2024-07-10T13:44:39Z</time>
      </trkpt>
      <trkpt lat="49.83285" lon="2.49345">
        <ele>98.8</ele>
        <time>2024-07-10T13:44:40Z</time>
      </trkpt>
      <trkpt lat="49.83285" lon="2.49344">
        <ele>98.8</ele>
        <time>2024-07-10T13:44:41Z</time>
      </trkpt>
      <trkpt lat="49.83285" lon="2.49342">
        <ele>98.8</ele>
        <time>2024-07-10T13:44:42Z</time>
      </trkpt>
      <trkpt lat="49.83286" lon="2.49341">
        <ele>98.7</ele>
        <time>2024-07-10T13:44:43Z</time>
      </trkpt>
      <trkpt lat="49.83286" lon="2.4934">
        <ele>98.7</ele>
        <time>2024-07-10T13:44:44Z</time>
      </trkpt>
      <trkpt lat="49.83287" lon="2.49338">
        <ele>98.7</ele>
        <time>2024-07-10T13:44:45Z</time>
      </trkpt>
      <trkpt lat="49.83287" lon="2.49337">
        <ele>98.7</ele>
        <time>2024-07-10T13:44:46Z</time>
      </trkpt>
      <trkpt lat="49.83288" lon="2.49336">
        <ele>98.7</ele>
        <time>2024-07-10T13:44:47Z</time>
      </trkpt>
      <trkpt lat="49.83288" lon="2.49334">
        <ele>98.7</ele>
        <time>2024-07-10T13:44:48Z</time>
      </trkpt>
      <trkpt lat="49.83288" lon="2.49332">
        <ele>98.6</ele>
        <time>2024-07-10T13:44:49Z</time>
      </trkpt>
      <trkpt lat="49.83289" lon="2.49331">
        <ele>98.6</ele>
        <time>2024-07-10T13:44:50Z</time>
      </trkpt>
      <trkpt lat="49.83289" lon="2.49329">
        <ele>98.6</ele>
        <time>2024-07-10T13:44:51Z</time>
      </trkpt>
      <trkpt lat="49.8329" lon="2.49328">
        <ele>98.6</ele>
        <time>2024-07-10T13:44:52Z</time>
      </trkpt>
      <trkpt lat="49.8329" lon="2.49327">
        <ele>98.6</ele>
        <time>2024-07-10T13:44:53Z</time>
      </trkpt>
      <trkpt lat="49.8329" lon="2.49325">
        <ele>98.5</ele>
        <time>2024-07-10T13:44:54Z</time>
      </trkpt>
      <trkpt lat="49.83291" lon="2.49324">
        <ele>98.5</ele>
        <time>2024-07-10T13:44:55Z</time>
      </trkpt>
      <trkpt lat="49.83291" lon="2.49322">
        <ele>98.5</ele>
        <time>2024-07-10T13:44:56Z</time>
      </trkpt>
      <trkpt lat="49.83291" lon="2.4932">
        <ele>98.5</ele>
        <time>2024-07-10T13:44:57Z</time>
      </trkpt>
      <trkpt lat="49.83291" lon="2.49319">
        <ele>98.5</ele>
        <time>2024-07-10T13:44:58Z</time>
      </trkpt>
      <trkpt lat="49.83292" lon="2.49317">
        <ele>98.4</ele>
        <time>2024-07-10T13:44:59Z</time>
      </trkpt>
      <trkpt lat="49.83292" lon="2.49316">
        <ele>98.4</ele>
        <time>2024-07-10T13:45:00Z</time>
      </trkpt>
      <trkpt lat="49.83292" lon="2.49314">
        <ele>98.4</ele>
        <time>2024-07-10T13:45:01Z</time>
      </trkpt>
      <trkpt lat="49.83293" lon="2.49311">
        <ele>98.4</ele>
        <time>2024-07-10T13:45:02Z</time>
      </trkpt>
      <trkpt lat="49.83293" lon="2.4931">
        <ele>98.3</ele>
        <time>2024-07-10T13:45:03Z</time>
      </trkpt>
      <trkpt lat="49.83293" lon="2.49308">
        <ele>98.3</ele>
        <time>2024-07-10T13:45:04Z</time>
      </trkpt>
      <trkpt lat="49.83294" lon="2.49306">
        <ele>98.3</ele>
        <time>2024-07-10T13:45:05Z</time>
      </trkpt>
      <trkpt lat="49.83294" lon="2.49304">
        <ele>98.3</ele>
        <time>2024-07-10T13:45:06Z</time>
      </trkpt>
      <trkpt lat="49.83295" lon="2.49302">
        <ele>98.3</ele>
        <time>2024-07-10T13:45:08Z</time>
      </trkpt>
      <trkpt lat="49.83295" lon="2.493">
        <ele>98.2</ele>
        <time>2024-07-10T13:45:09Z</time>
      </trkpt>
      <trkpt lat="49.83296" lon="2.49298">
        <ele>98.2</ele>
        <time>2024-07-10T13:45:10Z</time>
      </trkpt>
      <trkpt lat="49.83296" lon="2.49296">
        <ele>98.2</ele>
        <time>2024-07-10T13:45:11Z</time>
      </trkpt>
      <trkpt lat="49.83296" lon="2.49293">
        <ele>98.2</ele>
        <time>2024-07-10T13:45:12Z</time>
      </trkpt>
      <trkpt lat="49.83322" lon="2.49081">
        <ele>96.8</ele>
        <time>2024-07-10T13:50:25Z</time>
      </trkpt>
      <trkpt lat="49.83326" lon="2.4908">
        <ele>96.8</ele>
        <time>2024-07-10T13:50:26Z</time>
      </trkpt>
      <trkpt lat="49.83331" lon="2.49078">
        <ele>96.8</ele>
        <time>2024-07-10T13:50:27Z</time>
      </trkpt>
      <trkpt lat="49.83333" lon="2.49077">
        <ele>96.8</ele>
        <time>2024-07-10T13:50:35Z</time>
      </trkpt>
      <trkpt lat="49.83333" lon="2.49077">
        <ele>96.8</ele>
        <time>2024-07-10T13:50:36Z</time>
      </trkpt>
      <trkpt lat="49.83333" lon="2.49077">
        <ele>96.8</ele>
        <time>2024-07-10T13:50:37Z</time>
      </trkpt>
      <trkpt lat="49.83333" lon="2.49077">
        <ele>96.8</ele>
        <time>2024-07-10T13:50:38Z</time>
      </trkpt>
      <trkpt lat="49.83333" lon="2.49077">
        <ele>96.8</ele>
        <time>2024-07-10T13:50:39Z</time>
      </trkpt>
      <trkpt lat="49.83333" lon="2.49076">
        <ele>96.8</ele>
        <time>2024-07-10T13:50:40Z</time>
      </trkpt>
      <trkpt lat="49.83333" lon="2.49076">
        <ele>96.8</ele>
        <time>2024-07-10T13:50:41Z</time>
      </trkpt>
      <trkpt lat="49.83333" lon="2.49076">
        <ele>96.8</ele>
        <time>2024-07-10T13:50:42Z</time>
      </trkpt>
      <trkpt lat="49.83333" lon="2.49076">
        <ele>96.8</ele>
        <time>2024-07-10T13:50:43Z</time>
      </trkpt>
      <trkpt lat="49.83333" lon="2.49076">
        <ele>96.8</ele>
        <time>2024-07-10T13:50:44Z</time>
      </trkpt>
      <trkpt lat="49.83333" lon="2.49076">
        <ele>96.8</ele>
        <time>2024-07-10T13:50:45Z</time>
      </trkpt>
      <trkpt lat="49.83333" lon="2.49076">
        <ele>96.8</ele>
        <time>2024-07-10T13:50:46Z</time>
      </trkpt>
      <trkpt lat="49.83333" lon="2.49076">
        <ele>96.8</ele>
        <time>2024-07-10T13:50:47Z</time>
      </trkpt>
      <trkpt lat="49.83333" lon="2.49075">
        <ele>96.8</ele>
        <time>2024-07-10T13:50:48Z</time>
      </trkpt>
      <trkpt lat="49.83333" lon="2.49075">
        <ele>96.8</ele>
        <time>2024-07-10T13:50:49Z</time>
      </trkpt>
      <trkpt lat="49.83334" lon="2.49075">
        <ele>96.8</ele>
        <time>2024-07-10T13:50:50Z</time>
      </trkpt>
      <trkpt lat="49.83334" lon="2.49075">
        <ele>96.8</ele>
        <time>2024-07-10T13:50:51Z</time>
      </trkpt>
      <trkpt lat="49.83334" lon="2.49075">
        <ele>96.8</ele>
        <time>2024-07-10T13:50:52Z</time>
      </trkpt>
      <trkpt lat="49.83334" lon="2.49075">
        <ele>96.8</ele>
        <time>2024-07-10T13:50:53Z</time>
      </trkpt>
      <trkpt lat="49.83334" lon="2.49075">
        <ele>96.8</ele>
        <time>2024-07-10T13:50:54Z</time>
      </trkpt>
      <trkpt lat="49.83334" lon="2.49075">
        <ele>96.8</ele>
        <time>2024-07-10T13:50:55Z</time>
      </trkpt>
      <trkpt lat="49.83334" lon="2.49074">
        <ele>96.8</ele>
        <time>2024-07-10T13:50:56Z</time>
      </trkpt>
      <trkpt lat="49.83334" lon="2.49074">
        <ele>96.8</ele>
        <time>2024-07-10T13:50:57Z</time>
      </trkpt>
      <trkpt lat="49.83334" lon="2.49074">
        <ele>96.8</ele>
        <time>2024-07-10T13:50:58Z</time>
      </trkpt>
      <trkpt lat="49.83334" lon="2.49074">
        <ele>96.8</ele>
        <time>2024-07-10T13:50:59Z</time>
      </trkpt>
      <trkpt lat="49.83334" lon="2.49074">
        <ele>96.8</ele>
        <time>2024-07-10T13:51:00Z</time>
      </trkpt>
      <trkpt lat="49.83334" lon="2.49074">
        <ele>96.8</ele>
        <time>2024-07-10T13:51:01Z</time>
      </trkpt>
      <trkpt lat="49.83334" lon="2.49074">
        <ele>96.8</ele>
        <time>2024-07-10T13:51:02Z</time>
      </trkpt>
      <trkpt lat="49.83334" lon="2.49074">
        <ele>96.8</ele>
        <time>2024-07-10T13:51:03Z</time>
      </trkpt>
      <trkpt lat="49.83334" lon="2.49074">
        <ele>96.8</ele>
        <time>2024-07-10T13:51:04Z</time>
      </trkpt>
      <trkpt lat="49.83334" lon="2.49073">
        <ele>96.8</ele>
        <time>2024-07-10T13:51:05Z</time>
      </trkpt>
      <trkpt lat="49.83334" lon="2.49073">
        <ele>96.8</ele>
        <time>2024-07-10T13:51:06Z</time>
      </trkpt>
      <trkpt lat="49.83334" lon="2.49073">
        <ele>96.8</ele>
        <time>2024-07-10T13:51:08Z</time>
      </trkpt>
      <trkpt lat="49.83334" lon="2.49073">
        <ele>96.8</ele>
        <time>2024-07-10T13:51:09Z</time>
      </trkpt>
      <trkpt lat="49.83334" lon="2.49073">
        <ele>96.8</ele>
        <time>2024-07-10T13:51:10Z</time>
      </trkpt>
      <trkpt lat="49.83334" lon="2.49073">
        <ele>96.8</ele>
        <time>2024-07-10T13:51:11Z</time>
      </trkpt>
      <trkpt lat="49.83334" lon="2.49073">
        <ele>96.8</ele>
        <time>2024-07-10T13:51:12Z</time>
      </trkpt>
      <trkpt lat="49.83334" lon="2.49073">
        <ele>96.8</ele>
        <time>2024-07-10T13:51:13Z</time>
      </trkpt>
      <trkpt lat="49.83334" lon="2.49072">
        <ele>96.8</ele>
        <time>2024-07-10T13:51:14Z</time>
      </trkpt>
      <trkpt lat="49.83334" lon="2.49072">
        <ele>96.8</ele>
        <time>2024-07-10T13:51:15Z</time>
      </trkpt>
      <trkpt lat="49.83334" lon="2.49072">
        <ele>96.8</ele>
        <time>2024-07-10T13:51:16Z</time>
      </trkpt>
      <trkpt lat="49.83334" lon="2.49072">
        <ele>96.8</ele>
        <time>2024-07-10T13:51:17Z</time>
      </trkpt>
      <trkpt lat="49.83334" lon="2.49072">
        <ele>96.8</ele>
        <time>2024-07-10T13:51:18Z</time>
      </trkpt>
      <trkpt lat="49.83334" lon="2.49072">
        <ele>96.8</ele>
        <time>2024-07-10T13:51:19Z</time>
      </trkpt>
      <trkpt lat="49.83334" lon="2.49072">
        <ele>96.8</ele>
        <time>2024-07-10T13:51:20Z</time>
      </trkpt>
      <trkpt lat="49.83334" lon="2.49072">
        <ele>96.8</ele>
        <time>2024-07-10T13:51:21Z</time>
      </trkpt>
      <trkpt lat="49.83335" lon="2.4907">
        <ele>96.8</ele>
        <time>2024-07-10T13:51:22Z</time>
      </trkpt>
      <trkpt lat="49.83335" lon="2.4907">
        <ele>96.8</ele>
        <time>2024-07-10T13:51:23Z</time>
      </trkpt>
      <trkpt lat="49.83335" lon="2.49068">
        <ele>96.8</ele>
        <time>2024-07-10T13:51:24Z</time>
      </trkpt>
      <trkpt lat="49.83336" lon="2.49067">
        <ele>96.8</ele>
        <time>2024-07-10T13:51:25Z</time>
      </trkpt>
      <trkpt lat="49.83336" lon="2.49065">
        <ele>96.7</ele>
        <time>2024-07-10T13:51:26Z</time>
      </trkpt>
      <trkpt lat="49.83336" lon="2.49063">
        <ele>96.7</ele>
        <time>2024-07-10T13:51:27Z</time>
      </trkpt>
      <trkpt lat="49.83337" lon="2.49062">
        <ele>96.7</ele>
        <time>2024-07-10T13:51:28Z</time>
      </trkpt>
      <trkpt lat="49.83338" lon="2.49061">
        <ele>96.7</ele>
        <time>2024-07-10T13:51:29Z</time>
      </trkpt>
      <trkpt lat="49.83339" lon="2.49059">
        <ele>96.7</ele>
        <time>2024-07-10T13:51:30Z</time>
      </trkpt>
      <trkpt lat="49.83339" lon="2.49059">
        <ele>96.7</ele>
        <time>2024-07-10T13:51:31Z</time>
      </trkpt>
      <trkpt lat="49.83339" lon="2.49058">
        <ele>96.7</ele>
        <time>2024-07-10T13:51:32Z</time>
      </trkpt>
      <trkpt lat="49.83339" lon="2.49057">
        <ele>96.7</ele>
        <time>2024-07-10T13:51:33Z</time>
      </trkpt>
      <trkpt lat="49.83339" lon="2.49056">
        <ele>96.7</ele>
        <time>2024-07-10T13:51:34Z</time>
      </trkpt>
      <trkpt lat="49.83339" lon="2.49055">
        <ele>96.7</ele>
        <time>2024-07-10T13:51:35Z</time>
      </trkpt>
      <trkpt lat="49.83338" lon="2.49056">
        <ele>96.7</ele>
        <time>2024-07-10T13:51:36Z</time>
      </trkpt>
      <trkpt lat="49.83338" lon="2.49057">
        <ele>96.7</ele>
        <time>2024-07-10T13:51:37Z</time>
      </trkpt>
      <trkpt lat="49.83338" lon="2.49057">
        <ele>96.7</ele>
        <time>2024-07-10T13:51:38Z</time>
      </trkpt>
      <trkpt lat="49.83339" lon="2.49057">
        <ele>96.7</ele>
        <time>2024-07-10T13:51:39Z</time>
      </trkpt>
      <trkpt lat="49.83339" lon="2.49057">
        <ele>96.7</ele>
        <time>2024-07-10T13:51:40Z</time>
      </trkpt>
      <trkpt lat="49.83339" lon="2.49056">
        <ele>96.7</ele>
        <time>2024-07-10T13:51:41Z</time>
      </trkpt>
      <trkpt lat="49.83339" lon="2.49056">
        <ele>96.7</ele>
        <time>2024-07-10T13:51:42Z</time>
      </trkpt>
      <trkpt lat="49.83339" lon="2.49056">
        <ele>96.7</ele>
        <time>2024-07-10T13:51:43Z</time>
      </trkpt>
      <trkpt lat="49.8334" lon="2.49056">
        <ele>96.7</ele>
        <time>2024-07-10T13:51:44Z</time>
      </trkpt>
      <trkpt lat="49.8334" lon="2.49056">
        <ele>96.7</ele>
        <time>2024-07-10T13:51:45Z</time>
      </trkpt>
      <trkpt lat="49.8334" lon="2.49056">
        <ele>96.7</ele>
        <time>2024-07-10T13:51:46Z</time>
      </trkpt>
      <trkpt lat="49.8334" lon="2.49055">
        <ele>96.7</ele>
        <time>2024-07-10T13:51:47Z</time>
      </trkpt>
      <trkpt lat="49.8334" lon="2.49055">
        <ele>96.7</ele>
        <time>2024-07-10T13:51:48Z</time>
      </trkpt>
      <trkpt lat="49.83341" lon="2.49054">
        <ele>96.7</ele>
        <time>2024-07-10T13:51:49Z</time>
      </trkpt>
      <trkpt lat="49.83342" lon="2.49052">
        <ele>96.7</ele>
        <time>2024-07-10T13:51:50Z</time>
      </trkpt>
      <trkpt lat="49.83343" lon="2.49051">
        <ele>96.7</ele>
        <time>2024-07-10T13:51:51Z</time>
      </trkpt>
      <trkpt lat="49.83343" lon="2.4905">
        <ele>96.7</ele>
        <time>2024-07-10T13:51:52Z</time>
      </trkpt>
      <trkpt lat="49.83344" lon="2.49048">
        <ele>96.7</ele>
        <time>2024-07-10T13:51:53Z</time>
      </trkpt>
      <trkpt lat="49.83345" lon="2.49047">
        <ele>96.7</ele>
        <time>2024-07-10T13:51:54Z</time>
      </trkpt>
      <trkpt lat="49.83345" lon="2.49045">
        <ele>96.7</ele>
        <time>2024-07-10T13:51:55Z</time>
      </trkpt>
      <trkpt lat="49.83346" lon="2.49044">
        <ele>96.7</ele>
        <time>2024-07-10T13:51:56Z</time>
      </trkpt>
      <trkpt lat="49.83346" lon="2.49043">
        <ele>96.7</ele>
        <time>2024-07-10T13:51:57Z</time>
      </trkpt>
      <trkpt lat="49.83347" lon="2.49042">
        <ele>96.7</ele>
        <time>2024-07-10T13:51:58Z</time>
      </trkpt>
      <trkpt lat="49.83348" lon="2.49041">
        <ele>96.7</ele>
        <time>2024-07-10T13:51:59Z</time>
      </trkpt>
      <trkpt lat="49.83348" lon="2.49039">
        <ele>96.7</ele>
        <time>2024-07-10T13:52:00Z</time>
      </trkpt>
      <trkpt lat="49.83349" lon="2.49038">
        <ele>96.7</ele>
        <time>2024-07-10T13:52:01Z</time>
      </trkpt>
      <trkpt lat="49.8335" lon="2.49037">
        <ele>96.7</ele>
        <time>2024-07-10T13:52:02Z</time>
      </trkpt>
      <trkpt lat="49.8335" lon="2.49036">
        <ele>96.7</ele>
        <time>2024-07-10T13:52:03Z</time>
      </trkpt>
      <trkpt lat="49.83351" lon="2.49035">
        <ele>96.7</ele>
        <time>2024-07-10T13:52:04Z</time>
      </trkpt>
      <trkpt lat="49.83351" lon="2.49034">
        <ele>96.7</ele>
        <time>2024-07-10T13:52:05Z</time>
      </trkpt>
      <trkpt lat="49.83351" lon="2.49033">
        <ele>96.7</ele>
        <time>2024-07-10T13:52:06Z</time>
      </trkpt>
      <trkpt lat="49.83352" lon="2.49032">
        <ele>96.6</ele>
        <time>2024-07-10T13:52:07Z</time>
      </trkpt>
      <trkpt lat="49.83353" lon="2.49029">
        <ele>96.6</ele>
        <time>2024-07-10T13:52:09Z</time>
      </trkpt>
      <trkpt lat="49.83353" lon="2.49028">
        <ele>96.6</ele>
        <time>2024-07-10T13:52:10Z</time>
      </trkpt>
      <trkpt lat="49.83354" lon="2.49027">
        <ele>96.6</ele>
        <time>2024-07-10T13:52:11Z</time>
      </trkpt>
      <trkpt lat="49.83354" lon="2.49025">
        <ele>96.6</ele>
        <time>2024-07-10T13:52:12Z</time>
      </trkpt>
      <trkpt lat="49.83354" lon="2.49023">
        <ele>96.6</ele>
        <time>2024-07-10T13:52:14Z</time>
      </trkpt>
      <trkpt lat="49.83355" lon="2.4902">
        <ele>96.6</ele>
        <time>2024-07-10T13:52:15Z</time>
      </trkpt>
      <trkpt lat="49.83355" lon="2.49019">
        <ele>96.6</ele>
        <time>2024-07-10T13:52:16Z</time>
      </trkpt>
    </trkseg>
  </trk>
</gpx>